<?xml version="1.0" encoding="UTF-8" standalone="no" ?>
<gpx xmlns="http://www.topografix.com/GPX/1/1" xmlns:xsi="http://www.w3.org/2001/XMLSchema-instance" xsi:schemaLocation="http://www.topografix.com/GPX/1/1 http://www.topografix.com/GPX/1/1/gpx.xsd" version="1.1" creator="VisuGPX - https://www.visugpx.com">
  <metadata>
    <name>Far_West_Realisé</name>
  </metadata>
  <trk>
    <name><![CDATA[J1 - Far west - Carcassonne - Mirepoix 😎]]></name>
    <extensions>
      <line xmlns="http://www.topografix.com/GPX/gpx_style/0/2">
        <color>008800</color>
        <width>4</width>
      </line>
    </extensions>
    <trkseg>
      <trkpt lat="43.21773" lon="2.35164">
        <ele>128</ele>
        <time>2022-09-02T08:44:27Z</time>
      </trkpt>
      <trkpt lat="43.21772" lon="2.35185">
        <ele>127.8</ele>
        <time>2022-09-02T08:44:34Z</time>
      </trkpt>
      <trkpt lat="43.21761" lon="2.35185">
        <ele>128</ele>
        <time>2022-09-02T08:44:38Z</time>
      </trkpt>
      <trkpt lat="43.21736" lon="2.35187">
        <ele>128.4</ele>
        <time>2022-09-02T08:44:47Z</time>
      </trkpt>
      <trkpt lat="43.21718" lon="2.35181">
        <ele>128.2</ele>
        <time>2022-09-02T08:44:54Z</time>
      </trkpt>
      <trkpt lat="43.21704" lon="2.3518">
        <ele>127.4</ele>
        <time>2022-09-02T08:45:00Z</time>
      </trkpt>
      <trkpt lat="43.21683" lon="2.35183">
        <ele>127.2</ele>
        <time>2022-09-02T08:45:09Z</time>
      </trkpt>
      <trkpt lat="43.21673" lon="2.35183">
        <ele>127.2</ele>
        <time>2022-09-02T08:45:14Z</time>
      </trkpt>
      <trkpt lat="43.21658" lon="2.35183">
        <ele>127.2</ele>
        <time>2022-09-02T08:45:21Z</time>
      </trkpt>
      <trkpt lat="43.21649" lon="2.35185">
        <ele>127</ele>
        <time>2022-09-02T08:45:26Z</time>
      </trkpt>
      <trkpt lat="43.21646" lon="2.35185">
        <ele>126.8</ele>
        <time>2022-09-02T08:45:27Z</time>
      </trkpt>
      <trkpt lat="43.21641" lon="2.35193">
        <ele>126.8</ele>
        <time>2022-09-02T08:45:31Z</time>
      </trkpt>
      <trkpt lat="43.2164" lon="2.35197">
        <ele>126.6</ele>
        <time>2022-09-02T08:45:34Z</time>
      </trkpt>
      <trkpt lat="43.21641" lon="2.35202">
        <ele>126.8</ele>
        <time>2022-09-02T08:45:37Z</time>
      </trkpt>
      <trkpt lat="43.21641" lon="2.35204">
        <ele>126.8</ele>
        <time>2022-09-02T08:45:38Z</time>
      </trkpt>
      <trkpt lat="43.21642" lon="2.35212">
        <ele>127</ele>
        <time>2022-09-02T08:45:45Z</time>
      </trkpt>
      <trkpt lat="43.21644" lon="2.35237">
        <ele>127</ele>
        <time>2022-09-02T08:45:53Z</time>
      </trkpt>
      <trkpt lat="43.21639" lon="2.35257">
        <ele>126.4</ele>
        <time>2022-09-02T08:46:00Z</time>
      </trkpt>
      <trkpt lat="43.21641" lon="2.35269">
        <ele>126.4</ele>
        <time>2022-09-02T08:55:55Z</time>
      </trkpt>
      <trkpt lat="43.21639" lon="2.35288">
        <ele>126.4</ele>
        <time>2022-09-02T08:56:02Z</time>
      </trkpt>
      <trkpt lat="43.21635" lon="2.35304">
        <ele>126</ele>
        <time>2022-09-02T08:56:09Z</time>
      </trkpt>
      <trkpt lat="43.21635" lon="2.35306">
        <ele>125.8</ele>
        <time>2022-09-02T08:56:10Z</time>
      </trkpt>
      <trkpt lat="43.21634" lon="2.35316">
        <ele>127.2</ele>
        <time>2022-09-02T08:56:14Z</time>
      </trkpt>
      <trkpt lat="43.21634" lon="2.35322">
        <ele>126.8</ele>
        <time>2022-09-02T08:56:16Z</time>
      </trkpt>
      <trkpt lat="43.21634" lon="2.3533">
        <ele>125.8</ele>
        <time>2022-09-02T08:56:18Z</time>
      </trkpt>
      <trkpt lat="43.21635" lon="2.35352">
        <ele>125</ele>
        <time>2022-09-02T08:56:23Z</time>
      </trkpt>
      <trkpt lat="43.21633" lon="2.35362">
        <ele>125.2</ele>
        <time>2022-09-02T08:56:26Z</time>
      </trkpt>
      <trkpt lat="43.21631" lon="2.35364">
        <ele>125.4</ele>
        <time>2022-09-02T08:56:27Z</time>
      </trkpt>
      <trkpt lat="43.21615" lon="2.35371">
        <ele>125.4</ele>
        <time>2022-09-02T08:56:33Z</time>
      </trkpt>
      <trkpt lat="43.21592" lon="2.35384">
        <ele>125</ele>
        <time>2022-09-02T08:56:40Z</time>
      </trkpt>
      <trkpt lat="43.21586" lon="2.35388">
        <ele>124.8</ele>
        <time>2022-09-02T08:56:42Z</time>
      </trkpt>
      <trkpt lat="43.21577" lon="2.35393">
        <ele>124.8</ele>
        <time>2022-09-02T08:56:45Z</time>
      </trkpt>
      <trkpt lat="43.21559" lon="2.35404">
        <ele>124.6</ele>
        <time>2022-09-02T08:56:52Z</time>
      </trkpt>
      <trkpt lat="43.21546" lon="2.35414">
        <ele>124.8</ele>
        <time>2022-09-02T08:56:57Z</time>
      </trkpt>
      <trkpt lat="43.21527" lon="2.35424">
        <ele>124.6</ele>
        <time>2022-09-02T08:57:03Z</time>
      </trkpt>
      <trkpt lat="43.21509" lon="2.35434">
        <ele>124.6</ele>
        <time>2022-09-02T08:57:09Z</time>
      </trkpt>
      <trkpt lat="43.21495" lon="2.35441">
        <ele>124.6</ele>
        <time>2022-09-02T08:57:15Z</time>
      </trkpt>
      <trkpt lat="43.21487" lon="2.3545">
        <ele>124.4</ele>
        <time>2022-09-02T08:57:21Z</time>
      </trkpt>
      <trkpt lat="43.21473" lon="2.3546">
        <ele>124.6</ele>
        <time>2022-09-02T08:57:27Z</time>
      </trkpt>
      <trkpt lat="43.21458" lon="2.35467">
        <ele>124.6</ele>
        <time>2022-09-02T08:57:33Z</time>
      </trkpt>
      <trkpt lat="43.21441" lon="2.35474">
        <ele>124.4</ele>
        <time>2022-09-02T08:57:39Z</time>
      </trkpt>
      <trkpt lat="43.21426" lon="2.35483">
        <ele>124.4</ele>
        <time>2022-09-02T08:57:45Z</time>
      </trkpt>
      <trkpt lat="43.21414" lon="2.35492">
        <ele>124.4</ele>
        <time>2022-09-02T08:57:51Z</time>
      </trkpt>
      <trkpt lat="43.21412" lon="2.35494">
        <ele>124.4</ele>
        <time>2022-09-02T08:57:52Z</time>
      </trkpt>
      <trkpt lat="43.21402" lon="2.355">
        <ele>124.4</ele>
        <time>2022-09-02T08:57:56Z</time>
      </trkpt>
      <trkpt lat="43.21387" lon="2.35507">
        <ele>124.4</ele>
        <time>2022-09-02T08:58:02Z</time>
      </trkpt>
      <trkpt lat="43.21373" lon="2.35512">
        <ele>124.2</ele>
        <time>2022-09-02T08:58:08Z</time>
      </trkpt>
      <trkpt lat="43.2136" lon="2.35519">
        <ele>124</ele>
        <time>2022-09-02T08:58:14Z</time>
      </trkpt>
      <trkpt lat="43.21349" lon="2.35522">
        <ele>124</ele>
        <time>2022-09-02T08:58:20Z</time>
      </trkpt>
      <trkpt lat="43.21336" lon="2.35531">
        <ele>124</ele>
        <time>2022-09-02T08:58:26Z</time>
      </trkpt>
      <trkpt lat="43.2132" lon="2.35539">
        <ele>124.4</ele>
        <time>2022-09-02T08:58:33Z</time>
      </trkpt>
      <trkpt lat="43.21306" lon="2.35548">
        <ele>124.4</ele>
        <time>2022-09-02T08:58:40Z</time>
      </trkpt>
      <trkpt lat="43.21289" lon="2.35547">
        <ele>124.8</ele>
        <time>2022-09-02T08:58:46Z</time>
      </trkpt>
      <trkpt lat="43.21273" lon="2.3555">
        <ele>124.2</ele>
        <time>2022-09-02T08:58:52Z</time>
      </trkpt>
      <trkpt lat="43.21261" lon="2.35552">
        <ele>124</ele>
        <time>2022-09-02T08:59:15Z</time>
      </trkpt>
      <trkpt lat="43.21246" lon="2.35548">
        <ele>124.4</ele>
        <time>2022-09-02T08:59:21Z</time>
      </trkpt>
      <trkpt lat="43.21222" lon="2.35542">
        <ele>125</ele>
        <time>2022-09-02T08:59:30Z</time>
      </trkpt>
      <trkpt lat="43.21203" lon="2.35536">
        <ele>124.2</ele>
        <time>2022-09-02T08:59:37Z</time>
      </trkpt>
      <trkpt lat="43.21194" lon="2.3554">
        <ele>124.2</ele>
        <time>2022-09-02T08:59:41Z</time>
      </trkpt>
      <trkpt lat="43.21191" lon="2.35539">
        <ele>124.2</ele>
        <time>2022-09-02T08:59:42Z</time>
      </trkpt>
      <trkpt lat="43.21173" lon="2.35534">
        <ele>124.4</ele>
        <time>2022-09-02T08:59:49Z</time>
      </trkpt>
      <trkpt lat="43.21153" lon="2.3553">
        <ele>124.6</ele>
        <time>2022-09-02T08:59:56Z</time>
      </trkpt>
      <trkpt lat="43.21126" lon="2.35525">
        <ele>124.8</ele>
        <time>2022-09-02T09:00:05Z</time>
      </trkpt>
      <trkpt lat="43.21112" lon="2.35524">
        <ele>125</ele>
        <time>2022-09-02T09:00:11Z</time>
      </trkpt>
      <trkpt lat="43.2111" lon="2.35526">
        <ele>125</ele>
        <time>2022-09-02T09:00:12Z</time>
      </trkpt>
      <trkpt lat="43.21107" lon="2.35533">
        <ele>125</ele>
        <time>2022-09-02T09:00:16Z</time>
      </trkpt>
      <trkpt lat="43.21113" lon="2.35543">
        <ele>125.2</ele>
        <time>2022-09-02T09:00:20Z</time>
      </trkpt>
      <trkpt lat="43.21115" lon="2.35552">
        <ele>125</ele>
        <time>2022-09-02T09:00:24Z</time>
      </trkpt>
      <trkpt lat="43.21115" lon="2.35555">
        <ele>125</ele>
        <time>2022-09-02T09:00:25Z</time>
      </trkpt>
      <trkpt lat="43.21112" lon="2.35582">
        <ele>125.2</ele>
        <time>2022-09-02T09:00:32Z</time>
      </trkpt>
      <trkpt lat="43.21107" lon="2.35615">
        <ele>124.8</ele>
        <time>2022-09-02T09:00:40Z</time>
      </trkpt>
      <trkpt lat="43.21106" lon="2.3562">
        <ele>124.6</ele>
        <time>2022-09-02T09:00:43Z</time>
      </trkpt>
      <trkpt lat="43.21106" lon="2.35622">
        <ele>124.6</ele>
        <time>2022-09-02T09:00:44Z</time>
      </trkpt>
      <trkpt lat="43.21102" lon="2.35641">
        <ele>124.4</ele>
        <time>2022-09-02T09:00:51Z</time>
      </trkpt>
      <trkpt lat="43.21096" lon="2.35673">
        <ele>124</ele>
        <time>2022-09-02T09:00:59Z</time>
      </trkpt>
      <trkpt lat="43.21093" lon="2.35691">
        <ele>123.8</ele>
        <time>2022-09-02T09:01:03Z</time>
      </trkpt>
      <trkpt lat="43.2109" lon="2.35703">
        <ele>123.8</ele>
        <time>2022-09-02T09:01:06Z</time>
      </trkpt>
      <trkpt lat="43.21078" lon="2.35738">
        <ele>123.4</ele>
        <time>2022-09-02T09:01:15Z</time>
      </trkpt>
      <trkpt lat="43.21065" lon="2.35767">
        <ele>124</ele>
        <time>2022-09-02T09:01:23Z</time>
      </trkpt>
      <trkpt lat="43.21056" lon="2.35784">
        <ele>124.8</ele>
        <time>2022-09-02T09:01:29Z</time>
      </trkpt>
      <trkpt lat="43.21053" lon="2.3579">
        <ele>125</ele>
        <time>2022-09-02T09:01:31Z</time>
      </trkpt>
      <trkpt lat="43.21047" lon="2.3581">
        <ele>125.8</ele>
        <time>2022-09-02T09:01:38Z</time>
      </trkpt>
      <trkpt lat="43.21046" lon="2.35813">
        <ele>126</ele>
        <time>2022-09-02T09:01:39Z</time>
      </trkpt>
      <trkpt lat="43.21042" lon="2.35827">
        <ele>127</ele>
        <time>2022-09-02T09:01:44Z</time>
      </trkpt>
      <trkpt lat="43.2104" lon="2.35835">
        <ele>128.2</ele>
        <time>2022-09-02T09:01:47Z</time>
      </trkpt>
      <trkpt lat="43.21038" lon="2.35853">
        <ele>128.2</ele>
        <time>2022-09-02T09:01:54Z</time>
      </trkpt>
      <trkpt lat="43.21035" lon="2.35863">
        <ele>129.2</ele>
        <time>2022-09-02T09:01:58Z</time>
      </trkpt>
      <trkpt lat="43.21034" lon="2.35872">
        <ele>130.2</ele>
        <time>2022-09-02T09:02:01Z</time>
      </trkpt>
      <trkpt lat="43.21033" lon="2.35882">
        <ele>129</ele>
        <time>2022-09-02T09:02:05Z</time>
      </trkpt>
      <trkpt lat="43.21031" lon="2.35889">
        <ele>129.4</ele>
        <time>2022-09-02T09:02:08Z</time>
      </trkpt>
      <trkpt lat="43.21028" lon="2.35907">
        <ele>129</ele>
        <time>2022-09-02T09:02:16Z</time>
      </trkpt>
      <trkpt lat="43.21027" lon="2.35914">
        <ele>129</ele>
        <time>2022-09-02T09:02:19Z</time>
      </trkpt>
      <trkpt lat="43.21024" lon="2.35927">
        <ele>128.8</ele>
        <time>2022-09-02T09:02:23Z</time>
      </trkpt>
      <trkpt lat="43.21021" lon="2.35943">
        <ele>128.6</ele>
        <time>2022-09-02T09:02:29Z</time>
      </trkpt>
      <trkpt lat="43.21021" lon="2.35951">
        <ele>128.4</ele>
        <time>2022-09-02T09:02:35Z</time>
      </trkpt>
      <trkpt lat="43.21019" lon="2.3595">
        <ele>129.6</ele>
        <time>2022-09-02T09:03:43Z</time>
      </trkpt>
      <trkpt lat="43.21021" lon="2.35945">
        <ele>129.6</ele>
        <time>2022-09-02T09:03:45Z</time>
      </trkpt>
      <trkpt lat="43.21024" lon="2.35924">
        <ele>129.8</ele>
        <time>2022-09-02T09:03:53Z</time>
      </trkpt>
      <trkpt lat="43.21026" lon="2.35917">
        <ele>130</ele>
        <time>2022-09-02T09:03:55Z</time>
      </trkpt>
      <trkpt lat="43.21027" lon="2.35903">
        <ele>129.6</ele>
        <time>2022-09-02T09:03:59Z</time>
      </trkpt>
      <trkpt lat="43.21031" lon="2.35885">
        <ele>129.8</ele>
        <time>2022-09-02T09:04:04Z</time>
      </trkpt>
      <trkpt lat="43.21036" lon="2.35854">
        <ele>129.2</ele>
        <time>2022-09-02T09:04:12Z</time>
      </trkpt>
      <trkpt lat="43.21039" lon="2.35834">
        <ele>128.8</ele>
        <time>2022-09-02T09:04:16Z</time>
      </trkpt>
      <trkpt lat="43.21042" lon="2.35823">
        <ele>128.2</ele>
        <time>2022-09-02T09:04:18Z</time>
      </trkpt>
      <trkpt lat="43.21043" lon="2.35818">
        <ele>127.4</ele>
        <time>2022-09-02T09:04:19Z</time>
      </trkpt>
      <trkpt lat="43.2105" lon="2.35798">
        <ele>126.4</ele>
        <time>2022-09-02T09:04:24Z</time>
      </trkpt>
      <trkpt lat="43.2105" lon="2.35794">
        <ele>126.2</ele>
        <time>2022-09-02T09:04:25Z</time>
      </trkpt>
      <trkpt lat="43.21044" lon="2.35788">
        <ele>125.6</ele>
        <time>2022-09-02T09:04:27Z</time>
      </trkpt>
      <trkpt lat="43.21027" lon="2.35777">
        <ele>125.6</ele>
        <time>2022-09-02T09:04:31Z</time>
      </trkpt>
      <trkpt lat="43.21023" lon="2.35761">
        <ele>125.2</ele>
        <time>2022-09-02T09:04:34Z</time>
      </trkpt>
      <trkpt lat="43.21026" lon="2.35741">
        <ele>125.2</ele>
        <time>2022-09-02T09:04:38Z</time>
      </trkpt>
      <trkpt lat="43.21026" lon="2.35723">
        <ele>125.6</ele>
        <time>2022-09-02T09:04:42Z</time>
      </trkpt>
      <trkpt lat="43.2102" lon="2.35718">
        <ele>124.2</ele>
        <time>2022-09-02T09:04:44Z</time>
      </trkpt>
      <trkpt lat="43.21009" lon="2.35721">
        <ele>124.2</ele>
        <time>2022-09-02T09:04:48Z</time>
      </trkpt>
      <trkpt lat="43.20993" lon="2.35729">
        <ele>124.6</ele>
        <time>2022-09-02T09:04:54Z</time>
      </trkpt>
      <trkpt lat="43.20976" lon="2.35733">
        <ele>124.6</ele>
        <time>2022-09-02T09:05:01Z</time>
      </trkpt>
      <trkpt lat="43.20962" lon="2.35729">
        <ele>123.6</ele>
        <time>2022-09-02T09:05:05Z</time>
      </trkpt>
      <trkpt lat="43.20957" lon="2.35727">
        <ele>123.4</ele>
        <time>2022-09-02T09:05:06Z</time>
      </trkpt>
      <trkpt lat="43.20952" lon="2.35724">
        <ele>123</ele>
        <time>2022-09-02T09:05:07Z</time>
      </trkpt>
      <trkpt lat="43.20936" lon="2.35718">
        <ele>122.4</ele>
        <time>2022-09-02T09:05:10Z</time>
      </trkpt>
      <trkpt lat="43.20931" lon="2.35715">
        <ele>122</ele>
        <time>2022-09-02T09:05:11Z</time>
      </trkpt>
      <trkpt lat="43.20927" lon="2.3571">
        <ele>121.8</ele>
        <time>2022-09-02T09:05:12Z</time>
      </trkpt>
      <trkpt lat="43.2092" lon="2.35703">
        <ele>121.8</ele>
        <time>2022-09-02T09:05:14Z</time>
      </trkpt>
      <trkpt lat="43.20904" lon="2.35688">
        <ele>122.4</ele>
        <time>2022-09-02T09:05:19Z</time>
      </trkpt>
      <trkpt lat="43.20889" lon="2.35676">
        <ele>122.2</ele>
        <time>2022-09-02T09:05:24Z</time>
      </trkpt>
      <trkpt lat="43.20867" lon="2.35655">
        <ele>121.8</ele>
        <time>2022-09-02T09:05:32Z</time>
      </trkpt>
      <trkpt lat="43.20835" lon="2.35625">
        <ele>122.8</ele>
        <time>2022-09-02T09:05:43Z</time>
      </trkpt>
      <trkpt lat="43.20832" lon="2.35622">
        <ele>123</ele>
        <time>2022-09-02T09:05:44Z</time>
      </trkpt>
      <trkpt lat="43.20812" lon="2.35604">
        <ele>122.8</ele>
        <time>2022-09-02T09:05:50Z</time>
      </trkpt>
      <trkpt lat="43.20773" lon="2.35566">
        <ele>123.4</ele>
        <time>2022-09-02T09:06:02Z</time>
      </trkpt>
      <trkpt lat="43.20755" lon="2.35549">
        <ele>124</ele>
        <time>2022-09-02T09:06:08Z</time>
      </trkpt>
      <trkpt lat="43.2074" lon="2.35534">
        <ele>124</ele>
        <time>2022-09-02T09:06:13Z</time>
      </trkpt>
      <trkpt lat="43.20715" lon="2.35511">
        <ele>124.2</ele>
        <time>2022-09-02T09:06:21Z</time>
      </trkpt>
      <trkpt lat="43.2069" lon="2.35487">
        <ele>124.8</ele>
        <time>2022-09-02T09:06:29Z</time>
      </trkpt>
      <trkpt lat="43.20669" lon="2.35467">
        <ele>124.2</ele>
        <time>2022-09-02T09:06:36Z</time>
      </trkpt>
      <trkpt lat="43.20645" lon="2.35444">
        <ele>123.8</ele>
        <time>2022-09-02T09:06:43Z</time>
      </trkpt>
      <trkpt lat="43.20617" lon="2.35415">
        <ele>124</ele>
        <time>2022-09-02T09:06:52Z</time>
      </trkpt>
      <trkpt lat="43.20595" lon="2.35394">
        <ele>124.2</ele>
        <time>2022-09-02T09:06:59Z</time>
      </trkpt>
      <trkpt lat="43.2057" lon="2.35364">
        <ele>124.2</ele>
        <time>2022-09-02T09:07:08Z</time>
      </trkpt>
      <trkpt lat="43.20564" lon="2.35345">
        <ele>124.2</ele>
        <time>2022-09-02T09:07:13Z</time>
      </trkpt>
      <trkpt lat="43.20553" lon="2.35321">
        <ele>125</ele>
        <time>2022-09-02T09:07:19Z</time>
      </trkpt>
      <trkpt lat="43.20549" lon="2.35308">
        <ele>125.2</ele>
        <time>2022-09-02T09:07:22Z</time>
      </trkpt>
      <trkpt lat="43.20545" lon="2.35282">
        <ele>125.8</ele>
        <time>2022-09-02T09:07:29Z</time>
      </trkpt>
      <trkpt lat="43.20545" lon="2.35275">
        <ele>126.2</ele>
        <time>2022-09-02T09:07:31Z</time>
      </trkpt>
      <trkpt lat="43.20545" lon="2.35264">
        <ele>127</ele>
        <time>2022-09-02T09:07:34Z</time>
      </trkpt>
      <trkpt lat="43.20544" lon="2.35257">
        <ele>127.4</ele>
        <time>2022-09-02T09:07:36Z</time>
      </trkpt>
      <trkpt lat="43.20541" lon="2.35237">
        <ele>128.2</ele>
        <time>2022-09-02T09:07:41Z</time>
      </trkpt>
      <trkpt lat="43.20536" lon="2.35212">
        <ele>128.2</ele>
        <time>2022-09-02T09:07:48Z</time>
      </trkpt>
      <trkpt lat="43.20532" lon="2.35192">
        <ele>128.4</ele>
        <time>2022-09-02T09:07:53Z</time>
      </trkpt>
      <trkpt lat="43.2053" lon="2.35184">
        <ele>128.2</ele>
        <time>2022-09-02T09:07:55Z</time>
      </trkpt>
      <trkpt lat="43.20531" lon="2.35159">
        <ele>127.8</ele>
        <time>2022-09-02T09:08:01Z</time>
      </trkpt>
      <trkpt lat="43.20533" lon="2.35148">
        <ele>127.6</ele>
        <time>2022-09-02T09:08:04Z</time>
      </trkpt>
      <trkpt lat="43.20534" lon="2.3514">
        <ele>127.8</ele>
        <time>2022-09-02T09:08:06Z</time>
      </trkpt>
      <trkpt lat="43.20536" lon="2.35132">
        <ele>127.6</ele>
        <time>2022-09-02T09:08:08Z</time>
      </trkpt>
      <trkpt lat="43.20538" lon="2.35117">
        <ele>127.8</ele>
        <time>2022-09-02T09:08:12Z</time>
      </trkpt>
      <trkpt lat="43.20537" lon="2.35113">
        <ele>127.8</ele>
        <time>2022-09-02T09:08:13Z</time>
      </trkpt>
      <trkpt lat="43.20532" lon="2.35101">
        <ele>127.2</ele>
        <time>2022-09-02T09:08:16Z</time>
      </trkpt>
      <trkpt lat="43.20524" lon="2.35079">
        <ele>126.4</ele>
        <time>2022-09-02T09:08:20Z</time>
      </trkpt>
      <trkpt lat="43.20523" lon="2.35073">
        <ele>126.4</ele>
        <time>2022-09-02T09:08:21Z</time>
      </trkpt>
      <trkpt lat="43.20521" lon="2.3506">
        <ele>126.2</ele>
        <time>2022-09-02T09:08:23Z</time>
      </trkpt>
      <trkpt lat="43.2052" lon="2.35047">
        <ele>126</ele>
        <time>2022-09-02T09:08:25Z</time>
      </trkpt>
      <trkpt lat="43.2052" lon="2.35041">
        <ele>126</ele>
        <time>2022-09-02T09:08:26Z</time>
      </trkpt>
      <trkpt lat="43.2052" lon="2.34986">
        <ele>125.8</ele>
        <time>2022-09-02T09:08:34Z</time>
      </trkpt>
      <trkpt lat="43.20522" lon="2.34973">
        <ele>125.8</ele>
        <time>2022-09-02T09:08:36Z</time>
      </trkpt>
      <trkpt lat="43.20526" lon="2.34954">
        <ele>125.6</ele>
        <time>2022-09-02T09:08:39Z</time>
      </trkpt>
      <trkpt lat="43.20528" lon="2.34948">
        <ele>125.8</ele>
        <time>2022-09-02T09:08:40Z</time>
      </trkpt>
      <trkpt lat="43.20537" lon="2.34925">
        <ele>126</ele>
        <time>2022-09-02T09:08:44Z</time>
      </trkpt>
      <trkpt lat="43.20538" lon="2.34919">
        <ele>126</ele>
        <time>2022-09-02T09:08:45Z</time>
      </trkpt>
      <trkpt lat="43.20544" lon="2.34885">
        <ele>126</ele>
        <time>2022-09-02T09:08:51Z</time>
      </trkpt>
      <trkpt lat="43.20552" lon="2.34854">
        <ele>126</ele>
        <time>2022-09-02T09:08:57Z</time>
      </trkpt>
      <trkpt lat="43.20566" lon="2.34838">
        <ele>125.8</ele>
        <time>2022-09-02T09:09:02Z</time>
      </trkpt>
      <trkpt lat="43.2057" lon="2.34833">
        <ele>125.8</ele>
        <time>2022-09-02T09:09:03Z</time>
      </trkpt>
      <trkpt lat="43.20575" lon="2.34824">
        <ele>125.8</ele>
        <time>2022-09-02T09:09:05Z</time>
      </trkpt>
      <trkpt lat="43.2058" lon="2.34814">
        <ele>126</ele>
        <time>2022-09-02T09:09:07Z</time>
      </trkpt>
      <trkpt lat="43.20597" lon="2.34766">
        <ele>126</ele>
        <time>2022-09-02T09:09:16Z</time>
      </trkpt>
      <trkpt lat="43.20606" lon="2.34735">
        <ele>126.4</ele>
        <time>2022-09-02T09:09:22Z</time>
      </trkpt>
      <trkpt lat="43.20616" lon="2.34713">
        <ele>126.2</ele>
        <time>2022-09-02T09:09:27Z</time>
      </trkpt>
      <trkpt lat="43.20627" lon="2.34688">
        <ele>126</ele>
        <time>2022-09-02T09:09:33Z</time>
      </trkpt>
      <trkpt lat="43.20636" lon="2.3466">
        <ele>126.2</ele>
        <time>2022-09-02T09:09:39Z</time>
      </trkpt>
      <trkpt lat="43.20632" lon="2.34639">
        <ele>126.2</ele>
        <time>2022-09-02T09:09:44Z</time>
      </trkpt>
      <trkpt lat="43.20634" lon="2.34625">
        <ele>126</ele>
        <time>2022-09-02T09:09:48Z</time>
      </trkpt>
      <trkpt lat="43.20639" lon="2.34603">
        <ele>126.2</ele>
        <time>2022-09-02T09:09:54Z</time>
      </trkpt>
      <trkpt lat="43.20646" lon="2.34582">
        <ele>126</ele>
        <time>2022-09-02T09:10:00Z</time>
      </trkpt>
      <trkpt lat="43.20656" lon="2.34557">
        <ele>126.4</ele>
        <time>2022-09-02T09:10:06Z</time>
      </trkpt>
      <trkpt lat="43.20668" lon="2.34522">
        <ele>126.2</ele>
        <time>2022-09-02T09:10:13Z</time>
      </trkpt>
      <trkpt lat="43.20681" lon="2.34487">
        <ele>126.6</ele>
        <time>2022-09-02T09:10:20Z</time>
      </trkpt>
      <trkpt lat="43.20693" lon="2.34452">
        <ele>126.4</ele>
        <time>2022-09-02T09:10:27Z</time>
      </trkpt>
      <trkpt lat="43.20705" lon="2.34419">
        <ele>126.2</ele>
        <time>2022-09-02T09:10:34Z</time>
      </trkpt>
      <trkpt lat="43.20718" lon="2.34383">
        <ele>126.2</ele>
        <time>2022-09-02T09:10:41Z</time>
      </trkpt>
      <trkpt lat="43.20725" lon="2.34347">
        <ele>126.2</ele>
        <time>2022-09-02T09:10:47Z</time>
      </trkpt>
      <trkpt lat="43.20727" lon="2.34314">
        <ele>126.2</ele>
        <time>2022-09-02T09:10:53Z</time>
      </trkpt>
      <trkpt lat="43.20734" lon="2.34275">
        <ele>126.4</ele>
        <time>2022-09-02T09:11:00Z</time>
      </trkpt>
      <trkpt lat="43.2074" lon="2.34248">
        <ele>126.6</ele>
        <time>2022-09-02T09:11:05Z</time>
      </trkpt>
      <trkpt lat="43.20748" lon="2.34213">
        <ele>126.4</ele>
        <time>2022-09-02T09:11:11Z</time>
      </trkpt>
      <trkpt lat="43.20756" lon="2.34175">
        <ele>126.6</ele>
        <time>2022-09-02T09:11:17Z</time>
      </trkpt>
      <trkpt lat="43.20764" lon="2.34141">
        <ele>126.8</ele>
        <time>2022-09-02T09:11:23Z</time>
      </trkpt>
      <trkpt lat="43.2077" lon="2.34098">
        <ele>127</ele>
        <time>2022-09-02T09:11:30Z</time>
      </trkpt>
      <trkpt lat="43.20774" lon="2.34067">
        <ele>127</ele>
        <time>2022-09-02T09:11:35Z</time>
      </trkpt>
      <trkpt lat="43.20775" lon="2.34048">
        <ele>127.2</ele>
        <time>2022-09-02T09:11:38Z</time>
      </trkpt>
      <trkpt lat="43.20774" lon="2.34014">
        <ele>127.4</ele>
        <time>2022-09-02T09:11:43Z</time>
      </trkpt>
      <trkpt lat="43.20774" lon="2.33977">
        <ele>127.8</ele>
        <time>2022-09-02T09:11:49Z</time>
      </trkpt>
      <trkpt lat="43.20773" lon="2.3397">
        <ele>128.2</ele>
        <time>2022-09-02T09:11:50Z</time>
      </trkpt>
      <trkpt lat="43.20772" lon="2.33965">
        <ele>128.4</ele>
        <time>2022-09-02T09:11:51Z</time>
      </trkpt>
      <trkpt lat="43.20769" lon="2.33944">
        <ele>128.8</ele>
        <time>2022-09-02T09:11:55Z</time>
      </trkpt>
      <trkpt lat="43.20759" lon="2.3389">
        <ele>128.8</ele>
        <time>2022-09-02T09:12:05Z</time>
      </trkpt>
      <trkpt lat="43.20751" lon="2.33857">
        <ele>128.8</ele>
        <time>2022-09-02T09:12:12Z</time>
      </trkpt>
      <trkpt lat="43.20746" lon="2.33823">
        <ele>128.8</ele>
        <time>2022-09-02T09:12:19Z</time>
      </trkpt>
      <trkpt lat="43.20736" lon="2.33797">
        <ele>129</ele>
        <time>2022-09-02T09:12:25Z</time>
      </trkpt>
      <trkpt lat="43.20727" lon="2.33782">
        <ele>128.8</ele>
        <time>2022-09-02T09:12:30Z</time>
      </trkpt>
      <trkpt lat="43.20717" lon="2.33762">
        <ele>128.8</ele>
        <time>2022-09-02T09:12:36Z</time>
      </trkpt>
      <trkpt lat="43.20708" lon="2.3374">
        <ele>128.4</ele>
        <time>2022-09-02T09:12:44Z</time>
      </trkpt>
      <trkpt lat="43.20704" lon="2.33734">
        <ele>128.8</ele>
        <time>2022-09-02T09:13:38Z</time>
      </trkpt>
      <trkpt lat="43.20702" lon="2.33729">
        <ele>128.6</ele>
        <time>2022-09-02T09:13:40Z</time>
      </trkpt>
      <trkpt lat="43.20706" lon="2.33724">
        <ele>128.8</ele>
        <time>2022-09-02T09:13:45Z</time>
      </trkpt>
      <trkpt lat="43.20711" lon="2.33731">
        <ele>129</ele>
        <time>2022-09-02T09:13:48Z</time>
      </trkpt>
      <trkpt lat="43.20715" lon="2.33737">
        <ele>129.2</ele>
        <time>2022-09-02T09:13:50Z</time>
      </trkpt>
      <trkpt lat="43.20728" lon="2.33761">
        <ele>129.2</ele>
        <time>2022-09-02T09:13:57Z</time>
      </trkpt>
      <trkpt lat="43.20742" lon="2.33779">
        <ele>129.4</ele>
        <time>2022-09-02T09:14:03Z</time>
      </trkpt>
      <trkpt lat="43.20747" lon="2.33781">
        <ele>129.4</ele>
        <time>2022-09-02T09:14:05Z</time>
      </trkpt>
      <trkpt lat="43.20765" lon="2.33778">
        <ele>129.6</ele>
        <time>2022-09-02T09:14:11Z</time>
      </trkpt>
      <trkpt lat="43.20771" lon="2.33763">
        <ele>130</ele>
        <time>2022-09-02T09:14:15Z</time>
      </trkpt>
      <trkpt lat="43.20779" lon="2.33732">
        <ele>130.2</ele>
        <time>2022-09-02T09:14:24Z</time>
      </trkpt>
      <trkpt lat="43.20783" lon="2.33713">
        <ele>130</ele>
        <time>2022-09-02T09:14:31Z</time>
      </trkpt>
      <trkpt lat="43.20785" lon="2.33707">
        <ele>130.4</ele>
        <time>2022-09-02T09:14:35Z</time>
      </trkpt>
      <trkpt lat="43.20785" lon="2.33704">
        <ele>130.6</ele>
        <time>2022-09-02T09:14:39Z</time>
      </trkpt>
      <trkpt lat="43.20786" lon="2.337">
        <ele>130.4</ele>
        <time>2022-09-02T09:14:42Z</time>
      </trkpt>
      <trkpt lat="43.20789" lon="2.33694">
        <ele>131.2</ele>
        <time>2022-09-02T09:14:44Z</time>
      </trkpt>
      <trkpt lat="43.20799" lon="2.33662">
        <ele>131</ele>
        <time>2022-09-02T09:14:52Z</time>
      </trkpt>
      <trkpt lat="43.20801" lon="2.33632">
        <ele>131.2</ele>
        <time>2022-09-02T09:14:58Z</time>
      </trkpt>
      <trkpt lat="43.208" lon="2.33577">
        <ele>131</ele>
        <time>2022-09-02T09:15:08Z</time>
      </trkpt>
      <trkpt lat="43.20799" lon="2.33533">
        <ele>131.4</ele>
        <time>2022-09-02T09:15:16Z</time>
      </trkpt>
      <trkpt lat="43.208" lon="2.33527">
        <ele>131.6</ele>
        <time>2022-09-02T09:15:17Z</time>
      </trkpt>
      <trkpt lat="43.20807" lon="2.33481">
        <ele>131.6</ele>
        <time>2022-09-02T09:15:25Z</time>
      </trkpt>
      <trkpt lat="43.20817" lon="2.33426">
        <ele>131.6</ele>
        <time>2022-09-02T09:15:35Z</time>
      </trkpt>
      <trkpt lat="43.20827" lon="2.33371">
        <ele>131.6</ele>
        <time>2022-09-02T09:15:45Z</time>
      </trkpt>
      <trkpt lat="43.20836" lon="2.33316">
        <ele>132.6</ele>
        <time>2022-09-02T09:15:55Z</time>
      </trkpt>
      <trkpt lat="43.20846" lon="2.33268">
        <ele>132.2</ele>
        <time>2022-09-02T09:16:03Z</time>
      </trkpt>
      <trkpt lat="43.20854" lon="2.33218">
        <ele>132.4</ele>
        <time>2022-09-02T09:16:11Z</time>
      </trkpt>
      <trkpt lat="43.20856" lon="2.33173">
        <ele>132</ele>
        <time>2022-09-02T09:16:18Z</time>
      </trkpt>
      <trkpt lat="43.20857" lon="2.33141">
        <ele>131.4</ele>
        <time>2022-09-02T09:16:23Z</time>
      </trkpt>
      <trkpt lat="43.20858" lon="2.33122">
        <ele>131.6</ele>
        <time>2022-09-02T09:16:26Z</time>
      </trkpt>
      <trkpt lat="43.20858" lon="2.33078">
        <ele>131.4</ele>
        <time>2022-09-02T09:16:33Z</time>
      </trkpt>
      <trkpt lat="43.20859" lon="2.3302">
        <ele>131.2</ele>
        <time>2022-09-02T09:16:43Z</time>
      </trkpt>
      <trkpt lat="43.2086" lon="2.33014">
        <ele>131.6</ele>
        <time>2022-09-02T09:16:44Z</time>
      </trkpt>
      <trkpt lat="43.20861" lon="2.32979">
        <ele>131.6</ele>
        <time>2022-09-02T09:16:50Z</time>
      </trkpt>
      <trkpt lat="43.20862" lon="2.32933">
        <ele>131.8</ele>
        <time>2022-09-02T09:16:58Z</time>
      </trkpt>
      <trkpt lat="43.20864" lon="2.32915">
        <ele>131.8</ele>
        <time>2022-09-02T09:17:01Z</time>
      </trkpt>
      <trkpt lat="43.20863" lon="2.32903">
        <ele>131.6</ele>
        <time>2022-09-02T09:17:03Z</time>
      </trkpt>
      <trkpt lat="43.20861" lon="2.32891">
        <ele>131.8</ele>
        <time>2022-09-02T09:17:05Z</time>
      </trkpt>
      <trkpt lat="43.20854" lon="2.32877">
        <ele>131.6</ele>
        <time>2022-09-02T09:17:08Z</time>
      </trkpt>
      <trkpt lat="43.20845" lon="2.32864">
        <ele>131.8</ele>
        <time>2022-09-02T09:17:11Z</time>
      </trkpt>
      <trkpt lat="43.20817" lon="2.32819">
        <ele>132</ele>
        <time>2022-09-02T09:17:21Z</time>
      </trkpt>
      <trkpt lat="43.20791" lon="2.32778">
        <ele>132</ele>
        <time>2022-09-02T09:17:30Z</time>
      </trkpt>
      <trkpt lat="43.20768" lon="2.32739">
        <ele>132.2</ele>
        <time>2022-09-02T09:17:38Z</time>
      </trkpt>
      <trkpt lat="43.20765" lon="2.32734">
        <ele>132.4</ele>
        <time>2022-09-02T09:17:39Z</time>
      </trkpt>
      <trkpt lat="43.20745" lon="2.32704">
        <ele>132.6</ele>
        <time>2022-09-02T09:17:46Z</time>
      </trkpt>
      <trkpt lat="43.20743" lon="2.32699">
        <ele>132.6</ele>
        <time>2022-09-02T09:17:47Z</time>
      </trkpt>
      <trkpt lat="43.20723" lon="2.32667">
        <ele>132.8</ele>
        <time>2022-09-02T09:17:55Z</time>
      </trkpt>
      <trkpt lat="43.20718" lon="2.32659">
        <ele>133.6</ele>
        <time>2022-09-02T09:17:57Z</time>
      </trkpt>
      <trkpt lat="43.20707" lon="2.32652">
        <ele>133.8</ele>
        <time>2022-09-02T09:18:00Z</time>
      </trkpt>
      <trkpt lat="43.20703" lon="2.32651">
        <ele>133.8</ele>
        <time>2022-09-02T09:18:01Z</time>
      </trkpt>
      <trkpt lat="43.20669" lon="2.32647">
        <ele>133</ele>
        <time>2022-09-02T09:18:09Z</time>
      </trkpt>
      <trkpt lat="43.20624" lon="2.32644">
        <ele>133.6</ele>
        <time>2022-09-02T09:18:19Z</time>
      </trkpt>
      <trkpt lat="43.20575" lon="2.3264">
        <ele>134.2</ele>
        <time>2022-09-02T09:18:30Z</time>
      </trkpt>
      <trkpt lat="43.20545" lon="2.32638">
        <ele>133.8</ele>
        <time>2022-09-02T09:18:37Z</time>
      </trkpt>
      <trkpt lat="43.2054" lon="2.32637">
        <ele>133.8</ele>
        <time>2022-09-02T09:18:38Z</time>
      </trkpt>
      <trkpt lat="43.20506" lon="2.32634">
        <ele>133.8</ele>
        <time>2022-09-02T09:18:46Z</time>
      </trkpt>
      <trkpt lat="43.20472" lon="2.3263">
        <ele>134.2</ele>
        <time>2022-09-02T09:18:54Z</time>
      </trkpt>
      <trkpt lat="43.20445" lon="2.32628">
        <ele>133.8</ele>
        <time>2022-09-02T09:19:01Z</time>
      </trkpt>
      <trkpt lat="43.20429" lon="2.32626">
        <ele>134.6</ele>
        <time>2022-09-02T09:19:06Z</time>
      </trkpt>
      <trkpt lat="43.20427" lon="2.32624">
        <ele>135</ele>
        <time>2022-09-02T09:19:07Z</time>
      </trkpt>
      <trkpt lat="43.20427" lon="2.32616">
        <ele>136</ele>
        <time>2022-09-02T09:19:09Z</time>
      </trkpt>
      <trkpt lat="43.20427" lon="2.32612">
        <ele>135.8</ele>
        <time>2022-09-02T09:19:10Z</time>
      </trkpt>
      <trkpt lat="43.20428" lon="2.32608">
        <ele>135.8</ele>
        <time>2022-09-02T09:19:11Z</time>
      </trkpt>
      <trkpt lat="43.20432" lon="2.32571">
        <ele>136</ele>
        <time>2022-09-02T09:19:19Z</time>
      </trkpt>
      <trkpt lat="43.20435" lon="2.32531">
        <ele>136.2</ele>
        <time>2022-09-02T09:19:27Z</time>
      </trkpt>
      <trkpt lat="43.20437" lon="2.32505">
        <ele>136.4</ele>
        <time>2022-09-02T09:19:33Z</time>
      </trkpt>
      <trkpt lat="43.20439" lon="2.32478">
        <ele>136.8</ele>
        <time>2022-09-02T09:19:39Z</time>
      </trkpt>
      <trkpt lat="43.20439" lon="2.32459">
        <ele>137</ele>
        <time>2022-09-02T09:19:43Z</time>
      </trkpt>
      <trkpt lat="43.20441" lon="2.32446">
        <ele>137.2</ele>
        <time>2022-09-02T09:19:46Z</time>
      </trkpt>
      <trkpt lat="43.20443" lon="2.32419">
        <ele>138.2</ele>
        <time>2022-09-02T09:19:52Z</time>
      </trkpt>
      <trkpt lat="43.20443" lon="2.32406">
        <ele>138.4</ele>
        <time>2022-09-02T09:19:55Z</time>
      </trkpt>
      <trkpt lat="43.20443" lon="2.32394">
        <ele>138.2</ele>
        <time>2022-09-02T09:20:00Z</time>
      </trkpt>
      <trkpt lat="43.20443" lon="2.32388">
        <ele>139</ele>
        <time>2022-09-02T09:20:33Z</time>
      </trkpt>
      <trkpt lat="43.2044" lon="2.32378">
        <ele>139.2</ele>
        <time>2022-09-02T09:20:37Z</time>
      </trkpt>
      <trkpt lat="43.20438" lon="2.32376">
        <ele>139.2</ele>
        <time>2022-09-02T09:20:38Z</time>
      </trkpt>
      <trkpt lat="43.20421" lon="2.32362">
        <ele>140.2</ele>
        <time>2022-09-02T09:20:47Z</time>
      </trkpt>
      <trkpt lat="43.20419" lon="2.3236">
        <ele>140.4</ele>
        <time>2022-09-02T09:20:48Z</time>
      </trkpt>
      <trkpt lat="43.20403" lon="2.32346">
        <ele>141.2</ele>
        <time>2022-09-02T09:20:56Z</time>
      </trkpt>
      <trkpt lat="43.20401" lon="2.32344">
        <ele>141.2</ele>
        <time>2022-09-02T09:20:57Z</time>
      </trkpt>
      <trkpt lat="43.20393" lon="2.32338">
        <ele>141.6</ele>
        <time>2022-09-02T09:21:02Z</time>
      </trkpt>
      <trkpt lat="43.20389" lon="2.3233">
        <ele>141.8</ele>
        <time>2022-09-02T09:21:06Z</time>
      </trkpt>
      <trkpt lat="43.20387" lon="2.32326">
        <ele>142.2</ele>
        <time>2022-09-02T09:21:08Z</time>
      </trkpt>
      <trkpt lat="43.2038" lon="2.32325">
        <ele>142</ele>
        <time>2022-09-02T09:21:11Z</time>
      </trkpt>
      <trkpt lat="43.20376" lon="2.32323">
        <ele>142.2</ele>
        <time>2022-09-02T09:21:13Z</time>
      </trkpt>
      <trkpt lat="43.20374" lon="2.32321">
        <ele>142.4</ele>
        <time>2022-09-02T09:21:14Z</time>
      </trkpt>
      <trkpt lat="43.20371" lon="2.32317">
        <ele>142.8</ele>
        <time>2022-09-02T09:21:17Z</time>
      </trkpt>
      <trkpt lat="43.2037" lon="2.32313">
        <ele>142.8</ele>
        <time>2022-09-02T09:21:19Z</time>
      </trkpt>
      <trkpt lat="43.20378" lon="2.32313">
        <ele>142.8</ele>
        <time>2022-09-02T09:21:23Z</time>
      </trkpt>
      <trkpt lat="43.20379" lon="2.32314">
        <ele>142.6</ele>
        <time>2022-09-02T09:21:24Z</time>
      </trkpt>
      <trkpt lat="43.20382" lon="2.32313">
        <ele>142.2</ele>
        <time>2022-09-02T09:21:26Z</time>
      </trkpt>
      <trkpt lat="43.20383" lon="2.32309">
        <ele>142.2</ele>
        <time>2022-09-02T09:21:28Z</time>
      </trkpt>
      <trkpt lat="43.20378" lon="2.32309">
        <ele>142.2</ele>
        <time>2022-09-02T09:21:31Z</time>
      </trkpt>
      <trkpt lat="43.20371" lon="2.32311">
        <ele>142.8</ele>
        <time>2022-09-02T09:21:35Z</time>
      </trkpt>
      <trkpt lat="43.20368" lon="2.32312">
        <ele>143.2</ele>
        <time>2022-09-02T09:21:37Z</time>
      </trkpt>
      <trkpt lat="43.20364" lon="2.32314">
        <ele>143.4</ele>
        <time>2022-09-02T09:21:39Z</time>
      </trkpt>
      <trkpt lat="43.20353" lon="2.32315">
        <ele>144.2</ele>
        <time>2022-09-02T09:21:46Z</time>
      </trkpt>
      <trkpt lat="43.20356" lon="2.3232">
        <ele>144</ele>
        <time>2022-09-02T09:22:39Z</time>
      </trkpt>
      <trkpt lat="43.20369" lon="2.3232">
        <ele>143.4</ele>
        <time>2022-09-02T09:22:44Z</time>
      </trkpt>
      <trkpt lat="43.20379" lon="2.32326">
        <ele>142.2</ele>
        <time>2022-09-02T09:22:48Z</time>
      </trkpt>
      <trkpt lat="43.20382" lon="2.32327">
        <ele>141.8</ele>
        <time>2022-09-02T09:22:50Z</time>
      </trkpt>
      <trkpt lat="43.20385" lon="2.32325">
        <ele>141.4</ele>
        <time>2022-09-02T09:23:02Z</time>
      </trkpt>
      <trkpt lat="43.20388" lon="2.32321">
        <ele>142</ele>
        <time>2022-09-02T09:23:04Z</time>
      </trkpt>
      <trkpt lat="43.2039" lon="2.32313">
        <ele>142.4</ele>
        <time>2022-09-02T09:23:06Z</time>
      </trkpt>
      <trkpt lat="43.20391" lon="2.323">
        <ele>142.2</ele>
        <time>2022-09-02T09:23:09Z</time>
      </trkpt>
      <trkpt lat="43.20393" lon="2.32284">
        <ele>142.4</ele>
        <time>2022-09-02T09:23:12Z</time>
      </trkpt>
      <trkpt lat="43.20399" lon="2.32236">
        <ele>141.8</ele>
        <time>2022-09-02T09:23:20Z</time>
      </trkpt>
      <trkpt lat="43.20404" lon="2.32196">
        <ele>141.2</ele>
        <time>2022-09-02T09:23:26Z</time>
      </trkpt>
      <trkpt lat="43.20406" lon="2.32182">
        <ele>140.8</ele>
        <time>2022-09-02T09:23:28Z</time>
      </trkpt>
      <trkpt lat="43.2041" lon="2.32149">
        <ele>139.8</ele>
        <time>2022-09-02T09:23:33Z</time>
      </trkpt>
      <trkpt lat="43.20411" lon="2.3213">
        <ele>140.2</ele>
        <time>2022-09-02T09:23:36Z</time>
      </trkpt>
      <trkpt lat="43.20412" lon="2.32085">
        <ele>140.8</ele>
        <time>2022-09-02T09:23:44Z</time>
      </trkpt>
      <trkpt lat="43.20412" lon="2.3208">
        <ele>141</ele>
        <time>2022-09-02T09:23:45Z</time>
      </trkpt>
      <trkpt lat="43.20412" lon="2.32051">
        <ele>140.6</ele>
        <time>2022-09-02T09:23:50Z</time>
      </trkpt>
      <trkpt lat="43.20418" lon="2.32029">
        <ele>139.8</ele>
        <time>2022-09-02T09:23:53Z</time>
      </trkpt>
      <trkpt lat="43.20422" lon="2.32023">
        <ele>139.4</ele>
        <time>2022-09-02T09:23:54Z</time>
      </trkpt>
      <trkpt lat="43.20436" lon="2.3201">
        <ele>138.4</ele>
        <time>2022-09-02T09:23:57Z</time>
      </trkpt>
      <trkpt lat="43.20441" lon="2.32007">
        <ele>138.2</ele>
        <time>2022-09-02T09:23:58Z</time>
      </trkpt>
      <trkpt lat="43.20446" lon="2.32003">
        <ele>138.2</ele>
        <time>2022-09-02T09:23:59Z</time>
      </trkpt>
      <trkpt lat="43.2045" lon="2.3199">
        <ele>138.4</ele>
        <time>2022-09-02T09:24:01Z</time>
      </trkpt>
      <trkpt lat="43.20443" lon="2.31971">
        <ele>137.2</ele>
        <time>2022-09-02T09:24:04Z</time>
      </trkpt>
      <trkpt lat="43.2044" lon="2.31965">
        <ele>137.2</ele>
        <time>2022-09-02T09:24:05Z</time>
      </trkpt>
      <trkpt lat="43.20438" lon="2.31959">
        <ele>137.2</ele>
        <time>2022-09-02T09:24:06Z</time>
      </trkpt>
      <trkpt lat="43.20434" lon="2.31939">
        <ele>137.6</ele>
        <time>2022-09-02T09:24:09Z</time>
      </trkpt>
      <trkpt lat="43.20427" lon="2.31899">
        <ele>137.8</ele>
        <time>2022-09-02T09:24:16Z</time>
      </trkpt>
      <trkpt lat="43.20418" lon="2.31876">
        <ele>137.8</ele>
        <time>2022-09-02T09:24:22Z</time>
      </trkpt>
      <trkpt lat="43.20405" lon="2.31872">
        <ele>138</ele>
        <time>2022-09-02T09:24:26Z</time>
      </trkpt>
      <trkpt lat="43.2038" lon="2.31874">
        <ele>138</ele>
        <time>2022-09-02T09:24:33Z</time>
      </trkpt>
      <trkpt lat="43.20359" lon="2.31873">
        <ele>138.4</ele>
        <time>2022-09-02T09:24:39Z</time>
      </trkpt>
      <trkpt lat="43.20344" lon="2.31873">
        <ele>139.2</ele>
        <time>2022-09-02T09:24:43Z</time>
      </trkpt>
      <trkpt lat="43.2032" lon="2.31871">
        <ele>139.4</ele>
        <time>2022-09-02T09:24:50Z</time>
      </trkpt>
      <trkpt lat="43.20304" lon="2.31871">
        <ele>139.6</ele>
        <time>2022-09-02T09:24:55Z</time>
      </trkpt>
      <trkpt lat="43.20288" lon="2.3187">
        <ele>140.6</ele>
        <time>2022-09-02T09:25:00Z</time>
      </trkpt>
      <trkpt lat="43.20279" lon="2.31869">
        <ele>141.6</ele>
        <time>2022-09-02T09:25:03Z</time>
      </trkpt>
      <trkpt lat="43.20253" lon="2.3187">
        <ele>141.8</ele>
        <time>2022-09-02T09:25:13Z</time>
      </trkpt>
      <trkpt lat="43.2025" lon="2.31871">
        <ele>142.2</ele>
        <time>2022-09-02T09:25:14Z</time>
      </trkpt>
      <trkpt lat="43.2024" lon="2.31875">
        <ele>143</ele>
        <time>2022-09-02T09:25:18Z</time>
      </trkpt>
      <trkpt lat="43.20232" lon="2.31884">
        <ele>143</ele>
        <time>2022-09-02T09:25:22Z</time>
      </trkpt>
      <trkpt lat="43.20212" lon="2.31897">
        <ele>143.6</ele>
        <time>2022-09-02T09:25:30Z</time>
      </trkpt>
      <trkpt lat="43.20204" lon="2.31898">
        <ele>144.2</ele>
        <time>2022-09-02T09:25:33Z</time>
      </trkpt>
      <trkpt lat="43.20191" lon="2.31897">
        <ele>145</ele>
        <time>2022-09-02T09:25:38Z</time>
      </trkpt>
      <trkpt lat="43.20188" lon="2.31897">
        <ele>145.2</ele>
        <time>2022-09-02T09:25:39Z</time>
      </trkpt>
      <trkpt lat="43.20173" lon="2.31887">
        <ele>146</ele>
        <time>2022-09-02T09:25:45Z</time>
      </trkpt>
      <trkpt lat="43.20171" lon="2.31884">
        <ele>146.2</ele>
        <time>2022-09-02T09:25:46Z</time>
      </trkpt>
      <trkpt lat="43.20153" lon="2.31865">
        <ele>145.4</ele>
        <time>2022-09-02T09:25:54Z</time>
      </trkpt>
      <trkpt lat="43.20134" lon="2.31847">
        <ele>145.2</ele>
        <time>2022-09-02T09:26:02Z</time>
      </trkpt>
      <trkpt lat="43.20131" lon="2.31845">
        <ele>145.6</ele>
        <time>2022-09-02T09:26:03Z</time>
      </trkpt>
      <trkpt lat="43.2011" lon="2.31837">
        <ele>146</ele>
        <time>2022-09-02T09:26:10Z</time>
      </trkpt>
      <trkpt lat="43.20107" lon="2.31836">
        <ele>146.2</ele>
        <time>2022-09-02T09:26:11Z</time>
      </trkpt>
      <trkpt lat="43.20093" lon="2.31832">
        <ele>146.4</ele>
        <time>2022-09-02T09:26:15Z</time>
      </trkpt>
      <trkpt lat="43.20068" lon="2.31828">
        <ele>146.4</ele>
        <time>2022-09-02T09:26:22Z</time>
      </trkpt>
      <trkpt lat="43.20049" lon="2.31824">
        <ele>146.6</ele>
        <time>2022-09-02T09:26:27Z</time>
      </trkpt>
      <trkpt lat="43.20015" lon="2.31817">
        <ele>146.6</ele>
        <time>2022-09-02T09:26:36Z</time>
      </trkpt>
      <trkpt lat="43.19984" lon="2.31811">
        <ele>146.2</ele>
        <time>2022-09-02T09:26:44Z</time>
      </trkpt>
      <trkpt lat="43.19948" lon="2.31805">
        <ele>146.8</ele>
        <time>2022-09-02T09:26:53Z</time>
      </trkpt>
      <trkpt lat="43.19915" lon="2.31799">
        <ele>146.6</ele>
        <time>2022-09-02T09:27:02Z</time>
      </trkpt>
      <trkpt lat="43.19896" lon="2.31794">
        <ele>145.8</ele>
        <time>2022-09-02T09:27:07Z</time>
      </trkpt>
      <trkpt lat="43.1987" lon="2.31789">
        <ele>145.6</ele>
        <time>2022-09-02T09:27:14Z</time>
      </trkpt>
      <trkpt lat="43.19826" lon="2.3178">
        <ele>145.8</ele>
        <time>2022-09-02T09:27:26Z</time>
      </trkpt>
      <trkpt lat="43.19803" lon="2.31775">
        <ele>146.2</ele>
        <time>2022-09-02T09:27:33Z</time>
      </trkpt>
      <trkpt lat="43.1978" lon="2.3177">
        <ele>147</ele>
        <time>2022-09-02T09:27:41Z</time>
      </trkpt>
      <trkpt lat="43.19776" lon="2.31769">
        <ele>147.4</ele>
        <time>2022-09-02T09:27:43Z</time>
      </trkpt>
      <trkpt lat="43.19766" lon="2.31767">
        <ele>148.4</ele>
        <time>2022-09-02T09:27:48Z</time>
      </trkpt>
      <trkpt lat="43.19764" lon="2.31766">
        <ele>148.6</ele>
        <time>2022-09-02T09:27:49Z</time>
      </trkpt>
      <trkpt lat="43.19757" lon="2.31759">
        <ele>149.6</ele>
        <time>2022-09-02T09:27:54Z</time>
      </trkpt>
      <trkpt lat="43.19755" lon="2.31757">
        <ele>150.6</ele>
        <time>2022-09-02T09:27:57Z</time>
      </trkpt>
      <trkpt lat="43.19756" lon="2.31756">
        <ele>150.8</ele>
        <time>2022-09-02T09:27:58Z</time>
      </trkpt>
      <trkpt lat="43.1976" lon="2.31746">
        <ele>150.8</ele>
        <time>2022-09-02T09:28:04Z</time>
      </trkpt>
      <trkpt lat="43.19762" lon="2.31742">
        <ele>150.8</ele>
        <time>2022-09-02T09:28:06Z</time>
      </trkpt>
      <trkpt lat="43.19765" lon="2.31731">
        <ele>150.8</ele>
        <time>2022-09-02T09:28:10Z</time>
      </trkpt>
      <trkpt lat="43.19768" lon="2.31713">
        <ele>151.2</ele>
        <time>2022-09-02T09:28:16Z</time>
      </trkpt>
      <trkpt lat="43.1977" lon="2.31687">
        <ele>150.6</ele>
        <time>2022-09-02T09:28:23Z</time>
      </trkpt>
      <trkpt lat="43.19772" lon="2.3167">
        <ele>150.8</ele>
        <time>2022-09-02T09:28:29Z</time>
      </trkpt>
      <trkpt lat="43.19773" lon="2.3165">
        <ele>150.2</ele>
        <time>2022-09-02T09:28:34Z</time>
      </trkpt>
      <trkpt lat="43.19772" lon="2.31638">
        <ele>149.8</ele>
        <time>2022-09-02T09:28:36Z</time>
      </trkpt>
      <trkpt lat="43.19772" lon="2.31632">
        <ele>149.6</ele>
        <time>2022-09-02T09:28:37Z</time>
      </trkpt>
      <trkpt lat="43.19773" lon="2.31619">
        <ele>149.4</ele>
        <time>2022-09-02T09:28:39Z</time>
      </trkpt>
      <trkpt lat="43.19774" lon="2.31597">
        <ele>148.8</ele>
        <time>2022-09-02T09:28:43Z</time>
      </trkpt>
      <trkpt lat="43.19773" lon="2.31587">
        <ele>148.8</ele>
        <time>2022-09-02T09:28:45Z</time>
      </trkpt>
      <trkpt lat="43.19775" lon="2.31545">
        <ele>148.8</ele>
        <time>2022-09-02T09:28:53Z</time>
      </trkpt>
      <trkpt lat="43.19775" lon="2.31528">
        <ele>148.2</ele>
        <time>2022-09-02T09:28:57Z</time>
      </trkpt>
      <trkpt lat="43.19775" lon="2.31525">
        <ele>148.2</ele>
        <time>2022-09-02T09:28:58Z</time>
      </trkpt>
      <trkpt lat="43.19773" lon="2.31503">
        <ele>148.4</ele>
        <time>2022-09-02T09:29:04Z</time>
      </trkpt>
      <trkpt lat="43.19776" lon="2.31474">
        <ele>149</ele>
        <time>2022-09-02T09:29:11Z</time>
      </trkpt>
      <trkpt lat="43.19776" lon="2.31471">
        <ele>149.2</ele>
        <time>2022-09-02T09:29:12Z</time>
      </trkpt>
      <trkpt lat="43.19771" lon="2.31456">
        <ele>149</ele>
        <time>2022-09-02T09:29:16Z</time>
      </trkpt>
      <trkpt lat="43.19765" lon="2.31434">
        <ele>149.2</ele>
        <time>2022-09-02T09:29:22Z</time>
      </trkpt>
      <trkpt lat="43.19766" lon="2.314">
        <ele>150</ele>
        <time>2022-09-02T09:29:30Z</time>
      </trkpt>
      <trkpt lat="43.19767" lon="2.31392">
        <ele>150.4</ele>
        <time>2022-09-02T09:29:32Z</time>
      </trkpt>
      <trkpt lat="43.19769" lon="2.31358">
        <ele>150.8</ele>
        <time>2022-09-02T09:29:40Z</time>
      </trkpt>
      <trkpt lat="43.19768" lon="2.31345">
        <ele>151.4</ele>
        <time>2022-09-02T09:29:43Z</time>
      </trkpt>
      <trkpt lat="43.19765" lon="2.31333">
        <ele>151.6</ele>
        <time>2022-09-02T09:29:46Z</time>
      </trkpt>
      <trkpt lat="43.19758" lon="2.31311">
        <ele>152.4</ele>
        <time>2022-09-02T09:29:52Z</time>
      </trkpt>
      <trkpt lat="43.19757" lon="2.31308">
        <ele>152.6</ele>
        <time>2022-09-02T09:29:53Z</time>
      </trkpt>
      <trkpt lat="43.19751" lon="2.31291">
        <ele>153.4</ele>
        <time>2022-09-02T09:29:58Z</time>
      </trkpt>
      <trkpt lat="43.1975" lon="2.31281">
        <ele>153.8</ele>
        <time>2022-09-02T09:30:01Z</time>
      </trkpt>
      <trkpt lat="43.19746" lon="2.31267">
        <ele>154.6</ele>
        <time>2022-09-02T09:30:06Z</time>
      </trkpt>
      <trkpt lat="43.19743" lon="2.31263">
        <ele>155</ele>
        <time>2022-09-02T09:30:08Z</time>
      </trkpt>
      <trkpt lat="43.19734" lon="2.3126">
        <ele>155.8</ele>
        <time>2022-09-02T09:30:12Z</time>
      </trkpt>
      <trkpt lat="43.19727" lon="2.3126">
        <ele>156.6</ele>
        <time>2022-09-02T09:30:15Z</time>
      </trkpt>
      <trkpt lat="43.19722" lon="2.31261">
        <ele>157</ele>
        <time>2022-09-02T09:30:17Z</time>
      </trkpt>
      <trkpt lat="43.19714" lon="2.31261">
        <ele>158</ele>
        <time>2022-09-02T09:30:21Z</time>
      </trkpt>
      <trkpt lat="43.19709" lon="2.31261">
        <ele>158.2</ele>
        <time>2022-09-02T09:30:23Z</time>
      </trkpt>
      <trkpt lat="43.1969" lon="2.31261">
        <ele>158.8</ele>
        <time>2022-09-02T09:30:31Z</time>
      </trkpt>
      <trkpt lat="43.19669" lon="2.31262">
        <ele>158.8</ele>
        <time>2022-09-02T09:30:39Z</time>
      </trkpt>
      <trkpt lat="43.19658" lon="2.31264">
        <ele>159</ele>
        <time>2022-09-02T09:30:43Z</time>
      </trkpt>
      <trkpt lat="43.1965" lon="2.31265">
        <ele>158.8</ele>
        <time>2022-09-02T09:30:46Z</time>
      </trkpt>
      <trkpt lat="43.19619" lon="2.31267">
        <ele>159</ele>
        <time>2022-09-02T09:30:56Z</time>
      </trkpt>
      <trkpt lat="43.19605" lon="2.3127">
        <ele>158.8</ele>
        <time>2022-09-02T09:31:00Z</time>
      </trkpt>
      <trkpt lat="43.19593" lon="2.31278">
        <ele>158.4</ele>
        <time>2022-09-02T09:31:04Z</time>
      </trkpt>
      <trkpt lat="43.19573" lon="2.31294">
        <ele>158.4</ele>
        <time>2022-09-02T09:31:11Z</time>
      </trkpt>
      <trkpt lat="43.19552" lon="2.31301">
        <ele>158.4</ele>
        <time>2022-09-02T09:31:18Z</time>
      </trkpt>
      <trkpt lat="43.19532" lon="2.31299">
        <ele>159</ele>
        <time>2022-09-02T09:31:24Z</time>
      </trkpt>
      <trkpt lat="43.19512" lon="2.31296">
        <ele>159.4</ele>
        <time>2022-09-02T09:31:31Z</time>
      </trkpt>
      <trkpt lat="43.19493" lon="2.3129">
        <ele>159</ele>
        <time>2022-09-02T09:31:38Z</time>
      </trkpt>
      <trkpt lat="43.19469" lon="2.31284">
        <ele>158</ele>
        <time>2022-09-02T09:31:44Z</time>
      </trkpt>
      <trkpt lat="43.19464" lon="2.31283">
        <ele>158</ele>
        <time>2022-09-02T09:31:45Z</time>
      </trkpt>
      <trkpt lat="43.19455" lon="2.31278">
        <ele>157.8</ele>
        <time>2022-09-02T09:31:47Z</time>
      </trkpt>
      <trkpt lat="43.1944" lon="2.31268">
        <ele>156.6</ele>
        <time>2022-09-02T09:31:50Z</time>
      </trkpt>
      <trkpt lat="43.19436" lon="2.31265">
        <ele>156.2</ele>
        <time>2022-09-02T09:31:51Z</time>
      </trkpt>
      <trkpt lat="43.19432" lon="2.31262">
        <ele>155.6</ele>
        <time>2022-09-02T09:31:52Z</time>
      </trkpt>
      <trkpt lat="43.19426" lon="2.31259">
        <ele>155.2</ele>
        <time>2022-09-02T09:31:53Z</time>
      </trkpt>
      <trkpt lat="43.19409" lon="2.31253">
        <ele>154.4</ele>
        <time>2022-09-02T09:31:56Z</time>
      </trkpt>
      <trkpt lat="43.19403" lon="2.31251">
        <ele>153.4</ele>
        <time>2022-09-02T09:31:57Z</time>
      </trkpt>
      <trkpt lat="43.19387" lon="2.31246">
        <ele>152.4</ele>
        <time>2022-09-02T09:32:00Z</time>
      </trkpt>
      <trkpt lat="43.19378" lon="2.31244">
        <ele>151.6</ele>
        <time>2022-09-02T09:32:02Z</time>
      </trkpt>
      <trkpt lat="43.19374" lon="2.31241">
        <ele>151.2</ele>
        <time>2022-09-02T09:32:03Z</time>
      </trkpt>
      <trkpt lat="43.19364" lon="2.31231">
        <ele>150.2</ele>
        <time>2022-09-02T09:32:06Z</time>
      </trkpt>
      <trkpt lat="43.19361" lon="2.31227">
        <ele>150</ele>
        <time>2022-09-02T09:32:07Z</time>
      </trkpt>
      <trkpt lat="43.19353" lon="2.31221">
        <ele>149</ele>
        <time>2022-09-02T09:32:10Z</time>
      </trkpt>
      <trkpt lat="43.19351" lon="2.3122">
        <ele>148.6</ele>
        <time>2022-09-02T09:32:11Z</time>
      </trkpt>
      <trkpt lat="43.19342" lon="2.31219">
        <ele>147.8</ele>
        <time>2022-09-02T09:32:15Z</time>
      </trkpt>
      <trkpt lat="43.19339" lon="2.31217">
        <ele>147.8</ele>
        <time>2022-09-02T09:32:16Z</time>
      </trkpt>
      <trkpt lat="43.19327" lon="2.31199">
        <ele>147</ele>
        <time>2022-09-02T09:32:20Z</time>
      </trkpt>
      <trkpt lat="43.19323" lon="2.31193">
        <ele>146.4</ele>
        <time>2022-09-02T09:32:21Z</time>
      </trkpt>
      <trkpt lat="43.19309" lon="2.31169">
        <ele>145.8</ele>
        <time>2022-09-02T09:32:25Z</time>
      </trkpt>
      <trkpt lat="43.19309" lon="2.31169">
        <ele>145.2</ele>
        <time>2022-09-02T09:32:32Z</time>
      </trkpt>
      <trkpt lat="43.19269" lon="2.31096">
        <ele>144</ele>
        <time>2022-09-02T09:32:37Z</time>
      </trkpt>
      <trkpt lat="43.19268" lon="2.31093">
        <ele>144</ele>
        <time>2022-09-02T09:32:38Z</time>
      </trkpt>
      <trkpt lat="43.19267" lon="2.31094">
        <ele>143.8</ele>
        <time>2022-09-02T09:32:39Z</time>
      </trkpt>
      <trkpt lat="43.19263" lon="2.311">
        <ele>143.4</ele>
        <time>2022-09-02T09:32:41Z</time>
      </trkpt>
      <trkpt lat="43.19261" lon="2.31114">
        <ele>142.8</ele>
        <time>2022-09-02T09:32:44Z</time>
      </trkpt>
      <trkpt lat="43.1926" lon="2.31118">
        <ele>142.8</ele>
        <time>2022-09-02T09:32:45Z</time>
      </trkpt>
      <trkpt lat="43.1926" lon="2.31124">
        <ele>143</ele>
        <time>2022-09-02T09:32:46Z</time>
      </trkpt>
      <trkpt lat="43.19253" lon="2.3116">
        <ele>143.2</ele>
        <time>2022-09-02T09:32:53Z</time>
      </trkpt>
      <trkpt lat="43.19245" lon="2.31201">
        <ele>143.2</ele>
        <time>2022-09-02T09:33:01Z</time>
      </trkpt>
      <trkpt lat="43.19243" lon="2.31225">
        <ele>143.8</ele>
        <time>2022-09-02T09:33:06Z</time>
      </trkpt>
      <trkpt lat="43.1924" lon="2.31249">
        <ele>143.8</ele>
        <time>2022-09-02T09:33:13Z</time>
      </trkpt>
      <trkpt lat="43.19238" lon="2.31251">
        <ele>143.8</ele>
        <time>2022-09-02T09:33:15Z</time>
      </trkpt>
      <trkpt lat="43.19237" lon="2.31249">
        <ele>143.8</ele>
        <time>2022-09-02T09:33:17Z</time>
      </trkpt>
      <trkpt lat="43.19238" lon="2.31243">
        <ele>144</ele>
        <time>2022-09-02T09:33:20Z</time>
      </trkpt>
      <trkpt lat="43.19239" lon="2.31239">
        <ele>144</ele>
        <time>2022-09-02T09:33:21Z</time>
      </trkpt>
      <trkpt lat="43.19241" lon="2.31217">
        <ele>143.6</ele>
        <time>2022-09-02T09:33:29Z</time>
      </trkpt>
      <trkpt lat="43.19233" lon="2.31211">
        <ele>143.6</ele>
        <time>2022-09-02T09:35:34Z</time>
      </trkpt>
      <trkpt lat="43.19227" lon="2.31211">
        <ele>143.2</ele>
        <time>2022-09-02T09:35:36Z</time>
      </trkpt>
      <trkpt lat="43.19206" lon="2.31213">
        <ele>142.6</ele>
        <time>2022-09-02T09:35:42Z</time>
      </trkpt>
      <trkpt lat="43.19181" lon="2.3121">
        <ele>142.2</ele>
        <time>2022-09-02T09:35:48Z</time>
      </trkpt>
      <trkpt lat="43.19162" lon="2.31208">
        <ele>141.8</ele>
        <time>2022-09-02T09:35:52Z</time>
      </trkpt>
      <trkpt lat="43.19146" lon="2.31206">
        <ele>141.4</ele>
        <time>2022-09-02T09:35:55Z</time>
      </trkpt>
      <trkpt lat="43.19113" lon="2.31201">
        <ele>141</ele>
        <time>2022-09-02T09:36:02Z</time>
      </trkpt>
      <trkpt lat="43.19105" lon="2.31201">
        <ele>140.6</ele>
        <time>2022-09-02T09:36:04Z</time>
      </trkpt>
      <trkpt lat="43.19084" lon="2.31198">
        <ele>140.8</ele>
        <time>2022-09-02T09:36:09Z</time>
      </trkpt>
      <trkpt lat="43.19045" lon="2.31193">
        <ele>140.6</ele>
        <time>2022-09-02T09:36:18Z</time>
      </trkpt>
      <trkpt lat="43.19025" lon="2.31191">
        <ele>140.8</ele>
        <time>2022-09-02T09:36:23Z</time>
      </trkpt>
      <trkpt lat="43.18999" lon="2.31192">
        <ele>140.4</ele>
        <time>2022-09-02T09:36:30Z</time>
      </trkpt>
      <trkpt lat="43.18974" lon="2.31188">
        <ele>140.2</ele>
        <time>2022-09-02T09:36:38Z</time>
      </trkpt>
      <trkpt lat="43.18954" lon="2.31167">
        <ele>140.8</ele>
        <time>2022-09-02T09:36:45Z</time>
      </trkpt>
      <trkpt lat="43.18928" lon="2.31135">
        <ele>141</ele>
        <time>2022-09-02T09:36:54Z</time>
      </trkpt>
      <trkpt lat="43.18906" lon="2.3111">
        <ele>141.6</ele>
        <time>2022-09-02T09:37:02Z</time>
      </trkpt>
      <trkpt lat="43.18899" lon="2.31099">
        <ele>141.8</ele>
        <time>2022-09-02T09:37:05Z</time>
      </trkpt>
      <trkpt lat="43.18895" lon="2.31085">
        <ele>141.8</ele>
        <time>2022-09-02T09:37:08Z</time>
      </trkpt>
      <trkpt lat="43.18886" lon="2.31064">
        <ele>141.6</ele>
        <time>2022-09-02T09:37:13Z</time>
      </trkpt>
      <trkpt lat="43.18873" lon="2.31051">
        <ele>141.4</ele>
        <time>2022-09-02T09:37:18Z</time>
      </trkpt>
      <trkpt lat="43.18858" lon="2.31026">
        <ele>141.2</ele>
        <time>2022-09-02T09:37:26Z</time>
      </trkpt>
      <trkpt lat="43.18856" lon="2.31004">
        <ele>141.6</ele>
        <time>2022-09-02T09:37:31Z</time>
      </trkpt>
      <trkpt lat="43.18843" lon="2.30987">
        <ele>141.8</ele>
        <time>2022-09-02T09:37:36Z</time>
      </trkpt>
      <trkpt lat="43.18819" lon="2.30955">
        <ele>142.4</ele>
        <time>2022-09-02T09:37:45Z</time>
      </trkpt>
      <trkpt lat="43.18808" lon="2.30934">
        <ele>142.8</ele>
        <time>2022-09-02T09:37:50Z</time>
      </trkpt>
      <trkpt lat="43.18801" lon="2.30922">
        <ele>143.2</ele>
        <time>2022-09-02T09:37:53Z</time>
      </trkpt>
      <trkpt lat="43.18787" lon="2.30902">
        <ele>144</ele>
        <time>2022-09-02T09:37:59Z</time>
      </trkpt>
      <trkpt lat="43.18784" lon="2.309">
        <ele>144.2</ele>
        <time>2022-09-02T09:38:00Z</time>
      </trkpt>
      <trkpt lat="43.18756" lon="2.30877">
        <ele>143.4</ele>
        <time>2022-09-02T09:38:09Z</time>
      </trkpt>
      <trkpt lat="43.18745" lon="2.30867">
        <ele>142.8</ele>
        <time>2022-09-02T09:38:12Z</time>
      </trkpt>
      <trkpt lat="43.18738" lon="2.30857">
        <ele>142.6</ele>
        <time>2022-09-02T09:38:14Z</time>
      </trkpt>
      <trkpt lat="43.18711" lon="2.3082">
        <ele>142.4</ele>
        <time>2022-09-02T09:38:22Z</time>
      </trkpt>
      <trkpt lat="43.18689" lon="2.308">
        <ele>142.2</ele>
        <time>2022-09-02T09:38:28Z</time>
      </trkpt>
      <trkpt lat="43.18674" lon="2.30788">
        <ele>142</ele>
        <time>2022-09-02T09:38:32Z</time>
      </trkpt>
      <trkpt lat="43.18666" lon="2.30783">
        <ele>142.2</ele>
        <time>2022-09-02T09:38:34Z</time>
      </trkpt>
      <trkpt lat="43.18639" lon="2.30767">
        <ele>142.4</ele>
        <time>2022-09-02T09:38:41Z</time>
      </trkpt>
      <trkpt lat="43.18606" lon="2.30752">
        <ele>142.4</ele>
        <time>2022-09-02T09:38:49Z</time>
      </trkpt>
      <trkpt lat="43.18588" lon="2.30744">
        <ele>141.8</ele>
        <time>2022-09-02T09:38:53Z</time>
      </trkpt>
      <trkpt lat="43.18574" lon="2.3074">
        <ele>142</ele>
        <time>2022-09-02T09:38:56Z</time>
      </trkpt>
      <trkpt lat="43.18539" lon="2.30725">
        <ele>141.6</ele>
        <time>2022-09-02T09:39:04Z</time>
      </trkpt>
      <trkpt lat="43.18506" lon="2.30714">
        <ele>141.8</ele>
        <time>2022-09-02T09:39:12Z</time>
      </trkpt>
      <trkpt lat="43.18498" lon="2.30711">
        <ele>141.6</ele>
        <time>2022-09-02T09:39:14Z</time>
      </trkpt>
      <trkpt lat="43.18482" lon="2.30705">
        <ele>141.8</ele>
        <time>2022-09-02T09:39:18Z</time>
      </trkpt>
      <trkpt lat="43.18442" lon="2.30692">
        <ele>141.4</ele>
        <time>2022-09-02T09:39:27Z</time>
      </trkpt>
      <trkpt lat="43.1841" lon="2.30682">
        <ele>141.4</ele>
        <time>2022-09-02T09:39:34Z</time>
      </trkpt>
      <trkpt lat="43.18368" lon="2.30662">
        <ele>141</ele>
        <time>2022-09-02T09:39:43Z</time>
      </trkpt>
      <trkpt lat="43.18363" lon="2.3066">
        <ele>140.6</ele>
        <time>2022-09-02T09:39:44Z</time>
      </trkpt>
      <trkpt lat="43.18336" lon="2.30649">
        <ele>141</ele>
        <time>2022-09-02T09:39:50Z</time>
      </trkpt>
      <trkpt lat="43.18324" lon="2.3064">
        <ele>141</ele>
        <time>2022-09-02T09:39:53Z</time>
      </trkpt>
      <trkpt lat="43.18311" lon="2.30631">
        <ele>141</ele>
        <time>2022-09-02T09:39:56Z</time>
      </trkpt>
      <trkpt lat="43.18295" lon="2.3062">
        <ele>140.8</ele>
        <time>2022-09-02T09:40:00Z</time>
      </trkpt>
      <trkpt lat="43.18284" lon="2.30613">
        <ele>140.8</ele>
        <time>2022-09-02T09:40:03Z</time>
      </trkpt>
      <trkpt lat="43.18252" lon="2.30592">
        <ele>141</ele>
        <time>2022-09-02T09:40:11Z</time>
      </trkpt>
      <trkpt lat="43.18225" lon="2.30574">
        <ele>141.2</ele>
        <time>2022-09-02T09:40:18Z</time>
      </trkpt>
      <trkpt lat="43.1819" lon="2.30552">
        <ele>141</ele>
        <time>2022-09-02T09:40:27Z</time>
      </trkpt>
      <trkpt lat="43.18158" lon="2.30531">
        <ele>140.8</ele>
        <time>2022-09-02T09:40:35Z</time>
      </trkpt>
      <trkpt lat="43.18128" lon="2.30511">
        <ele>141</ele>
        <time>2022-09-02T09:40:43Z</time>
      </trkpt>
      <trkpt lat="43.18107" lon="2.30494">
        <ele>141</ele>
        <time>2022-09-02T09:40:49Z</time>
      </trkpt>
      <trkpt lat="43.18101" lon="2.30486">
        <ele>141.2</ele>
        <time>2022-09-02T09:40:51Z</time>
      </trkpt>
      <trkpt lat="43.18085" lon="2.30462">
        <ele>141.6</ele>
        <time>2022-09-02T09:40:57Z</time>
      </trkpt>
      <trkpt lat="43.18077" lon="2.30451">
        <ele>142</ele>
        <time>2022-09-02T09:41:00Z</time>
      </trkpt>
      <trkpt lat="43.18058" lon="2.30424">
        <ele>142.8</ele>
        <time>2022-09-02T09:41:08Z</time>
      </trkpt>
      <trkpt lat="43.18057" lon="2.30421">
        <ele>142.8</ele>
        <time>2022-09-02T09:41:09Z</time>
      </trkpt>
      <trkpt lat="43.18049" lon="2.30411">
        <ele>143.8</ele>
        <time>2022-09-02T09:41:13Z</time>
      </trkpt>
      <trkpt lat="43.18044" lon="2.30405">
        <ele>144.6</ele>
        <time>2022-09-02T09:41:16Z</time>
      </trkpt>
      <trkpt lat="43.18038" lon="2.30399">
        <ele>145</ele>
        <time>2022-09-02T09:41:19Z</time>
      </trkpt>
      <trkpt lat="43.18032" lon="2.30391">
        <ele>146</ele>
        <time>2022-09-02T09:41:24Z</time>
      </trkpt>
      <trkpt lat="43.18031" lon="2.30389">
        <ele>146</ele>
        <time>2022-09-02T09:41:25Z</time>
      </trkpt>
      <trkpt lat="43.18025" lon="2.30383">
        <ele>147</ele>
        <time>2022-09-02T09:41:29Z</time>
      </trkpt>
      <trkpt lat="43.18024" lon="2.30381">
        <ele>147.2</ele>
        <time>2022-09-02T09:41:30Z</time>
      </trkpt>
      <trkpt lat="43.18023" lon="2.30379">
        <ele>147.2</ele>
        <time>2022-09-02T09:41:31Z</time>
      </trkpt>
      <trkpt lat="43.18015" lon="2.30372">
        <ele>148.2</ele>
        <time>2022-09-02T09:41:36Z</time>
      </trkpt>
      <trkpt lat="43.18011" lon="2.30366">
        <ele>149</ele>
        <time>2022-09-02T09:41:39Z</time>
      </trkpt>
      <trkpt lat="43.18009" lon="2.30362">
        <ele>149.4</ele>
        <time>2022-09-02T09:41:41Z</time>
      </trkpt>
      <trkpt lat="43.18005" lon="2.30354">
        <ele>150.4</ele>
        <time>2022-09-02T09:41:45Z</time>
      </trkpt>
      <trkpt lat="43.18003" lon="2.3035">
        <ele>151.2</ele>
        <time>2022-09-02T09:41:47Z</time>
      </trkpt>
      <trkpt lat="43.18" lon="2.30343">
        <ele>151.6</ele>
        <time>2022-09-02T09:41:50Z</time>
      </trkpt>
      <trkpt lat="43.17996" lon="2.30332">
        <ele>152.6</ele>
        <time>2022-09-02T09:41:55Z</time>
      </trkpt>
      <trkpt lat="43.17994" lon="2.30328">
        <ele>153</ele>
        <time>2022-09-02T09:41:57Z</time>
      </trkpt>
      <trkpt lat="43.17991" lon="2.30321">
        <ele>154</ele>
        <time>2022-09-02T09:42:00Z</time>
      </trkpt>
      <trkpt lat="43.17987" lon="2.30309">
        <ele>155</ele>
        <time>2022-09-02T09:42:06Z</time>
      </trkpt>
      <trkpt lat="43.17982" lon="2.30293">
        <ele>155.6</ele>
        <time>2022-09-02T09:42:13Z</time>
      </trkpt>
      <trkpt lat="43.17977" lon="2.30277">
        <ele>156.2</ele>
        <time>2022-09-02T09:42:19Z</time>
      </trkpt>
      <trkpt lat="43.17975" lon="2.30269">
        <ele>156.4</ele>
        <time>2022-09-02T09:42:22Z</time>
      </trkpt>
      <trkpt lat="43.17968" lon="2.30249">
        <ele>157.2</ele>
        <time>2022-09-02T09:42:29Z</time>
      </trkpt>
      <trkpt lat="43.17966" lon="2.30244">
        <ele>157.4</ele>
        <time>2022-09-02T09:42:31Z</time>
      </trkpt>
      <trkpt lat="43.17957" lon="2.30221">
        <ele>157.6</ele>
        <time>2022-09-02T09:42:39Z</time>
      </trkpt>
      <trkpt lat="43.17947" lon="2.30199">
        <ele>157.8</ele>
        <time>2022-09-02T09:42:47Z</time>
      </trkpt>
      <trkpt lat="43.17944" lon="2.30191">
        <ele>158.4</ele>
        <time>2022-09-02T09:42:50Z</time>
      </trkpt>
      <trkpt lat="43.17939" lon="2.30179">
        <ele>158.8</ele>
        <time>2022-09-02T09:42:54Z</time>
      </trkpt>
      <trkpt lat="43.17929" lon="2.30152">
        <ele>159.2</ele>
        <time>2022-09-02T09:43:03Z</time>
      </trkpt>
      <trkpt lat="43.17928" lon="2.30146">
        <ele>159.4</ele>
        <time>2022-09-02T09:43:05Z</time>
      </trkpt>
      <trkpt lat="43.17924" lon="2.3012">
        <ele>160.2</ele>
        <time>2022-09-02T09:43:13Z</time>
      </trkpt>
      <trkpt lat="43.17923" lon="2.3011">
        <ele>160.6</ele>
        <time>2022-09-02T09:43:16Z</time>
      </trkpt>
      <trkpt lat="43.17921" lon="2.30087">
        <ele>161.2</ele>
        <time>2022-09-02T09:43:23Z</time>
      </trkpt>
      <trkpt lat="43.17919" lon="2.3007">
        <ele>161.6</ele>
        <time>2022-09-02T09:43:28Z</time>
      </trkpt>
      <trkpt lat="43.17915" lon="2.30055">
        <ele>162.4</ele>
        <time>2022-09-02T09:43:33Z</time>
      </trkpt>
      <trkpt lat="43.1791" lon="2.30048">
        <ele>162.6</ele>
        <time>2022-09-02T09:43:36Z</time>
      </trkpt>
      <trkpt lat="43.17906" lon="2.30045">
        <ele>162.8</ele>
        <time>2022-09-02T09:43:38Z</time>
      </trkpt>
      <trkpt lat="43.17897" lon="2.3004">
        <ele>163</ele>
        <time>2022-09-02T09:43:43Z</time>
      </trkpt>
      <trkpt lat="43.17876" lon="2.30034">
        <ele>162.2</ele>
        <time>2022-09-02T09:43:52Z</time>
      </trkpt>
      <trkpt lat="43.17858" lon="2.30028">
        <ele>161.8</ele>
        <time>2022-09-02T09:43:57Z</time>
      </trkpt>
      <trkpt lat="43.1785" lon="2.30025">
        <ele>161.4</ele>
        <time>2022-09-02T09:43:59Z</time>
      </trkpt>
      <trkpt lat="43.17827" lon="2.30014">
        <ele>160.6</ele>
        <time>2022-09-02T09:44:04Z</time>
      </trkpt>
      <trkpt lat="43.17817" lon="2.30011">
        <ele>160.4</ele>
        <time>2022-09-02T09:44:06Z</time>
      </trkpt>
      <trkpt lat="43.17803" lon="2.30004">
        <ele>159.2</ele>
        <time>2022-09-02T09:44:09Z</time>
      </trkpt>
      <trkpt lat="43.17787" lon="2.29997">
        <ele>158.2</ele>
        <time>2022-09-02T09:44:12Z</time>
      </trkpt>
      <trkpt lat="43.17782" lon="2.29995">
        <ele>158</ele>
        <time>2022-09-02T09:44:13Z</time>
      </trkpt>
      <trkpt lat="43.17755" lon="2.29983">
        <ele>156.6</ele>
        <time>2022-09-02T09:44:18Z</time>
      </trkpt>
      <trkpt lat="43.1775" lon="2.29981">
        <ele>156.2</ele>
        <time>2022-09-02T09:44:19Z</time>
      </trkpt>
      <trkpt lat="43.17737" lon="2.29975">
        <ele>155.4</ele>
        <time>2022-09-02T09:44:22Z</time>
      </trkpt>
      <trkpt lat="43.17733" lon="2.29973">
        <ele>154.2</ele>
        <time>2022-09-02T09:44:23Z</time>
      </trkpt>
      <trkpt lat="43.17729" lon="2.29972">
        <ele>153.8</ele>
        <time>2022-09-02T09:44:24Z</time>
      </trkpt>
      <trkpt lat="43.17713" lon="2.29977">
        <ele>153.4</ele>
        <time>2022-09-02T09:44:29Z</time>
      </trkpt>
      <trkpt lat="43.17709" lon="2.29979">
        <ele>153</ele>
        <time>2022-09-02T09:44:30Z</time>
      </trkpt>
      <trkpt lat="43.177" lon="2.29981">
        <ele>152.2</ele>
        <time>2022-09-02T09:44:32Z</time>
      </trkpt>
      <trkpt lat="43.17696" lon="2.29981">
        <ele>151.6</ele>
        <time>2022-09-02T09:44:33Z</time>
      </trkpt>
      <trkpt lat="43.17686" lon="2.29973">
        <ele>150.8</ele>
        <time>2022-09-02T09:44:37Z</time>
      </trkpt>
      <trkpt lat="43.17686" lon="2.29967">
        <ele>151.2</ele>
        <time>2022-09-02T09:44:42Z</time>
      </trkpt>
      <trkpt lat="43.17692" lon="2.2996">
        <ele>151.6</ele>
        <time>2022-09-02T09:44:48Z</time>
      </trkpt>
      <trkpt lat="43.17701" lon="2.29963">
        <ele>152</ele>
        <time>2022-09-02T09:44:53Z</time>
      </trkpt>
      <trkpt lat="43.17715" lon="2.2997">
        <ele>152.6</ele>
        <time>2022-09-02T09:45:00Z</time>
      </trkpt>
      <trkpt lat="43.17717" lon="2.29971">
        <ele>152.6</ele>
        <time>2022-09-02T09:45:01Z</time>
      </trkpt>
      <trkpt lat="43.17733" lon="2.29978">
        <ele>153.6</ele>
        <time>2022-09-02T09:45:09Z</time>
      </trkpt>
      <trkpt lat="43.17735" lon="2.2998">
        <ele>153.8</ele>
        <time>2022-09-02T09:45:10Z</time>
      </trkpt>
      <trkpt lat="43.17747" lon="2.29984">
        <ele>154.6</ele>
        <time>2022-09-02T09:45:16Z</time>
      </trkpt>
      <trkpt lat="43.17751" lon="2.29986">
        <ele>155.2</ele>
        <time>2022-09-02T09:45:18Z</time>
      </trkpt>
      <trkpt lat="43.17764" lon="2.29991">
        <ele>155.8</ele>
        <time>2022-09-02T09:45:25Z</time>
      </trkpt>
      <trkpt lat="43.1777" lon="2.29994">
        <ele>156.2</ele>
        <time>2022-09-02T09:45:28Z</time>
      </trkpt>
      <trkpt lat="43.17784" lon="2.29999">
        <ele>157.4</ele>
        <time>2022-09-02T09:45:35Z</time>
      </trkpt>
      <trkpt lat="43.1779" lon="2.30002">
        <ele>158</ele>
        <time>2022-09-02T09:45:38Z</time>
      </trkpt>
      <trkpt lat="43.17801" lon="2.30007">
        <ele>158.4</ele>
        <time>2022-09-02T09:45:44Z</time>
      </trkpt>
      <trkpt lat="43.17803" lon="2.30007">
        <ele>158.6</ele>
        <time>2022-09-02T09:45:45Z</time>
      </trkpt>
      <trkpt lat="43.17815" lon="2.30011">
        <ele>159.2</ele>
        <time>2022-09-02T09:45:51Z</time>
      </trkpt>
      <trkpt lat="43.17822" lon="2.30015">
        <ele>159.6</ele>
        <time>2022-09-02T09:45:55Z</time>
      </trkpt>
      <trkpt lat="43.17832" lon="2.30018">
        <ele>160</ele>
        <time>2022-09-02T09:46:00Z</time>
      </trkpt>
      <trkpt lat="43.17846" lon="2.30024">
        <ele>160.6</ele>
        <time>2022-09-02T09:46:07Z</time>
      </trkpt>
      <trkpt lat="43.17848" lon="2.30025">
        <ele>160.8</ele>
        <time>2022-09-02T09:46:08Z</time>
      </trkpt>
      <trkpt lat="43.17863" lon="2.30031">
        <ele>161.6</ele>
        <time>2022-09-02T09:46:15Z</time>
      </trkpt>
      <trkpt lat="43.17867" lon="2.30033">
        <ele>161.8</ele>
        <time>2022-09-02T09:46:17Z</time>
      </trkpt>
      <trkpt lat="43.17879" lon="2.30037">
        <ele>162.4</ele>
        <time>2022-09-02T09:46:23Z</time>
      </trkpt>
      <trkpt lat="43.17887" lon="2.30036">
        <ele>162.6</ele>
        <time>2022-09-02T09:46:27Z</time>
      </trkpt>
      <trkpt lat="43.17888" lon="2.30031">
        <ele>163.2</ele>
        <time>2022-09-02T09:46:29Z</time>
      </trkpt>
      <trkpt lat="43.17883" lon="2.30023">
        <ele>162.8</ele>
        <time>2022-09-02T09:46:34Z</time>
      </trkpt>
      <trkpt lat="43.17881" lon="2.30021">
        <ele>162.8</ele>
        <time>2022-09-02T09:46:35Z</time>
      </trkpt>
      <trkpt lat="43.17869" lon="2.30018">
        <ele>162.4</ele>
        <time>2022-09-02T09:46:40Z</time>
      </trkpt>
      <trkpt lat="43.1785" lon="2.3001">
        <ele>162.8</ele>
        <time>2022-09-02T09:46:48Z</time>
      </trkpt>
      <trkpt lat="43.17844" lon="2.30003">
        <ele>163.2</ele>
        <time>2022-09-02T09:46:51Z</time>
      </trkpt>
      <trkpt lat="43.1784" lon="2.3">
        <ele>163</ele>
        <time>2022-09-02T09:46:53Z</time>
      </trkpt>
      <trkpt lat="43.17831" lon="2.29998">
        <ele>163.2</ele>
        <time>2022-09-02T09:46:56Z</time>
      </trkpt>
      <trkpt lat="43.17823" lon="2.29993">
        <ele>163</ele>
        <time>2022-09-02T09:46:59Z</time>
      </trkpt>
      <trkpt lat="43.178" lon="2.29978">
        <ele>162.8</ele>
        <time>2022-09-02T09:47:07Z</time>
      </trkpt>
      <trkpt lat="43.17785" lon="2.29968">
        <ele>162.6</ele>
        <time>2022-09-02T09:47:13Z</time>
      </trkpt>
      <trkpt lat="43.17765" lon="2.29955">
        <ele>162.8</ele>
        <time>2022-09-02T09:47:20Z</time>
      </trkpt>
      <trkpt lat="43.17746" lon="2.29941">
        <ele>162.6</ele>
        <time>2022-09-02T09:47:27Z</time>
      </trkpt>
      <trkpt lat="43.17729" lon="2.29929">
        <ele>162.4</ele>
        <time>2022-09-02T09:47:33Z</time>
      </trkpt>
      <trkpt lat="43.17706" lon="2.29914">
        <ele>162.4</ele>
        <time>2022-09-02T09:47:42Z</time>
      </trkpt>
      <trkpt lat="43.17686" lon="2.29901">
        <ele>162.4</ele>
        <time>2022-09-02T09:47:49Z</time>
      </trkpt>
      <trkpt lat="43.1767" lon="2.29891">
        <ele>162.4</ele>
        <time>2022-09-02T09:47:55Z</time>
      </trkpt>
      <trkpt lat="43.17656" lon="2.2988">
        <ele>162.8</ele>
        <time>2022-09-02T09:48:00Z</time>
      </trkpt>
      <trkpt lat="43.17653" lon="2.29879">
        <ele>162.8</ele>
        <time>2022-09-02T09:48:01Z</time>
      </trkpt>
      <trkpt lat="43.17643" lon="2.29875">
        <ele>162.8</ele>
        <time>2022-09-02T09:48:04Z</time>
      </trkpt>
      <trkpt lat="43.17626" lon="2.29862">
        <ele>163</ele>
        <time>2022-09-02T09:48:10Z</time>
      </trkpt>
      <trkpt lat="43.17611" lon="2.2985">
        <ele>162.8</ele>
        <time>2022-09-02T09:48:16Z</time>
      </trkpt>
      <trkpt lat="43.1761" lon="2.29837">
        <ele>162.6</ele>
        <time>2022-09-02T09:48:20Z</time>
      </trkpt>
      <trkpt lat="43.17613" lon="2.29831">
        <ele>162.6</ele>
        <time>2022-09-02T09:48:23Z</time>
      </trkpt>
      <trkpt lat="43.17617" lon="2.29826">
        <ele>162.8</ele>
        <time>2022-09-02T09:48:25Z</time>
      </trkpt>
      <trkpt lat="43.17622" lon="2.29815">
        <ele>162.6</ele>
        <time>2022-09-02T09:48:28Z</time>
      </trkpt>
      <trkpt lat="43.17626" lon="2.29803">
        <ele>162.6</ele>
        <time>2022-09-02T09:48:31Z</time>
      </trkpt>
      <trkpt lat="43.17642" lon="2.29771">
        <ele>163.2</ele>
        <time>2022-09-02T09:48:39Z</time>
      </trkpt>
      <trkpt lat="43.17649" lon="2.29744">
        <ele>163.4</ele>
        <time>2022-09-02T09:48:46Z</time>
      </trkpt>
      <trkpt lat="43.17653" lon="2.29715">
        <ele>163.6</ele>
        <time>2022-09-02T09:48:54Z</time>
      </trkpt>
      <trkpt lat="43.17656" lon="2.29692">
        <ele>163</ele>
        <time>2022-09-02T09:48:59Z</time>
      </trkpt>
      <trkpt lat="43.17657" lon="2.29673">
        <ele>162.6</ele>
        <time>2022-09-02T09:49:02Z</time>
      </trkpt>
      <trkpt lat="43.17659" lon="2.29661">
        <ele>162.2</ele>
        <time>2022-09-02T09:49:04Z</time>
      </trkpt>
      <trkpt lat="43.17658" lon="2.29655">
        <ele>161.8</ele>
        <time>2022-09-02T09:49:05Z</time>
      </trkpt>
      <trkpt lat="43.17654" lon="2.29643">
        <ele>161.6</ele>
        <time>2022-09-02T09:49:07Z</time>
      </trkpt>
      <trkpt lat="43.17653" lon="2.29637">
        <ele>161.6</ele>
        <time>2022-09-02T09:49:08Z</time>
      </trkpt>
      <trkpt lat="43.17648" lon="2.29612">
        <ele>161.4</ele>
        <time>2022-09-02T09:49:13Z</time>
      </trkpt>
      <trkpt lat="43.17648" lon="2.29602">
        <ele>161.6</ele>
        <time>2022-09-02T09:49:15Z</time>
      </trkpt>
      <trkpt lat="43.1765" lon="2.2958">
        <ele>161.6</ele>
        <time>2022-09-02T09:49:19Z</time>
      </trkpt>
      <trkpt lat="43.17651" lon="2.29555">
        <ele>161.6</ele>
        <time>2022-09-02T09:49:24Z</time>
      </trkpt>
      <trkpt lat="43.17656" lon="2.2952">
        <ele>161.6</ele>
        <time>2022-09-02T09:49:31Z</time>
      </trkpt>
      <trkpt lat="43.17659" lon="2.29489">
        <ele>161.6</ele>
        <time>2022-09-02T09:49:38Z</time>
      </trkpt>
      <trkpt lat="43.17665" lon="2.29458">
        <ele>161.4</ele>
        <time>2022-09-02T09:49:46Z</time>
      </trkpt>
      <trkpt lat="43.17668" lon="2.2943">
        <ele>161.6</ele>
        <time>2022-09-02T09:49:53Z</time>
      </trkpt>
      <trkpt lat="43.17674" lon="2.29404">
        <ele>162.2</ele>
        <time>2022-09-02T09:50:00Z</time>
      </trkpt>
      <trkpt lat="43.1768" lon="2.29375">
        <ele>162.4</ele>
        <time>2022-09-02T09:50:08Z</time>
      </trkpt>
      <trkpt lat="43.17683" lon="2.29366">
        <ele>162.6</ele>
        <time>2022-09-02T09:50:12Z</time>
      </trkpt>
      <trkpt lat="43.17684" lon="2.29364">
        <ele>162.8</ele>
        <time>2022-09-02T09:50:13Z</time>
      </trkpt>
      <trkpt lat="43.17689" lon="2.29351">
        <ele>162.4</ele>
        <time>2022-09-02T09:50:18Z</time>
      </trkpt>
      <trkpt lat="43.17691" lon="2.29329">
        <ele>162.2</ele>
        <time>2022-09-02T09:50:24Z</time>
      </trkpt>
      <trkpt lat="43.17692" lon="2.29309">
        <ele>161.8</ele>
        <time>2022-09-02T09:50:29Z</time>
      </trkpt>
      <trkpt lat="43.17697" lon="2.29296">
        <ele>161.6</ele>
        <time>2022-09-02T09:50:32Z</time>
      </trkpt>
      <trkpt lat="43.17699" lon="2.29291">
        <ele>161.6</ele>
        <time>2022-09-02T09:50:33Z</time>
      </trkpt>
      <trkpt lat="43.17706" lon="2.29265">
        <ele>161</ele>
        <time>2022-09-02T09:50:38Z</time>
      </trkpt>
      <trkpt lat="43.17707" lon="2.29247">
        <ele>161.2</ele>
        <time>2022-09-02T09:50:42Z</time>
      </trkpt>
      <trkpt lat="43.1771" lon="2.29234">
        <ele>161.4</ele>
        <time>2022-09-02T09:50:46Z</time>
      </trkpt>
      <trkpt lat="43.17717" lon="2.29216">
        <ele>161.4</ele>
        <time>2022-09-02T09:50:51Z</time>
      </trkpt>
      <trkpt lat="43.17724" lon="2.29192">
        <ele>161.6</ele>
        <time>2022-09-02T09:50:57Z</time>
      </trkpt>
      <trkpt lat="43.17737" lon="2.29169">
        <ele>162.2</ele>
        <time>2022-09-02T09:51:03Z</time>
      </trkpt>
      <trkpt lat="43.17749" lon="2.29155">
        <ele>161.8</ele>
        <time>2022-09-02T09:51:08Z</time>
      </trkpt>
      <trkpt lat="43.17763" lon="2.29143">
        <ele>161.8</ele>
        <time>2022-09-02T09:51:13Z</time>
      </trkpt>
      <trkpt lat="43.17766" lon="2.2913">
        <ele>162.4</ele>
        <time>2022-09-02T09:51:17Z</time>
      </trkpt>
      <trkpt lat="43.17764" lon="2.29121">
        <ele>162.8</ele>
        <time>2022-09-02T09:51:20Z</time>
      </trkpt>
      <trkpt lat="43.17763" lon="2.29118">
        <ele>162.8</ele>
        <time>2022-09-02T09:51:21Z</time>
      </trkpt>
      <trkpt lat="43.17763" lon="2.29115">
        <ele>162.8</ele>
        <time>2022-09-02T09:51:22Z</time>
      </trkpt>
      <trkpt lat="43.17762" lon="2.29105">
        <ele>163.4</ele>
        <time>2022-09-02T09:51:27Z</time>
      </trkpt>
      <trkpt lat="43.17769" lon="2.29106">
        <ele>163.4</ele>
        <time>2022-09-02T09:51:56Z</time>
      </trkpt>
      <trkpt lat="43.17771" lon="2.29105">
        <ele>163.4</ele>
        <time>2022-09-02T09:51:57Z</time>
      </trkpt>
      <trkpt lat="43.17783" lon="2.29096">
        <ele>163.4</ele>
        <time>2022-09-02T09:52:04Z</time>
      </trkpt>
      <trkpt lat="43.17783" lon="2.29096">
        <ele>163.8</ele>
        <time>2022-09-02T09:52:17Z</time>
      </trkpt>
      <trkpt lat="43.17779" lon="2.29101">
        <ele>163.4</ele>
        <time>2022-09-02T09:52:20Z</time>
      </trkpt>
      <trkpt lat="43.17766" lon="2.2911">
        <ele>163.4</ele>
        <time>2022-09-02T09:52:28Z</time>
      </trkpt>
      <trkpt lat="43.17765" lon="2.29117">
        <ele>162.8</ele>
        <time>2022-09-02T09:52:31Z</time>
      </trkpt>
      <trkpt lat="43.17766" lon="2.29119">
        <ele>162.6</ele>
        <time>2022-09-02T09:52:32Z</time>
      </trkpt>
      <trkpt lat="43.17768" lon="2.29121">
        <ele>162.6</ele>
        <time>2022-09-02T09:52:33Z</time>
      </trkpt>
      <trkpt lat="43.17768" lon="2.29124">
        <ele>162.6</ele>
        <time>2022-09-02T09:52:34Z</time>
      </trkpt>
      <trkpt lat="43.17767" lon="2.29133">
        <ele>162.4</ele>
        <time>2022-09-02T09:52:37Z</time>
      </trkpt>
      <trkpt lat="43.17769" lon="2.2914">
        <ele>161.8</ele>
        <time>2022-09-02T09:52:42Z</time>
      </trkpt>
      <trkpt lat="43.17776" lon="2.29135">
        <ele>161.8</ele>
        <time>2022-09-02T09:52:46Z</time>
      </trkpt>
      <trkpt lat="43.17778" lon="2.29131">
        <ele>161.8</ele>
        <time>2022-09-02T09:52:48Z</time>
      </trkpt>
      <trkpt lat="43.17786" lon="2.29123">
        <ele>161.8</ele>
        <time>2022-09-02T09:52:53Z</time>
      </trkpt>
      <trkpt lat="43.17801" lon="2.29109">
        <ele>162.2</ele>
        <time>2022-09-02T09:53:02Z</time>
      </trkpt>
      <trkpt lat="43.17816" lon="2.29097">
        <ele>162.2</ele>
        <time>2022-09-02T09:53:09Z</time>
      </trkpt>
      <trkpt lat="43.17827" lon="2.29092">
        <ele>162.2</ele>
        <time>2022-09-02T09:53:14Z</time>
      </trkpt>
      <trkpt lat="43.17837" lon="2.29085">
        <ele>162.2</ele>
        <time>2022-09-02T09:53:19Z</time>
      </trkpt>
      <trkpt lat="43.17855" lon="2.29073">
        <ele>162.2</ele>
        <time>2022-09-02T09:53:27Z</time>
      </trkpt>
      <trkpt lat="43.17868" lon="2.29062">
        <ele>162</ele>
        <time>2022-09-02T09:53:34Z</time>
      </trkpt>
      <trkpt lat="43.17877" lon="2.29052">
        <ele>161.8</ele>
        <time>2022-09-02T09:53:40Z</time>
      </trkpt>
      <trkpt lat="43.17885" lon="2.29037">
        <ele>162</ele>
        <time>2022-09-02T09:53:46Z</time>
      </trkpt>
      <trkpt lat="43.1789" lon="2.2901">
        <ele>162.8</ele>
        <time>2022-09-02T09:53:54Z</time>
      </trkpt>
      <trkpt lat="43.17894" lon="2.28985">
        <ele>162.8</ele>
        <time>2022-09-02T09:54:02Z</time>
      </trkpt>
      <trkpt lat="43.179" lon="2.28971">
        <ele>162.6</ele>
        <time>2022-09-02T09:54:07Z</time>
      </trkpt>
      <trkpt lat="43.17904" lon="2.28952">
        <ele>163</ele>
        <time>2022-09-02T09:54:13Z</time>
      </trkpt>
      <trkpt lat="43.17909" lon="2.28928">
        <ele>163.2</ele>
        <time>2022-09-02T09:54:20Z</time>
      </trkpt>
      <trkpt lat="43.17915" lon="2.28905">
        <ele>163.6</ele>
        <time>2022-09-02T09:54:27Z</time>
      </trkpt>
      <trkpt lat="43.17915" lon="2.28899">
        <ele>163.6</ele>
        <time>2022-09-02T09:54:29Z</time>
      </trkpt>
      <trkpt lat="43.17917" lon="2.2889">
        <ele>163.8</ele>
        <time>2022-09-02T09:54:32Z</time>
      </trkpt>
      <trkpt lat="43.17924" lon="2.28861">
        <ele>164.6</ele>
        <time>2022-09-02T09:54:40Z</time>
      </trkpt>
      <trkpt lat="43.17925" lon="2.28854">
        <ele>164.8</ele>
        <time>2022-09-02T09:54:42Z</time>
      </trkpt>
      <trkpt lat="43.17931" lon="2.28831">
        <ele>165.4</ele>
        <time>2022-09-02T09:54:49Z</time>
      </trkpt>
      <trkpt lat="43.17936" lon="2.28808">
        <ele>165.8</ele>
        <time>2022-09-02T09:54:56Z</time>
      </trkpt>
      <trkpt lat="43.17936" lon="2.28804">
        <ele>165.8</ele>
        <time>2022-09-02T09:54:57Z</time>
      </trkpt>
      <trkpt lat="43.17941" lon="2.28781">
        <ele>166</ele>
        <time>2022-09-02T09:55:04Z</time>
      </trkpt>
      <trkpt lat="43.17943" lon="2.28775">
        <ele>166.2</ele>
        <time>2022-09-02T09:55:06Z</time>
      </trkpt>
      <trkpt lat="43.17948" lon="2.28753">
        <ele>166.6</ele>
        <time>2022-09-02T09:55:12Z</time>
      </trkpt>
      <trkpt lat="43.17953" lon="2.28738">
        <ele>166.8</ele>
        <time>2022-09-02T09:55:16Z</time>
      </trkpt>
      <trkpt lat="43.17954" lon="2.28734">
        <ele>167</ele>
        <time>2022-09-02T09:55:17Z</time>
      </trkpt>
      <trkpt lat="43.1796" lon="2.28711">
        <ele>167.2</ele>
        <time>2022-09-02T09:55:23Z</time>
      </trkpt>
      <trkpt lat="43.17965" lon="2.28683">
        <ele>167.8</ele>
        <time>2022-09-02T09:55:30Z</time>
      </trkpt>
      <trkpt lat="43.17971" lon="2.28658">
        <ele>168.6</ele>
        <time>2022-09-02T09:55:37Z</time>
      </trkpt>
      <trkpt lat="43.17972" lon="2.28651">
        <ele>169</ele>
        <time>2022-09-02T09:55:39Z</time>
      </trkpt>
      <trkpt lat="43.17973" lon="2.28639">
        <ele>169</ele>
        <time>2022-09-02T09:55:43Z</time>
      </trkpt>
      <trkpt lat="43.17975" lon="2.28631">
        <ele>169.2</ele>
        <time>2022-09-02T09:55:49Z</time>
      </trkpt>
      <trkpt lat="43.17978" lon="2.28622">
        <ele>169.6</ele>
        <time>2022-09-02T09:57:45Z</time>
      </trkpt>
      <trkpt lat="43.17979" lon="2.28617">
        <ele>169.8</ele>
        <time>2022-09-02T09:57:47Z</time>
      </trkpt>
      <trkpt lat="43.1798" lon="2.28615">
        <ele>170</ele>
        <time>2022-09-02T09:57:48Z</time>
      </trkpt>
      <trkpt lat="43.17984" lon="2.28595">
        <ele>170.4</ele>
        <time>2022-09-02T09:57:55Z</time>
      </trkpt>
      <trkpt lat="43.17987" lon="2.28578">
        <ele>171</ele>
        <time>2022-09-02T09:58:01Z</time>
      </trkpt>
      <trkpt lat="43.17988" lon="2.28572">
        <ele>171.2</ele>
        <time>2022-09-02T09:58:03Z</time>
      </trkpt>
      <trkpt lat="43.17993" lon="2.28549">
        <ele>172</ele>
        <time>2022-09-02T09:58:11Z</time>
      </trkpt>
      <trkpt lat="43.17999" lon="2.28526">
        <ele>173</ele>
        <time>2022-09-02T09:58:19Z</time>
      </trkpt>
      <trkpt lat="43.18" lon="2.28523">
        <ele>173.2</ele>
        <time>2022-09-02T09:58:20Z</time>
      </trkpt>
      <trkpt lat="43.18005" lon="2.28507">
        <ele>174</ele>
        <time>2022-09-02T09:58:26Z</time>
      </trkpt>
      <trkpt lat="43.18005" lon="2.28501">
        <ele>174.4</ele>
        <time>2022-09-02T09:58:28Z</time>
      </trkpt>
      <trkpt lat="43.18006" lon="2.28493">
        <ele>175</ele>
        <time>2022-09-02T09:58:31Z</time>
      </trkpt>
      <trkpt lat="43.1801" lon="2.2848">
        <ele>175.6</ele>
        <time>2022-09-02T09:58:36Z</time>
      </trkpt>
      <trkpt lat="43.18013" lon="2.28472">
        <ele>176.2</ele>
        <time>2022-09-02T09:58:39Z</time>
      </trkpt>
      <trkpt lat="43.18014" lon="2.28463">
        <ele>176.6</ele>
        <time>2022-09-02T09:58:42Z</time>
      </trkpt>
      <trkpt lat="43.18016" lon="2.28451">
        <ele>177.2</ele>
        <time>2022-09-02T09:58:47Z</time>
      </trkpt>
      <trkpt lat="43.18016" lon="2.28449">
        <ele>177.8</ele>
        <time>2022-09-02T09:58:48Z</time>
      </trkpt>
      <trkpt lat="43.18019" lon="2.28437">
        <ele>178.4</ele>
        <time>2022-09-02T09:58:53Z</time>
      </trkpt>
      <trkpt lat="43.1802" lon="2.2843">
        <ele>178.8</ele>
        <time>2022-09-02T09:58:56Z</time>
      </trkpt>
      <trkpt lat="43.18022" lon="2.28417">
        <ele>179.4</ele>
        <time>2022-09-02T09:59:01Z</time>
      </trkpt>
      <trkpt lat="43.18025" lon="2.28406">
        <ele>179.8</ele>
        <time>2022-09-02T09:59:05Z</time>
      </trkpt>
      <trkpt lat="43.18026" lon="2.28401">
        <ele>180.2</ele>
        <time>2022-09-02T09:59:07Z</time>
      </trkpt>
      <trkpt lat="43.1803" lon="2.28389">
        <ele>181</ele>
        <time>2022-09-02T09:59:12Z</time>
      </trkpt>
      <trkpt lat="43.18031" lon="2.28383">
        <ele>181.2</ele>
        <time>2022-09-02T09:59:14Z</time>
      </trkpt>
      <trkpt lat="43.18034" lon="2.28364">
        <ele>181.6</ele>
        <time>2022-09-02T09:59:21Z</time>
      </trkpt>
      <trkpt lat="43.18039" lon="2.28338">
        <ele>181.6</ele>
        <time>2022-09-02T09:59:29Z</time>
      </trkpt>
      <trkpt lat="43.18044" lon="2.2832">
        <ele>182</ele>
        <time>2022-09-02T09:59:35Z</time>
      </trkpt>
      <trkpt lat="43.18046" lon="2.28314">
        <ele>182.2</ele>
        <time>2022-09-02T09:59:37Z</time>
      </trkpt>
      <trkpt lat="43.18051" lon="2.28298">
        <ele>183</ele>
        <time>2022-09-02T09:59:42Z</time>
      </trkpt>
      <trkpt lat="43.18053" lon="2.28289">
        <ele>183.4</ele>
        <time>2022-09-02T09:59:45Z</time>
      </trkpt>
      <trkpt lat="43.18051" lon="2.2828">
        <ele>184</ele>
        <time>2022-09-02T09:59:48Z</time>
      </trkpt>
      <trkpt lat="43.1805" lon="2.28278">
        <ele>184</ele>
        <time>2022-09-02T09:59:49Z</time>
      </trkpt>
      <trkpt lat="43.18047" lon="2.28273">
        <ele>184.2</ele>
        <time>2022-09-02T09:59:51Z</time>
      </trkpt>
      <trkpt lat="43.18042" lon="2.28269">
        <ele>184.6</ele>
        <time>2022-09-02T09:59:54Z</time>
      </trkpt>
      <trkpt lat="43.18038" lon="2.28267">
        <ele>185</ele>
        <time>2022-09-02T09:59:56Z</time>
      </trkpt>
      <trkpt lat="43.18036" lon="2.28266">
        <ele>185.2</ele>
        <time>2022-09-02T09:59:57Z</time>
      </trkpt>
      <trkpt lat="43.18026" lon="2.2826">
        <ele>186.2</ele>
        <time>2022-09-02T10:00:02Z</time>
      </trkpt>
      <trkpt lat="43.18017" lon="2.28252">
        <ele>186.8</ele>
        <time>2022-09-02T10:00:07Z</time>
      </trkpt>
      <trkpt lat="43.18008" lon="2.28246">
        <ele>187.2</ele>
        <time>2022-09-02T10:00:12Z</time>
      </trkpt>
      <trkpt lat="43.18001" lon="2.2824">
        <ele>187.8</ele>
        <time>2022-09-02T10:00:16Z</time>
      </trkpt>
      <trkpt lat="43.17985" lon="2.28229">
        <ele>188.6</ele>
        <time>2022-09-02T10:00:24Z</time>
      </trkpt>
      <trkpt lat="43.17983" lon="2.28227">
        <ele>188.8</ele>
        <time>2022-09-02T10:00:25Z</time>
      </trkpt>
      <trkpt lat="43.17967" lon="2.28215">
        <ele>189.6</ele>
        <time>2022-09-02T10:00:33Z</time>
      </trkpt>
      <trkpt lat="43.17961" lon="2.28211">
        <ele>190</ele>
        <time>2022-09-02T10:00:36Z</time>
      </trkpt>
      <trkpt lat="43.17953" lon="2.282">
        <ele>190.8</ele>
        <time>2022-09-02T10:00:41Z</time>
      </trkpt>
      <trkpt lat="43.17951" lon="2.28196">
        <ele>190.8</ele>
        <time>2022-09-02T10:00:43Z</time>
      </trkpt>
      <trkpt lat="43.17944" lon="2.28188">
        <ele>190</ele>
        <time>2022-09-02T10:00:50Z</time>
      </trkpt>
      <trkpt lat="43.17943" lon="2.28185">
        <ele>190.6</ele>
        <time>2022-09-02T10:03:20Z</time>
      </trkpt>
      <trkpt lat="43.17943" lon="2.28179">
        <ele>190.8</ele>
        <time>2022-09-02T10:03:22Z</time>
      </trkpt>
      <trkpt lat="43.17945" lon="2.28164">
        <ele>191.2</ele>
        <time>2022-09-02T10:03:28Z</time>
      </trkpt>
      <trkpt lat="43.17946" lon="2.28162">
        <ele>191.8</ele>
        <time>2022-09-02T10:03:29Z</time>
      </trkpt>
      <trkpt lat="43.17951" lon="2.28145">
        <ele>192</ele>
        <time>2022-09-02T10:03:35Z</time>
      </trkpt>
      <trkpt lat="43.17958" lon="2.28119">
        <ele>192.4</ele>
        <time>2022-09-02T10:03:44Z</time>
      </trkpt>
      <trkpt lat="43.17962" lon="2.28105">
        <ele>192.8</ele>
        <time>2022-09-02T10:03:49Z</time>
      </trkpt>
      <trkpt lat="43.17965" lon="2.28095">
        <ele>193.4</ele>
        <time>2022-09-02T10:03:53Z</time>
      </trkpt>
      <trkpt lat="43.17967" lon="2.28087">
        <ele>194</ele>
        <time>2022-09-02T10:03:56Z</time>
      </trkpt>
      <trkpt lat="43.1797" lon="2.28078">
        <ele>194.6</ele>
        <time>2022-09-02T10:04:00Z</time>
      </trkpt>
      <trkpt lat="43.17972" lon="2.28071">
        <ele>195.2</ele>
        <time>2022-09-02T10:04:03Z</time>
      </trkpt>
      <trkpt lat="43.17974" lon="2.28061">
        <ele>195.6</ele>
        <time>2022-09-02T10:04:07Z</time>
      </trkpt>
      <trkpt lat="43.17976" lon="2.28049">
        <ele>196.4</ele>
        <time>2022-09-02T10:04:12Z</time>
      </trkpt>
      <trkpt lat="43.17977" lon="2.28044">
        <ele>196.8</ele>
        <time>2022-09-02T10:04:14Z</time>
      </trkpt>
      <trkpt lat="43.17981" lon="2.2803">
        <ele>197.6</ele>
        <time>2022-09-02T10:04:20Z</time>
      </trkpt>
      <trkpt lat="43.17983" lon="2.28022">
        <ele>198</ele>
        <time>2022-09-02T10:04:24Z</time>
      </trkpt>
      <trkpt lat="43.17985" lon="2.28016">
        <ele>198.6</ele>
        <time>2022-09-02T10:04:27Z</time>
      </trkpt>
      <trkpt lat="43.17987" lon="2.28008">
        <ele>199.4</ele>
        <time>2022-09-02T10:04:31Z</time>
      </trkpt>
      <trkpt lat="43.17988" lon="2.28003">
        <ele>199.8</ele>
        <time>2022-09-02T10:04:33Z</time>
      </trkpt>
      <trkpt lat="43.17993" lon="2.27985">
        <ele>200.8</ele>
        <time>2022-09-02T10:04:41Z</time>
      </trkpt>
      <trkpt lat="43.17998" lon="2.27967">
        <ele>202</ele>
        <time>2022-09-02T10:04:49Z</time>
      </trkpt>
      <trkpt lat="43.18003" lon="2.27951">
        <ele>203</ele>
        <time>2022-09-02T10:04:56Z</time>
      </trkpt>
      <trkpt lat="43.18006" lon="2.27937">
        <ele>204.2</ele>
        <time>2022-09-02T10:05:03Z</time>
      </trkpt>
      <trkpt lat="43.18008" lon="2.27932">
        <ele>204.4</ele>
        <time>2022-09-02T10:05:05Z</time>
      </trkpt>
      <trkpt lat="43.18011" lon="2.27917">
        <ele>205.2</ele>
        <time>2022-09-02T10:05:12Z</time>
      </trkpt>
      <trkpt lat="43.18012" lon="2.27912">
        <ele>205.4</ele>
        <time>2022-09-02T10:05:14Z</time>
      </trkpt>
      <trkpt lat="43.18015" lon="2.27887">
        <ele>206</ele>
        <time>2022-09-02T10:05:23Z</time>
      </trkpt>
      <trkpt lat="43.18016" lon="2.27884">
        <ele>206.2</ele>
        <time>2022-09-02T10:05:24Z</time>
      </trkpt>
      <trkpt lat="43.18021" lon="2.27858">
        <ele>206.4</ele>
        <time>2022-09-02T10:05:33Z</time>
      </trkpt>
      <trkpt lat="43.18027" lon="2.27835">
        <ele>206.2</ele>
        <time>2022-09-02T10:05:40Z</time>
      </trkpt>
      <trkpt lat="43.18035" lon="2.27808">
        <ele>205.8</ele>
        <time>2022-09-02T10:05:47Z</time>
      </trkpt>
      <trkpt lat="43.18044" lon="2.27784">
        <ele>205.4</ele>
        <time>2022-09-02T10:05:53Z</time>
      </trkpt>
      <trkpt lat="43.18048" lon="2.27758">
        <ele>205.8</ele>
        <time>2022-09-02T10:05:59Z</time>
      </trkpt>
      <trkpt lat="43.1805" lon="2.27727">
        <ele>205.4</ele>
        <time>2022-09-02T10:06:06Z</time>
      </trkpt>
      <trkpt lat="43.18052" lon="2.27716">
        <ele>205.2</ele>
        <time>2022-09-02T10:06:09Z</time>
      </trkpt>
      <trkpt lat="43.18056" lon="2.27701">
        <ele>205.2</ele>
        <time>2022-09-02T10:06:13Z</time>
      </trkpt>
      <trkpt lat="43.1806" lon="2.27687">
        <ele>204.8</ele>
        <time>2022-09-02T10:06:19Z</time>
      </trkpt>
      <trkpt lat="43.18074" lon="2.27677">
        <ele>205.6</ele>
        <time>2022-09-02T10:06:50Z</time>
      </trkpt>
      <trkpt lat="43.18084" lon="2.27678">
        <ele>205.8</ele>
        <time>2022-09-02T10:06:54Z</time>
      </trkpt>
      <trkpt lat="43.18098" lon="2.27683">
        <ele>206.2</ele>
        <time>2022-09-02T10:07:00Z</time>
      </trkpt>
      <trkpt lat="43.18102" lon="2.27684">
        <ele>206.4</ele>
        <time>2022-09-02T10:07:02Z</time>
      </trkpt>
      <trkpt lat="43.18118" lon="2.2769">
        <ele>206.8</ele>
        <time>2022-09-02T10:07:10Z</time>
      </trkpt>
      <trkpt lat="43.18126" lon="2.27689">
        <ele>207.2</ele>
        <time>2022-09-02T10:07:15Z</time>
      </trkpt>
      <trkpt lat="43.18129" lon="2.27679">
        <ele>207</ele>
        <time>2022-09-02T10:07:19Z</time>
      </trkpt>
      <trkpt lat="43.18134" lon="2.27655">
        <ele>206.6</ele>
        <time>2022-09-02T10:07:26Z</time>
      </trkpt>
      <trkpt lat="43.18139" lon="2.27624">
        <ele>206.4</ele>
        <time>2022-09-02T10:07:34Z</time>
      </trkpt>
      <trkpt lat="43.1814" lon="2.2759">
        <ele>205.6</ele>
        <time>2022-09-02T10:07:42Z</time>
      </trkpt>
      <trkpt lat="43.1814" lon="2.27585">
        <ele>205.4</ele>
        <time>2022-09-02T10:07:44Z</time>
      </trkpt>
      <trkpt lat="43.1814" lon="2.27583">
        <ele>205.2</ele>
        <time>2022-09-02T10:07:45Z</time>
      </trkpt>
      <trkpt lat="43.18141" lon="2.2758">
        <ele>205.4</ele>
        <time>2022-09-02T10:07:46Z</time>
      </trkpt>
      <trkpt lat="43.18141" lon="2.27572">
        <ele>205.6</ele>
        <time>2022-09-02T10:07:48Z</time>
      </trkpt>
      <trkpt lat="43.18141" lon="2.27559">
        <ele>205.6</ele>
        <time>2022-09-02T10:07:51Z</time>
      </trkpt>
      <trkpt lat="43.1814" lon="2.27521">
        <ele>205.6</ele>
        <time>2022-09-02T10:07:59Z</time>
      </trkpt>
      <trkpt lat="43.18142" lon="2.27485">
        <ele>204.4</ele>
        <time>2022-09-02T10:08:06Z</time>
      </trkpt>
      <trkpt lat="43.18144" lon="2.27456">
        <ele>204.6</ele>
        <time>2022-09-02T10:08:12Z</time>
      </trkpt>
      <trkpt lat="43.18151" lon="2.27405">
        <ele>204.6</ele>
        <time>2022-09-02T10:08:21Z</time>
      </trkpt>
      <trkpt lat="43.18158" lon="2.27362">
        <ele>204.8</ele>
        <time>2022-09-02T10:08:29Z</time>
      </trkpt>
      <trkpt lat="43.18167" lon="2.27323">
        <ele>205.6</ele>
        <time>2022-09-02T10:08:37Z</time>
      </trkpt>
      <trkpt lat="43.18172" lon="2.27299">
        <ele>206.4</ele>
        <time>2022-09-02T10:08:43Z</time>
      </trkpt>
      <trkpt lat="43.18175" lon="2.27278">
        <ele>207.4</ele>
        <time>2022-09-02T10:08:48Z</time>
      </trkpt>
      <trkpt lat="43.18178" lon="2.27268">
        <ele>208.6</ele>
        <time>2022-09-02T10:08:51Z</time>
      </trkpt>
      <trkpt lat="43.18182" lon="2.27251">
        <ele>209.2</ele>
        <time>2022-09-02T10:08:57Z</time>
      </trkpt>
      <trkpt lat="43.18192" lon="2.27227">
        <ele>208.6</ele>
        <time>2022-09-02T10:09:03Z</time>
      </trkpt>
      <trkpt lat="43.18204" lon="2.27216">
        <ele>208</ele>
        <time>2022-09-02T10:09:06Z</time>
      </trkpt>
      <trkpt lat="43.18208" lon="2.27214">
        <ele>207.8</ele>
        <time>2022-09-02T10:09:07Z</time>
      </trkpt>
      <trkpt lat="43.18217" lon="2.2721">
        <ele>207.8</ele>
        <time>2022-09-02T10:09:09Z</time>
      </trkpt>
      <trkpt lat="43.18233" lon="2.27203">
        <ele>208</ele>
        <time>2022-09-02T10:09:13Z</time>
      </trkpt>
      <trkpt lat="43.18262" lon="2.27192">
        <ele>207.6</ele>
        <time>2022-09-02T10:09:21Z</time>
      </trkpt>
      <trkpt lat="43.18272" lon="2.27186">
        <ele>207.4</ele>
        <time>2022-09-02T10:09:24Z</time>
      </trkpt>
      <trkpt lat="43.18281" lon="2.27176">
        <ele>207.4</ele>
        <time>2022-09-02T10:09:27Z</time>
      </trkpt>
      <trkpt lat="43.18286" lon="2.27155">
        <ele>207.8</ele>
        <time>2022-09-02T10:09:31Z</time>
      </trkpt>
      <trkpt lat="43.18286" lon="2.27128">
        <ele>208.6</ele>
        <time>2022-09-02T10:09:36Z</time>
      </trkpt>
      <trkpt lat="43.18286" lon="2.27107">
        <ele>209.6</ele>
        <time>2022-09-02T10:09:40Z</time>
      </trkpt>
      <trkpt lat="43.18286" lon="2.27087">
        <ele>210.6</ele>
        <time>2022-09-02T10:09:44Z</time>
      </trkpt>
      <trkpt lat="43.18286" lon="2.27067">
        <ele>211.2</ele>
        <time>2022-09-02T10:09:48Z</time>
      </trkpt>
      <trkpt lat="43.18285" lon="2.27059">
        <ele>211.8</ele>
        <time>2022-09-02T10:09:50Z</time>
      </trkpt>
      <trkpt lat="43.18286" lon="2.27041">
        <ele>212.2</ele>
        <time>2022-09-02T10:09:54Z</time>
      </trkpt>
      <trkpt lat="43.18288" lon="2.27014">
        <ele>212.6</ele>
        <time>2022-09-02T10:10:00Z</time>
      </trkpt>
      <trkpt lat="43.18291" lon="2.26981">
        <ele>212.2</ele>
        <time>2022-09-02T10:10:07Z</time>
      </trkpt>
      <trkpt lat="43.18297" lon="2.26942">
        <ele>211.2</ele>
        <time>2022-09-02T10:10:14Z</time>
      </trkpt>
      <trkpt lat="43.18299" lon="2.2693">
        <ele>210.8</ele>
        <time>2022-09-02T10:10:16Z</time>
      </trkpt>
      <trkpt lat="43.18307" lon="2.269">
        <ele>210.8</ele>
        <time>2022-09-02T10:10:21Z</time>
      </trkpt>
      <trkpt lat="43.18313" lon="2.26877">
        <ele>210.8</ele>
        <time>2022-09-02T10:10:25Z</time>
      </trkpt>
      <trkpt lat="43.18319" lon="2.2686">
        <ele>210</ele>
        <time>2022-09-02T10:10:28Z</time>
      </trkpt>
      <trkpt lat="43.1833" lon="2.26834">
        <ele>210</ele>
        <time>2022-09-02T10:10:33Z</time>
      </trkpt>
      <trkpt lat="43.18335" lon="2.26825">
        <ele>209.4</ele>
        <time>2022-09-02T10:10:35Z</time>
      </trkpt>
      <trkpt lat="43.18343" lon="2.26811">
        <ele>209.4</ele>
        <time>2022-09-02T10:10:38Z</time>
      </trkpt>
      <trkpt lat="43.18352" lon="2.26801">
        <ele>209.2</ele>
        <time>2022-09-02T10:10:41Z</time>
      </trkpt>
      <trkpt lat="43.18365" lon="2.26791">
        <ele>209</ele>
        <time>2022-09-02T10:10:45Z</time>
      </trkpt>
      <trkpt lat="43.18371" lon="2.26787">
        <ele>209</ele>
        <time>2022-09-02T10:10:47Z</time>
      </trkpt>
      <trkpt lat="43.18385" lon="2.26779">
        <ele>209</ele>
        <time>2022-09-02T10:10:51Z</time>
      </trkpt>
      <trkpt lat="43.18412" lon="2.26764">
        <ele>210.6</ele>
        <time>2022-09-02T10:10:59Z</time>
      </trkpt>
      <trkpt lat="43.18424" lon="2.2675">
        <ele>211.2</ele>
        <time>2022-09-02T10:11:04Z</time>
      </trkpt>
      <trkpt lat="43.18429" lon="2.26725">
        <ele>210.4</ele>
        <time>2022-09-02T10:11:10Z</time>
      </trkpt>
      <trkpt lat="43.18432" lon="2.26707">
        <ele>209.6</ele>
        <time>2022-09-02T10:11:14Z</time>
      </trkpt>
      <trkpt lat="43.18435" lon="2.267">
        <ele>209.4</ele>
        <time>2022-09-02T10:11:17Z</time>
      </trkpt>
      <trkpt lat="43.18445" lon="2.26698">
        <ele>208.8</ele>
        <time>2022-09-02T10:11:21Z</time>
      </trkpt>
      <trkpt lat="43.18453" lon="2.267">
        <ele>208.8</ele>
        <time>2022-09-02T10:11:23Z</time>
      </trkpt>
      <trkpt lat="43.18458" lon="2.26702">
        <ele>208.4</ele>
        <time>2022-09-02T10:11:24Z</time>
      </trkpt>
      <trkpt lat="43.18462" lon="2.26704">
        <ele>208.2</ele>
        <time>2022-09-02T10:11:25Z</time>
      </trkpt>
      <trkpt lat="43.18467" lon="2.26706">
        <ele>207.8</ele>
        <time>2022-09-02T10:11:26Z</time>
      </trkpt>
      <trkpt lat="43.18471" lon="2.26709">
        <ele>207.4</ele>
        <time>2022-09-02T10:11:27Z</time>
      </trkpt>
      <trkpt lat="43.18477" lon="2.26714">
        <ele>206.6</ele>
        <time>2022-09-02T10:11:29Z</time>
      </trkpt>
      <trkpt lat="43.18482" lon="2.26718">
        <ele>206.2</ele>
        <time>2022-09-02T10:11:31Z</time>
      </trkpt>
      <trkpt lat="43.18483" lon="2.2672">
        <ele>205.4</ele>
        <time>2022-09-02T10:11:33Z</time>
      </trkpt>
      <trkpt lat="43.18485" lon="2.26725">
        <ele>204.8</ele>
        <time>2022-09-02T10:11:42Z</time>
      </trkpt>
      <trkpt lat="43.18485" lon="2.26731">
        <ele>204.8</ele>
        <time>2022-09-02T10:11:44Z</time>
      </trkpt>
      <trkpt lat="43.18483" lon="2.26739">
        <ele>204.4</ele>
        <time>2022-09-02T10:11:47Z</time>
      </trkpt>
      <trkpt lat="43.18482" lon="2.2674">
        <ele>204.4</ele>
        <time>2022-09-02T10:11:49Z</time>
      </trkpt>
      <trkpt lat="43.18478" lon="2.2675">
        <ele>204.8</ele>
        <time>2022-09-02T10:15:01Z</time>
      </trkpt>
      <trkpt lat="43.18478" lon="2.26753">
        <ele>204.8</ele>
        <time>2022-09-02T10:15:02Z</time>
      </trkpt>
      <trkpt lat="43.18477" lon="2.26763">
        <ele>204.2</ele>
        <time>2022-09-02T10:15:05Z</time>
      </trkpt>
      <trkpt lat="43.18475" lon="2.26771">
        <ele>204</ele>
        <time>2022-09-02T10:15:07Z</time>
      </trkpt>
      <trkpt lat="43.18473" lon="2.26788">
        <ele>203.6</ele>
        <time>2022-09-02T10:15:11Z</time>
      </trkpt>
      <trkpt lat="43.18467" lon="2.2681">
        <ele>202.8</ele>
        <time>2022-09-02T10:15:17Z</time>
      </trkpt>
      <trkpt lat="43.18466" lon="2.26815">
        <ele>202.6</ele>
        <time>2022-09-02T10:15:19Z</time>
      </trkpt>
      <trkpt lat="43.18466" lon="2.26817">
        <ele>202.4</ele>
        <time>2022-09-02T10:15:22Z</time>
      </trkpt>
      <trkpt lat="43.18464" lon="2.26811">
        <ele>203.6</ele>
        <time>2022-09-02T10:19:32Z</time>
      </trkpt>
      <trkpt lat="43.18465" lon="2.26806">
        <ele>203.8</ele>
        <time>2022-09-02T10:19:34Z</time>
      </trkpt>
      <trkpt lat="43.18467" lon="2.268">
        <ele>204.2</ele>
        <time>2022-09-02T10:19:36Z</time>
      </trkpt>
      <trkpt lat="43.18472" lon="2.26782">
        <ele>204.4</ele>
        <time>2022-09-02T10:19:41Z</time>
      </trkpt>
      <trkpt lat="43.18474" lon="2.26776">
        <ele>204.6</ele>
        <time>2022-09-02T10:19:43Z</time>
      </trkpt>
      <trkpt lat="43.18482" lon="2.26752">
        <ele>205.8</ele>
        <time>2022-09-02T10:19:50Z</time>
      </trkpt>
      <trkpt lat="43.18489" lon="2.26728">
        <ele>206.2</ele>
        <time>2022-09-02T10:19:58Z</time>
      </trkpt>
      <trkpt lat="43.18492" lon="2.26712">
        <ele>206.8</ele>
        <time>2022-09-02T10:20:03Z</time>
      </trkpt>
      <trkpt lat="43.18494" lon="2.26703">
        <ele>207</ele>
        <time>2022-09-02T10:20:06Z</time>
      </trkpt>
      <trkpt lat="43.185" lon="2.26676">
        <ele>207.6</ele>
        <time>2022-09-02T10:20:14Z</time>
      </trkpt>
      <trkpt lat="43.18504" lon="2.26662">
        <ele>208</ele>
        <time>2022-09-02T10:20:18Z</time>
      </trkpt>
      <trkpt lat="43.18507" lon="2.26651">
        <ele>208.2</ele>
        <time>2022-09-02T10:20:21Z</time>
      </trkpt>
      <trkpt lat="43.18513" lon="2.26628">
        <ele>209</ele>
        <time>2022-09-02T10:20:27Z</time>
      </trkpt>
      <trkpt lat="43.18516" lon="2.26613">
        <ele>209.4</ele>
        <time>2022-09-02T10:20:31Z</time>
      </trkpt>
      <trkpt lat="43.18516" lon="2.26602">
        <ele>210</ele>
        <time>2022-09-02T10:20:34Z</time>
      </trkpt>
      <trkpt lat="43.18517" lon="2.26578">
        <ele>210</ele>
        <time>2022-09-02T10:20:40Z</time>
      </trkpt>
      <trkpt lat="43.18513" lon="2.26543">
        <ele>210.2</ele>
        <time>2022-09-02T10:20:49Z</time>
      </trkpt>
      <trkpt lat="43.18503" lon="2.26515">
        <ele>210.4</ele>
        <time>2022-09-02T10:20:56Z</time>
      </trkpt>
      <trkpt lat="43.1849" lon="2.26482">
        <ele>209.6</ele>
        <time>2022-09-02T10:21:03Z</time>
      </trkpt>
      <trkpt lat="43.18476" lon="2.26456">
        <ele>210.4</ele>
        <time>2022-09-02T10:21:09Z</time>
      </trkpt>
      <trkpt lat="43.18465" lon="2.26437">
        <ele>210</ele>
        <time>2022-09-02T10:21:13Z</time>
      </trkpt>
      <trkpt lat="43.1846" lon="2.26428">
        <ele>209.6</ele>
        <time>2022-09-02T10:21:15Z</time>
      </trkpt>
      <trkpt lat="43.18457" lon="2.26424">
        <ele>209.4</ele>
        <time>2022-09-02T10:21:16Z</time>
      </trkpt>
      <trkpt lat="43.18435" lon="2.26384">
        <ele>209.4</ele>
        <time>2022-09-02T10:21:25Z</time>
      </trkpt>
      <trkpt lat="43.18418" lon="2.26353">
        <ele>209</ele>
        <time>2022-09-02T10:21:32Z</time>
      </trkpt>
      <trkpt lat="43.18416" lon="2.26349">
        <ele>209</ele>
        <time>2022-09-02T10:21:33Z</time>
      </trkpt>
      <trkpt lat="43.18397" lon="2.26329">
        <ele>208.6</ele>
        <time>2022-09-02T10:21:39Z</time>
      </trkpt>
      <trkpt lat="43.18385" lon="2.26322">
        <ele>208.8</ele>
        <time>2022-09-02T10:21:42Z</time>
      </trkpt>
      <trkpt lat="43.18372" lon="2.26316">
        <ele>208.4</ele>
        <time>2022-09-02T10:21:45Z</time>
      </trkpt>
      <trkpt lat="43.18334" lon="2.26305">
        <ele>208</ele>
        <time>2022-09-02T10:21:53Z</time>
      </trkpt>
      <trkpt lat="43.18329" lon="2.26303">
        <ele>207.8</ele>
        <time>2022-09-02T10:21:54Z</time>
      </trkpt>
      <trkpt lat="43.18284" lon="2.26291">
        <ele>208</ele>
        <time>2022-09-02T10:22:03Z</time>
      </trkpt>
      <trkpt lat="43.18254" lon="2.26282">
        <ele>208.4</ele>
        <time>2022-09-02T10:22:10Z</time>
      </trkpt>
      <trkpt lat="43.18239" lon="2.26278">
        <ele>209.2</ele>
        <time>2022-09-02T10:22:14Z</time>
      </trkpt>
      <trkpt lat="43.18222" lon="2.2627">
        <ele>209.4</ele>
        <time>2022-09-02T10:22:19Z</time>
      </trkpt>
      <trkpt lat="43.18207" lon="2.26251">
        <ele>210.2</ele>
        <time>2022-09-02T10:22:25Z</time>
      </trkpt>
      <trkpt lat="43.18206" lon="2.26246">
        <ele>210.2</ele>
        <time>2022-09-02T10:22:26Z</time>
      </trkpt>
      <trkpt lat="43.18204" lon="2.26229">
        <ele>211</ele>
        <time>2022-09-02T10:22:30Z</time>
      </trkpt>
      <trkpt lat="43.18203" lon="2.26222">
        <ele>211.4</ele>
        <time>2022-09-02T10:22:32Z</time>
      </trkpt>
      <trkpt lat="43.18204" lon="2.26202">
        <ele>212</ele>
        <time>2022-09-02T10:22:37Z</time>
      </trkpt>
      <trkpt lat="43.18205" lon="2.26179">
        <ele>212.4</ele>
        <time>2022-09-02T10:22:43Z</time>
      </trkpt>
      <trkpt lat="43.18207" lon="2.26166">
        <ele>212.6</ele>
        <time>2022-09-02T10:22:46Z</time>
      </trkpt>
      <trkpt lat="43.18209" lon="2.26142">
        <ele>213.4</ele>
        <time>2022-09-02T10:22:52Z</time>
      </trkpt>
      <trkpt lat="43.1821" lon="2.2613">
        <ele>213.2</ele>
        <time>2022-09-02T10:22:55Z</time>
      </trkpt>
      <trkpt lat="43.1821" lon="2.26122">
        <ele>213.6</ele>
        <time>2022-09-02T10:22:57Z</time>
      </trkpt>
      <trkpt lat="43.18212" lon="2.26098">
        <ele>214.6</ele>
        <time>2022-09-02T10:23:03Z</time>
      </trkpt>
      <trkpt lat="43.18213" lon="2.26093">
        <ele>214.8</ele>
        <time>2022-09-02T10:23:04Z</time>
      </trkpt>
      <trkpt lat="43.18215" lon="2.2607">
        <ele>215.6</ele>
        <time>2022-09-02T10:23:10Z</time>
      </trkpt>
      <trkpt lat="43.18215" lon="2.26063">
        <ele>215.8</ele>
        <time>2022-09-02T10:23:12Z</time>
      </trkpt>
      <trkpt lat="43.18215" lon="2.26047">
        <ele>216.2</ele>
        <time>2022-09-02T10:23:16Z</time>
      </trkpt>
      <trkpt lat="43.18209" lon="2.26021">
        <ele>216.6</ele>
        <time>2022-09-02T10:23:23Z</time>
      </trkpt>
      <trkpt lat="43.18204" lon="2.2601">
        <ele>217</ele>
        <time>2022-09-02T10:23:26Z</time>
      </trkpt>
      <trkpt lat="43.18195" lon="2.25998">
        <ele>217.2</ele>
        <time>2022-09-02T10:23:30Z</time>
      </trkpt>
      <trkpt lat="43.18182" lon="2.25983">
        <ele>217.8</ele>
        <time>2022-09-02T10:23:36Z</time>
      </trkpt>
      <trkpt lat="43.1818" lon="2.2598">
        <ele>218</ele>
        <time>2022-09-02T10:23:37Z</time>
      </trkpt>
      <trkpt lat="43.18166" lon="2.25966">
        <ele>219</ele>
        <time>2022-09-02T10:23:43Z</time>
      </trkpt>
      <trkpt lat="43.18159" lon="2.2596">
        <ele>219.4</ele>
        <time>2022-09-02T10:23:46Z</time>
      </trkpt>
      <trkpt lat="43.18144" lon="2.25946">
        <ele>220.2</ele>
        <time>2022-09-02T10:23:53Z</time>
      </trkpt>
      <trkpt lat="43.1814" lon="2.25942">
        <ele>220.6</ele>
        <time>2022-09-02T10:23:55Z</time>
      </trkpt>
      <trkpt lat="43.18124" lon="2.25927">
        <ele>221.2</ele>
        <time>2022-09-02T10:24:04Z</time>
      </trkpt>
      <trkpt lat="43.18122" lon="2.25925">
        <ele>221.2</ele>
        <time>2022-09-02T10:24:05Z</time>
      </trkpt>
      <trkpt lat="43.18112" lon="2.25914">
        <ele>222.2</ele>
        <time>2022-09-02T10:24:11Z</time>
      </trkpt>
      <trkpt lat="43.18111" lon="2.25912">
        <ele>222.4</ele>
        <time>2022-09-02T10:24:12Z</time>
      </trkpt>
      <trkpt lat="43.18098" lon="2.25899">
        <ele>223.4</ele>
        <time>2022-09-02T10:24:19Z</time>
      </trkpt>
      <trkpt lat="43.18095" lon="2.25895">
        <ele>223.6</ele>
        <time>2022-09-02T10:24:21Z</time>
      </trkpt>
      <trkpt lat="43.1808" lon="2.2588">
        <ele>224.6</ele>
        <time>2022-09-02T10:24:29Z</time>
      </trkpt>
      <trkpt lat="43.18069" lon="2.2587">
        <ele>225.6</ele>
        <time>2022-09-02T10:24:35Z</time>
      </trkpt>
      <trkpt lat="43.18067" lon="2.25868">
        <ele>225.6</ele>
        <time>2022-09-02T10:24:36Z</time>
      </trkpt>
      <trkpt lat="43.18055" lon="2.25855">
        <ele>226.8</ele>
        <time>2022-09-02T10:24:43Z</time>
      </trkpt>
      <trkpt lat="43.18053" lon="2.25852">
        <ele>226.8</ele>
        <time>2022-09-02T10:24:44Z</time>
      </trkpt>
      <trkpt lat="43.18044" lon="2.25832">
        <ele>227.8</ele>
        <time>2022-09-02T10:24:52Z</time>
      </trkpt>
      <trkpt lat="43.1804" lon="2.25815">
        <ele>229</ele>
        <time>2022-09-02T10:24:58Z</time>
      </trkpt>
      <trkpt lat="43.18038" lon="2.25806">
        <ele>229.2</ele>
        <time>2022-09-02T10:25:01Z</time>
      </trkpt>
      <trkpt lat="43.18036" lon="2.25792">
        <ele>230</ele>
        <time>2022-09-02T10:25:06Z</time>
      </trkpt>
      <trkpt lat="43.18033" lon="2.25777">
        <ele>230.8</ele>
        <time>2022-09-02T10:25:11Z</time>
      </trkpt>
      <trkpt lat="43.18033" lon="2.25771">
        <ele>231</ele>
        <time>2022-09-02T10:25:13Z</time>
      </trkpt>
      <trkpt lat="43.18029" lon="2.25754">
        <ele>231.8</ele>
        <time>2022-09-02T10:25:19Z</time>
      </trkpt>
      <trkpt lat="43.18029" lon="2.25748">
        <ele>232.2</ele>
        <time>2022-09-02T10:25:21Z</time>
      </trkpt>
      <trkpt lat="43.18025" lon="2.25729">
        <ele>233</ele>
        <time>2022-09-02T10:25:28Z</time>
      </trkpt>
      <trkpt lat="43.18025" lon="2.25726">
        <ele>233.2</ele>
        <time>2022-09-02T10:25:29Z</time>
      </trkpt>
      <trkpt lat="43.18022" lon="2.25703">
        <ele>234</ele>
        <time>2022-09-02T10:25:37Z</time>
      </trkpt>
      <trkpt lat="43.18021" lon="2.25698">
        <ele>234.2</ele>
        <time>2022-09-02T10:25:39Z</time>
      </trkpt>
      <trkpt lat="43.18018" lon="2.25674">
        <ele>235.2</ele>
        <time>2022-09-02T10:25:47Z</time>
      </trkpt>
      <trkpt lat="43.18013" lon="2.25648">
        <ele>236.2</ele>
        <time>2022-09-02T10:25:56Z</time>
      </trkpt>
      <trkpt lat="43.18013" lon="2.25645">
        <ele>236.4</ele>
        <time>2022-09-02T10:25:57Z</time>
      </trkpt>
      <trkpt lat="43.18009" lon="2.25626">
        <ele>237.6</ele>
        <time>2022-09-02T10:26:04Z</time>
      </trkpt>
      <trkpt lat="43.18009" lon="2.25623">
        <ele>237.6</ele>
        <time>2022-09-02T10:26:05Z</time>
      </trkpt>
      <trkpt lat="43.18006" lon="2.25605">
        <ele>238.6</ele>
        <time>2022-09-02T10:26:11Z</time>
      </trkpt>
      <trkpt lat="43.18005" lon="2.256">
        <ele>238.8</ele>
        <time>2022-09-02T10:26:13Z</time>
      </trkpt>
      <trkpt lat="43.18003" lon="2.25585">
        <ele>239.6</ele>
        <time>2022-09-02T10:26:18Z</time>
      </trkpt>
      <trkpt lat="43.18001" lon="2.25574">
        <ele>240.2</ele>
        <time>2022-09-02T10:26:22Z</time>
      </trkpt>
      <trkpt lat="43.17999" lon="2.25563">
        <ele>240.6</ele>
        <time>2022-09-02T10:26:26Z</time>
      </trkpt>
      <trkpt lat="43.17998" lon="2.25555">
        <ele>241.4</ele>
        <time>2022-09-02T10:26:29Z</time>
      </trkpt>
      <trkpt lat="43.17996" lon="2.25547">
        <ele>241.8</ele>
        <time>2022-09-02T10:26:32Z</time>
      </trkpt>
      <trkpt lat="43.17995" lon="2.25538">
        <ele>242</ele>
        <time>2022-09-02T10:26:35Z</time>
      </trkpt>
      <trkpt lat="43.17993" lon="2.25527">
        <ele>242.8</ele>
        <time>2022-09-02T10:26:39Z</time>
      </trkpt>
      <trkpt lat="43.17991" lon="2.2551">
        <ele>243.4</ele>
        <time>2022-09-02T10:26:45Z</time>
      </trkpt>
      <trkpt lat="43.17989" lon="2.25502">
        <ele>243.8</ele>
        <time>2022-09-02T10:26:48Z</time>
      </trkpt>
      <trkpt lat="43.17986" lon="2.25491">
        <ele>245</ele>
        <time>2022-09-02T10:26:52Z</time>
      </trkpt>
      <trkpt lat="43.17984" lon="2.25486">
        <ele>245</ele>
        <time>2022-09-02T10:26:54Z</time>
      </trkpt>
      <trkpt lat="43.17981" lon="2.25473">
        <ele>246.2</ele>
        <time>2022-09-02T10:26:59Z</time>
      </trkpt>
      <trkpt lat="43.1798" lon="2.25471">
        <ele>246.2</ele>
        <time>2022-09-02T10:27:00Z</time>
      </trkpt>
      <trkpt lat="43.17972" lon="2.25453">
        <ele>246.4</ele>
        <time>2022-09-02T10:27:07Z</time>
      </trkpt>
      <trkpt lat="43.17968" lon="2.25446">
        <ele>247.2</ele>
        <time>2022-09-02T10:27:10Z</time>
      </trkpt>
      <trkpt lat="43.17963" lon="2.25434">
        <ele>247.2</ele>
        <time>2022-09-02T10:27:15Z</time>
      </trkpt>
      <trkpt lat="43.17953" lon="2.25411">
        <ele>247.2</ele>
        <time>2022-09-02T10:27:23Z</time>
      </trkpt>
      <trkpt lat="43.1794" lon="2.25384">
        <ele>247.2</ele>
        <time>2022-09-02T10:27:31Z</time>
      </trkpt>
      <trkpt lat="43.17926" lon="2.2536">
        <ele>247.6</ele>
        <time>2022-09-02T10:27:38Z</time>
      </trkpt>
      <trkpt lat="43.17923" lon="2.25352">
        <ele>248.2</ele>
        <time>2022-09-02T10:27:40Z</time>
      </trkpt>
      <trkpt lat="43.17917" lon="2.25337">
        <ele>247.6</ele>
        <time>2022-09-02T10:27:44Z</time>
      </trkpt>
      <trkpt lat="43.17904" lon="2.25314">
        <ele>248</ele>
        <time>2022-09-02T10:27:50Z</time>
      </trkpt>
      <trkpt lat="43.17881" lon="2.25269">
        <ele>249</ele>
        <time>2022-09-02T10:28:01Z</time>
      </trkpt>
      <trkpt lat="43.17863" lon="2.25233">
        <ele>249.2</ele>
        <time>2022-09-02T10:28:10Z</time>
      </trkpt>
      <trkpt lat="43.17855" lon="2.25217">
        <ele>250.2</ele>
        <time>2022-09-02T10:28:14Z</time>
      </trkpt>
      <trkpt lat="43.17845" lon="2.25197">
        <ele>250.2</ele>
        <time>2022-09-02T10:28:19Z</time>
      </trkpt>
      <trkpt lat="43.17827" lon="2.25166">
        <ele>249.2</ele>
        <time>2022-09-02T10:28:27Z</time>
      </trkpt>
      <trkpt lat="43.17822" lon="2.25159">
        <ele>249.2</ele>
        <time>2022-09-02T10:28:29Z</time>
      </trkpt>
      <trkpt lat="43.17803" lon="2.25136">
        <ele>249.4</ele>
        <time>2022-09-02T10:28:36Z</time>
      </trkpt>
      <trkpt lat="43.17776" lon="2.25109">
        <ele>249.2</ele>
        <time>2022-09-02T10:28:45Z</time>
      </trkpt>
      <trkpt lat="43.17748" lon="2.25082">
        <ele>249.8</ele>
        <time>2022-09-02T10:28:54Z</time>
      </trkpt>
      <trkpt lat="43.17743" lon="2.25076">
        <ele>250.2</ele>
        <time>2022-09-02T10:28:56Z</time>
      </trkpt>
      <trkpt lat="43.17723" lon="2.25054">
        <ele>251</ele>
        <time>2022-09-02T10:29:03Z</time>
      </trkpt>
      <trkpt lat="43.17717" lon="2.25048">
        <ele>251.2</ele>
        <time>2022-09-02T10:29:05Z</time>
      </trkpt>
      <trkpt lat="43.17703" lon="2.25033">
        <ele>252</ele>
        <time>2022-09-02T10:29:10Z</time>
      </trkpt>
      <trkpt lat="43.17694" lon="2.25023">
        <ele>252.4</ele>
        <time>2022-09-02T10:29:13Z</time>
      </trkpt>
      <trkpt lat="43.17683" lon="2.2501">
        <ele>252.8</ele>
        <time>2022-09-02T10:29:17Z</time>
      </trkpt>
      <trkpt lat="43.17665" lon="2.24992">
        <ele>253.6</ele>
        <time>2022-09-02T10:29:23Z</time>
      </trkpt>
      <trkpt lat="43.17662" lon="2.24989">
        <ele>253.8</ele>
        <time>2022-09-02T10:29:24Z</time>
      </trkpt>
      <trkpt lat="43.1764" lon="2.24966">
        <ele>254.2</ele>
        <time>2022-09-02T10:29:32Z</time>
      </trkpt>
      <trkpt lat="43.17628" lon="2.24954">
        <ele>254.6</ele>
        <time>2022-09-02T10:29:36Z</time>
      </trkpt>
      <trkpt lat="43.17617" lon="2.24942">
        <ele>255</ele>
        <time>2022-09-02T10:29:40Z</time>
      </trkpt>
      <trkpt lat="43.17603" lon="2.24926">
        <ele>255.6</ele>
        <time>2022-09-02T10:29:45Z</time>
      </trkpt>
      <trkpt lat="43.17595" lon="2.24915">
        <ele>256.4</ele>
        <time>2022-09-02T10:29:48Z</time>
      </trkpt>
      <trkpt lat="43.17591" lon="2.24908">
        <ele>256.8</ele>
        <time>2022-09-02T10:29:50Z</time>
      </trkpt>
      <trkpt lat="43.1758" lon="2.24885">
        <ele>256.2</ele>
        <time>2022-09-02T10:29:56Z</time>
      </trkpt>
      <trkpt lat="43.1757" lon="2.24847">
        <ele>256.4</ele>
        <time>2022-09-02T10:30:05Z</time>
      </trkpt>
      <trkpt lat="43.17564" lon="2.24815">
        <ele>257</ele>
        <time>2022-09-02T10:30:12Z</time>
      </trkpt>
      <trkpt lat="43.17561" lon="2.24798">
        <ele>257.8</ele>
        <time>2022-09-02T10:30:16Z</time>
      </trkpt>
      <trkpt lat="43.17558" lon="2.24781">
        <ele>258.2</ele>
        <time>2022-09-02T10:30:20Z</time>
      </trkpt>
      <trkpt lat="43.17562" lon="2.24743">
        <ele>258.2</ele>
        <time>2022-09-02T10:30:29Z</time>
      </trkpt>
      <trkpt lat="43.17573" lon="2.24715">
        <ele>258.6</ele>
        <time>2022-09-02T10:30:36Z</time>
      </trkpt>
      <trkpt lat="43.17581" lon="2.24701">
        <ele>258.8</ele>
        <time>2022-09-02T10:30:40Z</time>
      </trkpt>
      <trkpt lat="43.1759" lon="2.24681">
        <ele>259</ele>
        <time>2022-09-02T10:30:45Z</time>
      </trkpt>
      <trkpt lat="43.17603" lon="2.24656">
        <ele>259.6</ele>
        <time>2022-09-02T10:30:52Z</time>
      </trkpt>
      <trkpt lat="43.17619" lon="2.2462">
        <ele>259.8</ele>
        <time>2022-09-02T10:31:01Z</time>
      </trkpt>
      <trkpt lat="43.17624" lon="2.24584">
        <ele>260.4</ele>
        <time>2022-09-02T10:31:09Z</time>
      </trkpt>
      <trkpt lat="43.17617" lon="2.24553">
        <ele>261.2</ele>
        <time>2022-09-02T10:31:16Z</time>
      </trkpt>
      <trkpt lat="43.17603" lon="2.24526">
        <ele>261</ele>
        <time>2022-09-02T10:31:23Z</time>
      </trkpt>
      <trkpt lat="43.17588" lon="2.24513">
        <ele>261.2</ele>
        <time>2022-09-02T10:31:28Z</time>
      </trkpt>
      <trkpt lat="43.1757" lon="2.24508">
        <ele>261.8</ele>
        <time>2022-09-02T10:31:34Z</time>
      </trkpt>
      <trkpt lat="43.17557" lon="2.24507">
        <ele>262.2</ele>
        <time>2022-09-02T10:31:38Z</time>
      </trkpt>
      <trkpt lat="43.17544" lon="2.24506">
        <ele>262.8</ele>
        <time>2022-09-02T10:31:42Z</time>
      </trkpt>
      <trkpt lat="43.17538" lon="2.24506">
        <ele>263.2</ele>
        <time>2022-09-02T10:31:44Z</time>
      </trkpt>
      <trkpt lat="43.17522" lon="2.24508">
        <ele>263.8</ele>
        <time>2022-09-02T10:31:50Z</time>
      </trkpt>
      <trkpt lat="43.17514" lon="2.24508">
        <ele>264.4</ele>
        <time>2022-09-02T10:31:53Z</time>
      </trkpt>
      <trkpt lat="43.17507" lon="2.24506">
        <ele>264.6</ele>
        <time>2022-09-02T10:31:56Z</time>
      </trkpt>
      <trkpt lat="43.17492" lon="2.24507">
        <ele>265.2</ele>
        <time>2022-09-02T10:32:02Z</time>
      </trkpt>
      <trkpt lat="43.17489" lon="2.24507">
        <ele>265.4</ele>
        <time>2022-09-02T10:32:03Z</time>
      </trkpt>
      <trkpt lat="43.17474" lon="2.24506">
        <ele>266.4</ele>
        <time>2022-09-02T10:32:09Z</time>
      </trkpt>
      <trkpt lat="43.17456" lon="2.24506">
        <ele>267.4</ele>
        <time>2022-09-02T10:32:16Z</time>
      </trkpt>
      <trkpt lat="43.17451" lon="2.24505">
        <ele>267.8</ele>
        <time>2022-09-02T10:32:18Z</time>
      </trkpt>
      <trkpt lat="43.17445" lon="2.24506">
        <ele>268.4</ele>
        <time>2022-09-02T10:32:20Z</time>
      </trkpt>
      <trkpt lat="43.17428" lon="2.24503">
        <ele>269.4</ele>
        <time>2022-09-02T10:32:27Z</time>
      </trkpt>
      <trkpt lat="43.17425" lon="2.24502">
        <ele>269.6</ele>
        <time>2022-09-02T10:32:28Z</time>
      </trkpt>
      <trkpt lat="43.17411" lon="2.24489">
        <ele>270.6</ele>
        <time>2022-09-02T10:32:35Z</time>
      </trkpt>
      <trkpt lat="43.17404" lon="2.24473">
        <ele>271.6</ele>
        <time>2022-09-02T10:32:41Z</time>
      </trkpt>
      <trkpt lat="43.17403" lon="2.2447">
        <ele>271.8</ele>
        <time>2022-09-02T10:32:42Z</time>
      </trkpt>
      <trkpt lat="43.17398" lon="2.24448">
        <ele>272.8</ele>
        <time>2022-09-02T10:32:50Z</time>
      </trkpt>
      <trkpt lat="43.17398" lon="2.24445">
        <ele>272.8</ele>
        <time>2022-09-02T10:32:51Z</time>
      </trkpt>
      <trkpt lat="43.17394" lon="2.24421">
        <ele>273.8</ele>
        <time>2022-09-02T10:32:58Z</time>
      </trkpt>
      <trkpt lat="43.17388" lon="2.2439">
        <ele>274</ele>
        <time>2022-09-02T10:33:06Z</time>
      </trkpt>
      <trkpt lat="43.17383" lon="2.24366">
        <ele>274.4</ele>
        <time>2022-09-02T10:33:12Z</time>
      </trkpt>
      <trkpt lat="43.17379" lon="2.24347">
        <ele>274.8</ele>
        <time>2022-09-02T10:33:17Z</time>
      </trkpt>
      <trkpt lat="43.17378" lon="2.24343">
        <ele>274.8</ele>
        <time>2022-09-02T10:33:18Z</time>
      </trkpt>
      <trkpt lat="43.17364" lon="2.24315">
        <ele>275.6</ele>
        <time>2022-09-02T10:33:25Z</time>
      </trkpt>
      <trkpt lat="43.17361" lon="2.24311">
        <ele>276</ele>
        <time>2022-09-02T10:33:26Z</time>
      </trkpt>
      <trkpt lat="43.17346" lon="2.24292">
        <ele>276.2</ele>
        <time>2022-09-02T10:33:32Z</time>
      </trkpt>
      <trkpt lat="43.1733" lon="2.24274">
        <ele>276.4</ele>
        <time>2022-09-02T10:33:39Z</time>
      </trkpt>
      <trkpt lat="43.17319" lon="2.24261">
        <ele>277</ele>
        <time>2022-09-02T10:33:44Z</time>
      </trkpt>
      <trkpt lat="43.17314" lon="2.24255">
        <ele>277.2</ele>
        <time>2022-09-02T10:33:47Z</time>
      </trkpt>
      <trkpt lat="43.173" lon="2.24238">
        <ele>278.2</ele>
        <time>2022-09-02T10:33:54Z</time>
      </trkpt>
      <trkpt lat="43.17298" lon="2.24235">
        <ele>278.4</ele>
        <time>2022-09-02T10:33:55Z</time>
      </trkpt>
      <trkpt lat="43.17283" lon="2.24216">
        <ele>278.8</ele>
        <time>2022-09-02T10:34:03Z</time>
      </trkpt>
      <trkpt lat="43.17275" lon="2.24207">
        <ele>279.2</ele>
        <time>2022-09-02T10:34:07Z</time>
      </trkpt>
      <trkpt lat="43.17269" lon="2.24199">
        <ele>279.6</ele>
        <time>2022-09-02T10:34:10Z</time>
      </trkpt>
      <trkpt lat="43.17257" lon="2.2419">
        <ele>280.4</ele>
        <time>2022-09-02T10:34:15Z</time>
      </trkpt>
      <trkpt lat="43.17251" lon="2.24188">
        <ele>280.6</ele>
        <time>2022-09-02T10:34:17Z</time>
      </trkpt>
      <trkpt lat="43.17234" lon="2.24187">
        <ele>281.4</ele>
        <time>2022-09-02T10:34:23Z</time>
      </trkpt>
      <trkpt lat="43.17231" lon="2.24187">
        <ele>281.4</ele>
        <time>2022-09-02T10:34:24Z</time>
      </trkpt>
      <trkpt lat="43.17218" lon="2.24198">
        <ele>282</ele>
        <time>2022-09-02T10:34:30Z</time>
      </trkpt>
      <trkpt lat="43.17211" lon="2.24205">
        <ele>282.4</ele>
        <time>2022-09-02T10:34:33Z</time>
      </trkpt>
      <trkpt lat="43.17198" lon="2.24211">
        <ele>282.8</ele>
        <time>2022-09-02T10:34:38Z</time>
      </trkpt>
      <trkpt lat="43.17186" lon="2.24207">
        <ele>283.6</ele>
        <time>2022-09-02T10:34:43Z</time>
      </trkpt>
      <trkpt lat="43.17178" lon="2.24193">
        <ele>284</ele>
        <time>2022-09-02T10:34:49Z</time>
      </trkpt>
      <trkpt lat="43.17182" lon="2.2417">
        <ele>284.6</ele>
        <time>2022-09-02T10:34:56Z</time>
      </trkpt>
      <trkpt lat="43.17183" lon="2.24167">
        <ele>284.6</ele>
        <time>2022-09-02T10:34:57Z</time>
      </trkpt>
      <trkpt lat="43.17195" lon="2.24139">
        <ele>285.4</ele>
        <time>2022-09-02T10:35:06Z</time>
      </trkpt>
      <trkpt lat="43.17197" lon="2.24136">
        <ele>285.6</ele>
        <time>2022-09-02T10:35:07Z</time>
      </trkpt>
      <trkpt lat="43.17205" lon="2.24117">
        <ele>286.2</ele>
        <time>2022-09-02T10:35:13Z</time>
      </trkpt>
      <trkpt lat="43.17207" lon="2.24111">
        <ele>286.6</ele>
        <time>2022-09-02T10:35:15Z</time>
      </trkpt>
      <trkpt lat="43.17214" lon="2.24095">
        <ele>287.6</ele>
        <time>2022-09-02T10:35:20Z</time>
      </trkpt>
      <trkpt lat="43.17215" lon="2.24089">
        <ele>288</ele>
        <time>2022-09-02T10:35:22Z</time>
      </trkpt>
      <trkpt lat="43.1722" lon="2.24068">
        <ele>288.2</ele>
        <time>2022-09-02T10:35:28Z</time>
      </trkpt>
      <trkpt lat="43.1722" lon="2.24061">
        <ele>288.8</ele>
        <time>2022-09-02T10:35:30Z</time>
      </trkpt>
      <trkpt lat="43.1722" lon="2.24041">
        <ele>289.2</ele>
        <time>2022-09-02T10:35:35Z</time>
      </trkpt>
      <trkpt lat="43.17217" lon="2.24025">
        <ele>289.8</ele>
        <time>2022-09-02T10:35:39Z</time>
      </trkpt>
      <trkpt lat="43.17212" lon="2.24008">
        <ele>290</ele>
        <time>2022-09-02T10:35:43Z</time>
      </trkpt>
      <trkpt lat="43.17199" lon="2.23976">
        <ele>290.8</ele>
        <time>2022-09-02T10:35:51Z</time>
      </trkpt>
      <trkpt lat="43.17184" lon="2.23945">
        <ele>291</ele>
        <time>2022-09-02T10:35:59Z</time>
      </trkpt>
      <trkpt lat="43.17172" lon="2.23917">
        <ele>291.2</ele>
        <time>2022-09-02T10:36:06Z</time>
      </trkpt>
      <trkpt lat="43.17156" lon="2.23894">
        <ele>291.4</ele>
        <time>2022-09-02T10:36:14Z</time>
      </trkpt>
      <trkpt lat="43.17144" lon="2.23871">
        <ele>291.6</ele>
        <time>2022-09-02T10:36:20Z</time>
      </trkpt>
      <trkpt lat="43.17128" lon="2.23848">
        <ele>291.6</ele>
        <time>2022-09-02T10:36:27Z</time>
      </trkpt>
      <trkpt lat="43.17112" lon="2.23829">
        <ele>292</ele>
        <time>2022-09-02T10:36:33Z</time>
      </trkpt>
      <trkpt lat="43.17105" lon="2.23819">
        <ele>292.2</ele>
        <time>2022-09-02T10:36:36Z</time>
      </trkpt>
      <trkpt lat="43.1709" lon="2.23788">
        <ele>292.8</ele>
        <time>2022-09-02T10:36:44Z</time>
      </trkpt>
      <trkpt lat="43.17086" lon="2.23775">
        <ele>293</ele>
        <time>2022-09-02T10:36:47Z</time>
      </trkpt>
      <trkpt lat="43.17079" lon="2.23747">
        <ele>293.4</ele>
        <time>2022-09-02T10:36:53Z</time>
      </trkpt>
      <trkpt lat="43.17065" lon="2.23715">
        <ele>293.8</ele>
        <time>2022-09-02T10:37:01Z</time>
      </trkpt>
      <trkpt lat="43.1705" lon="2.23705">
        <ele>293.8</ele>
        <time>2022-09-02T10:37:06Z</time>
      </trkpt>
      <trkpt lat="43.1704" lon="2.23701">
        <ele>294.2</ele>
        <time>2022-09-02T10:37:09Z</time>
      </trkpt>
      <trkpt lat="43.17031" lon="2.23697">
        <ele>294.4</ele>
        <time>2022-09-02T10:37:12Z</time>
      </trkpt>
      <trkpt lat="43.17019" lon="2.23694">
        <ele>295.2</ele>
        <time>2022-09-02T10:37:16Z</time>
      </trkpt>
      <trkpt lat="43.17012" lon="2.23694">
        <ele>295.6</ele>
        <time>2022-09-02T10:37:18Z</time>
      </trkpt>
      <trkpt lat="43.16989" lon="2.2369">
        <ele>296.2</ele>
        <time>2022-09-02T10:37:26Z</time>
      </trkpt>
      <trkpt lat="43.16986" lon="2.23691">
        <ele>296.4</ele>
        <time>2022-09-02T10:37:27Z</time>
      </trkpt>
      <trkpt lat="43.16967" lon="2.23701">
        <ele>297</ele>
        <time>2022-09-02T10:37:34Z</time>
      </trkpt>
      <trkpt lat="43.16964" lon="2.23703">
        <ele>297.2</ele>
        <time>2022-09-02T10:37:35Z</time>
      </trkpt>
      <trkpt lat="43.16949" lon="2.23725">
        <ele>298.2</ele>
        <time>2022-09-02T10:37:42Z</time>
      </trkpt>
      <trkpt lat="43.16945" lon="2.23731">
        <ele>298.2</ele>
        <time>2022-09-02T10:37:44Z</time>
      </trkpt>
      <trkpt lat="43.16934" lon="2.23749">
        <ele>298.4</ele>
        <time>2022-09-02T10:37:50Z</time>
      </trkpt>
      <trkpt lat="43.16922" lon="2.23766">
        <ele>299</ele>
        <time>2022-09-02T10:37:56Z</time>
      </trkpt>
      <trkpt lat="43.16909" lon="2.23782">
        <ele>299.4</ele>
        <time>2022-09-02T10:38:02Z</time>
      </trkpt>
      <trkpt lat="43.16906" lon="2.23784">
        <ele>299.4</ele>
        <time>2022-09-02T10:38:03Z</time>
      </trkpt>
      <trkpt lat="43.16891" lon="2.23784">
        <ele>299.8</ele>
        <time>2022-09-02T10:38:08Z</time>
      </trkpt>
      <trkpt lat="43.16885" lon="2.23777">
        <ele>300.6</ele>
        <time>2022-09-02T10:38:11Z</time>
      </trkpt>
      <trkpt lat="43.16881" lon="2.23772">
        <ele>301.4</ele>
        <time>2022-09-02T10:38:13Z</time>
      </trkpt>
      <trkpt lat="43.16878" lon="2.23757">
        <ele>301.2</ele>
        <time>2022-09-02T10:38:18Z</time>
      </trkpt>
      <trkpt lat="43.16882" lon="2.23738">
        <ele>301.4</ele>
        <time>2022-09-02T10:38:24Z</time>
      </trkpt>
      <trkpt lat="43.16888" lon="2.23727">
        <ele>301.6</ele>
        <time>2022-09-02T10:38:28Z</time>
      </trkpt>
      <trkpt lat="43.16893" lon="2.23721">
        <ele>302.6</ele>
        <time>2022-09-02T10:38:31Z</time>
      </trkpt>
      <trkpt lat="43.16894" lon="2.23719">
        <ele>302.6</ele>
        <time>2022-09-02T10:38:32Z</time>
      </trkpt>
      <trkpt lat="43.16901" lon="2.23705">
        <ele>303</ele>
        <time>2022-09-02T10:38:36Z</time>
      </trkpt>
      <trkpt lat="43.16911" lon="2.23681">
        <ele>303.2</ele>
        <time>2022-09-02T10:38:43Z</time>
      </trkpt>
      <trkpt lat="43.16912" lon="2.23664">
        <ele>303.8</ele>
        <time>2022-09-02T10:38:47Z</time>
      </trkpt>
      <trkpt lat="43.16911" lon="2.23656">
        <ele>304</ele>
        <time>2022-09-02T10:38:49Z</time>
      </trkpt>
      <trkpt lat="43.169" lon="2.23638">
        <ele>304.8</ele>
        <time>2022-09-02T10:38:55Z</time>
      </trkpt>
      <trkpt lat="43.16898" lon="2.23636">
        <ele>304.8</ele>
        <time>2022-09-02T10:38:56Z</time>
      </trkpt>
      <trkpt lat="43.16884" lon="2.23615">
        <ele>305.2</ele>
        <time>2022-09-02T10:39:03Z</time>
      </trkpt>
      <trkpt lat="43.16883" lon="2.23595">
        <ele>305.6</ele>
        <time>2022-09-02T10:39:08Z</time>
      </trkpt>
      <trkpt lat="43.16884" lon="2.23588">
        <ele>305.8</ele>
        <time>2022-09-02T10:39:10Z</time>
      </trkpt>
      <trkpt lat="43.16891" lon="2.23575">
        <ele>306.2</ele>
        <time>2022-09-02T10:39:14Z</time>
      </trkpt>
      <trkpt lat="43.16894" lon="2.23565">
        <ele>307</ele>
        <time>2022-09-02T10:39:17Z</time>
      </trkpt>
      <trkpt lat="43.16897" lon="2.23554">
        <ele>307.2</ele>
        <time>2022-09-02T10:39:20Z</time>
      </trkpt>
      <trkpt lat="43.16898" lon="2.23532">
        <ele>307.6</ele>
        <time>2022-09-02T10:39:26Z</time>
      </trkpt>
      <trkpt lat="43.16892" lon="2.23516">
        <ele>308.2</ele>
        <time>2022-09-02T10:39:30Z</time>
      </trkpt>
      <trkpt lat="43.16888" lon="2.23508">
        <ele>308.6</ele>
        <time>2022-09-02T10:39:32Z</time>
      </trkpt>
      <trkpt lat="43.1688" lon="2.23478">
        <ele>308.8</ele>
        <time>2022-09-02T10:39:40Z</time>
      </trkpt>
      <trkpt lat="43.1688" lon="2.23469">
        <ele>309.2</ele>
        <time>2022-09-02T10:39:42Z</time>
      </trkpt>
      <trkpt lat="43.1688" lon="2.23444">
        <ele>309.6</ele>
        <time>2022-09-02T10:39:48Z</time>
      </trkpt>
      <trkpt lat="43.1688" lon="2.23428">
        <ele>310.2</ele>
        <time>2022-09-02T10:39:52Z</time>
      </trkpt>
      <trkpt lat="43.1688" lon="2.2342">
        <ele>310.2</ele>
        <time>2022-09-02T10:39:54Z</time>
      </trkpt>
      <trkpt lat="43.16876" lon="2.23396">
        <ele>311.2</ele>
        <time>2022-09-02T10:40:00Z</time>
      </trkpt>
      <trkpt lat="43.16875" lon="2.23393">
        <ele>311.2</ele>
        <time>2022-09-02T10:40:01Z</time>
      </trkpt>
      <trkpt lat="43.16864" lon="2.23375">
        <ele>312.2</ele>
        <time>2022-09-02T10:40:07Z</time>
      </trkpt>
      <trkpt lat="43.16861" lon="2.23373">
        <ele>312.4</ele>
        <time>2022-09-02T10:40:08Z</time>
      </trkpt>
      <trkpt lat="43.16843" lon="2.2336">
        <ele>313</ele>
        <time>2022-09-02T10:40:15Z</time>
      </trkpt>
      <trkpt lat="43.1682" lon="2.23357">
        <ele>313.4</ele>
        <time>2022-09-02T10:40:23Z</time>
      </trkpt>
      <trkpt lat="43.16801" lon="2.23357">
        <ele>314.4</ele>
        <time>2022-09-02T10:40:30Z</time>
      </trkpt>
      <trkpt lat="43.16783" lon="2.23367">
        <ele>314.6</ele>
        <time>2022-09-02T10:40:36Z</time>
      </trkpt>
      <trkpt lat="43.16769" lon="2.23379">
        <ele>315.4</ele>
        <time>2022-09-02T10:40:41Z</time>
      </trkpt>
      <trkpt lat="43.16763" lon="2.23382">
        <ele>315.2</ele>
        <time>2022-09-02T10:40:43Z</time>
      </trkpt>
      <trkpt lat="43.16748" lon="2.2338">
        <ele>315</ele>
        <time>2022-09-02T10:40:48Z</time>
      </trkpt>
      <trkpt lat="43.16739" lon="2.23366">
        <ele>316</ele>
        <time>2022-09-02T10:40:53Z</time>
      </trkpt>
      <trkpt lat="43.16737" lon="2.23345">
        <ele>316.4</ele>
        <time>2022-09-02T10:40:59Z</time>
      </trkpt>
      <trkpt lat="43.16738" lon="2.23338">
        <ele>316.4</ele>
        <time>2022-09-02T10:41:01Z</time>
      </trkpt>
      <trkpt lat="43.16742" lon="2.23321">
        <ele>316.6</ele>
        <time>2022-09-02T10:41:06Z</time>
      </trkpt>
      <trkpt lat="43.16745" lon="2.23304">
        <ele>317.2</ele>
        <time>2022-09-02T10:41:11Z</time>
      </trkpt>
      <trkpt lat="43.16746" lon="2.23297">
        <ele>317.4</ele>
        <time>2022-09-02T10:41:13Z</time>
      </trkpt>
      <trkpt lat="43.16749" lon="2.23279">
        <ele>318</ele>
        <time>2022-09-02T10:41:18Z</time>
      </trkpt>
      <trkpt lat="43.1675" lon="2.2326">
        <ele>318.6</ele>
        <time>2022-09-02T10:41:23Z</time>
      </trkpt>
      <trkpt lat="43.1675" lon="2.23252">
        <ele>318.8</ele>
        <time>2022-09-02T10:41:25Z</time>
      </trkpt>
      <trkpt lat="43.16743" lon="2.23228">
        <ele>319.6</ele>
        <time>2022-09-02T10:41:31Z</time>
      </trkpt>
      <trkpt lat="43.16741" lon="2.23225">
        <ele>319.6</ele>
        <time>2022-09-02T10:41:32Z</time>
      </trkpt>
      <trkpt lat="43.16726" lon="2.23213">
        <ele>320.4</ele>
        <time>2022-09-02T10:41:38Z</time>
      </trkpt>
      <trkpt lat="43.16723" lon="2.2321">
        <ele>320.8</ele>
        <time>2022-09-02T10:41:39Z</time>
      </trkpt>
      <trkpt lat="43.16714" lon="2.23194">
        <ele>321</ele>
        <time>2022-09-02T10:41:44Z</time>
      </trkpt>
      <trkpt lat="43.16708" lon="2.23171">
        <ele>321.2</ele>
        <time>2022-09-02T10:41:50Z</time>
      </trkpt>
      <trkpt lat="43.16707" lon="2.23148">
        <ele>321.8</ele>
        <time>2022-09-02T10:41:56Z</time>
      </trkpt>
      <trkpt lat="43.16707" lon="2.2314">
        <ele>322</ele>
        <time>2022-09-02T10:41:58Z</time>
      </trkpt>
      <trkpt lat="43.16704" lon="2.23109">
        <ele>322.4</ele>
        <time>2022-09-02T10:42:06Z</time>
      </trkpt>
      <trkpt lat="43.16702" lon="2.23088">
        <ele>322.8</ele>
        <time>2022-09-02T10:42:11Z</time>
      </trkpt>
      <trkpt lat="43.16701" lon="2.23076">
        <ele>323.2</ele>
        <time>2022-09-02T10:42:14Z</time>
      </trkpt>
      <trkpt lat="43.16699" lon="2.23049">
        <ele>323.8</ele>
        <time>2022-09-02T10:42:21Z</time>
      </trkpt>
      <trkpt lat="43.16698" lon="2.23045">
        <ele>323.8</ele>
        <time>2022-09-02T10:42:22Z</time>
      </trkpt>
      <trkpt lat="43.16689" lon="2.23023">
        <ele>324.4</ele>
        <time>2022-09-02T10:42:29Z</time>
      </trkpt>
      <trkpt lat="43.16684" lon="2.23014">
        <ele>325</ele>
        <time>2022-09-02T10:42:32Z</time>
      </trkpt>
      <trkpt lat="43.16674" lon="2.23002">
        <ele>325.2</ele>
        <time>2022-09-02T10:42:37Z</time>
      </trkpt>
      <trkpt lat="43.16661" lon="2.22991">
        <ele>326</ele>
        <time>2022-09-02T10:42:42Z</time>
      </trkpt>
      <trkpt lat="43.16649" lon="2.22981">
        <ele>326.6</ele>
        <time>2022-09-02T10:42:47Z</time>
      </trkpt>
      <trkpt lat="43.1664" lon="2.22976">
        <ele>327</ele>
        <time>2022-09-02T10:42:51Z</time>
      </trkpt>
      <trkpt lat="43.16632" lon="2.22973">
        <ele>327.6</ele>
        <time>2022-09-02T10:42:55Z</time>
      </trkpt>
      <trkpt lat="43.16628" lon="2.22967">
        <ele>328</ele>
        <time>2022-09-02T10:42:58Z</time>
      </trkpt>
      <trkpt lat="43.16623" lon="2.22964">
        <ele>328.4</ele>
        <time>2022-09-02T10:43:00Z</time>
      </trkpt>
      <trkpt lat="43.16608" lon="2.22952">
        <ele>329.2</ele>
        <time>2022-09-02T10:43:07Z</time>
      </trkpt>
      <trkpt lat="43.16606" lon="2.2295">
        <ele>329.2</ele>
        <time>2022-09-02T10:43:08Z</time>
      </trkpt>
      <trkpt lat="43.16589" lon="2.22941">
        <ele>329.8</ele>
        <time>2022-09-02T10:43:16Z</time>
      </trkpt>
      <trkpt lat="43.16583" lon="2.22938">
        <ele>329.8</ele>
        <time>2022-09-02T10:43:22Z</time>
      </trkpt>
      <trkpt lat="43.16578" lon="2.22931">
        <ele>330.2</ele>
        <time>2022-09-02T10:45:20Z</time>
      </trkpt>
      <trkpt lat="43.16574" lon="2.22926">
        <ele>330.4</ele>
        <time>2022-09-02T10:45:22Z</time>
      </trkpt>
      <trkpt lat="43.16568" lon="2.2292">
        <ele>330.6</ele>
        <time>2022-09-02T10:45:25Z</time>
      </trkpt>
      <trkpt lat="43.16559" lon="2.22915">
        <ele>331</ele>
        <time>2022-09-02T10:45:29Z</time>
      </trkpt>
      <trkpt lat="43.16549" lon="2.22905">
        <ele>331.4</ele>
        <time>2022-09-02T10:45:34Z</time>
      </trkpt>
      <trkpt lat="43.16543" lon="2.22899">
        <ele>331.6</ele>
        <time>2022-09-02T10:45:37Z</time>
      </trkpt>
      <trkpt lat="43.16533" lon="2.22886">
        <ele>332.4</ele>
        <time>2022-09-02T10:45:43Z</time>
      </trkpt>
      <trkpt lat="43.16532" lon="2.22883">
        <ele>332.4</ele>
        <time>2022-09-02T10:45:44Z</time>
      </trkpt>
      <trkpt lat="43.16524" lon="2.22865">
        <ele>333</ele>
        <time>2022-09-02T10:45:51Z</time>
      </trkpt>
      <trkpt lat="43.1652" lon="2.22856">
        <ele>333.4</ele>
        <time>2022-09-02T10:45:54Z</time>
      </trkpt>
      <trkpt lat="43.16518" lon="2.22839">
        <ele>334.2</ele>
        <time>2022-09-02T10:45:59Z</time>
      </trkpt>
      <trkpt lat="43.16517" lon="2.2283">
        <ele>334.4</ele>
        <time>2022-09-02T10:46:02Z</time>
      </trkpt>
      <trkpt lat="43.16515" lon="2.22813">
        <ele>335</ele>
        <time>2022-09-02T10:46:07Z</time>
      </trkpt>
      <trkpt lat="43.16514" lon="2.22798">
        <ele>335.6</ele>
        <time>2022-09-02T10:46:11Z</time>
      </trkpt>
      <trkpt lat="43.16513" lon="2.22781">
        <ele>336.2</ele>
        <time>2022-09-02T10:46:16Z</time>
      </trkpt>
      <trkpt lat="43.16511" lon="2.22753">
        <ele>336.8</ele>
        <time>2022-09-02T10:46:24Z</time>
      </trkpt>
      <trkpt lat="43.16511" lon="2.2275">
        <ele>336.8</ele>
        <time>2022-09-02T10:46:25Z</time>
      </trkpt>
      <trkpt lat="43.16511" lon="2.22726">
        <ele>337.8</ele>
        <time>2022-09-02T10:46:32Z</time>
      </trkpt>
      <trkpt lat="43.16511" lon="2.22723">
        <ele>337.8</ele>
        <time>2022-09-02T10:46:33Z</time>
      </trkpt>
      <trkpt lat="43.16517" lon="2.22704">
        <ele>338.2</ele>
        <time>2022-09-02T10:46:40Z</time>
      </trkpt>
      <trkpt lat="43.16528" lon="2.22687">
        <ele>338.8</ele>
        <time>2022-09-02T10:46:47Z</time>
      </trkpt>
      <trkpt lat="43.16532" lon="2.22681">
        <ele>338.8</ele>
        <time>2022-09-02T10:46:49Z</time>
      </trkpt>
      <trkpt lat="43.16541" lon="2.22662">
        <ele>340</ele>
        <time>2022-09-02T10:46:56Z</time>
      </trkpt>
      <trkpt lat="43.16543" lon="2.2266">
        <ele>340</ele>
        <time>2022-09-02T10:46:57Z</time>
      </trkpt>
      <trkpt lat="43.16547" lon="2.22637">
        <ele>340.6</ele>
        <time>2022-09-02T10:47:04Z</time>
      </trkpt>
      <trkpt lat="43.16545" lon="2.22618">
        <ele>341.2</ele>
        <time>2022-09-02T10:47:09Z</time>
      </trkpt>
      <trkpt lat="43.16544" lon="2.2261">
        <ele>341.6</ele>
        <time>2022-09-02T10:47:11Z</time>
      </trkpt>
      <trkpt lat="43.16539" lon="2.22578">
        <ele>341.4</ele>
        <time>2022-09-02T10:47:19Z</time>
      </trkpt>
      <trkpt lat="43.16531" lon="2.22538">
        <ele>341.8</ele>
        <time>2022-09-02T10:47:30Z</time>
      </trkpt>
      <trkpt lat="43.16526" lon="2.22523">
        <ele>342.2</ele>
        <time>2022-09-02T10:47:34Z</time>
      </trkpt>
      <trkpt lat="43.16521" lon="2.22514">
        <ele>342.2</ele>
        <time>2022-09-02T10:47:37Z</time>
      </trkpt>
      <trkpt lat="43.16506" lon="2.22497">
        <ele>343.4</ele>
        <time>2022-09-02T10:47:44Z</time>
      </trkpt>
      <trkpt lat="43.16493" lon="2.22485">
        <ele>344.4</ele>
        <time>2022-09-02T10:47:51Z</time>
      </trkpt>
      <trkpt lat="43.1648" lon="2.22473">
        <ele>345.6</ele>
        <time>2022-09-02T10:47:58Z</time>
      </trkpt>
      <trkpt lat="43.16477" lon="2.22468">
        <ele>346</ele>
        <time>2022-09-02T10:48:00Z</time>
      </trkpt>
      <trkpt lat="43.16467" lon="2.22455">
        <ele>346.8</ele>
        <time>2022-09-02T10:48:06Z</time>
      </trkpt>
      <trkpt lat="43.16464" lon="2.2245">
        <ele>347</ele>
        <time>2022-09-02T10:48:08Z</time>
      </trkpt>
      <trkpt lat="43.16458" lon="2.22439">
        <ele>347.8</ele>
        <time>2022-09-02T10:48:13Z</time>
      </trkpt>
      <trkpt lat="43.16455" lon="2.22434">
        <ele>348</ele>
        <time>2022-09-02T10:48:15Z</time>
      </trkpt>
      <trkpt lat="43.16451" lon="2.2242">
        <ele>348.8</ele>
        <time>2022-09-02T10:48:21Z</time>
      </trkpt>
      <trkpt lat="43.16449" lon="2.22412">
        <ele>349.4</ele>
        <time>2022-09-02T10:48:24Z</time>
      </trkpt>
      <trkpt lat="43.16448" lon="2.22407">
        <ele>350</ele>
        <time>2022-09-02T10:48:26Z</time>
      </trkpt>
      <trkpt lat="43.16445" lon="2.22394">
        <ele>350.6</ele>
        <time>2022-09-02T10:48:31Z</time>
      </trkpt>
      <trkpt lat="43.16445" lon="2.22383">
        <ele>351.2</ele>
        <time>2022-09-02T10:48:35Z</time>
      </trkpt>
      <trkpt lat="43.16446" lon="2.22372">
        <ele>351.8</ele>
        <time>2022-09-02T10:48:39Z</time>
      </trkpt>
      <trkpt lat="43.16446" lon="2.22368">
        <ele>352.2</ele>
        <time>2022-09-02T10:48:41Z</time>
      </trkpt>
      <trkpt lat="43.16446" lon="2.22357">
        <ele>352.2</ele>
        <time>2022-09-02T10:48:45Z</time>
      </trkpt>
      <trkpt lat="43.16448" lon="2.22336">
        <ele>353.2</ele>
        <time>2022-09-02T10:48:53Z</time>
      </trkpt>
      <trkpt lat="43.16449" lon="2.22317">
        <ele>354.2</ele>
        <time>2022-09-02T10:49:00Z</time>
      </trkpt>
      <trkpt lat="43.16449" lon="2.22314">
        <ele>354.4</ele>
        <time>2022-09-02T10:49:01Z</time>
      </trkpt>
      <trkpt lat="43.16451" lon="2.22296">
        <ele>355</ele>
        <time>2022-09-02T10:49:08Z</time>
      </trkpt>
      <trkpt lat="43.16452" lon="2.22288">
        <ele>355.6</ele>
        <time>2022-09-02T10:49:11Z</time>
      </trkpt>
      <trkpt lat="43.16451" lon="2.22272">
        <ele>356.4</ele>
        <time>2022-09-02T10:49:17Z</time>
      </trkpt>
      <trkpt lat="43.16452" lon="2.2227">
        <ele>356.6</ele>
        <time>2022-09-02T10:49:18Z</time>
      </trkpt>
      <trkpt lat="43.16452" lon="2.22251">
        <ele>357.6</ele>
        <time>2022-09-02T10:49:25Z</time>
      </trkpt>
      <trkpt lat="43.16452" lon="2.22248">
        <ele>357.8</ele>
        <time>2022-09-02T10:49:26Z</time>
      </trkpt>
      <trkpt lat="43.16452" lon="2.22231">
        <ele>358.8</ele>
        <time>2022-09-02T10:49:32Z</time>
      </trkpt>
      <trkpt lat="43.16453" lon="2.22225">
        <ele>359</ele>
        <time>2022-09-02T10:49:34Z</time>
      </trkpt>
      <trkpt lat="43.16449" lon="2.22202">
        <ele>360</ele>
        <time>2022-09-02T10:49:42Z</time>
      </trkpt>
      <trkpt lat="43.16441" lon="2.22185">
        <ele>360.8</ele>
        <time>2022-09-02T10:49:49Z</time>
      </trkpt>
      <trkpt lat="43.16438" lon="2.22181">
        <ele>361</ele>
        <time>2022-09-02T10:49:51Z</time>
      </trkpt>
      <trkpt lat="43.16432" lon="2.22174">
        <ele>361.8</ele>
        <time>2022-09-02T10:49:55Z</time>
      </trkpt>
      <trkpt lat="43.16427" lon="2.22169">
        <ele>362.2</ele>
        <time>2022-09-02T10:49:58Z</time>
      </trkpt>
      <trkpt lat="43.1642" lon="2.22163">
        <ele>362.6</ele>
        <time>2022-09-02T10:50:02Z</time>
      </trkpt>
      <trkpt lat="43.16413" lon="2.22157">
        <ele>363.4</ele>
        <time>2022-09-02T10:50:06Z</time>
      </trkpt>
      <trkpt lat="43.16405" lon="2.22151">
        <ele>363.8</ele>
        <time>2022-09-02T10:50:11Z</time>
      </trkpt>
      <trkpt lat="43.16398" lon="2.22145">
        <ele>364.4</ele>
        <time>2022-09-02T10:50:15Z</time>
      </trkpt>
      <trkpt lat="43.16394" lon="2.22142">
        <ele>364.8</ele>
        <time>2022-09-02T10:50:17Z</time>
      </trkpt>
      <trkpt lat="43.16385" lon="2.22137">
        <ele>365.6</ele>
        <time>2022-09-02T10:50:22Z</time>
      </trkpt>
      <trkpt lat="43.16384" lon="2.22135">
        <ele>365.8</ele>
        <time>2022-09-02T10:50:23Z</time>
      </trkpt>
      <trkpt lat="43.16383" lon="2.22132">
        <ele>365.8</ele>
        <time>2022-09-02T10:50:24Z</time>
      </trkpt>
      <trkpt lat="43.16374" lon="2.22121">
        <ele>366.4</ele>
        <time>2022-09-02T10:50:30Z</time>
      </trkpt>
      <trkpt lat="43.16372" lon="2.22117">
        <ele>366.6</ele>
        <time>2022-09-02T10:50:32Z</time>
      </trkpt>
      <trkpt lat="43.16371" lon="2.22104">
        <ele>367.2</ele>
        <time>2022-09-02T10:50:37Z</time>
      </trkpt>
      <trkpt lat="43.16372" lon="2.22097">
        <ele>367.6</ele>
        <time>2022-09-02T10:50:40Z</time>
      </trkpt>
      <trkpt lat="43.16375" lon="2.22087">
        <ele>368.2</ele>
        <time>2022-09-02T10:50:45Z</time>
      </trkpt>
      <trkpt lat="43.16378" lon="2.22076">
        <ele>368.6</ele>
        <time>2022-09-02T10:50:50Z</time>
      </trkpt>
      <trkpt lat="43.16381" lon="2.22074">
        <ele>369</ele>
        <time>2022-09-02T10:50:52Z</time>
      </trkpt>
      <trkpt lat="43.16383" lon="2.22074">
        <ele>369.2</ele>
        <time>2022-09-02T10:50:53Z</time>
      </trkpt>
      <trkpt lat="43.16387" lon="2.22066">
        <ele>369.6</ele>
        <time>2022-09-02T10:50:57Z</time>
      </trkpt>
      <trkpt lat="43.16388" lon="2.22064">
        <ele>369.8</ele>
        <time>2022-09-02T10:50:58Z</time>
      </trkpt>
      <trkpt lat="43.16393" lon="2.2206">
        <ele>370.4</ele>
        <time>2022-09-02T10:51:02Z</time>
      </trkpt>
      <trkpt lat="43.16395" lon="2.2206">
        <ele>370.6</ele>
        <time>2022-09-02T10:51:03Z</time>
      </trkpt>
      <trkpt lat="43.16399" lon="2.22058">
        <ele>370.6</ele>
        <time>2022-09-02T10:51:05Z</time>
      </trkpt>
      <trkpt lat="43.16402" lon="2.22053">
        <ele>370.8</ele>
        <time>2022-09-02T10:51:07Z</time>
      </trkpt>
      <trkpt lat="43.16403" lon="2.22049">
        <ele>371</ele>
        <time>2022-09-02T10:51:09Z</time>
      </trkpt>
      <trkpt lat="43.16411" lon="2.22043">
        <ele>371.6</ele>
        <time>2022-09-02T10:51:14Z</time>
      </trkpt>
      <trkpt lat="43.16413" lon="2.22041">
        <ele>372</ele>
        <time>2022-09-02T10:51:15Z</time>
      </trkpt>
      <trkpt lat="43.16423" lon="2.22027">
        <ele>372.6</ele>
        <time>2022-09-02T10:51:22Z</time>
      </trkpt>
      <trkpt lat="43.16424" lon="2.2202">
        <ele>373</ele>
        <time>2022-09-02T10:51:25Z</time>
      </trkpt>
      <trkpt lat="43.16425" lon="2.2201">
        <ele>373.4</ele>
        <time>2022-09-02T10:51:29Z</time>
      </trkpt>
      <trkpt lat="43.16421" lon="2.21997">
        <ele>374</ele>
        <time>2022-09-02T10:51:34Z</time>
      </trkpt>
      <trkpt lat="43.16418" lon="2.21988">
        <ele>374.6</ele>
        <time>2022-09-02T10:51:38Z</time>
      </trkpt>
      <trkpt lat="43.16414" lon="2.2198">
        <ele>375.2</ele>
        <time>2022-09-02T10:51:42Z</time>
      </trkpt>
      <trkpt lat="43.16409" lon="2.21969">
        <ele>376.2</ele>
        <time>2022-09-02T10:51:47Z</time>
      </trkpt>
      <trkpt lat="43.16408" lon="2.21967">
        <ele>376.4</ele>
        <time>2022-09-02T10:51:48Z</time>
      </trkpt>
      <trkpt lat="43.16401" lon="2.21952">
        <ele>377</ele>
        <time>2022-09-02T10:51:55Z</time>
      </trkpt>
      <trkpt lat="43.16399" lon="2.2194">
        <ele>377.4</ele>
        <time>2022-09-02T10:52:00Z</time>
      </trkpt>
      <trkpt lat="43.16399" lon="2.21925">
        <ele>377.8</ele>
        <time>2022-09-02T10:52:05Z</time>
      </trkpt>
      <trkpt lat="43.164" lon="2.21911">
        <ele>378.4</ele>
        <time>2022-09-02T10:52:10Z</time>
      </trkpt>
      <trkpt lat="43.16403" lon="2.21894">
        <ele>379</ele>
        <time>2022-09-02T10:52:16Z</time>
      </trkpt>
      <trkpt lat="43.16404" lon="2.21883">
        <ele>379.4</ele>
        <time>2022-09-02T10:52:20Z</time>
      </trkpt>
      <trkpt lat="43.16406" lon="2.21873">
        <ele>380</ele>
        <time>2022-09-02T10:52:24Z</time>
      </trkpt>
      <trkpt lat="43.16409" lon="2.21858">
        <ele>380.6</ele>
        <time>2022-09-02T10:52:30Z</time>
      </trkpt>
      <trkpt lat="43.16409" lon="2.21855">
        <ele>380.8</ele>
        <time>2022-09-02T10:52:31Z</time>
      </trkpt>
      <trkpt lat="43.16413" lon="2.21838">
        <ele>381.6</ele>
        <time>2022-09-02T10:52:38Z</time>
      </trkpt>
      <trkpt lat="43.16415" lon="2.2183">
        <ele>382</ele>
        <time>2022-09-02T10:52:41Z</time>
      </trkpt>
      <trkpt lat="43.16418" lon="2.2182">
        <ele>382.6</ele>
        <time>2022-09-02T10:52:45Z</time>
      </trkpt>
      <trkpt lat="43.16419" lon="2.21813">
        <ele>383.2</ele>
        <time>2022-09-02T10:52:48Z</time>
      </trkpt>
      <trkpt lat="43.16422" lon="2.218">
        <ele>383.6</ele>
        <time>2022-09-02T10:52:53Z</time>
      </trkpt>
      <trkpt lat="43.16425" lon="2.21791">
        <ele>384.2</ele>
        <time>2022-09-02T10:52:57Z</time>
      </trkpt>
      <trkpt lat="43.1643" lon="2.21786">
        <ele>384.8</ele>
        <time>2022-09-02T10:53:00Z</time>
      </trkpt>
      <trkpt lat="43.16432" lon="2.21778">
        <ele>385</ele>
        <time>2022-09-02T10:53:03Z</time>
      </trkpt>
      <trkpt lat="43.16436" lon="2.21757">
        <ele>385.8</ele>
        <time>2022-09-02T10:53:11Z</time>
      </trkpt>
      <trkpt lat="43.16436" lon="2.21755">
        <ele>386</ele>
        <time>2022-09-02T10:53:12Z</time>
      </trkpt>
      <trkpt lat="43.16439" lon="2.21745">
        <ele>386.4</ele>
        <time>2022-09-02T10:53:16Z</time>
      </trkpt>
      <trkpt lat="43.16441" lon="2.21737">
        <ele>387.2</ele>
        <time>2022-09-02T10:53:19Z</time>
      </trkpt>
      <trkpt lat="43.16448" lon="2.21717">
        <ele>388</ele>
        <time>2022-09-02T10:53:27Z</time>
      </trkpt>
      <trkpt lat="43.1645" lon="2.21712">
        <ele>388.2</ele>
        <time>2022-09-02T10:53:29Z</time>
      </trkpt>
      <trkpt lat="43.16459" lon="2.21699">
        <ele>389.2</ele>
        <time>2022-09-02T10:53:36Z</time>
      </trkpt>
      <trkpt lat="43.16461" lon="2.21697">
        <ele>389.4</ele>
        <time>2022-09-02T10:53:37Z</time>
      </trkpt>
      <trkpt lat="43.16475" lon="2.21681">
        <ele>390.2</ele>
        <time>2022-09-02T10:53:46Z</time>
      </trkpt>
      <trkpt lat="43.16477" lon="2.21679">
        <ele>390.2</ele>
        <time>2022-09-02T10:53:47Z</time>
      </trkpt>
      <trkpt lat="43.16489" lon="2.21666">
        <ele>390.8</ele>
        <time>2022-09-02T10:53:54Z</time>
      </trkpt>
      <trkpt lat="43.16497" lon="2.21657">
        <ele>391.4</ele>
        <time>2022-09-02T10:53:59Z</time>
      </trkpt>
      <trkpt lat="43.16501" lon="2.2165">
        <ele>391.6</ele>
        <time>2022-09-02T10:54:02Z</time>
      </trkpt>
      <trkpt lat="43.16508" lon="2.21635">
        <ele>392</ele>
        <time>2022-09-02T10:54:08Z</time>
      </trkpt>
      <trkpt lat="43.16511" lon="2.2162">
        <ele>392.4</ele>
        <time>2022-09-02T10:54:13Z</time>
      </trkpt>
      <trkpt lat="43.16511" lon="2.21617">
        <ele>392.4</ele>
        <time>2022-09-02T10:54:14Z</time>
      </trkpt>
      <trkpt lat="43.16512" lon="2.21593">
        <ele>393</ele>
        <time>2022-09-02T10:54:22Z</time>
      </trkpt>
      <trkpt lat="43.1651" lon="2.21581">
        <ele>393.4</ele>
        <time>2022-09-02T10:54:26Z</time>
      </trkpt>
      <trkpt lat="43.16508" lon="2.21565">
        <ele>393.6</ele>
        <time>2022-09-02T10:54:31Z</time>
      </trkpt>
      <trkpt lat="43.16506" lon="2.21552">
        <ele>394.4</ele>
        <time>2022-09-02T10:54:35Z</time>
      </trkpt>
      <trkpt lat="43.16503" lon="2.21543">
        <ele>394.8</ele>
        <time>2022-09-02T10:54:38Z</time>
      </trkpt>
      <trkpt lat="43.16499" lon="2.21526">
        <ele>395.2</ele>
        <time>2022-09-02T10:54:44Z</time>
      </trkpt>
      <trkpt lat="43.16498" lon="2.2152">
        <ele>395.6</ele>
        <time>2022-09-02T10:54:46Z</time>
      </trkpt>
      <trkpt lat="43.16494" lon="2.21506">
        <ele>397</ele>
        <time>2022-09-02T10:54:51Z</time>
      </trkpt>
      <trkpt lat="43.16493" lon="2.21504">
        <ele>396.4</ele>
        <time>2022-09-02T10:54:52Z</time>
      </trkpt>
      <trkpt lat="43.16493" lon="2.21501">
        <ele>395.8</ele>
        <time>2022-09-02T10:54:53Z</time>
      </trkpt>
      <trkpt lat="43.16491" lon="2.2149">
        <ele>396.8</ele>
        <time>2022-09-02T10:54:57Z</time>
      </trkpt>
      <trkpt lat="43.16489" lon="2.21475">
        <ele>397.2</ele>
        <time>2022-09-02T10:55:02Z</time>
      </trkpt>
      <trkpt lat="43.16486" lon="2.21454">
        <ele>397.2</ele>
        <time>2022-09-02T10:55:09Z</time>
      </trkpt>
      <trkpt lat="43.16481" lon="2.21438">
        <ele>398</ele>
        <time>2022-09-02T10:55:15Z</time>
      </trkpt>
      <trkpt lat="43.16482" lon="2.21422">
        <ele>398.6</ele>
        <time>2022-09-02T10:55:21Z</time>
      </trkpt>
      <trkpt lat="43.16483" lon="2.21413">
        <ele>399</ele>
        <time>2022-09-02T10:55:24Z</time>
      </trkpt>
      <trkpt lat="43.16482" lon="2.21402">
        <ele>399.8</ele>
        <time>2022-09-02T10:55:28Z</time>
      </trkpt>
      <trkpt lat="43.16481" lon="2.21389">
        <ele>400.2</ele>
        <time>2022-09-02T10:55:32Z</time>
      </trkpt>
      <trkpt lat="43.1648" lon="2.21377">
        <ele>400.6</ele>
        <time>2022-09-02T10:55:36Z</time>
      </trkpt>
      <trkpt lat="43.16479" lon="2.21366">
        <ele>401.2</ele>
        <time>2022-09-02T10:55:40Z</time>
      </trkpt>
      <trkpt lat="43.16478" lon="2.21361">
        <ele>401.4</ele>
        <time>2022-09-02T10:55:42Z</time>
      </trkpt>
      <trkpt lat="43.16477" lon="2.21343">
        <ele>402.2</ele>
        <time>2022-09-02T10:55:48Z</time>
      </trkpt>
      <trkpt lat="43.16475" lon="2.21317">
        <ele>403</ele>
        <time>2022-09-02T10:55:56Z</time>
      </trkpt>
      <trkpt lat="43.16474" lon="2.21307">
        <ele>403.4</ele>
        <time>2022-09-02T10:55:59Z</time>
      </trkpt>
      <trkpt lat="43.16474" lon="2.21295">
        <ele>403.8</ele>
        <time>2022-09-02T10:56:03Z</time>
      </trkpt>
      <trkpt lat="43.16473" lon="2.21283">
        <ele>404.6</ele>
        <time>2022-09-02T10:56:07Z</time>
      </trkpt>
      <trkpt lat="43.16472" lon="2.21271">
        <ele>405</ele>
        <time>2022-09-02T10:56:11Z</time>
      </trkpt>
      <trkpt lat="43.16469" lon="2.21252">
        <ele>405.6</ele>
        <time>2022-09-02T10:56:17Z</time>
      </trkpt>
      <trkpt lat="43.16467" lon="2.21246">
        <ele>405.8</ele>
        <time>2022-09-02T10:56:19Z</time>
      </trkpt>
      <trkpt lat="43.16458" lon="2.21232">
        <ele>406.8</ele>
        <time>2022-09-02T10:56:25Z</time>
      </trkpt>
      <trkpt lat="43.16456" lon="2.2123">
        <ele>407</ele>
        <time>2022-09-02T10:56:26Z</time>
      </trkpt>
      <trkpt lat="43.16441" lon="2.21223">
        <ele>407.6</ele>
        <time>2022-09-02T10:56:33Z</time>
      </trkpt>
      <trkpt lat="43.16439" lon="2.21223">
        <ele>407.8</ele>
        <time>2022-09-02T10:56:34Z</time>
      </trkpt>
      <trkpt lat="43.16427" lon="2.21221">
        <ele>408.2</ele>
        <time>2022-09-02T10:56:39Z</time>
      </trkpt>
      <trkpt lat="43.16418" lon="2.21219">
        <ele>409</ele>
        <time>2022-09-02T10:56:43Z</time>
      </trkpt>
      <trkpt lat="43.16409" lon="2.21218">
        <ele>408.8</ele>
        <time>2022-09-02T10:56:47Z</time>
      </trkpt>
      <trkpt lat="43.16395" lon="2.21216">
        <ele>409.8</ele>
        <time>2022-09-02T10:56:54Z</time>
      </trkpt>
      <trkpt lat="43.16393" lon="2.21215">
        <ele>410</ele>
        <time>2022-09-02T10:56:55Z</time>
      </trkpt>
      <trkpt lat="43.16381" lon="2.21213">
        <ele>410.4</ele>
        <time>2022-09-02T10:57:01Z</time>
      </trkpt>
      <trkpt lat="43.16367" lon="2.21213">
        <ele>410.6</ele>
        <time>2022-09-02T10:57:08Z</time>
      </trkpt>
      <trkpt lat="43.16362" lon="2.21214">
        <ele>411</ele>
        <time>2022-09-02T10:57:10Z</time>
      </trkpt>
      <trkpt lat="43.1635" lon="2.2122">
        <ele>411.6</ele>
        <time>2022-09-02T10:57:16Z</time>
      </trkpt>
      <trkpt lat="43.16341" lon="2.21228">
        <ele>412.2</ele>
        <time>2022-09-02T10:57:21Z</time>
      </trkpt>
      <trkpt lat="43.16334" lon="2.21236">
        <ele>412.4</ele>
        <time>2022-09-02T10:57:25Z</time>
      </trkpt>
      <trkpt lat="43.16321" lon="2.2126">
        <ele>413.2</ele>
        <time>2022-09-02T10:57:34Z</time>
      </trkpt>
      <trkpt lat="43.1632" lon="2.21263">
        <ele>413.2</ele>
        <time>2022-09-02T10:57:35Z</time>
      </trkpt>
      <trkpt lat="43.16312" lon="2.21283">
        <ele>413.6</ele>
        <time>2022-09-02T10:57:42Z</time>
      </trkpt>
      <trkpt lat="43.16299" lon="2.21301">
        <ele>414.2</ele>
        <time>2022-09-02T10:57:50Z</time>
      </trkpt>
      <trkpt lat="43.16297" lon="2.21302">
        <ele>414.2</ele>
        <time>2022-09-02T10:57:51Z</time>
      </trkpt>
      <trkpt lat="43.16281" lon="2.21308">
        <ele>415</ele>
        <time>2022-09-02T10:57:58Z</time>
      </trkpt>
      <trkpt lat="43.16275" lon="2.21306">
        <ele>415.2</ele>
        <time>2022-09-02T10:58:01Z</time>
      </trkpt>
      <trkpt lat="43.16265" lon="2.21299">
        <ele>415.8</ele>
        <time>2022-09-02T10:58:06Z</time>
      </trkpt>
      <trkpt lat="43.16261" lon="2.21294">
        <ele>416.4</ele>
        <time>2022-09-02T10:58:08Z</time>
      </trkpt>
      <trkpt lat="43.16258" lon="2.21282">
        <ele>417</ele>
        <time>2022-09-02T10:58:12Z</time>
      </trkpt>
      <trkpt lat="43.16257" lon="2.21276">
        <ele>417.6</ele>
        <time>2022-09-02T10:58:14Z</time>
      </trkpt>
      <trkpt lat="43.16256" lon="2.21264">
        <ele>418</ele>
        <time>2022-09-02T10:58:18Z</time>
      </trkpt>
      <trkpt lat="43.16249" lon="2.21242">
        <ele>418.4</ele>
        <time>2022-09-02T10:58:26Z</time>
      </trkpt>
      <trkpt lat="43.16247" lon="2.21236">
        <ele>418.6</ele>
        <time>2022-09-02T10:58:28Z</time>
      </trkpt>
      <trkpt lat="43.16237" lon="2.21222">
        <ele>419.2</ele>
        <time>2022-09-02T10:58:34Z</time>
      </trkpt>
      <trkpt lat="43.16231" lon="2.21213">
        <ele>419.6</ele>
        <time>2022-09-02T10:58:38Z</time>
      </trkpt>
      <trkpt lat="43.16223" lon="2.21201">
        <ele>419.8</ele>
        <time>2022-09-02T10:58:43Z</time>
      </trkpt>
      <trkpt lat="43.16211" lon="2.21179">
        <ele>420.6</ele>
        <time>2022-09-02T10:58:51Z</time>
      </trkpt>
      <trkpt lat="43.16208" lon="2.21169">
        <ele>420.6</ele>
        <time>2022-09-02T10:58:54Z</time>
      </trkpt>
      <trkpt lat="43.16202" lon="2.21156">
        <ele>421</ele>
        <time>2022-09-02T10:58:58Z</time>
      </trkpt>
      <trkpt lat="43.16192" lon="2.21135">
        <ele>421.4</ele>
        <time>2022-09-02T10:59:04Z</time>
      </trkpt>
      <trkpt lat="43.16185" lon="2.21122">
        <ele>421.8</ele>
        <time>2022-09-02T10:59:08Z</time>
      </trkpt>
      <trkpt lat="43.1618" lon="2.21111">
        <ele>422</ele>
        <time>2022-09-02T10:59:11Z</time>
      </trkpt>
      <trkpt lat="43.16169" lon="2.21089">
        <ele>422.4</ele>
        <time>2022-09-02T10:59:18Z</time>
      </trkpt>
      <trkpt lat="43.16164" lon="2.21079">
        <ele>422.8</ele>
        <time>2022-09-02T10:59:21Z</time>
      </trkpt>
      <trkpt lat="43.16156" lon="2.21061">
        <ele>423.2</ele>
        <time>2022-09-02T10:59:26Z</time>
      </trkpt>
      <trkpt lat="43.16148" lon="2.2104">
        <ele>423.6</ele>
        <time>2022-09-02T10:59:32Z</time>
      </trkpt>
      <trkpt lat="43.16145" lon="2.21033">
        <ele>423.8</ele>
        <time>2022-09-02T10:59:34Z</time>
      </trkpt>
      <trkpt lat="43.16137" lon="2.21017">
        <ele>424</ele>
        <time>2022-09-02T10:59:39Z</time>
      </trkpt>
      <trkpt lat="43.16122" lon="2.21003">
        <ele>424.2</ele>
        <time>2022-09-02T10:59:45Z</time>
      </trkpt>
      <trkpt lat="43.16103" lon="2.21">
        <ele>424.8</ele>
        <time>2022-09-02T10:59:52Z</time>
      </trkpt>
      <trkpt lat="43.16087" lon="2.21006">
        <ele>425.4</ele>
        <time>2022-09-02T10:59:58Z</time>
      </trkpt>
      <trkpt lat="43.16071" lon="2.21023">
        <ele>425.6</ele>
        <time>2022-09-02T11:00:05Z</time>
      </trkpt>
      <trkpt lat="43.16066" lon="2.21028">
        <ele>426</ele>
        <time>2022-09-02T11:00:07Z</time>
      </trkpt>
      <trkpt lat="43.16048" lon="2.21049">
        <ele>426.8</ele>
        <time>2022-09-02T11:00:15Z</time>
      </trkpt>
      <trkpt lat="43.16044" lon="2.21054">
        <ele>427</ele>
        <time>2022-09-02T11:00:17Z</time>
      </trkpt>
      <trkpt lat="43.16029" lon="2.2107">
        <ele>427.2</ele>
        <time>2022-09-02T11:00:23Z</time>
      </trkpt>
      <trkpt lat="43.16009" lon="2.21092">
        <ele>428</ele>
        <time>2022-09-02T11:00:32Z</time>
      </trkpt>
      <trkpt lat="43.16007" lon="2.21095">
        <ele>428.2</ele>
        <time>2022-09-02T11:00:33Z</time>
      </trkpt>
      <trkpt lat="43.15987" lon="2.21111">
        <ele>428.8</ele>
        <time>2022-09-02T11:00:41Z</time>
      </trkpt>
      <trkpt lat="43.15973" lon="2.21113">
        <ele>429</ele>
        <time>2022-09-02T11:00:46Z</time>
      </trkpt>
      <trkpt lat="43.1597" lon="2.21112">
        <ele>429.2</ele>
        <time>2022-09-02T11:00:47Z</time>
      </trkpt>
      <trkpt lat="43.15953" lon="2.21107">
        <ele>430</ele>
        <time>2022-09-02T11:00:53Z</time>
      </trkpt>
      <trkpt lat="43.15942" lon="2.21104">
        <ele>430.6</ele>
        <time>2022-09-02T11:00:57Z</time>
      </trkpt>
      <trkpt lat="43.15924" lon="2.21103">
        <ele>430.8</ele>
        <time>2022-09-02T11:01:04Z</time>
      </trkpt>
      <trkpt lat="43.15919" lon="2.21103">
        <ele>431</ele>
        <time>2022-09-02T11:01:06Z</time>
      </trkpt>
      <trkpt lat="43.15918" lon="2.21101">
        <ele>431.2</ele>
        <time>2022-09-02T11:01:07Z</time>
      </trkpt>
      <trkpt lat="43.15918" lon="2.211">
        <ele>431.2</ele>
        <time>2022-09-02T11:01:08Z</time>
      </trkpt>
      <trkpt lat="43.15923" lon="2.21091">
        <ele>431</ele>
        <time>2022-09-02T11:01:12Z</time>
      </trkpt>
      <trkpt lat="43.15923" lon="2.21085">
        <ele>431.2</ele>
        <time>2022-09-02T11:01:14Z</time>
      </trkpt>
      <trkpt lat="43.15926" lon="2.21073">
        <ele>431</ele>
        <time>2022-09-02T11:01:18Z</time>
      </trkpt>
      <trkpt lat="43.15922" lon="2.21089">
        <ele>431.4</ele>
        <time>2022-09-02T11:03:09Z</time>
      </trkpt>
      <trkpt lat="43.15914" lon="2.21102">
        <ele>432</ele>
        <time>2022-09-02T11:03:15Z</time>
      </trkpt>
      <trkpt lat="43.15912" lon="2.21104">
        <ele>432.2</ele>
        <time>2022-09-02T11:03:16Z</time>
      </trkpt>
      <trkpt lat="43.15893" lon="2.21116">
        <ele>432.6</ele>
        <time>2022-09-02T11:03:24Z</time>
      </trkpt>
      <trkpt lat="43.1588" lon="2.21118">
        <ele>433.2</ele>
        <time>2022-09-02T11:03:29Z</time>
      </trkpt>
      <trkpt lat="43.15873" lon="2.21117">
        <ele>433</ele>
        <time>2022-09-02T11:03:32Z</time>
      </trkpt>
      <trkpt lat="43.1586" lon="2.21105">
        <ele>433.2</ele>
        <time>2022-09-02T11:03:38Z</time>
      </trkpt>
      <trkpt lat="43.1585" lon="2.21083">
        <ele>432.6</ele>
        <time>2022-09-02T11:03:45Z</time>
      </trkpt>
      <trkpt lat="43.15839" lon="2.21054">
        <ele>433.6</ele>
        <time>2022-09-02T11:03:54Z</time>
      </trkpt>
      <trkpt lat="43.15828" lon="2.21032">
        <ele>434</ele>
        <time>2022-09-02T11:04:01Z</time>
      </trkpt>
      <trkpt lat="43.15813" lon="2.2101">
        <ele>434.2</ele>
        <time>2022-09-02T11:04:08Z</time>
      </trkpt>
      <trkpt lat="43.1581" lon="2.21008">
        <ele>434.4</ele>
        <time>2022-09-02T11:04:09Z</time>
      </trkpt>
      <trkpt lat="43.15795" lon="2.20991">
        <ele>434.6</ele>
        <time>2022-09-02T11:04:15Z</time>
      </trkpt>
      <trkpt lat="43.15773" lon="2.20966">
        <ele>435.2</ele>
        <time>2022-09-02T11:04:24Z</time>
      </trkpt>
      <trkpt lat="43.15768" lon="2.2096">
        <ele>435.6</ele>
        <time>2022-09-02T11:04:26Z</time>
      </trkpt>
      <trkpt lat="43.15746" lon="2.20942">
        <ele>435.4</ele>
        <time>2022-09-02T11:04:34Z</time>
      </trkpt>
      <trkpt lat="43.15727" lon="2.20936">
        <ele>435.8</ele>
        <time>2022-09-02T11:04:40Z</time>
      </trkpt>
      <trkpt lat="43.15701" lon="2.20935">
        <ele>435</ele>
        <time>2022-09-02T11:04:46Z</time>
      </trkpt>
      <trkpt lat="43.15681" lon="2.20932">
        <ele>434.4</ele>
        <time>2022-09-02T11:04:50Z</time>
      </trkpt>
      <trkpt lat="43.15665" lon="2.20927">
        <ele>433.6</ele>
        <time>2022-09-02T11:04:53Z</time>
      </trkpt>
      <trkpt lat="43.15654" lon="2.20921">
        <ele>433.4</ele>
        <time>2022-09-02T11:04:55Z</time>
      </trkpt>
      <trkpt lat="43.15631" lon="2.20907">
        <ele>432.6</ele>
        <time>2022-09-02T11:04:59Z</time>
      </trkpt>
      <trkpt lat="43.15625" lon="2.20903">
        <ele>432.4</ele>
        <time>2022-09-02T11:05:00Z</time>
      </trkpt>
      <trkpt lat="43.15603" lon="2.20884">
        <ele>431.6</ele>
        <time>2022-09-02T11:05:04Z</time>
      </trkpt>
      <trkpt lat="43.15598" lon="2.20878">
        <ele>431.6</ele>
        <time>2022-09-02T11:05:05Z</time>
      </trkpt>
      <trkpt lat="43.15594" lon="2.20871">
        <ele>431.6</ele>
        <time>2022-09-02T11:05:06Z</time>
      </trkpt>
      <trkpt lat="43.15589" lon="2.20863">
        <ele>431.2</ele>
        <time>2022-09-02T11:05:07Z</time>
      </trkpt>
      <trkpt lat="43.15582" lon="2.20847">
        <ele>430.4</ele>
        <time>2022-09-02T11:05:09Z</time>
      </trkpt>
      <trkpt lat="43.15578" lon="2.20838">
        <ele>430.2</ele>
        <time>2022-09-02T11:05:10Z</time>
      </trkpt>
      <trkpt lat="43.15563" lon="2.20793">
        <ele>429.2</ele>
        <time>2022-09-02T11:05:15Z</time>
      </trkpt>
      <trkpt lat="43.1556" lon="2.20783">
        <ele>428.8</ele>
        <time>2022-09-02T11:05:16Z</time>
      </trkpt>
      <trkpt lat="43.15548" lon="2.20745">
        <ele>427.2</ele>
        <time>2022-09-02T11:05:20Z</time>
      </trkpt>
      <trkpt lat="43.15539" lon="2.20717">
        <ele>427.2</ele>
        <time>2022-09-02T11:05:23Z</time>
      </trkpt>
      <trkpt lat="43.15528" lon="2.2069">
        <ele>426</ele>
        <time>2022-09-02T11:05:26Z</time>
      </trkpt>
      <trkpt lat="43.15518" lon="2.20674">
        <ele>425.4</ele>
        <time>2022-09-02T11:05:28Z</time>
      </trkpt>
      <trkpt lat="43.15513" lon="2.20667">
        <ele>425.2</ele>
        <time>2022-09-02T11:05:29Z</time>
      </trkpt>
      <trkpt lat="43.15507" lon="2.2066">
        <ele>425</ele>
        <time>2022-09-02T11:05:30Z</time>
      </trkpt>
      <trkpt lat="43.15494" lon="2.20649">
        <ele>424.8</ele>
        <time>2022-09-02T11:05:32Z</time>
      </trkpt>
      <trkpt lat="43.15473" lon="2.20637">
        <ele>423.8</ele>
        <time>2022-09-02T11:05:35Z</time>
      </trkpt>
      <trkpt lat="43.15446" lon="2.2062">
        <ele>423</ele>
        <time>2022-09-02T11:05:39Z</time>
      </trkpt>
      <trkpt lat="43.15439" lon="2.20615">
        <ele>422.6</ele>
        <time>2022-09-02T11:05:40Z</time>
      </trkpt>
      <trkpt lat="43.15433" lon="2.20609">
        <ele>422.4</ele>
        <time>2022-09-02T11:05:41Z</time>
      </trkpt>
      <trkpt lat="43.15423" lon="2.20595">
        <ele>422.4</ele>
        <time>2022-09-02T11:05:43Z</time>
      </trkpt>
      <trkpt lat="43.15418" lon="2.20588">
        <ele>422.6</ele>
        <time>2022-09-02T11:05:44Z</time>
      </trkpt>
      <trkpt lat="43.15407" lon="2.20563">
        <ele>421.4</ele>
        <time>2022-09-02T11:05:47Z</time>
      </trkpt>
      <trkpt lat="43.15397" lon="2.20517">
        <ele>421.2</ele>
        <time>2022-09-02T11:05:52Z</time>
      </trkpt>
      <trkpt lat="43.15397" lon="2.20508">
        <ele>421.2</ele>
        <time>2022-09-02T11:05:53Z</time>
      </trkpt>
      <trkpt lat="43.15397" lon="2.2049">
        <ele>419.8</ele>
        <time>2022-09-02T11:05:55Z</time>
      </trkpt>
      <trkpt lat="43.15399" lon="2.20481">
        <ele>419.4</ele>
        <time>2022-09-02T11:05:56Z</time>
      </trkpt>
      <trkpt lat="43.15406" lon="2.20455">
        <ele>418.2</ele>
        <time>2022-09-02T11:05:59Z</time>
      </trkpt>
      <trkpt lat="43.1541" lon="2.20446">
        <ele>417.6</ele>
        <time>2022-09-02T11:06:00Z</time>
      </trkpt>
      <trkpt lat="43.15418" lon="2.20431">
        <ele>417.4</ele>
        <time>2022-09-02T11:06:02Z</time>
      </trkpt>
      <trkpt lat="43.15429" lon="2.20406">
        <ele>417.2</ele>
        <time>2022-09-02T11:06:05Z</time>
      </trkpt>
      <trkpt lat="43.15431" lon="2.20398">
        <ele>417.2</ele>
        <time>2022-09-02T11:06:06Z</time>
      </trkpt>
      <trkpt lat="43.15432" lon="2.20379">
        <ele>415.8</ele>
        <time>2022-09-02T11:06:08Z</time>
      </trkpt>
      <trkpt lat="43.15431" lon="2.2037">
        <ele>415.6</ele>
        <time>2022-09-02T11:06:09Z</time>
      </trkpt>
      <trkpt lat="43.15418" lon="2.20347">
        <ele>416</ele>
        <time>2022-09-02T11:06:12Z</time>
      </trkpt>
      <trkpt lat="43.15401" lon="2.20331">
        <ele>415.2</ele>
        <time>2022-09-02T11:06:15Z</time>
      </trkpt>
      <trkpt lat="43.15389" lon="2.20322">
        <ele>414.6</ele>
        <time>2022-09-02T11:06:17Z</time>
      </trkpt>
      <trkpt lat="43.15375" lon="2.20315">
        <ele>413.4</ele>
        <time>2022-09-02T11:06:19Z</time>
      </trkpt>
      <trkpt lat="43.15361" lon="2.20311">
        <ele>412.6</ele>
        <time>2022-09-02T11:06:21Z</time>
      </trkpt>
      <trkpt lat="43.15354" lon="2.20309">
        <ele>412.4</ele>
        <time>2022-09-02T11:06:22Z</time>
      </trkpt>
      <trkpt lat="43.15341" lon="2.20305">
        <ele>412</ele>
        <time>2022-09-02T11:06:24Z</time>
      </trkpt>
      <trkpt lat="43.15329" lon="2.20297">
        <ele>411.6</ele>
        <time>2022-09-02T11:06:26Z</time>
      </trkpt>
      <trkpt lat="43.1532" lon="2.20273">
        <ele>411.6</ele>
        <time>2022-09-02T11:06:29Z</time>
      </trkpt>
      <trkpt lat="43.15321" lon="2.20254">
        <ele>411.2</ele>
        <time>2022-09-02T11:06:31Z</time>
      </trkpt>
      <trkpt lat="43.15322" lon="2.20246">
        <ele>410.2</ele>
        <time>2022-09-02T11:06:32Z</time>
      </trkpt>
      <trkpt lat="43.15324" lon="2.20237">
        <ele>409.8</ele>
        <time>2022-09-02T11:06:33Z</time>
      </trkpt>
      <trkpt lat="43.15331" lon="2.20212">
        <ele>409</ele>
        <time>2022-09-02T11:06:36Z</time>
      </trkpt>
      <trkpt lat="43.15338" lon="2.20187">
        <ele>408.2</ele>
        <time>2022-09-02T11:06:39Z</time>
      </trkpt>
      <trkpt lat="43.15353" lon="2.20156">
        <ele>407.8</ele>
        <time>2022-09-02T11:06:43Z</time>
      </trkpt>
      <trkpt lat="43.15356" lon="2.20149">
        <ele>407.4</ele>
        <time>2022-09-02T11:06:44Z</time>
      </trkpt>
      <trkpt lat="43.15359" lon="2.20141">
        <ele>407</ele>
        <time>2022-09-02T11:06:45Z</time>
      </trkpt>
      <trkpt lat="43.15362" lon="2.20123">
        <ele>406.8</ele>
        <time>2022-09-02T11:06:47Z</time>
      </trkpt>
      <trkpt lat="43.15363" lon="2.20114">
        <ele>406.6</ele>
        <time>2022-09-02T11:06:48Z</time>
      </trkpt>
      <trkpt lat="43.15363" lon="2.20086">
        <ele>405.4</ele>
        <time>2022-09-02T11:06:51Z</time>
      </trkpt>
      <trkpt lat="43.15362" lon="2.20057">
        <ele>404.4</ele>
        <time>2022-09-02T11:06:54Z</time>
      </trkpt>
      <trkpt lat="43.15362" lon="2.20047">
        <ele>404.2</ele>
        <time>2022-09-02T11:06:55Z</time>
      </trkpt>
      <trkpt lat="43.15358" lon="2.1999">
        <ele>403</ele>
        <time>2022-09-02T11:07:01Z</time>
      </trkpt>
      <trkpt lat="43.15357" lon="2.19981">
        <ele>402.6</ele>
        <time>2022-09-02T11:07:02Z</time>
      </trkpt>
      <trkpt lat="43.15354" lon="2.19925">
        <ele>402</ele>
        <time>2022-09-02T11:07:08Z</time>
      </trkpt>
      <trkpt lat="43.15353" lon="2.19915">
        <ele>401.6</ele>
        <time>2022-09-02T11:07:09Z</time>
      </trkpt>
      <trkpt lat="43.15353" lon="2.19897">
        <ele>400.8</ele>
        <time>2022-09-02T11:07:11Z</time>
      </trkpt>
      <trkpt lat="43.15351" lon="2.19858">
        <ele>399.6</ele>
        <time>2022-09-02T11:07:15Z</time>
      </trkpt>
      <trkpt lat="43.15349" lon="2.19838">
        <ele>399.2</ele>
        <time>2022-09-02T11:07:17Z</time>
      </trkpt>
      <trkpt lat="43.15349" lon="2.19809">
        <ele>398</ele>
        <time>2022-09-02T11:07:20Z</time>
      </trkpt>
      <trkpt lat="43.15348" lon="2.19769">
        <ele>396.8</ele>
        <time>2022-09-02T11:07:24Z</time>
      </trkpt>
      <trkpt lat="43.15348" lon="2.19759">
        <ele>396.6</ele>
        <time>2022-09-02T11:07:25Z</time>
      </trkpt>
      <trkpt lat="43.15355" lon="2.19699">
        <ele>395.4</ele>
        <time>2022-09-02T11:07:31Z</time>
      </trkpt>
      <trkpt lat="43.15361" lon="2.19658">
        <ele>394.6</ele>
        <time>2022-09-02T11:07:35Z</time>
      </trkpt>
      <trkpt lat="43.1536" lon="2.19648">
        <ele>394.4</ele>
        <time>2022-09-02T11:07:36Z</time>
      </trkpt>
      <trkpt lat="43.15358" lon="2.19637">
        <ele>394</ele>
        <time>2022-09-02T11:07:37Z</time>
      </trkpt>
      <trkpt lat="43.15349" lon="2.19607">
        <ele>393.2</ele>
        <time>2022-09-02T11:07:40Z</time>
      </trkpt>
      <trkpt lat="43.15345" lon="2.19597">
        <ele>393</ele>
        <time>2022-09-02T11:07:41Z</time>
      </trkpt>
      <trkpt lat="43.15339" lon="2.19576">
        <ele>392.6</ele>
        <time>2022-09-02T11:07:43Z</time>
      </trkpt>
      <trkpt lat="43.15338" lon="2.19564">
        <ele>392.2</ele>
        <time>2022-09-02T11:07:44Z</time>
      </trkpt>
      <trkpt lat="43.15339" lon="2.19553">
        <ele>392</ele>
        <time>2022-09-02T11:07:45Z</time>
      </trkpt>
      <trkpt lat="43.15345" lon="2.19519">
        <ele>391</ele>
        <time>2022-09-02T11:07:48Z</time>
      </trkpt>
      <trkpt lat="43.15347" lon="2.19508">
        <ele>390.8</ele>
        <time>2022-09-02T11:07:49Z</time>
      </trkpt>
      <trkpt lat="43.15352" lon="2.19475">
        <ele>390</ele>
        <time>2022-09-02T11:07:52Z</time>
      </trkpt>
      <trkpt lat="43.15354" lon="2.19452">
        <ele>389.2</ele>
        <time>2022-09-02T11:07:54Z</time>
      </trkpt>
      <trkpt lat="43.15354" lon="2.19418">
        <ele>388.6</ele>
        <time>2022-09-02T11:07:57Z</time>
      </trkpt>
      <trkpt lat="43.15355" lon="2.19383">
        <ele>387.6</ele>
        <time>2022-09-02T11:08:00Z</time>
      </trkpt>
      <trkpt lat="43.15355" lon="2.19348">
        <ele>387.4</ele>
        <time>2022-09-02T11:08:03Z</time>
      </trkpt>
      <trkpt lat="43.15358" lon="2.19304">
        <ele>386.4</ele>
        <time>2022-09-02T11:08:07Z</time>
      </trkpt>
      <trkpt lat="43.15361" lon="2.19284">
        <ele>385.4</ele>
        <time>2022-09-02T11:08:09Z</time>
      </trkpt>
      <trkpt lat="43.15373" lon="2.19247">
        <ele>384.4</ele>
        <time>2022-09-02T11:08:13Z</time>
      </trkpt>
      <trkpt lat="43.15378" lon="2.19229">
        <ele>384.2</ele>
        <time>2022-09-02T11:08:15Z</time>
      </trkpt>
      <trkpt lat="43.15384" lon="2.19193">
        <ele>383.4</ele>
        <time>2022-09-02T11:08:19Z</time>
      </trkpt>
      <trkpt lat="43.15385" lon="2.19184">
        <ele>383.2</ele>
        <time>2022-09-02T11:08:20Z</time>
      </trkpt>
      <trkpt lat="43.15382" lon="2.19141">
        <ele>382.4</ele>
        <time>2022-09-02T11:08:25Z</time>
      </trkpt>
      <trkpt lat="43.15381" lon="2.19133">
        <ele>382</ele>
        <time>2022-09-02T11:08:26Z</time>
      </trkpt>
      <trkpt lat="43.1537" lon="2.19093">
        <ele>381.4</ele>
        <time>2022-09-02T11:08:31Z</time>
      </trkpt>
      <trkpt lat="43.15368" lon="2.19085">
        <ele>381.2</ele>
        <time>2022-09-02T11:08:32Z</time>
      </trkpt>
      <trkpt lat="43.15352" lon="2.19029">
        <ele>380.4</ele>
        <time>2022-09-02T11:08:39Z</time>
      </trkpt>
      <trkpt lat="43.15349" lon="2.19021">
        <ele>380.2</ele>
        <time>2022-09-02T11:08:40Z</time>
      </trkpt>
      <trkpt lat="43.15331" lon="2.1897">
        <ele>379.2</ele>
        <time>2022-09-02T11:08:47Z</time>
      </trkpt>
      <trkpt lat="43.15307" lon="2.18918">
        <ele>379.4</ele>
        <time>2022-09-02T11:08:55Z</time>
      </trkpt>
      <trkpt lat="43.15284" lon="2.18881">
        <ele>380.2</ele>
        <time>2022-09-02T11:09:02Z</time>
      </trkpt>
      <trkpt lat="43.15259" lon="2.18854">
        <ele>380.4</ele>
        <time>2022-09-02T11:09:09Z</time>
      </trkpt>
      <trkpt lat="43.15243" lon="2.18838">
        <ele>380.4</ele>
        <time>2022-09-02T11:09:14Z</time>
      </trkpt>
      <trkpt lat="43.15236" lon="2.18832">
        <ele>380.2</ele>
        <time>2022-09-02T11:09:16Z</time>
      </trkpt>
      <trkpt lat="43.15216" lon="2.18816">
        <ele>380.4</ele>
        <time>2022-09-02T11:09:22Z</time>
      </trkpt>
      <trkpt lat="43.15183" lon="2.18786">
        <ele>380.2</ele>
        <time>2022-09-02T11:09:32Z</time>
      </trkpt>
      <trkpt lat="43.15155" lon="2.18753">
        <ele>381</ele>
        <time>2022-09-02T11:09:41Z</time>
      </trkpt>
      <trkpt lat="43.15126" lon="2.18718">
        <ele>381</ele>
        <time>2022-09-02T11:09:50Z</time>
      </trkpt>
      <trkpt lat="43.1509" lon="2.18685">
        <ele>381</ele>
        <time>2022-09-02T11:10:00Z</time>
      </trkpt>
      <trkpt lat="43.15064" lon="2.18655">
        <ele>381</ele>
        <time>2022-09-02T11:10:08Z</time>
      </trkpt>
      <trkpt lat="43.1505" lon="2.18633">
        <ele>381.4</ele>
        <time>2022-09-02T11:10:13Z</time>
      </trkpt>
      <trkpt lat="43.15044" lon="2.18624">
        <ele>381.6</ele>
        <time>2022-09-02T11:10:15Z</time>
      </trkpt>
      <trkpt lat="43.15024" lon="2.18585">
        <ele>382.2</ele>
        <time>2022-09-02T11:10:23Z</time>
      </trkpt>
      <trkpt lat="43.1502" lon="2.18576">
        <ele>382.4</ele>
        <time>2022-09-02T11:10:25Z</time>
      </trkpt>
      <trkpt lat="43.15018" lon="2.18571">
        <ele>382.6</ele>
        <time>2022-09-02T11:10:26Z</time>
      </trkpt>
      <trkpt lat="43.1501" lon="2.18551">
        <ele>382</ele>
        <time>2022-09-02T11:10:30Z</time>
      </trkpt>
      <trkpt lat="43.15001" lon="2.18515">
        <ele>382</ele>
        <time>2022-09-02T11:10:37Z</time>
      </trkpt>
      <trkpt lat="43.14998" lon="2.18475">
        <ele>382.2</ele>
        <time>2022-09-02T11:10:44Z</time>
      </trkpt>
      <trkpt lat="43.14997" lon="2.18423">
        <ele>383</ele>
        <time>2022-09-02T11:10:53Z</time>
      </trkpt>
      <trkpt lat="43.14995" lon="2.18379">
        <ele>383.6</ele>
        <time>2022-09-02T11:11:01Z</time>
      </trkpt>
      <trkpt lat="43.14995" lon="2.18322">
        <ele>383.2</ele>
        <time>2022-09-02T11:11:11Z</time>
      </trkpt>
      <trkpt lat="43.14998" lon="2.18284">
        <ele>383.2</ele>
        <time>2022-09-02T11:11:18Z</time>
      </trkpt>
      <trkpt lat="43.15009" lon="2.18251">
        <ele>382.4</ele>
        <time>2022-09-02T11:11:24Z</time>
      </trkpt>
      <trkpt lat="43.15011" lon="2.18246">
        <ele>382.2</ele>
        <time>2022-09-02T11:11:25Z</time>
      </trkpt>
      <trkpt lat="43.15031" lon="2.18209">
        <ele>381.6</ele>
        <time>2022-09-02T11:11:32Z</time>
      </trkpt>
      <trkpt lat="43.15037" lon="2.18198">
        <ele>381.2</ele>
        <time>2022-09-02T11:11:34Z</time>
      </trkpt>
      <trkpt lat="43.15052" lon="2.18169">
        <ele>380.2</ele>
        <time>2022-09-02T11:11:39Z</time>
      </trkpt>
      <trkpt lat="43.15058" lon="2.18157">
        <ele>379.8</ele>
        <time>2022-09-02T11:11:41Z</time>
      </trkpt>
      <trkpt lat="43.15068" lon="2.18138">
        <ele>379.2</ele>
        <time>2022-09-02T11:11:44Z</time>
      </trkpt>
      <trkpt lat="43.15086" lon="2.18105">
        <ele>378.6</ele>
        <time>2022-09-02T11:11:49Z</time>
      </trkpt>
      <trkpt lat="43.15094" lon="2.18091">
        <ele>378</ele>
        <time>2022-09-02T11:11:51Z</time>
      </trkpt>
      <trkpt lat="43.15113" lon="2.18069">
        <ele>377</ele>
        <time>2022-09-02T11:11:55Z</time>
      </trkpt>
      <trkpt lat="43.15119" lon="2.18064">
        <ele>376.8</ele>
        <time>2022-09-02T11:11:56Z</time>
      </trkpt>
      <trkpt lat="43.15136" lon="2.18053">
        <ele>376.2</ele>
        <time>2022-09-02T11:11:59Z</time>
      </trkpt>
      <trkpt lat="43.15142" lon="2.1805">
        <ele>375.8</ele>
        <time>2022-09-02T11:12:00Z</time>
      </trkpt>
      <trkpt lat="43.15148" lon="2.18046">
        <ele>375.6</ele>
        <time>2022-09-02T11:12:01Z</time>
      </trkpt>
      <trkpt lat="43.15171" lon="2.18031">
        <ele>375.4</ele>
        <time>2022-09-02T11:12:05Z</time>
      </trkpt>
      <trkpt lat="43.1518" lon="2.18018">
        <ele>375.2</ele>
        <time>2022-09-02T11:12:07Z</time>
      </trkpt>
      <trkpt lat="43.15183" lon="2.1801">
        <ele>374.4</ele>
        <time>2022-09-02T11:12:08Z</time>
      </trkpt>
      <trkpt lat="43.15187" lon="2.17992">
        <ele>374.2</ele>
        <time>2022-09-02T11:12:10Z</time>
      </trkpt>
      <trkpt lat="43.1519" lon="2.17983">
        <ele>374</ele>
        <time>2022-09-02T11:12:11Z</time>
      </trkpt>
      <trkpt lat="43.152" lon="2.17968">
        <ele>373.4</ele>
        <time>2022-09-02T11:12:13Z</time>
      </trkpt>
      <trkpt lat="43.15207" lon="2.17965">
        <ele>373</ele>
        <time>2022-09-02T11:12:14Z</time>
      </trkpt>
      <trkpt lat="43.15214" lon="2.17964">
        <ele>372.6</ele>
        <time>2022-09-02T11:12:15Z</time>
      </trkpt>
      <trkpt lat="43.15228" lon="2.17965">
        <ele>372</ele>
        <time>2022-09-02T11:12:17Z</time>
      </trkpt>
      <trkpt lat="43.15242" lon="2.17962">
        <ele>371.2</ele>
        <time>2022-09-02T11:12:19Z</time>
      </trkpt>
      <trkpt lat="43.15258" lon="2.17941">
        <ele>370.8</ele>
        <time>2022-09-02T11:12:22Z</time>
      </trkpt>
      <trkpt lat="43.15256" lon="2.1792">
        <ele>370.6</ele>
        <time>2022-09-02T11:12:24Z</time>
      </trkpt>
      <trkpt lat="43.15248" lon="2.1789">
        <ele>370</ele>
        <time>2022-09-02T11:12:27Z</time>
      </trkpt>
      <trkpt lat="43.15245" lon="2.17879">
        <ele>369.4</ele>
        <time>2022-09-02T11:12:28Z</time>
      </trkpt>
      <trkpt lat="43.15236" lon="2.17848">
        <ele>368.2</ele>
        <time>2022-09-02T11:12:31Z</time>
      </trkpt>
      <trkpt lat="43.15233" lon="2.17827">
        <ele>367.6</ele>
        <time>2022-09-02T11:12:33Z</time>
      </trkpt>
      <trkpt lat="43.15233" lon="2.17816">
        <ele>367.4</ele>
        <time>2022-09-02T11:12:34Z</time>
      </trkpt>
      <trkpt lat="43.15234" lon="2.17806">
        <ele>367</ele>
        <time>2022-09-02T11:12:35Z</time>
      </trkpt>
      <trkpt lat="43.15242" lon="2.17788">
        <ele>366</ele>
        <time>2022-09-02T11:12:37Z</time>
      </trkpt>
      <trkpt lat="43.15248" lon="2.17781">
        <ele>365.6</ele>
        <time>2022-09-02T11:12:38Z</time>
      </trkpt>
      <trkpt lat="43.15261" lon="2.17771">
        <ele>365.2</ele>
        <time>2022-09-02T11:12:40Z</time>
      </trkpt>
      <trkpt lat="43.15268" lon="2.17766">
        <ele>365</ele>
        <time>2022-09-02T11:12:41Z</time>
      </trkpt>
      <trkpt lat="43.15295" lon="2.17747">
        <ele>364.4</ele>
        <time>2022-09-02T11:12:45Z</time>
      </trkpt>
      <trkpt lat="43.15308" lon="2.17734">
        <ele>363.8</ele>
        <time>2022-09-02T11:12:47Z</time>
      </trkpt>
      <trkpt lat="43.15314" lon="2.17727">
        <ele>363.8</ele>
        <time>2022-09-02T11:12:48Z</time>
      </trkpt>
      <trkpt lat="43.15323" lon="2.17709">
        <ele>363.2</ele>
        <time>2022-09-02T11:12:50Z</time>
      </trkpt>
      <trkpt lat="43.15328" lon="2.17677">
        <ele>362.6</ele>
        <time>2022-09-02T11:12:53Z</time>
      </trkpt>
      <trkpt lat="43.15324" lon="2.17645">
        <ele>362</ele>
        <time>2022-09-02T11:12:56Z</time>
      </trkpt>
      <trkpt lat="43.15321" lon="2.17634">
        <ele>361.8</ele>
        <time>2022-09-02T11:12:57Z</time>
      </trkpt>
      <trkpt lat="43.15318" lon="2.17624">
        <ele>361.6</ele>
        <time>2022-09-02T11:12:58Z</time>
      </trkpt>
      <trkpt lat="43.15314" lon="2.17614">
        <ele>361</ele>
        <time>2022-09-02T11:12:59Z</time>
      </trkpt>
      <trkpt lat="43.15305" lon="2.17596">
        <ele>360.2</ele>
        <time>2022-09-02T11:13:01Z</time>
      </trkpt>
      <trkpt lat="43.15293" lon="2.17581">
        <ele>359.8</ele>
        <time>2022-09-02T11:13:03Z</time>
      </trkpt>
      <trkpt lat="43.15278" lon="2.17571">
        <ele>359.2</ele>
        <time>2022-09-02T11:13:05Z</time>
      </trkpt>
      <trkpt lat="43.15271" lon="2.17566">
        <ele>359.2</ele>
        <time>2022-09-02T11:13:06Z</time>
      </trkpt>
      <trkpt lat="43.15256" lon="2.17554">
        <ele>358.6</ele>
        <time>2022-09-02T11:13:08Z</time>
      </trkpt>
      <trkpt lat="43.15251" lon="2.17546">
        <ele>358</ele>
        <time>2022-09-02T11:13:09Z</time>
      </trkpt>
      <trkpt lat="43.15243" lon="2.17513">
        <ele>357.6</ele>
        <time>2022-09-02T11:13:12Z</time>
      </trkpt>
      <trkpt lat="43.1524" lon="2.17503">
        <ele>357.2</ele>
        <time>2022-09-02T11:13:13Z</time>
      </trkpt>
      <trkpt lat="43.15231" lon="2.17483">
        <ele>356</ele>
        <time>2022-09-02T11:13:15Z</time>
      </trkpt>
      <trkpt lat="43.15227" lon="2.17472">
        <ele>355.4</ele>
        <time>2022-09-02T11:13:16Z</time>
      </trkpt>
      <trkpt lat="43.15224" lon="2.1746">
        <ele>354.8</ele>
        <time>2022-09-02T11:13:17Z</time>
      </trkpt>
      <trkpt lat="43.15223" lon="2.17435">
        <ele>353.8</ele>
        <time>2022-09-02T11:13:19Z</time>
      </trkpt>
      <trkpt lat="43.15236" lon="2.17403">
        <ele>352.8</ele>
        <time>2022-09-02T11:13:22Z</time>
      </trkpt>
      <trkpt lat="43.15242" lon="2.17393">
        <ele>352.2</ele>
        <time>2022-09-02T11:13:23Z</time>
      </trkpt>
      <trkpt lat="43.15258" lon="2.17361">
        <ele>350.8</ele>
        <time>2022-09-02T11:13:26Z</time>
      </trkpt>
      <trkpt lat="43.15268" lon="2.17339">
        <ele>350.2</ele>
        <time>2022-09-02T11:13:28Z</time>
      </trkpt>
      <trkpt lat="43.15277" lon="2.17317">
        <ele>349.8</ele>
        <time>2022-09-02T11:13:30Z</time>
      </trkpt>
      <trkpt lat="43.15286" lon="2.17282">
        <ele>349.2</ele>
        <time>2022-09-02T11:13:33Z</time>
      </trkpt>
      <trkpt lat="43.15288" lon="2.1727">
        <ele>348.6</ele>
        <time>2022-09-02T11:13:34Z</time>
      </trkpt>
      <trkpt lat="43.15286" lon="2.17247">
        <ele>347.6</ele>
        <time>2022-09-02T11:13:36Z</time>
      </trkpt>
      <trkpt lat="43.15279" lon="2.17214">
        <ele>346.4</ele>
        <time>2022-09-02T11:13:39Z</time>
      </trkpt>
      <trkpt lat="43.15275" lon="2.17204">
        <ele>346.6</ele>
        <time>2022-09-02T11:13:40Z</time>
      </trkpt>
      <trkpt lat="43.15257" lon="2.17153">
        <ele>345.4</ele>
        <time>2022-09-02T11:13:45Z</time>
      </trkpt>
      <trkpt lat="43.15254" lon="2.17142">
        <ele>345</ele>
        <time>2022-09-02T11:13:46Z</time>
      </trkpt>
      <trkpt lat="43.15252" lon="2.17099">
        <ele>344</ele>
        <time>2022-09-02T11:13:50Z</time>
      </trkpt>
      <trkpt lat="43.15256" lon="2.1707">
        <ele>343</ele>
        <time>2022-09-02T11:13:53Z</time>
      </trkpt>
      <trkpt lat="43.15259" lon="2.17052">
        <ele>343.2</ele>
        <time>2022-09-02T11:13:55Z</time>
      </trkpt>
      <trkpt lat="43.15261" lon="2.17035">
        <ele>342.8</ele>
        <time>2022-09-02T11:13:57Z</time>
      </trkpt>
      <trkpt lat="43.1527" lon="2.16976">
        <ele>342</ele>
        <time>2022-09-02T11:14:05Z</time>
      </trkpt>
      <trkpt lat="43.15275" lon="2.16943">
        <ele>341.4</ele>
        <time>2022-09-02T11:14:09Z</time>
      </trkpt>
      <trkpt lat="43.15282" lon="2.16895">
        <ele>340.8</ele>
        <time>2022-09-02T11:14:15Z</time>
      </trkpt>
      <trkpt lat="43.15287" lon="2.16862">
        <ele>340.2</ele>
        <time>2022-09-02T11:14:19Z</time>
      </trkpt>
      <trkpt lat="43.15296" lon="2.16806">
        <ele>339.4</ele>
        <time>2022-09-02T11:14:26Z</time>
      </trkpt>
      <trkpt lat="43.15297" lon="2.16798">
        <ele>339.2</ele>
        <time>2022-09-02T11:14:27Z</time>
      </trkpt>
      <trkpt lat="43.15308" lon="2.1675">
        <ele>338.4</ele>
        <time>2022-09-02T11:14:33Z</time>
      </trkpt>
      <trkpt lat="43.15311" lon="2.16742">
        <ele>338</ele>
        <time>2022-09-02T11:14:34Z</time>
      </trkpt>
      <trkpt lat="43.15316" lon="2.16728">
        <ele>337.6</ele>
        <time>2022-09-02T11:14:36Z</time>
      </trkpt>
      <trkpt lat="43.15329" lon="2.1671">
        <ele>337.6</ele>
        <time>2022-09-02T11:14:39Z</time>
      </trkpt>
      <trkpt lat="43.15349" lon="2.16696">
        <ele>337.4</ele>
        <time>2022-09-02T11:14:43Z</time>
      </trkpt>
      <trkpt lat="43.15355" lon="2.16694">
        <ele>337.4</ele>
        <time>2022-09-02T11:14:44Z</time>
      </trkpt>
      <trkpt lat="43.15375" lon="2.16683">
        <ele>337</ele>
        <time>2022-09-02T11:14:48Z</time>
      </trkpt>
      <trkpt lat="43.15383" lon="2.16675">
        <ele>337</ele>
        <time>2022-09-02T11:14:50Z</time>
      </trkpt>
      <trkpt lat="43.15396" lon="2.1665">
        <ele>336.8</ele>
        <time>2022-09-02T11:14:54Z</time>
      </trkpt>
      <trkpt lat="43.154" lon="2.16616">
        <ele>336.2</ele>
        <time>2022-09-02T11:14:58Z</time>
      </trkpt>
      <trkpt lat="43.15397" lon="2.16599">
        <ele>336</ele>
        <time>2022-09-02T11:15:00Z</time>
      </trkpt>
      <trkpt lat="43.15395" lon="2.16591">
        <ele>336</ele>
        <time>2022-09-02T11:15:01Z</time>
      </trkpt>
      <trkpt lat="43.15391" lon="2.16574">
        <ele>336</ele>
        <time>2022-09-02T11:15:03Z</time>
      </trkpt>
      <trkpt lat="43.15375" lon="2.16525">
        <ele>335</ele>
        <time>2022-09-02T11:15:09Z</time>
      </trkpt>
      <trkpt lat="43.15372" lon="2.16518">
        <ele>335</ele>
        <time>2022-09-02T11:15:10Z</time>
      </trkpt>
      <trkpt lat="43.15365" lon="2.16503">
        <ele>334.6</ele>
        <time>2022-09-02T11:15:12Z</time>
      </trkpt>
      <trkpt lat="43.1535" lon="2.16477">
        <ele>334</ele>
        <time>2022-09-02T11:15:16Z</time>
      </trkpt>
      <trkpt lat="43.15343" lon="2.16464">
        <ele>333.8</ele>
        <time>2022-09-02T11:15:18Z</time>
      </trkpt>
      <trkpt lat="43.15334" lon="2.16443">
        <ele>333.6</ele>
        <time>2022-09-02T11:15:21Z</time>
      </trkpt>
      <trkpt lat="43.15333" lon="2.16436">
        <ele>333.6</ele>
        <time>2022-09-02T11:15:22Z</time>
      </trkpt>
      <trkpt lat="43.15334" lon="2.16406">
        <ele>332.8</ele>
        <time>2022-09-02T11:15:26Z</time>
      </trkpt>
      <trkpt lat="43.15338" lon="2.16392">
        <ele>332.6</ele>
        <time>2022-09-02T11:15:28Z</time>
      </trkpt>
      <trkpt lat="43.15341" lon="2.1637">
        <ele>332.8</ele>
        <time>2022-09-02T11:15:31Z</time>
      </trkpt>
      <trkpt lat="43.15342" lon="2.16362">
        <ele>332.8</ele>
        <time>2022-09-02T11:15:32Z</time>
      </trkpt>
      <trkpt lat="43.15341" lon="2.16347">
        <ele>332.2</ele>
        <time>2022-09-02T11:15:34Z</time>
      </trkpt>
      <trkpt lat="43.15335" lon="2.16323">
        <ele>332.2</ele>
        <time>2022-09-02T11:15:37Z</time>
      </trkpt>
      <trkpt lat="43.15322" lon="2.16305">
        <ele>331.8</ele>
        <time>2022-09-02T11:15:40Z</time>
      </trkpt>
      <trkpt lat="43.15317" lon="2.163">
        <ele>331.6</ele>
        <time>2022-09-02T11:15:41Z</time>
      </trkpt>
      <trkpt lat="43.15293" lon="2.16292">
        <ele>331.2</ele>
        <time>2022-09-02T11:15:45Z</time>
      </trkpt>
      <trkpt lat="43.15286" lon="2.16293">
        <ele>330.8</ele>
        <time>2022-09-02T11:15:46Z</time>
      </trkpt>
      <trkpt lat="43.15268" lon="2.163">
        <ele>330.6</ele>
        <time>2022-09-02T11:15:49Z</time>
      </trkpt>
      <trkpt lat="43.15239" lon="2.16312">
        <ele>330.4</ele>
        <time>2022-09-02T11:15:54Z</time>
      </trkpt>
      <trkpt lat="43.15233" lon="2.16313">
        <ele>330.6</ele>
        <time>2022-09-02T11:15:55Z</time>
      </trkpt>
      <trkpt lat="43.15204" lon="2.16307">
        <ele>329.6</ele>
        <time>2022-09-02T11:16:00Z</time>
      </trkpt>
      <trkpt lat="43.15194" lon="2.16299">
        <ele>330</ele>
        <time>2022-09-02T11:16:02Z</time>
      </trkpt>
      <trkpt lat="43.15182" lon="2.16288">
        <ele>329.6</ele>
        <time>2022-09-02T11:16:05Z</time>
      </trkpt>
      <trkpt lat="43.15174" lon="2.1628">
        <ele>329</ele>
        <time>2022-09-02T11:16:07Z</time>
      </trkpt>
      <trkpt lat="43.15166" lon="2.16272">
        <ele>328.6</ele>
        <time>2022-09-02T11:16:09Z</time>
      </trkpt>
      <trkpt lat="43.15158" lon="2.16264">
        <ele>328.2</ele>
        <time>2022-09-02T11:16:11Z</time>
      </trkpt>
      <trkpt lat="43.15135" lon="2.16232">
        <ele>327.4</ele>
        <time>2022-09-02T11:16:18Z</time>
      </trkpt>
      <trkpt lat="43.15115" lon="2.16192">
        <ele>327.6</ele>
        <time>2022-09-02T11:16:25Z</time>
      </trkpt>
      <trkpt lat="43.15102" lon="2.16146">
        <ele>326.8</ele>
        <time>2022-09-02T11:16:32Z</time>
      </trkpt>
      <trkpt lat="43.151" lon="2.16133">
        <ele>326.4</ele>
        <time>2022-09-02T11:16:34Z</time>
      </trkpt>
      <trkpt lat="43.15095" lon="2.16098">
        <ele>325.4</ele>
        <time>2022-09-02T11:16:39Z</time>
      </trkpt>
      <trkpt lat="43.15093" lon="2.16084">
        <ele>325.4</ele>
        <time>2022-09-02T11:16:41Z</time>
      </trkpt>
      <trkpt lat="43.15089" lon="2.16047">
        <ele>325</ele>
        <time>2022-09-02T11:16:47Z</time>
      </trkpt>
      <trkpt lat="43.15088" lon="2.16001">
        <ele>324.6</ele>
        <time>2022-09-02T11:16:54Z</time>
      </trkpt>
      <trkpt lat="43.15091" lon="2.15974">
        <ele>324.2</ele>
        <time>2022-09-02T11:16:58Z</time>
      </trkpt>
      <trkpt lat="43.15097" lon="2.15947">
        <ele>323.8</ele>
        <time>2022-09-02T11:17:02Z</time>
      </trkpt>
      <trkpt lat="43.15103" lon="2.15922">
        <ele>324.2</ele>
        <time>2022-09-02T11:17:06Z</time>
      </trkpt>
      <trkpt lat="43.15109" lon="2.15904">
        <ele>323.6</ele>
        <time>2022-09-02T11:17:09Z</time>
      </trkpt>
      <trkpt lat="43.15114" lon="2.15887">
        <ele>323.2</ele>
        <time>2022-09-02T11:17:12Z</time>
      </trkpt>
      <trkpt lat="43.15122" lon="2.15856">
        <ele>322.4</ele>
        <time>2022-09-02T11:17:17Z</time>
      </trkpt>
      <trkpt lat="43.15125" lon="2.15837">
        <ele>322.4</ele>
        <time>2022-09-02T11:17:20Z</time>
      </trkpt>
      <trkpt lat="43.15126" lon="2.15816">
        <ele>322.2</ele>
        <time>2022-09-02T11:17:23Z</time>
      </trkpt>
      <trkpt lat="43.15126" lon="2.15809">
        <ele>322</ele>
        <time>2022-09-02T11:17:24Z</time>
      </trkpt>
      <trkpt lat="43.15125" lon="2.15802">
        <ele>322</ele>
        <time>2022-09-02T11:17:25Z</time>
      </trkpt>
      <trkpt lat="43.15122" lon="2.15782">
        <ele>321.8</ele>
        <time>2022-09-02T11:17:28Z</time>
      </trkpt>
      <trkpt lat="43.15116" lon="2.15733">
        <ele>321.2</ele>
        <time>2022-09-02T11:17:35Z</time>
      </trkpt>
      <trkpt lat="43.15116" lon="2.15726">
        <ele>321</ele>
        <time>2022-09-02T11:17:36Z</time>
      </trkpt>
      <trkpt lat="43.15118" lon="2.15706">
        <ele>320.6</ele>
        <time>2022-09-02T11:17:39Z</time>
      </trkpt>
      <trkpt lat="43.15122" lon="2.15693">
        <ele>320.4</ele>
        <time>2022-09-02T11:17:41Z</time>
      </trkpt>
      <trkpt lat="43.15136" lon="2.15656">
        <ele>320</ele>
        <time>2022-09-02T11:17:47Z</time>
      </trkpt>
      <trkpt lat="43.15161" lon="2.15623">
        <ele>319.2</ele>
        <time>2022-09-02T11:17:54Z</time>
      </trkpt>
      <trkpt lat="43.1518" lon="2.15599">
        <ele>319</ele>
        <time>2022-09-02T11:17:59Z</time>
      </trkpt>
      <trkpt lat="43.15191" lon="2.15584">
        <ele>318.6</ele>
        <time>2022-09-02T11:18:02Z</time>
      </trkpt>
      <trkpt lat="43.15194" lon="2.15579">
        <ele>318.4</ele>
        <time>2022-09-02T11:18:03Z</time>
      </trkpt>
      <trkpt lat="43.15211" lon="2.15554">
        <ele>317.8</ele>
        <time>2022-09-02T11:18:08Z</time>
      </trkpt>
      <trkpt lat="43.15215" lon="2.1555">
        <ele>317.8</ele>
        <time>2022-09-02T11:18:09Z</time>
      </trkpt>
      <trkpt lat="43.15219" lon="2.15546">
        <ele>317.6</ele>
        <time>2022-09-02T11:18:10Z</time>
      </trkpt>
      <trkpt lat="43.15233" lon="2.15538">
        <ele>317.4</ele>
        <time>2022-09-02T11:18:13Z</time>
      </trkpt>
      <trkpt lat="43.15238" lon="2.15537">
        <ele>317.4</ele>
        <time>2022-09-02T11:18:14Z</time>
      </trkpt>
      <trkpt lat="43.15243" lon="2.15536">
        <ele>317.4</ele>
        <time>2022-09-02T11:18:15Z</time>
      </trkpt>
      <trkpt lat="43.15258" lon="2.15533">
        <ele>317.2</ele>
        <time>2022-09-02T11:18:18Z</time>
      </trkpt>
      <trkpt lat="43.15269" lon="2.15523">
        <ele>317.6</ele>
        <time>2022-09-02T11:18:21Z</time>
      </trkpt>
      <trkpt lat="43.15276" lon="2.155">
        <ele>317</ele>
        <time>2022-09-02T11:18:25Z</time>
      </trkpt>
      <trkpt lat="43.15276" lon="2.15493">
        <ele>317</ele>
        <time>2022-09-02T11:18:26Z</time>
      </trkpt>
      <trkpt lat="43.15277" lon="2.15486">
        <ele>316.8</ele>
        <time>2022-09-02T11:18:27Z</time>
      </trkpt>
      <trkpt lat="43.15276" lon="2.15467">
        <ele>316.8</ele>
        <time>2022-09-02T11:18:30Z</time>
      </trkpt>
      <trkpt lat="43.15275" lon="2.15454">
        <ele>316.4</ele>
        <time>2022-09-02T11:18:32Z</time>
      </trkpt>
      <trkpt lat="43.15268" lon="2.15427">
        <ele>316.2</ele>
        <time>2022-09-02T11:18:36Z</time>
      </trkpt>
      <trkpt lat="43.15266" lon="2.15421">
        <ele>316.2</ele>
        <time>2022-09-02T11:18:37Z</time>
      </trkpt>
      <trkpt lat="43.1526" lon="2.1541">
        <ele>315.8</ele>
        <time>2022-09-02T11:18:39Z</time>
      </trkpt>
      <trkpt lat="43.15256" lon="2.15405">
        <ele>315.4</ele>
        <time>2022-09-02T11:18:40Z</time>
      </trkpt>
      <trkpt lat="43.1523" lon="2.15392">
        <ele>314.6</ele>
        <time>2022-09-02T11:18:45Z</time>
      </trkpt>
      <trkpt lat="43.15219" lon="2.15392">
        <ele>314.4</ele>
        <time>2022-09-02T11:18:47Z</time>
      </trkpt>
      <trkpt lat="43.15201" lon="2.15386">
        <ele>314.2</ele>
        <time>2022-09-02T11:18:50Z</time>
      </trkpt>
      <trkpt lat="43.15181" lon="2.15368">
        <ele>314</ele>
        <time>2022-09-02T11:18:54Z</time>
      </trkpt>
      <trkpt lat="43.1517" lon="2.1535">
        <ele>313.8</ele>
        <time>2022-09-02T11:18:57Z</time>
      </trkpt>
      <trkpt lat="43.15166" lon="2.15344">
        <ele>313.6</ele>
        <time>2022-09-02T11:18:58Z</time>
      </trkpt>
      <trkpt lat="43.15163" lon="2.15338">
        <ele>313.6</ele>
        <time>2022-09-02T11:18:59Z</time>
      </trkpt>
      <trkpt lat="43.15142" lon="2.15299">
        <ele>312.6</ele>
        <time>2022-09-02T11:19:06Z</time>
      </trkpt>
      <trkpt lat="43.15138" lon="2.15286">
        <ele>312.8</ele>
        <time>2022-09-02T11:19:08Z</time>
      </trkpt>
      <trkpt lat="43.15135" lon="2.15272">
        <ele>313</ele>
        <time>2022-09-02T11:19:10Z</time>
      </trkpt>
      <trkpt lat="43.15135" lon="2.15257">
        <ele>312.8</ele>
        <time>2022-09-02T11:19:12Z</time>
      </trkpt>
      <trkpt lat="43.15137" lon="2.15242">
        <ele>312.4</ele>
        <time>2022-09-02T11:19:14Z</time>
      </trkpt>
      <trkpt lat="43.15138" lon="2.15234">
        <ele>312.2</ele>
        <time>2022-09-02T11:19:15Z</time>
      </trkpt>
      <trkpt lat="43.15142" lon="2.15219">
        <ele>311.8</ele>
        <time>2022-09-02T11:19:17Z</time>
      </trkpt>
      <trkpt lat="43.15152" lon="2.1518">
        <ele>311.8</ele>
        <time>2022-09-02T11:19:23Z</time>
      </trkpt>
      <trkpt lat="43.15156" lon="2.15151">
        <ele>311.4</ele>
        <time>2022-09-02T11:19:27Z</time>
      </trkpt>
      <trkpt lat="43.15156" lon="2.15144">
        <ele>311.2</ele>
        <time>2022-09-02T11:19:28Z</time>
      </trkpt>
      <trkpt lat="43.15156" lon="2.15136">
        <ele>311.2</ele>
        <time>2022-09-02T11:19:29Z</time>
      </trkpt>
      <trkpt lat="43.15155" lon="2.15122">
        <ele>311</ele>
        <time>2022-09-02T11:19:31Z</time>
      </trkpt>
      <trkpt lat="43.15148" lon="2.15099">
        <ele>310.8</ele>
        <time>2022-09-02T11:19:34Z</time>
      </trkpt>
      <trkpt lat="43.15138" lon="2.1508">
        <ele>310.4</ele>
        <time>2022-09-02T11:19:37Z</time>
      </trkpt>
      <trkpt lat="43.15134" lon="2.15074">
        <ele>310.2</ele>
        <time>2022-09-02T11:19:38Z</time>
      </trkpt>
      <trkpt lat="43.1513" lon="2.15068">
        <ele>310</ele>
        <time>2022-09-02T11:19:39Z</time>
      </trkpt>
      <trkpt lat="43.15102" lon="2.15036">
        <ele>310.2</ele>
        <time>2022-09-02T11:19:46Z</time>
      </trkpt>
      <trkpt lat="43.15077" lon="2.15009">
        <ele>309.4</ele>
        <time>2022-09-02T11:19:52Z</time>
      </trkpt>
      <trkpt lat="43.15061" lon="2.14991">
        <ele>309.2</ele>
        <time>2022-09-02T11:19:56Z</time>
      </trkpt>
      <trkpt lat="43.15046" lon="2.14975">
        <ele>308.6</ele>
        <time>2022-09-02T11:20:00Z</time>
      </trkpt>
      <trkpt lat="43.15021" lon="2.14948">
        <ele>308.6</ele>
        <time>2022-09-02T11:20:07Z</time>
      </trkpt>
      <trkpt lat="43.15014" lon="2.14941">
        <ele>308.4</ele>
        <time>2022-09-02T11:20:09Z</time>
      </trkpt>
      <trkpt lat="43.15004" lon="2.14929">
        <ele>308.4</ele>
        <time>2022-09-02T11:20:12Z</time>
      </trkpt>
      <trkpt lat="43.15" lon="2.14925">
        <ele>308</ele>
        <time>2022-09-02T11:20:13Z</time>
      </trkpt>
      <trkpt lat="43.14987" lon="2.14907">
        <ele>308.2</ele>
        <time>2022-09-02T11:20:17Z</time>
      </trkpt>
      <trkpt lat="43.14981" lon="2.14897">
        <ele>308.2</ele>
        <time>2022-09-02T11:20:19Z</time>
      </trkpt>
      <trkpt lat="43.14964" lon="2.14856">
        <ele>307.6</ele>
        <time>2022-09-02T11:20:26Z</time>
      </trkpt>
      <trkpt lat="43.1496" lon="2.14842">
        <ele>307</ele>
        <time>2022-09-02T11:20:28Z</time>
      </trkpt>
      <trkpt lat="43.14955" lon="2.14829">
        <ele>307</ele>
        <time>2022-09-02T11:20:30Z</time>
      </trkpt>
      <trkpt lat="43.1495" lon="2.14816">
        <ele>307</ele>
        <time>2022-09-02T11:20:32Z</time>
      </trkpt>
      <trkpt lat="43.14947" lon="2.14809">
        <ele>306.8</ele>
        <time>2022-09-02T11:20:33Z</time>
      </trkpt>
      <trkpt lat="43.14935" lon="2.14794">
        <ele>305.8</ele>
        <time>2022-09-02T11:20:36Z</time>
      </trkpt>
      <trkpt lat="43.14931" lon="2.14789">
        <ele>305.6</ele>
        <time>2022-09-02T11:20:37Z</time>
      </trkpt>
      <trkpt lat="43.14911" lon="2.14765">
        <ele>305.4</ele>
        <time>2022-09-02T11:20:41Z</time>
      </trkpt>
      <trkpt lat="43.14907" lon="2.14757">
        <ele>305.2</ele>
        <time>2022-09-02T11:20:42Z</time>
      </trkpt>
      <trkpt lat="43.14902" lon="2.14739">
        <ele>304.8</ele>
        <time>2022-09-02T11:20:44Z</time>
      </trkpt>
      <trkpt lat="43.149" lon="2.1473">
        <ele>304.6</ele>
        <time>2022-09-02T11:20:45Z</time>
      </trkpt>
      <trkpt lat="43.14899" lon="2.1472">
        <ele>304.2</ele>
        <time>2022-09-02T11:20:46Z</time>
      </trkpt>
      <trkpt lat="43.14895" lon="2.147">
        <ele>303.2</ele>
        <time>2022-09-02T11:20:48Z</time>
      </trkpt>
      <trkpt lat="43.14889" lon="2.14659">
        <ele>302</ele>
        <time>2022-09-02T11:20:52Z</time>
      </trkpt>
      <trkpt lat="43.14886" lon="2.14649">
        <ele>301.6</ele>
        <time>2022-09-02T11:20:53Z</time>
      </trkpt>
      <trkpt lat="43.14882" lon="2.1464">
        <ele>301</ele>
        <time>2022-09-02T11:20:54Z</time>
      </trkpt>
      <trkpt lat="43.14871" lon="2.14628">
        <ele>300</ele>
        <time>2022-09-02T11:20:56Z</time>
      </trkpt>
      <trkpt lat="43.14865" lon="2.14625">
        <ele>299.8</ele>
        <time>2022-09-02T11:20:57Z</time>
      </trkpt>
      <trkpt lat="43.14852" lon="2.14624">
        <ele>299.4</ele>
        <time>2022-09-02T11:20:59Z</time>
      </trkpt>
      <trkpt lat="43.14834" lon="2.14628">
        <ele>298.8</ele>
        <time>2022-09-02T11:21:02Z</time>
      </trkpt>
      <trkpt lat="43.1482" lon="2.14631">
        <ele>298.2</ele>
        <time>2022-09-02T11:21:04Z</time>
      </trkpt>
      <trkpt lat="43.14813" lon="2.14631">
        <ele>298.2</ele>
        <time>2022-09-02T11:21:05Z</time>
      </trkpt>
      <trkpt lat="43.14793" lon="2.14628">
        <ele>297.6</ele>
        <time>2022-09-02T11:21:08Z</time>
      </trkpt>
      <trkpt lat="43.14764" lon="2.14613">
        <ele>296.4</ele>
        <time>2022-09-02T11:21:12Z</time>
      </trkpt>
      <trkpt lat="43.14756" lon="2.14611">
        <ele>296.2</ele>
        <time>2022-09-02T11:21:13Z</time>
      </trkpt>
      <trkpt lat="43.1474" lon="2.14613">
        <ele>295.8</ele>
        <time>2022-09-02T11:21:15Z</time>
      </trkpt>
      <trkpt lat="43.14734" lon="2.14614">
        <ele>295.4</ele>
        <time>2022-09-02T11:21:16Z</time>
      </trkpt>
      <trkpt lat="43.14727" lon="2.14616">
        <ele>294.8</ele>
        <time>2022-09-02T11:21:17Z</time>
      </trkpt>
      <trkpt lat="43.14722" lon="2.14616">
        <ele>294</ele>
        <time>2022-09-02T11:21:18Z</time>
      </trkpt>
      <trkpt lat="43.14717" lon="2.14616">
        <ele>293.6</ele>
        <time>2022-09-02T11:21:19Z</time>
      </trkpt>
      <trkpt lat="43.14706" lon="2.1461">
        <ele>292.8</ele>
        <time>2022-09-02T11:21:22Z</time>
      </trkpt>
      <trkpt lat="43.14703" lon="2.14608">
        <ele>292.6</ele>
        <time>2022-09-02T11:21:23Z</time>
      </trkpt>
      <trkpt lat="43.14696" lon="2.14588">
        <ele>292.2</ele>
        <time>2022-09-02T11:21:27Z</time>
      </trkpt>
      <trkpt lat="43.14695" lon="2.14582">
        <ele>292.2</ele>
        <time>2022-09-02T11:21:28Z</time>
      </trkpt>
      <trkpt lat="43.14693" lon="2.14561">
        <ele>291.6</ele>
        <time>2022-09-02T11:21:31Z</time>
      </trkpt>
      <trkpt lat="43.14691" lon="2.14545">
        <ele>291</ele>
        <time>2022-09-02T11:21:33Z</time>
      </trkpt>
      <trkpt lat="43.14688" lon="2.14504">
        <ele>290.4</ele>
        <time>2022-09-02T11:21:38Z</time>
      </trkpt>
      <trkpt lat="43.14687" lon="2.14478">
        <ele>289.8</ele>
        <time>2022-09-02T11:21:41Z</time>
      </trkpt>
      <trkpt lat="43.14687" lon="2.14451">
        <ele>289.2</ele>
        <time>2022-09-02T11:21:44Z</time>
      </trkpt>
      <trkpt lat="43.14687" lon="2.14424">
        <ele>288</ele>
        <time>2022-09-02T11:21:47Z</time>
      </trkpt>
      <trkpt lat="43.14687" lon="2.14397">
        <ele>287</ele>
        <time>2022-09-02T11:21:50Z</time>
      </trkpt>
      <trkpt lat="43.14687" lon="2.14388">
        <ele>286.8</ele>
        <time>2022-09-02T11:21:51Z</time>
      </trkpt>
      <trkpt lat="43.14688" lon="2.14336">
        <ele>285.8</ele>
        <time>2022-09-02T11:21:57Z</time>
      </trkpt>
      <trkpt lat="43.14686" lon="2.14276">
        <ele>284.8</ele>
        <time>2022-09-02T11:22:04Z</time>
      </trkpt>
      <trkpt lat="43.14682" lon="2.14205">
        <ele>283.8</ele>
        <time>2022-09-02T11:22:12Z</time>
      </trkpt>
      <trkpt lat="43.14679" lon="2.14178">
        <ele>283.6</ele>
        <time>2022-09-02T11:22:15Z</time>
      </trkpt>
      <trkpt lat="43.14674" lon="2.14145">
        <ele>283.2</ele>
        <time>2022-09-02T11:22:19Z</time>
      </trkpt>
      <trkpt lat="43.1467" lon="2.14128">
        <ele>282.4</ele>
        <time>2022-09-02T11:22:21Z</time>
      </trkpt>
      <trkpt lat="43.14656" lon="2.14082">
        <ele>281.6</ele>
        <time>2022-09-02T11:22:27Z</time>
      </trkpt>
      <trkpt lat="43.14648" lon="2.14059">
        <ele>281.4</ele>
        <time>2022-09-02T11:22:30Z</time>
      </trkpt>
      <trkpt lat="43.14642" lon="2.14034">
        <ele>281.2</ele>
        <time>2022-09-02T11:22:33Z</time>
      </trkpt>
      <trkpt lat="43.14641" lon="2.14017">
        <ele>280.8</ele>
        <time>2022-09-02T11:22:35Z</time>
      </trkpt>
      <trkpt lat="43.14641" lon="2.14008">
        <ele>280.8</ele>
        <time>2022-09-02T11:22:36Z</time>
      </trkpt>
      <trkpt lat="43.14642" lon="2.14">
        <ele>280.8</ele>
        <time>2022-09-02T11:22:37Z</time>
      </trkpt>
      <trkpt lat="43.14646" lon="2.13979">
        <ele>280.4</ele>
        <time>2022-09-02T11:22:40Z</time>
      </trkpt>
      <trkpt lat="43.14651" lon="2.13966">
        <ele>280.4</ele>
        <time>2022-09-02T11:22:42Z</time>
      </trkpt>
      <trkpt lat="43.14656" lon="2.13953">
        <ele>280.2</ele>
        <time>2022-09-02T11:22:44Z</time>
      </trkpt>
      <trkpt lat="43.14669" lon="2.13922">
        <ele>279.4</ele>
        <time>2022-09-02T11:22:49Z</time>
      </trkpt>
      <trkpt lat="43.14672" lon="2.13916">
        <ele>279.4</ele>
        <time>2022-09-02T11:22:50Z</time>
      </trkpt>
      <trkpt lat="43.14678" lon="2.13903">
        <ele>279</ele>
        <time>2022-09-02T11:22:52Z</time>
      </trkpt>
      <trkpt lat="43.14689" lon="2.13871">
        <ele>278.8</ele>
        <time>2022-09-02T11:22:57Z</time>
      </trkpt>
      <trkpt lat="43.14697" lon="2.1383">
        <ele>277.8</ele>
        <time>2022-09-02T11:23:03Z</time>
      </trkpt>
      <trkpt lat="43.14697" lon="2.13823">
        <ele>277.6</ele>
        <time>2022-09-02T11:23:04Z</time>
      </trkpt>
      <trkpt lat="43.14695" lon="2.13806">
        <ele>277.4</ele>
        <time>2022-09-02T11:23:07Z</time>
      </trkpt>
      <trkpt lat="43.14699" lon="2.13791">
        <ele>277.4</ele>
        <time>2022-09-02T11:23:11Z</time>
      </trkpt>
      <trkpt lat="43.14707" lon="2.13785">
        <ele>278.6</ele>
        <time>2022-09-02T11:23:15Z</time>
      </trkpt>
      <trkpt lat="43.14709" lon="2.13785">
        <ele>278.8</ele>
        <time>2022-09-02T11:23:16Z</time>
      </trkpt>
      <trkpt lat="43.14719" lon="2.13779">
        <ele>280</ele>
        <time>2022-09-02T11:23:21Z</time>
      </trkpt>
      <trkpt lat="43.14721" lon="2.13779">
        <ele>280.4</ele>
        <time>2022-09-02T11:23:22Z</time>
      </trkpt>
      <trkpt lat="43.14726" lon="2.13777">
        <ele>281</ele>
        <time>2022-09-02T11:23:26Z</time>
      </trkpt>
      <trkpt lat="43.14727" lon="2.13776">
        <ele>281</ele>
        <time>2022-09-02T11:23:27Z</time>
      </trkpt>
      <trkpt lat="43.14732" lon="2.13772">
        <ele>281.8</ele>
        <time>2022-09-02T11:23:31Z</time>
      </trkpt>
      <trkpt lat="43.14734" lon="2.13771">
        <ele>282</ele>
        <time>2022-09-02T11:23:33Z</time>
      </trkpt>
      <trkpt lat="43.14733" lon="2.13762">
        <ele>282.4</ele>
        <time>2022-09-02T11:23:38Z</time>
      </trkpt>
      <trkpt lat="43.14731" lon="2.13752">
        <ele>283</ele>
        <time>2022-09-02T11:23:43Z</time>
      </trkpt>
      <trkpt lat="43.1473" lon="2.1375">
        <ele>283.2</ele>
        <time>2022-09-02T11:23:44Z</time>
      </trkpt>
      <trkpt lat="43.14728" lon="2.13746">
        <ele>284</ele>
        <time>2022-09-02T11:23:46Z</time>
      </trkpt>
      <trkpt lat="43.14726" lon="2.13735">
        <ele>284.6</ele>
        <time>2022-09-02T11:23:51Z</time>
      </trkpt>
      <trkpt lat="43.14724" lon="2.13724">
        <ele>285</ele>
        <time>2022-09-02T11:23:56Z</time>
      </trkpt>
      <trkpt lat="43.14724" lon="2.1372">
        <ele>285.2</ele>
        <time>2022-09-02T11:23:58Z</time>
      </trkpt>
      <trkpt lat="43.14725" lon="2.13704">
        <ele>285</ele>
        <time>2022-09-02T11:24:03Z</time>
      </trkpt>
      <trkpt lat="43.1473" lon="2.13692">
        <ele>285</ele>
        <time>2022-09-02T11:24:07Z</time>
      </trkpt>
      <trkpt lat="43.14734" lon="2.13685">
        <ele>286.2</ele>
        <time>2022-09-02T11:24:10Z</time>
      </trkpt>
      <trkpt lat="43.1474" lon="2.13678">
        <ele>286.4</ele>
        <time>2022-09-02T11:24:14Z</time>
      </trkpt>
      <trkpt lat="43.14752" lon="2.13662">
        <ele>286.8</ele>
        <time>2022-09-02T11:24:22Z</time>
      </trkpt>
      <trkpt lat="43.14755" lon="2.13653">
        <ele>286.2</ele>
        <time>2022-09-02T11:24:26Z</time>
      </trkpt>
      <trkpt lat="43.14755" lon="2.13651">
        <ele>286</ele>
        <time>2022-09-02T11:24:27Z</time>
      </trkpt>
      <trkpt lat="43.14756" lon="2.13645">
        <ele>286.2</ele>
        <time>2022-09-02T11:24:30Z</time>
      </trkpt>
      <trkpt lat="43.14759" lon="2.1364">
        <ele>286</ele>
        <time>2022-09-02T11:24:33Z</time>
      </trkpt>
      <trkpt lat="43.14759" lon="2.13646">
        <ele>287.6</ele>
        <time>2022-09-02T12:00:57Z</time>
      </trkpt>
      <trkpt lat="43.14756" lon="2.13653">
        <ele>287.6</ele>
        <time>2022-09-02T12:01:01Z</time>
      </trkpt>
      <trkpt lat="43.14753" lon="2.13656">
        <ele>288</ele>
        <time>2022-09-02T12:01:04Z</time>
      </trkpt>
      <trkpt lat="43.14746" lon="2.13667">
        <ele>288</ele>
        <time>2022-09-02T12:01:19Z</time>
      </trkpt>
      <trkpt lat="43.14742" lon="2.13671">
        <ele>288</ele>
        <time>2022-09-02T12:01:22Z</time>
      </trkpt>
      <trkpt lat="43.14739" lon="2.13674">
        <ele>288</ele>
        <time>2022-09-02T12:01:24Z</time>
      </trkpt>
      <trkpt lat="43.14731" lon="2.13686">
        <ele>287.8</ele>
        <time>2022-09-02T12:01:29Z</time>
      </trkpt>
      <trkpt lat="43.14725" lon="2.13703">
        <ele>286.6</ele>
        <time>2022-09-02T12:01:35Z</time>
      </trkpt>
      <trkpt lat="43.14726" lon="2.1372">
        <ele>287.2</ele>
        <time>2022-09-02T12:01:42Z</time>
      </trkpt>
      <trkpt lat="43.14729" lon="2.13739">
        <ele>286.8</ele>
        <time>2022-09-02T12:01:49Z</time>
      </trkpt>
      <trkpt lat="43.1473" lon="2.13742">
        <ele>286.6</ele>
        <time>2022-09-02T12:01:50Z</time>
      </trkpt>
      <trkpt lat="43.14734" lon="2.13755">
        <ele>285.4</ele>
        <time>2022-09-02T12:01:55Z</time>
      </trkpt>
      <trkpt lat="43.14735" lon="2.13761">
        <ele>285</ele>
        <time>2022-09-02T12:01:57Z</time>
      </trkpt>
      <trkpt lat="43.14732" lon="2.13769">
        <ele>284.2</ele>
        <time>2022-09-02T12:02:01Z</time>
      </trkpt>
      <trkpt lat="43.1473" lon="2.13771">
        <ele>284.2</ele>
        <time>2022-09-02T12:02:02Z</time>
      </trkpt>
      <trkpt lat="43.14722" lon="2.13776">
        <ele>283.2</ele>
        <time>2022-09-02T12:02:06Z</time>
      </trkpt>
      <trkpt lat="43.1472" lon="2.13776">
        <ele>283</ele>
        <time>2022-09-02T12:02:07Z</time>
      </trkpt>
      <trkpt lat="43.14716" lon="2.13775">
        <ele>282.4</ele>
        <time>2022-09-02T12:02:10Z</time>
      </trkpt>
      <trkpt lat="43.14717" lon="2.13776">
        <ele>282.2</ele>
        <time>2022-09-02T12:02:11Z</time>
      </trkpt>
      <trkpt lat="43.1471" lon="2.13782">
        <ele>282.2</ele>
        <time>2022-09-02T12:07:57Z</time>
      </trkpt>
      <trkpt lat="43.14705" lon="2.13785">
        <ele>281.6</ele>
        <time>2022-09-02T12:07:59Z</time>
      </trkpt>
      <trkpt lat="43.147" lon="2.1378">
        <ele>281.4</ele>
        <time>2022-09-02T12:08:02Z</time>
      </trkpt>
      <trkpt lat="43.14699" lon="2.13778">
        <ele>281.4</ele>
        <time>2022-09-02T12:08:03Z</time>
      </trkpt>
      <trkpt lat="43.14693" lon="2.13768">
        <ele>281.2</ele>
        <time>2022-09-02T12:08:07Z</time>
      </trkpt>
      <trkpt lat="43.14691" lon="2.13764">
        <ele>281</ele>
        <time>2022-09-02T12:08:08Z</time>
      </trkpt>
      <trkpt lat="43.14686" lon="2.13743">
        <ele>280.4</ele>
        <time>2022-09-02T12:08:14Z</time>
      </trkpt>
      <trkpt lat="43.14681" lon="2.13715">
        <ele>280.2</ele>
        <time>2022-09-02T12:08:22Z</time>
      </trkpt>
      <trkpt lat="43.14681" lon="2.13708">
        <ele>280</ele>
        <time>2022-09-02T12:08:24Z</time>
      </trkpt>
      <trkpt lat="43.1468" lon="2.13696">
        <ele>279.4</ele>
        <time>2022-09-02T12:08:28Z</time>
      </trkpt>
      <trkpt lat="43.14681" lon="2.13691">
        <ele>279</ele>
        <time>2022-09-02T12:08:30Z</time>
      </trkpt>
      <trkpt lat="43.1468" lon="2.13685">
        <ele>278.8</ele>
        <time>2022-09-02T12:08:33Z</time>
      </trkpt>
      <trkpt lat="43.14679" lon="2.13685">
        <ele>278.6</ele>
        <time>2022-09-02T12:08:34Z</time>
      </trkpt>
      <trkpt lat="43.14673" lon="2.13684">
        <ele>277.8</ele>
        <time>2022-09-02T12:08:39Z</time>
      </trkpt>
      <trkpt lat="43.1467" lon="2.13684">
        <ele>277.4</ele>
        <time>2022-09-02T12:08:41Z</time>
      </trkpt>
      <trkpt lat="43.14669" lon="2.13682">
        <ele>277.4</ele>
        <time>2022-09-02T12:08:42Z</time>
      </trkpt>
      <trkpt lat="43.14668" lon="2.13677">
        <ele>277.2</ele>
        <time>2022-09-02T12:08:45Z</time>
      </trkpt>
      <trkpt lat="43.14668" lon="2.13675">
        <ele>277.2</ele>
        <time>2022-09-02T12:08:46Z</time>
      </trkpt>
      <trkpt lat="43.14671" lon="2.1367">
        <ele>276.8</ele>
        <time>2022-09-02T12:08:49Z</time>
      </trkpt>
      <trkpt lat="43.14674" lon="2.13669">
        <ele>276.8</ele>
        <time>2022-09-02T12:08:51Z</time>
      </trkpt>
      <trkpt lat="43.14679" lon="2.13666">
        <ele>277.6</ele>
        <time>2022-09-02T12:08:55Z</time>
      </trkpt>
      <trkpt lat="43.14681" lon="2.13665">
        <ele>277.6</ele>
        <time>2022-09-02T12:08:57Z</time>
      </trkpt>
      <trkpt lat="43.14684" lon="2.13663">
        <ele>278</ele>
        <time>2022-09-02T12:08:59Z</time>
      </trkpt>
      <trkpt lat="43.14689" lon="2.13659">
        <ele>278</ele>
        <time>2022-09-02T12:09:03Z</time>
      </trkpt>
      <trkpt lat="43.14687" lon="2.13649">
        <ele>278.2</ele>
        <time>2022-09-02T12:11:51Z</time>
      </trkpt>
      <trkpt lat="43.14684" lon="2.13653">
        <ele>278</ele>
        <time>2022-09-02T12:11:53Z</time>
      </trkpt>
      <trkpt lat="43.14675" lon="2.13672">
        <ele>277.8</ele>
        <time>2022-09-02T12:12:00Z</time>
      </trkpt>
      <trkpt lat="43.14666" lon="2.13672">
        <ele>277.2</ele>
        <time>2022-09-02T12:12:04Z</time>
      </trkpt>
      <trkpt lat="43.14664" lon="2.13671">
        <ele>276.8</ele>
        <time>2022-09-02T12:12:05Z</time>
      </trkpt>
      <trkpt lat="43.14656" lon="2.13659">
        <ele>276</ele>
        <time>2022-09-02T12:12:09Z</time>
      </trkpt>
      <trkpt lat="43.14653" lon="2.13648">
        <ele>275.8</ele>
        <time>2022-09-02T12:12:11Z</time>
      </trkpt>
      <trkpt lat="43.14648" lon="2.13627">
        <ele>275</ele>
        <time>2022-09-02T12:12:14Z</time>
      </trkpt>
      <trkpt lat="43.14646" lon="2.13619">
        <ele>274.6</ele>
        <time>2022-09-02T12:12:15Z</time>
      </trkpt>
      <trkpt lat="43.14639" lon="2.13593">
        <ele>273.4</ele>
        <time>2022-09-02T12:12:18Z</time>
      </trkpt>
      <trkpt lat="43.14636" lon="2.13584">
        <ele>273.2</ele>
        <time>2022-09-02T12:12:19Z</time>
      </trkpt>
      <trkpt lat="43.14625" lon="2.13557">
        <ele>272.4</ele>
        <time>2022-09-02T12:12:22Z</time>
      </trkpt>
      <trkpt lat="43.14618" lon="2.13539">
        <ele>271</ele>
        <time>2022-09-02T12:12:24Z</time>
      </trkpt>
      <trkpt lat="43.14614" lon="2.13529">
        <ele>270.6</ele>
        <time>2022-09-02T12:12:25Z</time>
      </trkpt>
      <trkpt lat="43.14606" lon="2.1351">
        <ele>269.8</ele>
        <time>2022-09-02T12:12:27Z</time>
      </trkpt>
      <trkpt lat="43.14586" lon="2.13461">
        <ele>268.8</ele>
        <time>2022-09-02T12:12:32Z</time>
      </trkpt>
      <trkpt lat="43.14578" lon="2.13442">
        <ele>268.2</ele>
        <time>2022-09-02T12:12:34Z</time>
      </trkpt>
      <trkpt lat="43.14574" lon="2.13432">
        <ele>267.6</ele>
        <time>2022-09-02T12:12:35Z</time>
      </trkpt>
      <trkpt lat="43.14557" lon="2.13389">
        <ele>266.4</ele>
        <time>2022-09-02T12:12:39Z</time>
      </trkpt>
      <trkpt lat="43.14552" lon="2.13378">
        <ele>265.6</ele>
        <time>2022-09-02T12:12:40Z</time>
      </trkpt>
      <trkpt lat="43.14547" lon="2.13367">
        <ele>264.8</ele>
        <time>2022-09-02T12:12:41Z</time>
      </trkpt>
      <trkpt lat="43.14537" lon="2.13345">
        <ele>263.2</ele>
        <time>2022-09-02T12:12:43Z</time>
      </trkpt>
      <trkpt lat="43.14529" lon="2.1332">
        <ele>262</ele>
        <time>2022-09-02T12:12:45Z</time>
      </trkpt>
      <trkpt lat="43.14525" lon="2.13307">
        <ele>261.4</ele>
        <time>2022-09-02T12:12:46Z</time>
      </trkpt>
      <trkpt lat="43.14521" lon="2.13293">
        <ele>260.6</ele>
        <time>2022-09-02T12:12:47Z</time>
      </trkpt>
      <trkpt lat="43.14516" lon="2.13251">
        <ele>259</ele>
        <time>2022-09-02T12:12:50Z</time>
      </trkpt>
      <trkpt lat="43.14514" lon="2.13223">
        <ele>257.6</ele>
        <time>2022-09-02T12:12:52Z</time>
      </trkpt>
      <trkpt lat="43.14511" lon="2.1317">
        <ele>257</ele>
        <time>2022-09-02T12:12:56Z</time>
      </trkpt>
      <trkpt lat="43.1451" lon="2.13145">
        <ele>256</ele>
        <time>2022-09-02T12:12:58Z</time>
      </trkpt>
      <trkpt lat="43.14508" lon="2.1312">
        <ele>255</ele>
        <time>2022-09-02T12:13:00Z</time>
      </trkpt>
      <trkpt lat="43.14506" lon="2.13083">
        <ele>254.2</ele>
        <time>2022-09-02T12:13:03Z</time>
      </trkpt>
      <trkpt lat="43.14505" lon="2.1307">
        <ele>253.4</ele>
        <time>2022-09-02T12:13:04Z</time>
      </trkpt>
      <trkpt lat="43.14501" lon="2.13024">
        <ele>252.2</ele>
        <time>2022-09-02T12:13:08Z</time>
      </trkpt>
      <trkpt lat="43.14499" lon="2.1299">
        <ele>251.2</ele>
        <time>2022-09-02T12:13:11Z</time>
      </trkpt>
      <trkpt lat="43.14498" lon="2.12979">
        <ele>251</ele>
        <time>2022-09-02T12:13:12Z</time>
      </trkpt>
      <trkpt lat="43.14495" lon="2.12934">
        <ele>249.8</ele>
        <time>2022-09-02T12:13:16Z</time>
      </trkpt>
      <trkpt lat="43.14492" lon="2.12889">
        <ele>248.8</ele>
        <time>2022-09-02T12:13:20Z</time>
      </trkpt>
      <trkpt lat="43.1449" lon="2.12853">
        <ele>247.6</ele>
        <time>2022-09-02T12:13:23Z</time>
      </trkpt>
      <trkpt lat="43.14488" lon="2.12827">
        <ele>246.4</ele>
        <time>2022-09-02T12:13:25Z</time>
      </trkpt>
      <trkpt lat="43.14486" lon="2.128">
        <ele>245.2</ele>
        <time>2022-09-02T12:13:27Z</time>
      </trkpt>
      <trkpt lat="43.14484" lon="2.12787">
        <ele>244.2</ele>
        <time>2022-09-02T12:13:28Z</time>
      </trkpt>
      <trkpt lat="43.14474" lon="2.12747">
        <ele>242.6</ele>
        <time>2022-09-02T12:13:31Z</time>
      </trkpt>
      <trkpt lat="43.14469" lon="2.12734">
        <ele>241.8</ele>
        <time>2022-09-02T12:13:32Z</time>
      </trkpt>
      <trkpt lat="43.14464" lon="2.12721">
        <ele>241.4</ele>
        <time>2022-09-02T12:13:33Z</time>
      </trkpt>
      <trkpt lat="43.14454" lon="2.12696">
        <ele>240.8</ele>
        <time>2022-09-02T12:13:35Z</time>
      </trkpt>
      <trkpt lat="43.14443" lon="2.12672">
        <ele>240.2</ele>
        <time>2022-09-02T12:13:37Z</time>
      </trkpt>
      <trkpt lat="43.1443" lon="2.12638">
        <ele>239.8</ele>
        <time>2022-09-02T12:13:40Z</time>
      </trkpt>
      <trkpt lat="43.14408" lon="2.12583">
        <ele>239.6</ele>
        <time>2022-09-02T12:13:46Z</time>
      </trkpt>
      <trkpt lat="43.14397" lon="2.1255">
        <ele>240.4</ele>
        <time>2022-09-02T12:13:51Z</time>
      </trkpt>
      <trkpt lat="43.1438" lon="2.12509">
        <ele>240.4</ele>
        <time>2022-09-02T12:13:59Z</time>
      </trkpt>
      <trkpt lat="43.14365" lon="2.12472">
        <ele>240.8</ele>
        <time>2022-09-02T12:14:07Z</time>
      </trkpt>
      <trkpt lat="43.1436" lon="2.12459">
        <ele>241.4</ele>
        <time>2022-09-02T12:14:10Z</time>
      </trkpt>
      <trkpt lat="43.14351" lon="2.12437">
        <ele>241.2</ele>
        <time>2022-09-02T12:14:15Z</time>
      </trkpt>
      <trkpt lat="43.14339" lon="2.12404">
        <ele>240.4</ele>
        <time>2022-09-02T12:14:22Z</time>
      </trkpt>
      <trkpt lat="43.14333" lon="2.12391">
        <ele>240.6</ele>
        <time>2022-09-02T12:14:25Z</time>
      </trkpt>
      <trkpt lat="43.14321" lon="2.12362">
        <ele>240.8</ele>
        <time>2022-09-02T12:14:32Z</time>
      </trkpt>
      <trkpt lat="43.14317" lon="2.12353">
        <ele>240.8</ele>
        <time>2022-09-02T12:14:34Z</time>
      </trkpt>
      <trkpt lat="43.14305" lon="2.12323">
        <ele>241.4</ele>
        <time>2022-09-02T12:14:41Z</time>
      </trkpt>
      <trkpt lat="43.14302" lon="2.12314">
        <ele>241.4</ele>
        <time>2022-09-02T12:14:43Z</time>
      </trkpt>
      <trkpt lat="43.14287" lon="2.12276">
        <ele>242</ele>
        <time>2022-09-02T12:14:52Z</time>
      </trkpt>
      <trkpt lat="43.14284" lon="2.12268">
        <ele>242.4</ele>
        <time>2022-09-02T12:14:54Z</time>
      </trkpt>
      <trkpt lat="43.14276" lon="2.12246">
        <ele>242.8</ele>
        <time>2022-09-02T12:15:00Z</time>
      </trkpt>
      <trkpt lat="43.14268" lon="2.12225">
        <ele>243.4</ele>
        <time>2022-09-02T12:15:06Z</time>
      </trkpt>
      <trkpt lat="43.14266" lon="2.1222">
        <ele>243.6</ele>
        <time>2022-09-02T12:15:08Z</time>
      </trkpt>
      <trkpt lat="43.14265" lon="2.12217">
        <ele>243.8</ele>
        <time>2022-09-02T12:15:10Z</time>
      </trkpt>
      <trkpt lat="43.14266" lon="2.12225">
        <ele>243.8</ele>
        <time>2022-09-02T12:16:11Z</time>
      </trkpt>
      <trkpt lat="43.14269" lon="2.12233">
        <ele>243.6</ele>
        <time>2022-09-02T12:16:14Z</time>
      </trkpt>
      <trkpt lat="43.14277" lon="2.12258">
        <ele>243.4</ele>
        <time>2022-09-02T12:16:20Z</time>
      </trkpt>
      <trkpt lat="43.14289" lon="2.12288">
        <ele>243</ele>
        <time>2022-09-02T12:16:26Z</time>
      </trkpt>
      <trkpt lat="43.14301" lon="2.12318">
        <ele>242.4</ele>
        <time>2022-09-02T12:16:31Z</time>
      </trkpt>
      <trkpt lat="43.14313" lon="2.12349">
        <ele>241.6</ele>
        <time>2022-09-02T12:16:36Z</time>
      </trkpt>
      <trkpt lat="43.14323" lon="2.12374">
        <ele>241.4</ele>
        <time>2022-09-02T12:16:40Z</time>
      </trkpt>
      <trkpt lat="43.14335" lon="2.12402">
        <ele>241.4</ele>
        <time>2022-09-02T12:16:45Z</time>
      </trkpt>
      <trkpt lat="43.14338" lon="2.12407">
        <ele>241.2</ele>
        <time>2022-09-02T12:16:46Z</time>
      </trkpt>
      <trkpt lat="43.14352" lon="2.1244">
        <ele>241.4</ele>
        <time>2022-09-02T12:16:52Z</time>
      </trkpt>
      <trkpt lat="43.14357" lon="2.12454">
        <ele>240.2</ele>
        <time>2022-09-02T12:16:55Z</time>
      </trkpt>
      <trkpt lat="43.14365" lon="2.12471">
        <ele>240.2</ele>
        <time>2022-09-02T12:16:59Z</time>
      </trkpt>
      <trkpt lat="43.14375" lon="2.12477">
        <ele>240.8</ele>
        <time>2022-09-02T12:17:03Z</time>
      </trkpt>
      <trkpt lat="43.14377" lon="2.12476">
        <ele>240.6</ele>
        <time>2022-09-02T12:17:04Z</time>
      </trkpt>
      <trkpt lat="43.14382" lon="2.12469">
        <ele>240.4</ele>
        <time>2022-09-02T12:17:07Z</time>
      </trkpt>
      <trkpt lat="43.14384" lon="2.12466">
        <ele>240.4</ele>
        <time>2022-09-02T12:17:08Z</time>
      </trkpt>
      <trkpt lat="43.14392" lon="2.12447">
        <ele>240.6</ele>
        <time>2022-09-02T12:17:14Z</time>
      </trkpt>
      <trkpt lat="43.14407" lon="2.12419">
        <ele>241.2</ele>
        <time>2022-09-02T12:17:22Z</time>
      </trkpt>
      <trkpt lat="43.14411" lon="2.12412">
        <ele>241.4</ele>
        <time>2022-09-02T12:17:24Z</time>
      </trkpt>
      <trkpt lat="43.14426" lon="2.12384">
        <ele>241.4</ele>
        <time>2022-09-02T12:17:32Z</time>
      </trkpt>
      <trkpt lat="43.14447" lon="2.12346">
        <ele>241.4</ele>
        <time>2022-09-02T12:17:43Z</time>
      </trkpt>
      <trkpt lat="43.1446" lon="2.12316">
        <ele>242.2</ele>
        <time>2022-09-02T12:17:51Z</time>
      </trkpt>
      <trkpt lat="43.14461" lon="2.12283">
        <ele>242.2</ele>
        <time>2022-09-02T12:17:59Z</time>
      </trkpt>
      <trkpt lat="43.14463" lon="2.1225">
        <ele>242.2</ele>
        <time>2022-09-02T12:18:07Z</time>
      </trkpt>
      <trkpt lat="43.14464" lon="2.12238">
        <ele>242.6</ele>
        <time>2022-09-02T12:18:10Z</time>
      </trkpt>
      <trkpt lat="43.14469" lon="2.12221">
        <ele>243.2</ele>
        <time>2022-09-02T12:18:15Z</time>
      </trkpt>
      <trkpt lat="43.14471" lon="2.12215">
        <ele>243.8</ele>
        <time>2022-09-02T12:18:17Z</time>
      </trkpt>
      <trkpt lat="43.14475" lon="2.12204">
        <ele>244</ele>
        <time>2022-09-02T12:18:22Z</time>
      </trkpt>
      <trkpt lat="43.14477" lon="2.12195">
        <ele>243.8</ele>
        <time>2022-09-02T12:18:27Z</time>
      </trkpt>
      <trkpt lat="43.14476" lon="2.12192">
        <ele>243.8</ele>
        <time>2022-09-02T12:18:28Z</time>
      </trkpt>
      <trkpt lat="43.14465" lon="2.12184">
        <ele>243.6</ele>
        <time>2022-09-02T12:18:32Z</time>
      </trkpt>
      <trkpt lat="43.14436" lon="2.12163">
        <ele>243.6</ele>
        <time>2022-09-02T12:18:40Z</time>
      </trkpt>
      <trkpt lat="43.14406" lon="2.12142">
        <ele>243.4</ele>
        <time>2022-09-02T12:18:48Z</time>
      </trkpt>
      <trkpt lat="43.14376" lon="2.12122">
        <ele>243</ele>
        <time>2022-09-02T12:18:56Z</time>
      </trkpt>
      <trkpt lat="43.14341" lon="2.12098">
        <ele>242.8</ele>
        <time>2022-09-02T12:19:05Z</time>
      </trkpt>
      <trkpt lat="43.14305" lon="2.12074">
        <ele>242.6</ele>
        <time>2022-09-02T12:19:14Z</time>
      </trkpt>
      <trkpt lat="43.1427" lon="2.12049">
        <ele>242.4</ele>
        <time>2022-09-02T12:19:22Z</time>
      </trkpt>
      <trkpt lat="43.14232" lon="2.12024">
        <ele>242</ele>
        <time>2022-09-02T12:19:31Z</time>
      </trkpt>
      <trkpt lat="43.1422" lon="2.12016">
        <ele>241.8</ele>
        <time>2022-09-02T12:19:34Z</time>
      </trkpt>
      <trkpt lat="43.14205" lon="2.12005">
        <ele>241.8</ele>
        <time>2022-09-02T12:19:38Z</time>
      </trkpt>
      <trkpt lat="43.14174" lon="2.11984">
        <ele>241.8</ele>
        <time>2022-09-02T12:19:46Z</time>
      </trkpt>
      <trkpt lat="43.14145" lon="2.11964">
        <ele>242</ele>
        <time>2022-09-02T12:19:53Z</time>
      </trkpt>
      <trkpt lat="43.14107" lon="2.11938">
        <ele>241.8</ele>
        <time>2022-09-02T12:20:02Z</time>
      </trkpt>
      <trkpt lat="43.14081" lon="2.1192">
        <ele>241.4</ele>
        <time>2022-09-02T12:20:08Z</time>
      </trkpt>
      <trkpt lat="43.14032" lon="2.11887">
        <ele>241</ele>
        <time>2022-09-02T12:20:18Z</time>
      </trkpt>
      <trkpt lat="43.13985" lon="2.11854">
        <ele>240.8</ele>
        <time>2022-09-02T12:20:28Z</time>
      </trkpt>
      <trkpt lat="43.13937" lon="2.11822">
        <ele>241</ele>
        <time>2022-09-02T12:20:38Z</time>
      </trkpt>
      <trkpt lat="43.13918" lon="2.11809">
        <ele>240.6</ele>
        <time>2022-09-02T12:20:42Z</time>
      </trkpt>
      <trkpt lat="43.13884" lon="2.11786">
        <ele>240.4</ele>
        <time>2022-09-02T12:20:49Z</time>
      </trkpt>
      <trkpt lat="43.13835" lon="2.11752">
        <ele>240.6</ele>
        <time>2022-09-02T12:20:59Z</time>
      </trkpt>
      <trkpt lat="43.13831" lon="2.11748">
        <ele>240.4</ele>
        <time>2022-09-02T12:21:00Z</time>
      </trkpt>
      <trkpt lat="43.1379" lon="2.1172">
        <ele>241</ele>
        <time>2022-09-02T12:21:09Z</time>
      </trkpt>
      <trkpt lat="43.13753" lon="2.11695">
        <ele>241.6</ele>
        <time>2022-09-02T12:21:18Z</time>
      </trkpt>
      <trkpt lat="43.13745" lon="2.1169">
        <ele>241.6</ele>
        <time>2022-09-02T12:21:20Z</time>
      </trkpt>
      <trkpt lat="43.13712" lon="2.11668">
        <ele>242</ele>
        <time>2022-09-02T12:21:28Z</time>
      </trkpt>
      <trkpt lat="43.13696" lon="2.11657">
        <ele>242.8</ele>
        <time>2022-09-02T12:21:32Z</time>
      </trkpt>
      <trkpt lat="43.13671" lon="2.11639">
        <ele>243</ele>
        <time>2022-09-02T12:21:38Z</time>
      </trkpt>
      <trkpt lat="43.13633" lon="2.11614">
        <ele>242.8</ele>
        <time>2022-09-02T12:21:47Z</time>
      </trkpt>
      <trkpt lat="43.13599" lon="2.11591">
        <ele>242.6</ele>
        <time>2022-09-02T12:21:55Z</time>
      </trkpt>
      <trkpt lat="43.13557" lon="2.1156">
        <ele>243</ele>
        <time>2022-09-02T12:22:05Z</time>
      </trkpt>
      <trkpt lat="43.13511" lon="2.11529">
        <ele>243.6</ele>
        <time>2022-09-02T12:22:16Z</time>
      </trkpt>
      <trkpt lat="43.13503" lon="2.11524">
        <ele>243.8</ele>
        <time>2022-09-02T12:22:18Z</time>
      </trkpt>
      <trkpt lat="43.13481" lon="2.11507">
        <ele>244.6</ele>
        <time>2022-09-02T12:22:24Z</time>
      </trkpt>
      <trkpt lat="43.13475" lon="2.11504">
        <ele>245</ele>
        <time>2022-09-02T12:22:26Z</time>
      </trkpt>
      <trkpt lat="43.13463" lon="2.11496">
        <ele>246.2</ele>
        <time>2022-09-02T12:22:30Z</time>
      </trkpt>
      <trkpt lat="43.1346" lon="2.11494">
        <ele>246.4</ele>
        <time>2022-09-02T12:22:31Z</time>
      </trkpt>
      <trkpt lat="43.13442" lon="2.1148">
        <ele>247</ele>
        <time>2022-09-02T12:22:38Z</time>
      </trkpt>
      <trkpt lat="43.13433" lon="2.11474">
        <ele>247.2</ele>
        <time>2022-09-02T12:22:41Z</time>
      </trkpt>
      <trkpt lat="43.13418" lon="2.11461">
        <ele>246.8</ele>
        <time>2022-09-02T12:22:46Z</time>
      </trkpt>
      <trkpt lat="43.13393" lon="2.11438">
        <ele>247.2</ele>
        <time>2022-09-02T12:22:55Z</time>
      </trkpt>
      <trkpt lat="43.13375" lon="2.11415">
        <ele>247.6</ele>
        <time>2022-09-02T12:23:03Z</time>
      </trkpt>
      <trkpt lat="43.13356" lon="2.11391">
        <ele>248</ele>
        <time>2022-09-02T12:23:11Z</time>
      </trkpt>
      <trkpt lat="43.13349" lon="2.11382">
        <ele>248.2</ele>
        <time>2022-09-02T12:23:14Z</time>
      </trkpt>
      <trkpt lat="43.13339" lon="2.11368">
        <ele>248.4</ele>
        <time>2022-09-02T12:23:18Z</time>
      </trkpt>
      <trkpt lat="43.13321" lon="2.11336">
        <ele>248.4</ele>
        <time>2022-09-02T12:23:27Z</time>
      </trkpt>
      <trkpt lat="43.13308" lon="2.11305">
        <ele>248.6</ele>
        <time>2022-09-02T12:23:35Z</time>
      </trkpt>
      <trkpt lat="43.13299" lon="2.11278">
        <ele>248.6</ele>
        <time>2022-09-02T12:23:42Z</time>
      </trkpt>
      <trkpt lat="43.13294" lon="2.11254">
        <ele>248.2</ele>
        <time>2022-09-02T12:23:48Z</time>
      </trkpt>
      <trkpt lat="43.13286" lon="2.11233">
        <ele>248.4</ele>
        <time>2022-09-02T12:23:53Z</time>
      </trkpt>
      <trkpt lat="43.13281" lon="2.1123">
        <ele>248.4</ele>
        <time>2022-09-02T12:23:55Z</time>
      </trkpt>
      <trkpt lat="43.13276" lon="2.11228">
        <ele>248.6</ele>
        <time>2022-09-02T12:23:57Z</time>
      </trkpt>
      <trkpt lat="43.13262" lon="2.11216">
        <ele>248.8</ele>
        <time>2022-09-02T12:24:03Z</time>
      </trkpt>
      <trkpt lat="43.1326" lon="2.11213">
        <ele>248.8</ele>
        <time>2022-09-02T12:24:04Z</time>
      </trkpt>
      <trkpt lat="43.13254" lon="2.11202">
        <ele>249.4</ele>
        <time>2022-09-02T12:24:08Z</time>
      </trkpt>
      <trkpt lat="43.13249" lon="2.11193">
        <ele>249.2</ele>
        <time>2022-09-02T12:24:11Z</time>
      </trkpt>
      <trkpt lat="43.13246" lon="2.11169">
        <ele>249.6</ele>
        <time>2022-09-02T12:24:17Z</time>
      </trkpt>
      <trkpt lat="43.13249" lon="2.11128">
        <ele>250</ele>
        <time>2022-09-02T12:24:26Z</time>
      </trkpt>
      <trkpt lat="43.13251" lon="2.11102">
        <ele>250.2</ele>
        <time>2022-09-02T12:24:33Z</time>
      </trkpt>
      <trkpt lat="43.13251" lon="2.11096">
        <ele>250.4</ele>
        <time>2022-09-02T12:24:35Z</time>
      </trkpt>
      <trkpt lat="43.13255" lon="2.11079">
        <ele>250.8</ele>
        <time>2022-09-02T12:24:40Z</time>
      </trkpt>
      <trkpt lat="43.13256" lon="2.11052">
        <ele>251.2</ele>
        <time>2022-09-02T12:24:46Z</time>
      </trkpt>
      <trkpt lat="43.13256" lon="2.11042">
        <ele>251.4</ele>
        <time>2022-09-02T12:24:48Z</time>
      </trkpt>
      <trkpt lat="43.13256" lon="2.11009">
        <ele>251.6</ele>
        <time>2022-09-02T12:24:54Z</time>
      </trkpt>
      <trkpt lat="43.13257" lon="2.10947">
        <ele>252.2</ele>
        <time>2022-09-02T12:25:05Z</time>
      </trkpt>
      <trkpt lat="43.13257" lon="2.10936">
        <ele>252.4</ele>
        <time>2022-09-02T12:25:07Z</time>
      </trkpt>
      <trkpt lat="43.13258" lon="2.10885">
        <ele>252.4</ele>
        <time>2022-09-02T12:25:16Z</time>
      </trkpt>
      <trkpt lat="43.13255" lon="2.10838">
        <ele>253</ele>
        <time>2022-09-02T12:25:24Z</time>
      </trkpt>
      <trkpt lat="43.13249" lon="2.10789">
        <ele>253.4</ele>
        <time>2022-09-02T12:25:32Z</time>
      </trkpt>
      <trkpt lat="43.13247" lon="2.10777">
        <ele>253.4</ele>
        <time>2022-09-02T12:25:34Z</time>
      </trkpt>
      <trkpt lat="43.13239" lon="2.10743">
        <ele>254</ele>
        <time>2022-09-02T12:25:40Z</time>
      </trkpt>
      <trkpt lat="43.13221" lon="2.10682">
        <ele>254.6</ele>
        <time>2022-09-02T12:25:51Z</time>
      </trkpt>
      <trkpt lat="43.13202" lon="2.10633">
        <ele>254.4</ele>
        <time>2022-09-02T12:26:00Z</time>
      </trkpt>
      <trkpt lat="43.13183" lon="2.10598">
        <ele>255</ele>
        <time>2022-09-02T12:26:07Z</time>
      </trkpt>
      <trkpt lat="43.13158" lon="2.10556">
        <ele>255.2</ele>
        <time>2022-09-02T12:26:16Z</time>
      </trkpt>
      <trkpt lat="43.13138" lon="2.10522">
        <ele>255.6</ele>
        <time>2022-09-02T12:26:23Z</time>
      </trkpt>
      <trkpt lat="43.13128" lon="2.10507">
        <ele>256</ele>
        <time>2022-09-02T12:26:26Z</time>
      </trkpt>
      <trkpt lat="43.13113" lon="2.10482">
        <ele>256.4</ele>
        <time>2022-09-02T12:26:31Z</time>
      </trkpt>
      <trkpt lat="43.13104" lon="2.10468">
        <ele>256.4</ele>
        <time>2022-09-02T12:26:34Z</time>
      </trkpt>
      <trkpt lat="43.13091" lon="2.10449">
        <ele>256.6</ele>
        <time>2022-09-02T12:26:38Z</time>
      </trkpt>
      <trkpt lat="43.13075" lon="2.10426">
        <ele>256.8</ele>
        <time>2022-09-02T12:26:43Z</time>
      </trkpt>
      <trkpt lat="43.1305" lon="2.10386">
        <ele>257</ele>
        <time>2022-09-02T12:26:51Z</time>
      </trkpt>
      <trkpt lat="43.13047" lon="2.10382">
        <ele>257</ele>
        <time>2022-09-02T12:26:52Z</time>
      </trkpt>
      <trkpt lat="43.13032" lon="2.10356">
        <ele>257.4</ele>
        <time>2022-09-02T12:26:57Z</time>
      </trkpt>
      <trkpt lat="43.13013" lon="2.10326">
        <ele>257.6</ele>
        <time>2022-09-02T12:27:03Z</time>
      </trkpt>
      <trkpt lat="43.13009" lon="2.10322">
        <ele>257.6</ele>
        <time>2022-09-02T12:27:04Z</time>
      </trkpt>
      <trkpt lat="43.13" lon="2.10306">
        <ele>258</ele>
        <time>2022-09-02T12:27:07Z</time>
      </trkpt>
      <trkpt lat="43.12975" lon="2.10265">
        <ele>258.2</ele>
        <time>2022-09-02T12:27:15Z</time>
      </trkpt>
      <trkpt lat="43.12965" lon="2.1025">
        <ele>258.6</ele>
        <time>2022-09-02T12:27:18Z</time>
      </trkpt>
      <trkpt lat="43.12946" lon="2.10221">
        <ele>259</ele>
        <time>2022-09-02T12:27:24Z</time>
      </trkpt>
      <trkpt lat="43.1291" lon="2.1017">
        <ele>258.8</ele>
        <time>2022-09-02T12:27:35Z</time>
      </trkpt>
      <trkpt lat="43.12877" lon="2.10134">
        <ele>259.4</ele>
        <time>2022-09-02T12:27:44Z</time>
      </trkpt>
      <trkpt lat="43.12854" lon="2.10111">
        <ele>259.8</ele>
        <time>2022-09-02T12:27:50Z</time>
      </trkpt>
      <trkpt lat="43.12846" lon="2.10105">
        <ele>259.6</ele>
        <time>2022-09-02T12:27:52Z</time>
      </trkpt>
      <trkpt lat="43.12813" lon="2.10079">
        <ele>260</ele>
        <time>2022-09-02T12:28:00Z</time>
      </trkpt>
      <trkpt lat="43.12782" lon="2.10058">
        <ele>260</ele>
        <time>2022-09-02T12:28:07Z</time>
      </trkpt>
      <trkpt lat="43.12742" lon="2.10028">
        <ele>260.4</ele>
        <time>2022-09-02T12:28:16Z</time>
      </trkpt>
      <trkpt lat="43.12709" lon="2.10004">
        <ele>260.2</ele>
        <time>2022-09-02T12:28:24Z</time>
      </trkpt>
      <trkpt lat="43.12665" lon="2.09972">
        <ele>260.6</ele>
        <time>2022-09-02T12:28:34Z</time>
      </trkpt>
      <trkpt lat="43.1266" lon="2.09969">
        <ele>260.8</ele>
        <time>2022-09-02T12:28:35Z</time>
      </trkpt>
      <trkpt lat="43.1263" lon="2.09947">
        <ele>261</ele>
        <time>2022-09-02T12:28:42Z</time>
      </trkpt>
      <trkpt lat="43.12596" lon="2.09922">
        <ele>261</ele>
        <time>2022-09-02T12:28:50Z</time>
      </trkpt>
      <trkpt lat="43.12562" lon="2.09898">
        <ele>261</ele>
        <time>2022-09-02T12:28:58Z</time>
      </trkpt>
      <trkpt lat="43.12529" lon="2.09873">
        <ele>261.2</ele>
        <time>2022-09-02T12:29:06Z</time>
      </trkpt>
      <trkpt lat="43.12506" lon="2.09854">
        <ele>261.4</ele>
        <time>2022-09-02T12:29:13Z</time>
      </trkpt>
      <trkpt lat="43.12487" lon="2.0984">
        <ele>261.2</ele>
        <time>2022-09-02T12:29:19Z</time>
      </trkpt>
      <trkpt lat="43.12469" lon="2.09823">
        <ele>261</ele>
        <time>2022-09-02T12:29:25Z</time>
      </trkpt>
      <trkpt lat="43.12434" lon="2.0979">
        <ele>261.4</ele>
        <time>2022-09-02T12:29:35Z</time>
      </trkpt>
      <trkpt lat="43.12412" lon="2.09768">
        <ele>261.6</ele>
        <time>2022-09-02T12:29:42Z</time>
      </trkpt>
      <trkpt lat="43.1239" lon="2.09742">
        <ele>261.2</ele>
        <time>2022-09-02T12:29:50Z</time>
      </trkpt>
      <trkpt lat="43.1237" lon="2.09719">
        <ele>260.8</ele>
        <time>2022-09-02T12:29:58Z</time>
      </trkpt>
      <trkpt lat="43.12352" lon="2.09704">
        <ele>260.8</ele>
        <time>2022-09-02T12:30:05Z</time>
      </trkpt>
      <trkpt lat="43.12344" lon="2.09697">
        <ele>260.6</ele>
        <time>2022-09-02T12:30:11Z</time>
      </trkpt>
      <trkpt lat="43.12349" lon="2.09702">
        <ele>260.6</ele>
        <time>2022-09-02T12:30:27Z</time>
      </trkpt>
      <trkpt lat="43.12352" lon="2.09704">
        <ele>260.6</ele>
        <time>2022-09-02T12:30:29Z</time>
      </trkpt>
      <trkpt lat="43.12358" lon="2.09707">
        <ele>260.8</ele>
        <time>2022-09-02T12:30:34Z</time>
      </trkpt>
      <trkpt lat="43.1236" lon="2.09708">
        <ele>260.8</ele>
        <time>2022-09-02T12:30:35Z</time>
      </trkpt>
      <trkpt lat="43.12348" lon="2.097">
        <ele>260.8</ele>
        <time>2022-09-02T12:40:59Z</time>
      </trkpt>
      <trkpt lat="43.12346" lon="2.09698">
        <ele>260.8</ele>
        <time>2022-09-02T12:41:00Z</time>
      </trkpt>
      <trkpt lat="43.12331" lon="2.0968">
        <ele>261</ele>
        <time>2022-09-02T12:41:07Z</time>
      </trkpt>
      <trkpt lat="43.12307" lon="2.09652">
        <ele>261</ele>
        <time>2022-09-02T12:41:16Z</time>
      </trkpt>
      <trkpt lat="43.12283" lon="2.09619">
        <ele>261</ele>
        <time>2022-09-02T12:41:24Z</time>
      </trkpt>
      <trkpt lat="43.12255" lon="2.09578">
        <ele>261</ele>
        <time>2022-09-02T12:41:33Z</time>
      </trkpt>
      <trkpt lat="43.1223" lon="2.09544">
        <ele>261.2</ele>
        <time>2022-09-02T12:41:41Z</time>
      </trkpt>
      <trkpt lat="43.12228" lon="2.0954">
        <ele>261.2</ele>
        <time>2022-09-02T12:41:42Z</time>
      </trkpt>
      <trkpt lat="43.12216" lon="2.09521">
        <ele>261.2</ele>
        <time>2022-09-02T12:41:46Z</time>
      </trkpt>
      <trkpt lat="43.12195" lon="2.09481">
        <ele>261.8</ele>
        <time>2022-09-02T12:41:54Z</time>
      </trkpt>
      <trkpt lat="43.1219" lon="2.09472">
        <ele>262</ele>
        <time>2022-09-02T12:41:56Z</time>
      </trkpt>
      <trkpt lat="43.1218" lon="2.09446">
        <ele>262.2</ele>
        <time>2022-09-02T12:42:01Z</time>
      </trkpt>
      <trkpt lat="43.12167" lon="2.0941">
        <ele>262.6</ele>
        <time>2022-09-02T12:42:08Z</time>
      </trkpt>
      <trkpt lat="43.12162" lon="2.09389">
        <ele>263</ele>
        <time>2022-09-02T12:42:12Z</time>
      </trkpt>
      <trkpt lat="43.12156" lon="2.09373">
        <ele>263.2</ele>
        <time>2022-09-02T12:42:15Z</time>
      </trkpt>
      <trkpt lat="43.12147" lon="2.0933">
        <ele>263.8</ele>
        <time>2022-09-02T12:42:23Z</time>
      </trkpt>
      <trkpt lat="43.12145" lon="2.09319">
        <ele>264</ele>
        <time>2022-09-02T12:42:25Z</time>
      </trkpt>
      <trkpt lat="43.12141" lon="2.0928">
        <ele>264.2</ele>
        <time>2022-09-02T12:42:32Z</time>
      </trkpt>
      <trkpt lat="43.12139" lon="2.09228">
        <ele>265.2</ele>
        <time>2022-09-02T12:42:41Z</time>
      </trkpt>
      <trkpt lat="43.12138" lon="2.09176">
        <ele>265.6</ele>
        <time>2022-09-02T12:42:50Z</time>
      </trkpt>
      <trkpt lat="43.12135" lon="2.09138">
        <ele>266.2</ele>
        <time>2022-09-02T12:42:57Z</time>
      </trkpt>
      <trkpt lat="43.12135" lon="2.09127">
        <ele>266.4</ele>
        <time>2022-09-02T12:42:59Z</time>
      </trkpt>
      <trkpt lat="43.12135" lon="2.09082">
        <ele>267</ele>
        <time>2022-09-02T12:43:07Z</time>
      </trkpt>
      <trkpt lat="43.12135" lon="2.09071">
        <ele>267.4</ele>
        <time>2022-09-02T12:43:09Z</time>
      </trkpt>
      <trkpt lat="43.12135" lon="2.0904">
        <ele>267.2</ele>
        <time>2022-09-02T12:43:15Z</time>
      </trkpt>
      <trkpt lat="43.12134" lon="2.08986">
        <ele>267.6</ele>
        <time>2022-09-02T12:43:25Z</time>
      </trkpt>
      <trkpt lat="43.12134" lon="2.08947">
        <ele>268.4</ele>
        <time>2022-09-02T12:43:32Z</time>
      </trkpt>
      <trkpt lat="43.12134" lon="2.08942">
        <ele>268.4</ele>
        <time>2022-09-02T12:43:33Z</time>
      </trkpt>
      <trkpt lat="43.12132" lon="2.08892">
        <ele>268.8</ele>
        <time>2022-09-02T12:43:42Z</time>
      </trkpt>
      <trkpt lat="43.12132" lon="2.08866">
        <ele>269.2</ele>
        <time>2022-09-02T12:43:47Z</time>
      </trkpt>
      <trkpt lat="43.12132" lon="2.08851">
        <ele>269.4</ele>
        <time>2022-09-02T12:43:50Z</time>
      </trkpt>
      <trkpt lat="43.12131" lon="2.08813">
        <ele>269.6</ele>
        <time>2022-09-02T12:43:57Z</time>
      </trkpt>
      <trkpt lat="43.12131" lon="2.08772">
        <ele>270.2</ele>
        <time>2022-09-02T12:44:05Z</time>
      </trkpt>
      <trkpt lat="43.1213" lon="2.0875">
        <ele>270.4</ele>
        <time>2022-09-02T12:44:09Z</time>
      </trkpt>
      <trkpt lat="43.12129" lon="2.08724">
        <ele>271</ele>
        <time>2022-09-02T12:44:14Z</time>
      </trkpt>
      <trkpt lat="43.12129" lon="2.08676">
        <ele>271.2</ele>
        <time>2022-09-02T12:44:23Z</time>
      </trkpt>
      <trkpt lat="43.12128" lon="2.0864">
        <ele>271.4</ele>
        <time>2022-09-02T12:44:30Z</time>
      </trkpt>
      <trkpt lat="43.12128" lon="2.08629">
        <ele>271.8</ele>
        <time>2022-09-02T12:44:32Z</time>
      </trkpt>
      <trkpt lat="43.12127" lon="2.08581">
        <ele>272</ele>
        <time>2022-09-02T12:44:41Z</time>
      </trkpt>
      <trkpt lat="43.12127" lon="2.0856">
        <ele>272.4</ele>
        <time>2022-09-02T12:44:45Z</time>
      </trkpt>
      <trkpt lat="43.12126" lon="2.08534">
        <ele>272.6</ele>
        <time>2022-09-02T12:44:50Z</time>
      </trkpt>
      <trkpt lat="43.12126" lon="2.08493">
        <ele>273</ele>
        <time>2022-09-02T12:44:57Z</time>
      </trkpt>
      <trkpt lat="43.12125" lon="2.08448">
        <ele>273.4</ele>
        <time>2022-09-02T12:45:05Z</time>
      </trkpt>
      <trkpt lat="43.12125" lon="2.08442">
        <ele>273.6</ele>
        <time>2022-09-02T12:45:06Z</time>
      </trkpt>
      <trkpt lat="43.12124" lon="2.08386">
        <ele>274.2</ele>
        <time>2022-09-02T12:45:16Z</time>
      </trkpt>
      <trkpt lat="43.12124" lon="2.08375">
        <ele>274.6</ele>
        <time>2022-09-02T12:45:18Z</time>
      </trkpt>
      <trkpt lat="43.12123" lon="2.08326">
        <ele>275</ele>
        <time>2022-09-02T12:45:27Z</time>
      </trkpt>
      <trkpt lat="43.12121" lon="2.08266">
        <ele>275.8</ele>
        <time>2022-09-02T12:45:38Z</time>
      </trkpt>
      <trkpt lat="43.12115" lon="2.08214">
        <ele>276.2</ele>
        <time>2022-09-02T12:45:48Z</time>
      </trkpt>
      <trkpt lat="43.12112" lon="2.08185">
        <ele>276.8</ele>
        <time>2022-09-02T12:45:54Z</time>
      </trkpt>
      <trkpt lat="43.12111" lon="2.08175">
        <ele>276.6</ele>
        <time>2022-09-02T12:45:56Z</time>
      </trkpt>
      <trkpt lat="43.12104" lon="2.08125">
        <ele>277.2</ele>
        <time>2022-09-02T12:46:05Z</time>
      </trkpt>
      <trkpt lat="43.12097" lon="2.08086">
        <ele>277.8</ele>
        <time>2022-09-02T12:46:12Z</time>
      </trkpt>
      <trkpt lat="43.12095" lon="2.08075">
        <ele>277.8</ele>
        <time>2022-09-02T12:46:14Z</time>
      </trkpt>
      <trkpt lat="43.12084" lon="2.08019">
        <ele>278.4</ele>
        <time>2022-09-02T12:46:24Z</time>
      </trkpt>
      <trkpt lat="43.12081" lon="2.08003">
        <ele>278.8</ele>
        <time>2022-09-02T12:46:27Z</time>
      </trkpt>
      <trkpt lat="43.12073" lon="2.07972">
        <ele>279</ele>
        <time>2022-09-02T12:46:33Z</time>
      </trkpt>
      <trkpt lat="43.1206" lon="2.07924">
        <ele>279.4</ele>
        <time>2022-09-02T12:46:42Z</time>
      </trkpt>
      <trkpt lat="43.12056" lon="2.07908">
        <ele>280</ele>
        <time>2022-09-02T12:46:45Z</time>
      </trkpt>
      <trkpt lat="43.12046" lon="2.07878">
        <ele>279.8</ele>
        <time>2022-09-02T12:46:51Z</time>
      </trkpt>
      <trkpt lat="43.12042" lon="2.07867">
        <ele>280</ele>
        <time>2022-09-02T12:46:53Z</time>
      </trkpt>
      <trkpt lat="43.1203" lon="2.0783">
        <ele>280.2</ele>
        <time>2022-09-02T12:47:00Z</time>
      </trkpt>
      <trkpt lat="43.12013" lon="2.07783">
        <ele>280.6</ele>
        <time>2022-09-02T12:47:09Z</time>
      </trkpt>
      <trkpt lat="43.11998" lon="2.07748">
        <ele>281</ele>
        <time>2022-09-02T12:47:16Z</time>
      </trkpt>
      <trkpt lat="43.11992" lon="2.07733">
        <ele>281.2</ele>
        <time>2022-09-02T12:47:19Z</time>
      </trkpt>
      <trkpt lat="43.11973" lon="2.07694">
        <ele>281.6</ele>
        <time>2022-09-02T12:47:27Z</time>
      </trkpt>
      <trkpt lat="43.11957" lon="2.07662">
        <ele>281.8</ele>
        <time>2022-09-02T12:47:34Z</time>
      </trkpt>
      <trkpt lat="43.1194" lon="2.07629">
        <ele>282</ele>
        <time>2022-09-02T12:47:41Z</time>
      </trkpt>
      <trkpt lat="43.11928" lon="2.07607">
        <ele>282.2</ele>
        <time>2022-09-02T12:47:46Z</time>
      </trkpt>
      <trkpt lat="43.11901" lon="2.07563">
        <ele>282.6</ele>
        <time>2022-09-02T12:47:56Z</time>
      </trkpt>
      <trkpt lat="43.11881" lon="2.07535">
        <ele>283.2</ele>
        <time>2022-09-02T12:48:03Z</time>
      </trkpt>
      <trkpt lat="43.11857" lon="2.07502">
        <ele>284</ele>
        <time>2022-09-02T12:48:11Z</time>
      </trkpt>
      <trkpt lat="43.11846" lon="2.07486">
        <ele>284.2</ele>
        <time>2022-09-02T12:48:15Z</time>
      </trkpt>
      <trkpt lat="43.11831" lon="2.07465">
        <ele>284.4</ele>
        <time>2022-09-02T12:48:20Z</time>
      </trkpt>
      <trkpt lat="43.11806" lon="2.07431">
        <ele>285</ele>
        <time>2022-09-02T12:48:29Z</time>
      </trkpt>
      <trkpt lat="43.118" lon="2.07423">
        <ele>284.8</ele>
        <time>2022-09-02T12:48:31Z</time>
      </trkpt>
      <trkpt lat="43.11788" lon="2.07407">
        <ele>285</ele>
        <time>2022-09-02T12:48:35Z</time>
      </trkpt>
      <trkpt lat="43.11783" lon="2.07399">
        <ele>285.4</ele>
        <time>2022-09-02T12:48:37Z</time>
      </trkpt>
      <trkpt lat="43.11761" lon="2.0737">
        <ele>285.6</ele>
        <time>2022-09-02T12:48:44Z</time>
      </trkpt>
      <trkpt lat="43.11734" lon="2.07333">
        <ele>286.6</ele>
        <time>2022-09-02T12:48:53Z</time>
      </trkpt>
      <trkpt lat="43.11731" lon="2.07329">
        <ele>286.6</ele>
        <time>2022-09-02T12:48:54Z</time>
      </trkpt>
      <trkpt lat="43.11705" lon="2.07294">
        <ele>287.4</ele>
        <time>2022-09-02T12:49:03Z</time>
      </trkpt>
      <trkpt lat="43.11684" lon="2.07266">
        <ele>287.6</ele>
        <time>2022-09-02T12:49:10Z</time>
      </trkpt>
      <trkpt lat="43.11678" lon="2.07259">
        <ele>287.6</ele>
        <time>2022-09-02T12:49:12Z</time>
      </trkpt>
      <trkpt lat="43.11653" lon="2.07231">
        <ele>288.2</ele>
        <time>2022-09-02T12:49:20Z</time>
      </trkpt>
      <trkpt lat="43.11646" lon="2.07223">
        <ele>288.2</ele>
        <time>2022-09-02T12:49:22Z</time>
      </trkpt>
      <trkpt lat="43.11635" lon="2.07214">
        <ele>288.6</ele>
        <time>2022-09-02T12:49:25Z</time>
      </trkpt>
      <trkpt lat="43.11606" lon="2.07188">
        <ele>289.2</ele>
        <time>2022-09-02T12:49:33Z</time>
      </trkpt>
      <trkpt lat="43.11578" lon="2.07167">
        <ele>289.6</ele>
        <time>2022-09-02T12:49:40Z</time>
      </trkpt>
      <trkpt lat="43.11574" lon="2.07164">
        <ele>289.6</ele>
        <time>2022-09-02T12:49:41Z</time>
      </trkpt>
      <trkpt lat="43.11539" lon="2.07142">
        <ele>290</ele>
        <time>2022-09-02T12:49:49Z</time>
      </trkpt>
      <trkpt lat="43.11513" lon="2.07127">
        <ele>290.6</ele>
        <time>2022-09-02T12:49:55Z</time>
      </trkpt>
      <trkpt lat="43.115" lon="2.0712">
        <ele>290.8</ele>
        <time>2022-09-02T12:49:58Z</time>
      </trkpt>
      <trkpt lat="43.11459" lon="2.07102">
        <ele>291.6</ele>
        <time>2022-09-02T12:50:07Z</time>
      </trkpt>
      <trkpt lat="43.11414" lon="2.07082">
        <ele>292.8</ele>
        <time>2022-09-02T12:50:17Z</time>
      </trkpt>
      <trkpt lat="43.11379" lon="2.07065">
        <ele>293.4</ele>
        <time>2022-09-02T12:50:25Z</time>
      </trkpt>
      <trkpt lat="43.11366" lon="2.07059">
        <ele>293.6</ele>
        <time>2022-09-02T12:50:28Z</time>
      </trkpt>
      <trkpt lat="43.11356" lon="2.07056">
        <ele>293.8</ele>
        <time>2022-09-02T12:50:30Z</time>
      </trkpt>
      <trkpt lat="43.11352" lon="2.07054">
        <ele>293.8</ele>
        <time>2022-09-02T12:50:31Z</time>
      </trkpt>
      <trkpt lat="43.11322" lon="2.0704">
        <ele>294.4</ele>
        <time>2022-09-02T12:50:38Z</time>
      </trkpt>
      <trkpt lat="43.11293" lon="2.07027">
        <ele>294.4</ele>
        <time>2022-09-02T12:50:45Z</time>
      </trkpt>
      <trkpt lat="43.1128" lon="2.07021">
        <ele>294.4</ele>
        <time>2022-09-02T12:50:48Z</time>
      </trkpt>
      <trkpt lat="43.11258" lon="2.0701">
        <ele>294.8</ele>
        <time>2022-09-02T12:50:53Z</time>
      </trkpt>
      <trkpt lat="43.11254" lon="2.07009">
        <ele>294.8</ele>
        <time>2022-09-02T12:50:54Z</time>
      </trkpt>
      <trkpt lat="43.1122" lon="2.06992">
        <ele>295.6</ele>
        <time>2022-09-02T12:51:02Z</time>
      </trkpt>
      <trkpt lat="43.11207" lon="2.06986">
        <ele>295.8</ele>
        <time>2022-09-02T12:51:05Z</time>
      </trkpt>
      <trkpt lat="43.11185" lon="2.06974">
        <ele>296.4</ele>
        <time>2022-09-02T12:51:10Z</time>
      </trkpt>
      <trkpt lat="43.11166" lon="2.06961">
        <ele>297</ele>
        <time>2022-09-02T12:51:15Z</time>
      </trkpt>
      <trkpt lat="43.11158" lon="2.06956">
        <ele>297</ele>
        <time>2022-09-02T12:51:17Z</time>
      </trkpt>
      <trkpt lat="43.11134" lon="2.06937">
        <ele>297.6</ele>
        <time>2022-09-02T12:51:23Z</time>
      </trkpt>
      <trkpt lat="43.1113" lon="2.06934">
        <ele>297.6</ele>
        <time>2022-09-02T12:51:24Z</time>
      </trkpt>
      <trkpt lat="43.11112" lon="2.06917">
        <ele>298</ele>
        <time>2022-09-02T12:51:29Z</time>
      </trkpt>
      <trkpt lat="43.11102" lon="2.06906">
        <ele>298.2</ele>
        <time>2022-09-02T12:51:32Z</time>
      </trkpt>
      <trkpt lat="43.11072" lon="2.06877">
        <ele>298.8</ele>
        <time>2022-09-02T12:51:40Z</time>
      </trkpt>
      <trkpt lat="43.11062" lon="2.06865">
        <ele>299</ele>
        <time>2022-09-02T12:51:43Z</time>
      </trkpt>
      <trkpt lat="43.11056" lon="2.06857">
        <ele>299</ele>
        <time>2022-09-02T12:51:45Z</time>
      </trkpt>
      <trkpt lat="43.1105" lon="2.06849">
        <ele>299.4</ele>
        <time>2022-09-02T12:51:47Z</time>
      </trkpt>
      <trkpt lat="43.11044" lon="2.06841">
        <ele>299.2</ele>
        <time>2022-09-02T12:51:49Z</time>
      </trkpt>
      <trkpt lat="43.11033" lon="2.06821">
        <ele>299.6</ele>
        <time>2022-09-02T12:51:53Z</time>
      </trkpt>
      <trkpt lat="43.11017" lon="2.06798">
        <ele>300.2</ele>
        <time>2022-09-02T12:51:58Z</time>
      </trkpt>
      <trkpt lat="43.11009" lon="2.06784">
        <ele>300.2</ele>
        <time>2022-09-02T12:52:01Z</time>
      </trkpt>
      <trkpt lat="43.11006" lon="2.06779">
        <ele>300.4</ele>
        <time>2022-09-02T12:52:02Z</time>
      </trkpt>
      <trkpt lat="43.10988" lon="2.06745">
        <ele>301.2</ele>
        <time>2022-09-02T12:52:09Z</time>
      </trkpt>
      <trkpt lat="43.10983" lon="2.06735">
        <ele>301.4</ele>
        <time>2022-09-02T12:52:11Z</time>
      </trkpt>
      <trkpt lat="43.10957" lon="2.06684">
        <ele>302</ele>
        <time>2022-09-02T12:52:21Z</time>
      </trkpt>
      <trkpt lat="43.10944" lon="2.06658">
        <ele>302.2</ele>
        <time>2022-09-02T12:52:26Z</time>
      </trkpt>
      <trkpt lat="43.10931" lon="2.06633">
        <ele>302.6</ele>
        <time>2022-09-02T12:52:31Z</time>
      </trkpt>
      <trkpt lat="43.10906" lon="2.06587">
        <ele>303.2</ele>
        <time>2022-09-02T12:52:40Z</time>
      </trkpt>
      <trkpt lat="43.109" lon="2.06577">
        <ele>303.4</ele>
        <time>2022-09-02T12:52:42Z</time>
      </trkpt>
      <trkpt lat="43.10888" lon="2.06558">
        <ele>303.6</ele>
        <time>2022-09-02T12:52:46Z</time>
      </trkpt>
      <trkpt lat="43.10885" lon="2.06554">
        <ele>303.6</ele>
        <time>2022-09-02T12:52:47Z</time>
      </trkpt>
      <trkpt lat="43.10853" lon="2.06516">
        <ele>304</ele>
        <time>2022-09-02T12:52:56Z</time>
      </trkpt>
      <trkpt lat="43.10843" lon="2.06505">
        <ele>304.4</ele>
        <time>2022-09-02T12:52:59Z</time>
      </trkpt>
      <trkpt lat="43.10828" lon="2.0649">
        <ele>304.6</ele>
        <time>2022-09-02T12:53:03Z</time>
      </trkpt>
      <trkpt lat="43.10792" lon="2.06459">
        <ele>305.4</ele>
        <time>2022-09-02T12:53:12Z</time>
      </trkpt>
      <trkpt lat="43.10784" lon="2.06453">
        <ele>305.4</ele>
        <time>2022-09-02T12:53:14Z</time>
      </trkpt>
      <trkpt lat="43.10755" lon="2.06433">
        <ele>305.8</ele>
        <time>2022-09-02T12:53:21Z</time>
      </trkpt>
      <trkpt lat="43.10723" lon="2.06409">
        <ele>306.2</ele>
        <time>2022-09-02T12:53:29Z</time>
      </trkpt>
      <trkpt lat="43.10715" lon="2.06404">
        <ele>306.6</ele>
        <time>2022-09-02T12:53:31Z</time>
      </trkpt>
      <trkpt lat="43.10695" lon="2.06388">
        <ele>307.2</ele>
        <time>2022-09-02T12:53:36Z</time>
      </trkpt>
      <trkpt lat="43.10687" lon="2.06383">
        <ele>307.6</ele>
        <time>2022-09-02T12:53:38Z</time>
      </trkpt>
      <trkpt lat="43.10672" lon="2.06372">
        <ele>307.6</ele>
        <time>2022-09-02T12:53:42Z</time>
      </trkpt>
      <trkpt lat="43.10644" lon="2.06345">
        <ele>308.4</ele>
        <time>2022-09-02T12:53:50Z</time>
      </trkpt>
      <trkpt lat="43.10634" lon="2.06333">
        <ele>308.8</ele>
        <time>2022-09-02T12:53:53Z</time>
      </trkpt>
      <trkpt lat="43.10611" lon="2.06305">
        <ele>309.6</ele>
        <time>2022-09-02T12:54:00Z</time>
      </trkpt>
      <trkpt lat="43.10602" lon="2.06292">
        <ele>309.8</ele>
        <time>2022-09-02T12:54:03Z</time>
      </trkpt>
      <trkpt lat="43.10585" lon="2.06267">
        <ele>309.8</ele>
        <time>2022-09-02T12:54:09Z</time>
      </trkpt>
      <trkpt lat="43.10567" lon="2.06235">
        <ele>310.4</ele>
        <time>2022-09-02T12:54:16Z</time>
      </trkpt>
      <trkpt lat="43.10555" lon="2.06211">
        <ele>310.8</ele>
        <time>2022-09-02T12:54:21Z</time>
      </trkpt>
      <trkpt lat="43.10553" lon="2.06206">
        <ele>310.8</ele>
        <time>2022-09-02T12:54:22Z</time>
      </trkpt>
      <trkpt lat="43.10535" lon="2.0616">
        <ele>311.2</ele>
        <time>2022-09-02T12:54:31Z</time>
      </trkpt>
      <trkpt lat="43.10521" lon="2.06111">
        <ele>311.8</ele>
        <time>2022-09-02T12:54:40Z</time>
      </trkpt>
      <trkpt lat="43.10515" lon="2.0608">
        <ele>312</ele>
        <time>2022-09-02T12:54:47Z</time>
      </trkpt>
      <trkpt lat="43.10509" lon="2.06052">
        <ele>312.6</ele>
        <time>2022-09-02T12:54:54Z</time>
      </trkpt>
      <trkpt lat="43.10505" lon="2.06034">
        <ele>312.8</ele>
        <time>2022-09-02T12:54:58Z</time>
      </trkpt>
      <trkpt lat="43.10503" lon="2.06025">
        <ele>312.8</ele>
        <time>2022-09-02T12:55:00Z</time>
      </trkpt>
      <trkpt lat="43.10495" lon="2.05983">
        <ele>313.2</ele>
        <time>2022-09-02T12:55:08Z</time>
      </trkpt>
      <trkpt lat="43.10486" lon="2.05938">
        <ele>313.6</ele>
        <time>2022-09-02T12:55:16Z</time>
      </trkpt>
      <trkpt lat="43.10482" lon="2.05916">
        <ele>313.8</ele>
        <time>2022-09-02T12:55:20Z</time>
      </trkpt>
      <trkpt lat="43.10475" lon="2.05882">
        <ele>314.2</ele>
        <time>2022-09-02T12:55:26Z</time>
      </trkpt>
      <trkpt lat="43.10467" lon="2.05842">
        <ele>315</ele>
        <time>2022-09-02T12:55:33Z</time>
      </trkpt>
      <trkpt lat="43.10466" lon="2.05836">
        <ele>315</ele>
        <time>2022-09-02T12:55:34Z</time>
      </trkpt>
      <trkpt lat="43.10454" lon="2.05774">
        <ele>315.4</ele>
        <time>2022-09-02T12:55:45Z</time>
      </trkpt>
      <trkpt lat="43.10451" lon="2.05758">
        <ele>316</ele>
        <time>2022-09-02T12:55:48Z</time>
      </trkpt>
      <trkpt lat="43.10443" lon="2.05713">
        <ele>316.8</ele>
        <time>2022-09-02T12:55:56Z</time>
      </trkpt>
      <trkpt lat="43.10442" lon="2.05708">
        <ele>317</ele>
        <time>2022-09-02T12:55:57Z</time>
      </trkpt>
      <trkpt lat="43.1043" lon="2.05657">
        <ele>317.6</ele>
        <time>2022-09-02T12:56:07Z</time>
      </trkpt>
      <trkpt lat="43.10423" lon="2.0562">
        <ele>318.2</ele>
        <time>2022-09-02T12:56:14Z</time>
      </trkpt>
      <trkpt lat="43.10418" lon="2.05594">
        <ele>318.4</ele>
        <time>2022-09-02T12:56:19Z</time>
      </trkpt>
      <trkpt lat="43.10408" lon="2.05541">
        <ele>318.8</ele>
        <time>2022-09-02T12:56:29Z</time>
      </trkpt>
      <trkpt lat="43.10406" lon="2.0553">
        <ele>319.2</ele>
        <time>2022-09-02T12:56:31Z</time>
      </trkpt>
      <trkpt lat="43.10399" lon="2.05495">
        <ele>319.4</ele>
        <time>2022-09-02T12:56:38Z</time>
      </trkpt>
      <trkpt lat="43.1039" lon="2.05448">
        <ele>320</ele>
        <time>2022-09-02T12:56:48Z</time>
      </trkpt>
      <trkpt lat="43.10382" lon="2.05407">
        <ele>320.2</ele>
        <time>2022-09-02T12:56:56Z</time>
      </trkpt>
      <trkpt lat="43.10374" lon="2.05371">
        <ele>320.4</ele>
        <time>2022-09-02T12:57:03Z</time>
      </trkpt>
      <trkpt lat="43.10363" lon="2.05317">
        <ele>321.2</ele>
        <time>2022-09-02T12:57:13Z</time>
      </trkpt>
      <trkpt lat="43.10362" lon="2.05311">
        <ele>321.4</ele>
        <time>2022-09-02T12:57:14Z</time>
      </trkpt>
      <trkpt lat="43.1035" lon="2.05253">
        <ele>322.2</ele>
        <time>2022-09-02T12:57:25Z</time>
      </trkpt>
      <trkpt lat="43.1035" lon="2.05248">
        <ele>322.4</ele>
        <time>2022-09-02T12:57:26Z</time>
      </trkpt>
      <trkpt lat="43.10344" lon="2.05222">
        <ele>322.6</ele>
        <time>2022-09-02T12:57:31Z</time>
      </trkpt>
      <trkpt lat="43.10336" lon="2.05181">
        <ele>323.4</ele>
        <time>2022-09-02T12:57:39Z</time>
      </trkpt>
      <trkpt lat="43.10336" lon="2.05176">
        <ele>323.6</ele>
        <time>2022-09-02T12:57:40Z</time>
      </trkpt>
      <trkpt lat="43.10332" lon="2.0514">
        <ele>324</ele>
        <time>2022-09-02T12:57:47Z</time>
      </trkpt>
      <trkpt lat="43.1033" lon="2.05125">
        <ele>324.6</ele>
        <time>2022-09-02T12:57:50Z</time>
      </trkpt>
      <trkpt lat="43.10329" lon="2.05113">
        <ele>324.4</ele>
        <time>2022-09-02T12:57:53Z</time>
      </trkpt>
      <trkpt lat="43.10328" lon="2.05087">
        <ele>324.6</ele>
        <time>2022-09-02T12:57:59Z</time>
      </trkpt>
      <trkpt lat="43.10328" lon="2.05077">
        <ele>324.6</ele>
        <time>2022-09-02T12:58:01Z</time>
      </trkpt>
      <trkpt lat="43.1033" lon="2.05031">
        <ele>325.2</ele>
        <time>2022-09-02T12:58:10Z</time>
      </trkpt>
      <trkpt lat="43.10333" lon="2.0499">
        <ele>325.6</ele>
        <time>2022-09-02T12:58:18Z</time>
      </trkpt>
      <trkpt lat="43.10339" lon="2.04954">
        <ele>326.4</ele>
        <time>2022-09-02T12:58:25Z</time>
      </trkpt>
      <trkpt lat="43.10342" lon="2.0494">
        <ele>326.6</ele>
        <time>2022-09-02T12:58:28Z</time>
      </trkpt>
      <trkpt lat="43.10348" lon="2.04917">
        <ele>326.8</ele>
        <time>2022-09-02T12:58:33Z</time>
      </trkpt>
      <trkpt lat="43.10357" lon="2.04884">
        <ele>327.4</ele>
        <time>2022-09-02T12:58:40Z</time>
      </trkpt>
      <trkpt lat="43.10366" lon="2.04856">
        <ele>327.8</ele>
        <time>2022-09-02T12:58:46Z</time>
      </trkpt>
      <trkpt lat="43.1037" lon="2.04847">
        <ele>327.8</ele>
        <time>2022-09-02T12:58:48Z</time>
      </trkpt>
      <trkpt lat="43.10385" lon="2.04811">
        <ele>328.2</ele>
        <time>2022-09-02T12:58:56Z</time>
      </trkpt>
      <trkpt lat="43.10394" lon="2.04793">
        <ele>328.8</ele>
        <time>2022-09-02T12:59:00Z</time>
      </trkpt>
      <trkpt lat="43.10408" lon="2.04767">
        <ele>329</ele>
        <time>2022-09-02T12:59:06Z</time>
      </trkpt>
      <trkpt lat="43.10429" lon="2.04735">
        <ele>329.4</ele>
        <time>2022-09-02T12:59:14Z</time>
      </trkpt>
      <trkpt lat="43.10457" lon="2.04699">
        <ele>329.8</ele>
        <time>2022-09-02T12:59:24Z</time>
      </trkpt>
      <trkpt lat="43.10463" lon="2.04691">
        <ele>330</ele>
        <time>2022-09-02T12:59:26Z</time>
      </trkpt>
      <trkpt lat="43.10484" lon="2.04667">
        <ele>330.8</ele>
        <time>2022-09-02T12:59:33Z</time>
      </trkpt>
      <trkpt lat="43.10487" lon="2.04664">
        <ele>331</ele>
        <time>2022-09-02T12:59:34Z</time>
      </trkpt>
      <trkpt lat="43.10517" lon="2.04633">
        <ele>331.2</ele>
        <time>2022-09-02T12:59:44Z</time>
      </trkpt>
      <trkpt lat="43.10541" lon="2.04609">
        <ele>331.8</ele>
        <time>2022-09-02T12:59:52Z</time>
      </trkpt>
      <trkpt lat="43.10548" lon="2.04599">
        <ele>332</ele>
        <time>2022-09-02T12:59:55Z</time>
      </trkpt>
      <trkpt lat="43.10556" lon="2.04588">
        <ele>332.4</ele>
        <time>2022-09-02T12:59:59Z</time>
      </trkpt>
      <trkpt lat="43.10567" lon="2.04579">
        <ele>333.2</ele>
        <time>2022-09-02T13:00:04Z</time>
      </trkpt>
      <trkpt lat="43.10571" lon="2.04575">
        <ele>333.4</ele>
        <time>2022-09-02T13:00:06Z</time>
      </trkpt>
      <trkpt lat="43.10585" lon="2.0456">
        <ele>333.2</ele>
        <time>2022-09-02T13:00:12Z</time>
      </trkpt>
      <trkpt lat="43.1061" lon="2.04534">
        <ele>333.8</ele>
        <time>2022-09-02T13:00:21Z</time>
      </trkpt>
      <trkpt lat="43.10635" lon="2.045">
        <ele>334</ele>
        <time>2022-09-02T13:00:31Z</time>
      </trkpt>
      <trkpt lat="43.10643" lon="2.04489">
        <ele>334.2</ele>
        <time>2022-09-02T13:00:34Z</time>
      </trkpt>
      <trkpt lat="43.10661" lon="2.04461">
        <ele>334.6</ele>
        <time>2022-09-02T13:00:41Z</time>
      </trkpt>
      <trkpt lat="43.10676" lon="2.0443">
        <ele>334.8</ele>
        <time>2022-09-02T13:00:48Z</time>
      </trkpt>
      <trkpt lat="43.10688" lon="2.04404">
        <ele>335</ele>
        <time>2022-09-02T13:00:55Z</time>
      </trkpt>
      <trkpt lat="43.10695" lon="2.04388">
        <ele>335.4</ele>
        <time>2022-09-02T13:00:59Z</time>
      </trkpt>
      <trkpt lat="43.10699" lon="2.04377">
        <ele>335.4</ele>
        <time>2022-09-02T13:01:01Z</time>
      </trkpt>
      <trkpt lat="43.10716" lon="2.0433">
        <ele>335</ele>
        <time>2022-09-02T13:01:10Z</time>
      </trkpt>
      <trkpt lat="43.10731" lon="2.04289">
        <ele>334.6</ele>
        <time>2022-09-02T13:01:18Z</time>
      </trkpt>
      <trkpt lat="43.10746" lon="2.04247">
        <ele>335</ele>
        <time>2022-09-02T13:01:26Z</time>
      </trkpt>
      <trkpt lat="43.10763" lon="2.04195">
        <ele>334.8</ele>
        <time>2022-09-02T13:01:36Z</time>
      </trkpt>
      <trkpt lat="43.10777" lon="2.04135">
        <ele>334.6</ele>
        <time>2022-09-02T13:01:46Z</time>
      </trkpt>
      <trkpt lat="43.10786" lon="2.04087">
        <ele>335</ele>
        <time>2022-09-02T13:01:54Z</time>
      </trkpt>
      <trkpt lat="43.10796" lon="2.04034">
        <ele>335.2</ele>
        <time>2022-09-02T13:02:03Z</time>
      </trkpt>
      <trkpt lat="43.10802" lon="2.04003">
        <ele>335.2</ele>
        <time>2022-09-02T13:02:09Z</time>
      </trkpt>
      <trkpt lat="43.1081" lon="2.03963">
        <ele>335</ele>
        <time>2022-09-02T13:02:16Z</time>
      </trkpt>
      <trkpt lat="43.10819" lon="2.03912">
        <ele>335.2</ele>
        <time>2022-09-02T13:02:24Z</time>
      </trkpt>
      <trkpt lat="43.10828" lon="2.03853">
        <ele>335.2</ele>
        <time>2022-09-02T13:02:33Z</time>
      </trkpt>
      <trkpt lat="43.10833" lon="2.03819">
        <ele>334.8</ele>
        <time>2022-09-02T13:02:39Z</time>
      </trkpt>
      <trkpt lat="43.10836" lon="2.03798">
        <ele>334.8</ele>
        <time>2022-09-02T13:02:44Z</time>
      </trkpt>
      <trkpt lat="43.10839" lon="2.03756">
        <ele>335.2</ele>
        <time>2022-09-02T13:02:51Z</time>
      </trkpt>
      <trkpt lat="43.10841" lon="2.03706">
        <ele>335.4</ele>
        <time>2022-09-02T13:02:59Z</time>
      </trkpt>
      <trkpt lat="43.1084" lon="2.03645">
        <ele>336.4</ele>
        <time>2022-09-02T13:03:09Z</time>
      </trkpt>
      <trkpt lat="43.10838" lon="2.03626">
        <ele>336.4</ele>
        <time>2022-09-02T13:03:12Z</time>
      </trkpt>
      <trkpt lat="43.10835" lon="2.03595">
        <ele>337</ele>
        <time>2022-09-02T13:03:17Z</time>
      </trkpt>
      <trkpt lat="43.10823" lon="2.03538">
        <ele>337.2</ele>
        <time>2022-09-02T13:03:27Z</time>
      </trkpt>
      <trkpt lat="43.10822" lon="2.03533">
        <ele>337.4</ele>
        <time>2022-09-02T13:03:28Z</time>
      </trkpt>
      <trkpt lat="43.10808" lon="2.03482">
        <ele>338.4</ele>
        <time>2022-09-02T13:03:38Z</time>
      </trkpt>
      <trkpt lat="43.108" lon="2.03449">
        <ele>338.6</ele>
        <time>2022-09-02T13:03:45Z</time>
      </trkpt>
      <trkpt lat="43.10799" lon="2.03444">
        <ele>338.6</ele>
        <time>2022-09-02T13:03:46Z</time>
      </trkpt>
      <trkpt lat="43.10787" lon="2.03404">
        <ele>339</ele>
        <time>2022-09-02T13:03:55Z</time>
      </trkpt>
      <trkpt lat="43.10776" lon="2.03367">
        <ele>339.8</ele>
        <time>2022-09-02T13:04:03Z</time>
      </trkpt>
      <trkpt lat="43.10765" lon="2.03324">
        <ele>340.2</ele>
        <time>2022-09-02T13:04:12Z</time>
      </trkpt>
      <trkpt lat="43.10757" lon="2.0329">
        <ele>340.8</ele>
        <time>2022-09-02T13:04:19Z</time>
      </trkpt>
      <trkpt lat="43.10753" lon="2.03275">
        <ele>341</ele>
        <time>2022-09-02T13:04:22Z</time>
      </trkpt>
      <trkpt lat="43.10745" lon="2.03236">
        <ele>341.6</ele>
        <time>2022-09-02T13:04:30Z</time>
      </trkpt>
      <trkpt lat="43.10742" lon="2.03216">
        <ele>341.8</ele>
        <time>2022-09-02T13:04:34Z</time>
      </trkpt>
      <trkpt lat="43.10739" lon="2.03191">
        <ele>342</ele>
        <time>2022-09-02T13:04:39Z</time>
      </trkpt>
      <trkpt lat="43.10735" lon="2.03142">
        <ele>342.8</ele>
        <time>2022-09-02T13:04:49Z</time>
      </trkpt>
      <trkpt lat="43.10735" lon="2.03132">
        <ele>342.8</ele>
        <time>2022-09-02T13:04:51Z</time>
      </trkpt>
      <trkpt lat="43.10734" lon="2.03108">
        <ele>343</ele>
        <time>2022-09-02T13:04:56Z</time>
      </trkpt>
      <trkpt lat="43.10734" lon="2.03072">
        <ele>343.6</ele>
        <time>2022-09-02T13:05:03Z</time>
      </trkpt>
      <trkpt lat="43.10735" lon="2.03057">
        <ele>343.8</ele>
        <time>2022-09-02T13:05:06Z</time>
      </trkpt>
      <trkpt lat="43.10736" lon="2.03035">
        <ele>344</ele>
        <time>2022-09-02T13:05:10Z</time>
      </trkpt>
      <trkpt lat="43.10741" lon="2.02987">
        <ele>344.6</ele>
        <time>2022-09-02T13:05:19Z</time>
      </trkpt>
      <trkpt lat="43.10744" lon="2.02972">
        <ele>344.8</ele>
        <time>2022-09-02T13:05:22Z</time>
      </trkpt>
      <trkpt lat="43.1075" lon="2.02942">
        <ele>345.2</ele>
        <time>2022-09-02T13:05:28Z</time>
      </trkpt>
      <trkpt lat="43.10759" lon="2.02897">
        <ele>345.8</ele>
        <time>2022-09-02T13:05:37Z</time>
      </trkpt>
      <trkpt lat="43.10761" lon="2.02886">
        <ele>346</ele>
        <time>2022-09-02T13:05:39Z</time>
      </trkpt>
      <trkpt lat="43.10769" lon="2.02851">
        <ele>346.4</ele>
        <time>2022-09-02T13:05:46Z</time>
      </trkpt>
      <trkpt lat="43.10781" lon="2.02795">
        <ele>347</ele>
        <time>2022-09-02T13:05:57Z</time>
      </trkpt>
      <trkpt lat="43.10792" lon="2.02743">
        <ele>347.6</ele>
        <time>2022-09-02T13:06:07Z</time>
      </trkpt>
      <trkpt lat="43.10799" lon="2.02713">
        <ele>348</ele>
        <time>2022-09-02T13:06:13Z</time>
      </trkpt>
      <trkpt lat="43.10804" lon="2.02692">
        <ele>348.2</ele>
        <time>2022-09-02T13:06:17Z</time>
      </trkpt>
      <trkpt lat="43.10811" lon="2.02651">
        <ele>348.8</ele>
        <time>2022-09-02T13:06:25Z</time>
      </trkpt>
      <trkpt lat="43.10813" lon="2.0262">
        <ele>349</ele>
        <time>2022-09-02T13:06:31Z</time>
      </trkpt>
      <trkpt lat="43.10814" lon="2.0261">
        <ele>349.2</ele>
        <time>2022-09-02T13:06:33Z</time>
      </trkpt>
      <trkpt lat="43.10816" lon="2.02567">
        <ele>349.6</ele>
        <time>2022-09-02T13:06:41Z</time>
      </trkpt>
      <trkpt lat="43.10815" lon="2.02537">
        <ele>350</ele>
        <time>2022-09-02T13:06:47Z</time>
      </trkpt>
      <trkpt lat="43.10813" lon="2.02521">
        <ele>350</ele>
        <time>2022-09-02T13:06:50Z</time>
      </trkpt>
      <trkpt lat="43.10808" lon="2.02476">
        <ele>350.8</ele>
        <time>2022-09-02T13:06:59Z</time>
      </trkpt>
      <trkpt lat="43.10805" lon="2.02449">
        <ele>351.2</ele>
        <time>2022-09-02T13:07:04Z</time>
      </trkpt>
      <trkpt lat="43.10801" lon="2.0243">
        <ele>351.6</ele>
        <time>2022-09-02T13:07:08Z</time>
      </trkpt>
      <trkpt lat="43.10793" lon="2.02395">
        <ele>351.8</ele>
        <time>2022-09-02T13:07:15Z</time>
      </trkpt>
      <trkpt lat="43.10788" lon="2.02376">
        <ele>352.2</ele>
        <time>2022-09-02T13:07:21Z</time>
      </trkpt>
      <trkpt lat="43.1078" lon="2.02353">
        <ele>352.2</ele>
        <time>2022-09-02T13:07:27Z</time>
      </trkpt>
      <trkpt lat="43.10777" lon="2.02344">
        <ele>352.4</ele>
        <time>2022-09-02T13:07:29Z</time>
      </trkpt>
      <trkpt lat="43.10769" lon="2.02322">
        <ele>352.4</ele>
        <time>2022-09-02T13:07:35Z</time>
      </trkpt>
      <trkpt lat="43.10758" lon="2.02298">
        <ele>353</ele>
        <time>2022-09-02T13:07:41Z</time>
      </trkpt>
      <trkpt lat="43.10741" lon="2.02266">
        <ele>353.4</ele>
        <time>2022-09-02T13:07:49Z</time>
      </trkpt>
      <trkpt lat="43.10734" lon="2.02255">
        <ele>353.4</ele>
        <time>2022-09-02T13:07:52Z</time>
      </trkpt>
      <trkpt lat="43.10716" lon="2.02227">
        <ele>354</ele>
        <time>2022-09-02T13:08:00Z</time>
      </trkpt>
      <trkpt lat="43.10708" lon="2.02214">
        <ele>354.4</ele>
        <time>2022-09-02T13:08:05Z</time>
      </trkpt>
      <trkpt lat="43.10702" lon="2.02205">
        <ele>354.4</ele>
        <time>2022-09-02T13:08:08Z</time>
      </trkpt>
      <trkpt lat="43.10689" lon="2.02191">
        <ele>354.8</ele>
        <time>2022-09-02T13:08:14Z</time>
      </trkpt>
      <trkpt lat="43.10671" lon="2.0217">
        <ele>355.4</ele>
        <time>2022-09-02T13:08:21Z</time>
      </trkpt>
      <trkpt lat="43.10668" lon="2.02167">
        <ele>355.4</ele>
        <time>2022-09-02T13:08:22Z</time>
      </trkpt>
      <trkpt lat="43.10648" lon="2.02149">
        <ele>356</ele>
        <time>2022-09-02T13:08:29Z</time>
      </trkpt>
      <trkpt lat="43.1063" lon="2.02134">
        <ele>356.2</ele>
        <time>2022-09-02T13:08:35Z</time>
      </trkpt>
      <trkpt lat="43.10621" lon="2.02127">
        <ele>356.4</ele>
        <time>2022-09-02T13:08:38Z</time>
      </trkpt>
      <trkpt lat="43.10612" lon="2.0212">
        <ele>356.6</ele>
        <time>2022-09-02T13:08:41Z</time>
      </trkpt>
      <trkpt lat="43.10586" lon="2.02106">
        <ele>357</ele>
        <time>2022-09-02T13:08:48Z</time>
      </trkpt>
      <trkpt lat="43.10565" lon="2.02097">
        <ele>357.2</ele>
        <time>2022-09-02T13:08:54Z</time>
      </trkpt>
      <trkpt lat="43.10555" lon="2.02093">
        <ele>357.4</ele>
        <time>2022-09-02T13:08:57Z</time>
      </trkpt>
      <trkpt lat="43.10539" lon="2.02087">
        <ele>357.6</ele>
        <time>2022-09-02T13:09:02Z</time>
      </trkpt>
      <trkpt lat="43.10514" lon="2.02079">
        <ele>358.2</ele>
        <time>2022-09-02T13:09:10Z</time>
      </trkpt>
      <trkpt lat="43.10503" lon="2.02077">
        <ele>358.6</ele>
        <time>2022-09-02T13:09:15Z</time>
      </trkpt>
      <trkpt lat="43.10501" lon="2.02076">
        <ele>358.6</ele>
        <time>2022-09-02T13:09:16Z</time>
      </trkpt>
      <trkpt lat="43.10491" lon="2.02077">
        <ele>358.4</ele>
        <time>2022-09-02T13:12:52Z</time>
      </trkpt>
      <trkpt lat="43.10487" lon="2.02077">
        <ele>358.4</ele>
        <time>2022-09-02T13:12:54Z</time>
      </trkpt>
      <trkpt lat="43.10482" lon="2.02076">
        <ele>358.4</ele>
        <time>2022-09-02T13:12:56Z</time>
      </trkpt>
      <trkpt lat="43.1047" lon="2.02075">
        <ele>358.6</ele>
        <time>2022-09-02T13:13:00Z</time>
      </trkpt>
      <trkpt lat="43.10442" lon="2.02075">
        <ele>359</ele>
        <time>2022-09-02T13:13:09Z</time>
      </trkpt>
      <trkpt lat="43.10415" lon="2.02078">
        <ele>359.4</ele>
        <time>2022-09-02T13:13:18Z</time>
      </trkpt>
      <trkpt lat="43.10408" lon="2.02079">
        <ele>359.6</ele>
        <time>2022-09-02T13:13:20Z</time>
      </trkpt>
      <trkpt lat="43.10385" lon="2.02085">
        <ele>360</ele>
        <time>2022-09-02T13:13:27Z</time>
      </trkpt>
      <trkpt lat="43.10359" lon="2.02092">
        <ele>360.4</ele>
        <time>2022-09-02T13:13:35Z</time>
      </trkpt>
      <trkpt lat="43.10346" lon="2.02095">
        <ele>360.4</ele>
        <time>2022-09-02T13:13:41Z</time>
      </trkpt>
      <trkpt lat="43.10335" lon="2.02097">
        <ele>360.6</ele>
        <time>2022-09-02T13:13:47Z</time>
      </trkpt>
      <trkpt lat="43.10333" lon="2.02098">
        <ele>360.6</ele>
        <time>2022-09-02T13:13:48Z</time>
      </trkpt>
      <trkpt lat="43.10313" lon="2.02104">
        <ele>360.8</ele>
        <time>2022-09-02T13:13:57Z</time>
      </trkpt>
      <trkpt lat="43.10295" lon="2.02107">
        <ele>361.2</ele>
        <time>2022-09-02T13:14:05Z</time>
      </trkpt>
      <trkpt lat="43.10278" lon="2.02112">
        <ele>361.6</ele>
        <time>2022-09-02T13:14:11Z</time>
      </trkpt>
      <trkpt lat="43.10274" lon="2.02113">
        <ele>361.6</ele>
        <time>2022-09-02T13:14:12Z</time>
      </trkpt>
      <trkpt lat="43.1025" lon="2.0212">
        <ele>362.2</ele>
        <time>2022-09-02T13:14:20Z</time>
      </trkpt>
      <trkpt lat="43.10225" lon="2.02123">
        <ele>362.6</ele>
        <time>2022-09-02T13:14:28Z</time>
      </trkpt>
      <trkpt lat="43.10219" lon="2.02124">
        <ele>362.8</ele>
        <time>2022-09-02T13:14:30Z</time>
      </trkpt>
      <trkpt lat="43.102" lon="2.02125">
        <ele>363</ele>
        <time>2022-09-02T13:14:36Z</time>
      </trkpt>
      <trkpt lat="43.10167" lon="2.02124">
        <ele>363.6</ele>
        <time>2022-09-02T13:14:46Z</time>
      </trkpt>
      <trkpt lat="43.10152" lon="2.02123">
        <ele>363.8</ele>
        <time>2022-09-02T13:14:50Z</time>
      </trkpt>
      <trkpt lat="43.10138" lon="2.0212">
        <ele>364.2</ele>
        <time>2022-09-02T13:14:54Z</time>
      </trkpt>
      <trkpt lat="43.10111" lon="2.02112">
        <ele>364.8</ele>
        <time>2022-09-02T13:15:02Z</time>
      </trkpt>
      <trkpt lat="43.10085" lon="2.02101">
        <ele>364.8</ele>
        <time>2022-09-02T13:15:10Z</time>
      </trkpt>
      <trkpt lat="43.10048" lon="2.02084">
        <ele>365.4</ele>
        <time>2022-09-02T13:15:21Z</time>
      </trkpt>
      <trkpt lat="43.10027" lon="2.0207">
        <ele>365.8</ele>
        <time>2022-09-02T13:15:28Z</time>
      </trkpt>
      <trkpt lat="43.10021" lon="2.02066">
        <ele>365.8</ele>
        <time>2022-09-02T13:15:30Z</time>
      </trkpt>
      <trkpt lat="43.09998" lon="2.02046">
        <ele>366</ele>
        <time>2022-09-02T13:15:38Z</time>
      </trkpt>
      <trkpt lat="43.09976" lon="2.02025">
        <ele>366.6</ele>
        <time>2022-09-02T13:15:46Z</time>
      </trkpt>
      <trkpt lat="43.09955" lon="2.02001">
        <ele>367</ele>
        <time>2022-09-02T13:15:54Z</time>
      </trkpt>
      <trkpt lat="43.09937" lon="2.01978">
        <ele>367.2</ele>
        <time>2022-09-02T13:16:01Z</time>
      </trkpt>
      <trkpt lat="43.09916" lon="2.01948">
        <ele>368</ele>
        <time>2022-09-02T13:16:10Z</time>
      </trkpt>
      <trkpt lat="43.09914" lon="2.01944">
        <ele>368</ele>
        <time>2022-09-02T13:16:11Z</time>
      </trkpt>
      <trkpt lat="43.09899" lon="2.01919">
        <ele>368.4</ele>
        <time>2022-09-02T13:16:18Z</time>
      </trkpt>
      <trkpt lat="43.09888" lon="2.01893">
        <ele>368.4</ele>
        <time>2022-09-02T13:16:24Z</time>
      </trkpt>
      <trkpt lat="43.09877" lon="2.01868">
        <ele>368.6</ele>
        <time>2022-09-02T13:16:30Z</time>
      </trkpt>
      <trkpt lat="43.09867" lon="2.01841">
        <ele>368.8</ele>
        <time>2022-09-02T13:16:36Z</time>
      </trkpt>
      <trkpt lat="43.09864" lon="2.01833">
        <ele>369</ele>
        <time>2022-09-02T13:16:38Z</time>
      </trkpt>
      <trkpt lat="43.09856" lon="2.0181">
        <ele>369.2</ele>
        <time>2022-09-02T13:16:43Z</time>
      </trkpt>
      <trkpt lat="43.09844" lon="2.01776">
        <ele>369.6</ele>
        <time>2022-09-02T13:16:51Z</time>
      </trkpt>
      <trkpt lat="43.09839" lon="2.01764">
        <ele>369.8</ele>
        <time>2022-09-02T13:16:54Z</time>
      </trkpt>
      <trkpt lat="43.09836" lon="2.01755">
        <ele>370</ele>
        <time>2022-09-02T13:16:56Z</time>
      </trkpt>
      <trkpt lat="43.09834" lon="2.01745">
        <ele>370</ele>
        <time>2022-09-02T13:16:58Z</time>
      </trkpt>
      <trkpt lat="43.09821" lon="2.0171">
        <ele>370.4</ele>
        <time>2022-09-02T13:17:06Z</time>
      </trkpt>
      <trkpt lat="43.09814" lon="2.01682">
        <ele>370.8</ele>
        <time>2022-09-02T13:17:12Z</time>
      </trkpt>
      <trkpt lat="43.09805" lon="2.01655">
        <ele>371</ele>
        <time>2022-09-02T13:17:18Z</time>
      </trkpt>
      <trkpt lat="43.09802" lon="2.01647">
        <ele>371.2</ele>
        <time>2022-09-02T13:17:20Z</time>
      </trkpt>
      <trkpt lat="43.09793" lon="2.01623">
        <ele>371.4</ele>
        <time>2022-09-02T13:17:26Z</time>
      </trkpt>
      <trkpt lat="43.09783" lon="2.01593">
        <ele>372</ele>
        <time>2022-09-02T13:17:33Z</time>
      </trkpt>
      <trkpt lat="43.09782" lon="2.01589">
        <ele>372.2</ele>
        <time>2022-09-02T13:17:34Z</time>
      </trkpt>
      <trkpt lat="43.09772" lon="2.01563">
        <ele>372.6</ele>
        <time>2022-09-02T13:17:40Z</time>
      </trkpt>
      <trkpt lat="43.09762" lon="2.0154">
        <ele>373</ele>
        <time>2022-09-02T13:17:46Z</time>
      </trkpt>
      <trkpt lat="43.09757" lon="2.01528">
        <ele>373.2</ele>
        <time>2022-09-02T13:17:49Z</time>
      </trkpt>
      <trkpt lat="43.09747" lon="2.01507">
        <ele>373.6</ele>
        <time>2022-09-02T13:17:54Z</time>
      </trkpt>
      <trkpt lat="43.09731" lon="2.01479">
        <ele>373.8</ele>
        <time>2022-09-02T13:18:01Z</time>
      </trkpt>
      <trkpt lat="43.09724" lon="2.01469">
        <ele>374.2</ele>
        <time>2022-09-02T13:18:04Z</time>
      </trkpt>
      <trkpt lat="43.09713" lon="2.0145">
        <ele>374.4</ele>
        <time>2022-09-02T13:18:09Z</time>
      </trkpt>
      <trkpt lat="43.09696" lon="2.01432">
        <ele>374.6</ele>
        <time>2022-09-02T13:18:15Z</time>
      </trkpt>
      <trkpt lat="43.0968" lon="2.01409">
        <ele>375</ele>
        <time>2022-09-02T13:18:22Z</time>
      </trkpt>
      <trkpt lat="43.09673" lon="2.01402">
        <ele>375.2</ele>
        <time>2022-09-02T13:18:25Z</time>
      </trkpt>
      <trkpt lat="43.09665" lon="2.01393">
        <ele>375.4</ele>
        <time>2022-09-02T13:18:28Z</time>
      </trkpt>
      <trkpt lat="43.09645" lon="2.01374">
        <ele>376</ele>
        <time>2022-09-02T13:18:35Z</time>
      </trkpt>
      <trkpt lat="43.09625" lon="2.01354">
        <ele>376</ele>
        <time>2022-09-02T13:18:42Z</time>
      </trkpt>
      <trkpt lat="43.09611" lon="2.01343">
        <ele>376.2</ele>
        <time>2022-09-02T13:18:47Z</time>
      </trkpt>
      <trkpt lat="43.09608" lon="2.01341">
        <ele>376.2</ele>
        <time>2022-09-02T13:18:48Z</time>
      </trkpt>
      <trkpt lat="43.09591" lon="2.01328">
        <ele>376.4</ele>
        <time>2022-09-02T13:18:54Z</time>
      </trkpt>
      <trkpt lat="43.09576" lon="2.01318">
        <ele>376.8</ele>
        <time>2022-09-02T13:19:00Z</time>
      </trkpt>
      <trkpt lat="43.09565" lon="2.01307">
        <ele>377.2</ele>
        <time>2022-09-02T13:19:05Z</time>
      </trkpt>
      <trkpt lat="43.09563" lon="2.01305">
        <ele>377.4</ele>
        <time>2022-09-02T13:19:06Z</time>
      </trkpt>
      <trkpt lat="43.09549" lon="2.01294">
        <ele>377.8</ele>
        <time>2022-09-02T13:19:11Z</time>
      </trkpt>
      <trkpt lat="43.09522" lon="2.01277">
        <ele>378.4</ele>
        <time>2022-09-02T13:19:19Z</time>
      </trkpt>
      <trkpt lat="43.09503" lon="2.01271">
        <ele>378.6</ele>
        <time>2022-09-02T13:19:24Z</time>
      </trkpt>
      <trkpt lat="43.09484" lon="2.01263">
        <ele>379</ele>
        <time>2022-09-02T13:19:30Z</time>
      </trkpt>
      <trkpt lat="43.09461" lon="2.01254">
        <ele>379.4</ele>
        <time>2022-09-02T13:19:37Z</time>
      </trkpt>
      <trkpt lat="43.09458" lon="2.01253">
        <ele>379.4</ele>
        <time>2022-09-02T13:19:38Z</time>
      </trkpt>
      <trkpt lat="43.0944" lon="2.01249">
        <ele>379.8</ele>
        <time>2022-09-02T13:19:43Z</time>
      </trkpt>
      <trkpt lat="43.09407" lon="2.01244">
        <ele>380.2</ele>
        <time>2022-09-02T13:19:52Z</time>
      </trkpt>
      <trkpt lat="43.09395" lon="2.01241">
        <ele>380.4</ele>
        <time>2022-09-02T13:19:55Z</time>
      </trkpt>
      <trkpt lat="43.09384" lon="2.01238">
        <ele>380.6</ele>
        <time>2022-09-02T13:19:58Z</time>
      </trkpt>
      <trkpt lat="43.09361" lon="2.01233">
        <ele>381.2</ele>
        <time>2022-09-02T13:20:05Z</time>
      </trkpt>
      <trkpt lat="43.0935" lon="2.01229">
        <ele>381.6</ele>
        <time>2022-09-02T13:20:10Z</time>
      </trkpt>
      <trkpt lat="43.0935" lon="2.01229">
        <ele>382.6</ele>
        <time>2022-09-02T13:20:33Z</time>
      </trkpt>
      <trkpt lat="43.0935" lon="2.01229">
        <ele>383.6</ele>
        <time>2022-09-02T13:20:53Z</time>
      </trkpt>
      <trkpt lat="43.0935" lon="2.01229">
        <ele>384.6</ele>
        <time>2022-09-02T13:21:21Z</time>
      </trkpt>
      <trkpt lat="43.0935" lon="2.01229">
        <ele>384.6</ele>
        <time>2022-09-02T13:21:26Z</time>
      </trkpt>
      <trkpt lat="43.09056" lon="2.01143">
        <ele>385.6</ele>
        <time>2022-09-02T13:21:54Z</time>
      </trkpt>
      <trkpt lat="43.09041" lon="2.01154">
        <ele>385.6</ele>
        <time>2022-09-02T13:23:10Z</time>
      </trkpt>
      <trkpt lat="43.0904" lon="2.01153">
        <ele>385.8</ele>
        <time>2022-09-02T13:23:11Z</time>
      </trkpt>
      <trkpt lat="43.09028" lon="2.01145">
        <ele>386.2</ele>
        <time>2022-09-02T13:23:18Z</time>
      </trkpt>
      <trkpt lat="43.09012" lon="2.01132">
        <ele>386.6</ele>
        <time>2022-09-02T13:23:24Z</time>
      </trkpt>
      <trkpt lat="43.09005" lon="2.01124">
        <ele>386.8</ele>
        <time>2022-09-02T13:23:26Z</time>
      </trkpt>
      <trkpt lat="43.08991" lon="2.01111">
        <ele>386.8</ele>
        <time>2022-09-02T13:23:30Z</time>
      </trkpt>
      <trkpt lat="43.08961" lon="2.01081">
        <ele>387.2</ele>
        <time>2022-09-02T13:23:38Z</time>
      </trkpt>
      <trkpt lat="43.08946" lon="2.01068">
        <ele>387.6</ele>
        <time>2022-09-02T13:23:42Z</time>
      </trkpt>
      <trkpt lat="43.08936" lon="2.01056">
        <ele>387.8</ele>
        <time>2022-09-02T13:23:46Z</time>
      </trkpt>
      <trkpt lat="43.08931" lon="2.01048">
        <ele>388</ele>
        <time>2022-09-02T13:23:48Z</time>
      </trkpt>
      <trkpt lat="43.08916" lon="2.01026">
        <ele>387.8</ele>
        <time>2022-09-02T13:23:54Z</time>
      </trkpt>
      <trkpt lat="43.08901" lon="2.01002">
        <ele>388</ele>
        <time>2022-09-02T13:24:00Z</time>
      </trkpt>
      <trkpt lat="43.0888" lon="2.00964">
        <ele>388</ele>
        <time>2022-09-02T13:24:07Z</time>
      </trkpt>
      <trkpt lat="43.08867" lon="2.00929">
        <ele>387.6</ele>
        <time>2022-09-02T13:24:13Z</time>
      </trkpt>
      <trkpt lat="43.08852" lon="2.00892">
        <ele>387.6</ele>
        <time>2022-09-02T13:24:20Z</time>
      </trkpt>
      <trkpt lat="43.08836" lon="2.00855">
        <ele>387.2</ele>
        <time>2022-09-02T13:24:27Z</time>
      </trkpt>
      <trkpt lat="43.08828" lon="2.0083">
        <ele>387</ele>
        <time>2022-09-02T13:24:32Z</time>
      </trkpt>
      <trkpt lat="43.08818" lon="2.00801">
        <ele>387</ele>
        <time>2022-09-02T13:24:37Z</time>
      </trkpt>
      <trkpt lat="43.08813" lon="2.00791">
        <ele>386.8</ele>
        <time>2022-09-02T13:24:39Z</time>
      </trkpt>
      <trkpt lat="43.08805" lon="2.00771">
        <ele>386.4</ele>
        <time>2022-09-02T13:24:43Z</time>
      </trkpt>
      <trkpt lat="43.0879" lon="2.0073">
        <ele>386.4</ele>
        <time>2022-09-02T13:24:50Z</time>
      </trkpt>
      <trkpt lat="43.08773" lon="2.0068">
        <ele>386</ele>
        <time>2022-09-02T13:24:58Z</time>
      </trkpt>
      <trkpt lat="43.08766" lon="2.00657">
        <ele>385.8</ele>
        <time>2022-09-02T13:25:03Z</time>
      </trkpt>
      <trkpt lat="43.08764" lon="2.00649">
        <ele>385.8</ele>
        <time>2022-09-02T13:25:05Z</time>
      </trkpt>
      <trkpt lat="43.08759" lon="2.00631">
        <ele>385.4</ele>
        <time>2022-09-02T13:25:09Z</time>
      </trkpt>
      <trkpt lat="43.08749" lon="2.00592">
        <ele>385.4</ele>
        <time>2022-09-02T13:25:17Z</time>
      </trkpt>
      <trkpt lat="43.08745" lon="2.00574">
        <ele>385</ele>
        <time>2022-09-02T13:25:22Z</time>
      </trkpt>
      <trkpt lat="43.08746" lon="2.00566">
        <ele>385</ele>
        <time>2022-09-02T13:26:05Z</time>
      </trkpt>
      <trkpt lat="43.08746" lon="2.00562">
        <ele>385.2</ele>
        <time>2022-09-02T13:26:06Z</time>
      </trkpt>
      <trkpt lat="43.08744" lon="2.00538">
        <ele>385</ele>
        <time>2022-09-02T13:26:11Z</time>
      </trkpt>
      <trkpt lat="43.08743" lon="2.00522">
        <ele>384.8</ele>
        <time>2022-09-02T13:26:14Z</time>
      </trkpt>
      <trkpt lat="43.0874" lon="2.005">
        <ele>384.8</ele>
        <time>2022-09-02T13:26:18Z</time>
      </trkpt>
      <trkpt lat="43.08738" lon="2.00469">
        <ele>384.2</ele>
        <time>2022-09-02T13:26:24Z</time>
      </trkpt>
      <trkpt lat="43.08737" lon="2.00443">
        <ele>384.2</ele>
        <time>2022-09-02T13:26:30Z</time>
      </trkpt>
      <trkpt lat="43.08735" lon="2.00406">
        <ele>384</ele>
        <time>2022-09-02T13:26:37Z</time>
      </trkpt>
      <trkpt lat="43.08735" lon="2.00369">
        <ele>384</ele>
        <time>2022-09-02T13:26:43Z</time>
      </trkpt>
      <trkpt lat="43.08734" lon="2.00362">
        <ele>384</ele>
        <time>2022-09-02T13:26:44Z</time>
      </trkpt>
      <trkpt lat="43.08733" lon="2.00347">
        <ele>383.6</ele>
        <time>2022-09-02T13:26:46Z</time>
      </trkpt>
      <trkpt lat="43.08732" lon="2.00328">
        <ele>383.2</ele>
        <time>2022-09-02T13:26:49Z</time>
      </trkpt>
      <trkpt lat="43.08731" lon="2.00294">
        <ele>383</ele>
        <time>2022-09-02T13:26:54Z</time>
      </trkpt>
      <trkpt lat="43.0873" lon="2.00287">
        <ele>383</ele>
        <time>2022-09-02T13:26:55Z</time>
      </trkpt>
      <trkpt lat="43.08728" lon="2.00266">
        <ele>383</ele>
        <time>2022-09-02T13:26:58Z</time>
      </trkpt>
      <trkpt lat="43.08728" lon="2.00259">
        <ele>382.8</ele>
        <time>2022-09-02T13:26:59Z</time>
      </trkpt>
      <trkpt lat="43.08727" lon="2.00251">
        <ele>382.6</ele>
        <time>2022-09-02T13:27:00Z</time>
      </trkpt>
      <trkpt lat="43.08724" lon="2.00202">
        <ele>382.4</ele>
        <time>2022-09-02T13:27:07Z</time>
      </trkpt>
      <trkpt lat="43.08721" lon="2.00177">
        <ele>382.2</ele>
        <time>2022-09-02T13:27:11Z</time>
      </trkpt>
      <trkpt lat="43.0872" lon="2.00163">
        <ele>381.8</ele>
        <time>2022-09-02T13:27:13Z</time>
      </trkpt>
      <trkpt lat="43.08719" lon="2.00156">
        <ele>381.8</ele>
        <time>2022-09-02T13:27:14Z</time>
      </trkpt>
      <trkpt lat="43.08718" lon="2.00142">
        <ele>381.6</ele>
        <time>2022-09-02T13:27:16Z</time>
      </trkpt>
      <trkpt lat="43.08717" lon="2.00128">
        <ele>381.6</ele>
        <time>2022-09-02T13:27:18Z</time>
      </trkpt>
      <trkpt lat="43.08716" lon="2.00114">
        <ele>381.4</ele>
        <time>2022-09-02T13:27:20Z</time>
      </trkpt>
      <trkpt lat="43.08713" lon="2.00101">
        <ele>381.4</ele>
        <time>2022-09-02T13:27:22Z</time>
      </trkpt>
      <trkpt lat="43.08708" lon="2.00055">
        <ele>381.4</ele>
        <time>2022-09-02T13:27:28Z</time>
      </trkpt>
      <trkpt lat="43.08702" lon="2.00006">
        <ele>381</ele>
        <time>2022-09-02T13:27:34Z</time>
      </trkpt>
      <trkpt lat="43.08693" lon="1.99957">
        <ele>380.6</ele>
        <time>2022-09-02T13:27:40Z</time>
      </trkpt>
      <trkpt lat="43.08689" lon="1.9994">
        <ele>380.6</ele>
        <time>2022-09-02T13:27:42Z</time>
      </trkpt>
      <trkpt lat="43.08684" lon="1.99924">
        <ele>380.4</ele>
        <time>2022-09-02T13:27:44Z</time>
      </trkpt>
      <trkpt lat="43.08682" lon="1.99916">
        <ele>380.4</ele>
        <time>2022-09-02T13:27:45Z</time>
      </trkpt>
      <trkpt lat="43.08667" lon="1.99858">
        <ele>380.2</ele>
        <time>2022-09-02T13:27:52Z</time>
      </trkpt>
      <trkpt lat="43.08651" lon="1.99806">
        <ele>379.4</ele>
        <time>2022-09-02T13:27:59Z</time>
      </trkpt>
      <trkpt lat="43.08648" lon="1.99799">
        <ele>379.4</ele>
        <time>2022-09-02T13:28:00Z</time>
      </trkpt>
      <trkpt lat="43.08629" lon="1.99747">
        <ele>379</ele>
        <time>2022-09-02T13:28:08Z</time>
      </trkpt>
      <trkpt lat="43.08614" lon="1.99708">
        <ele>378.4</ele>
        <time>2022-09-02T13:28:15Z</time>
      </trkpt>
      <trkpt lat="43.08612" lon="1.99702">
        <ele>378.2</ele>
        <time>2022-09-02T13:28:16Z</time>
      </trkpt>
      <trkpt lat="43.08595" lon="1.9966">
        <ele>378.2</ele>
        <time>2022-09-02T13:28:23Z</time>
      </trkpt>
      <trkpt lat="43.08576" lon="1.99615">
        <ele>377.2</ele>
        <time>2022-09-02T13:28:30Z</time>
      </trkpt>
      <trkpt lat="43.08573" lon="1.99608">
        <ele>377.2</ele>
        <time>2022-09-02T13:28:31Z</time>
      </trkpt>
      <trkpt lat="43.0855" lon="1.99555">
        <ele>376.6</ele>
        <time>2022-09-02T13:28:40Z</time>
      </trkpt>
      <trkpt lat="43.08543" lon="1.99541">
        <ele>376.6</ele>
        <time>2022-09-02T13:28:43Z</time>
      </trkpt>
      <trkpt lat="43.0854" lon="1.99532">
        <ele>376.6</ele>
        <time>2022-09-02T13:28:45Z</time>
      </trkpt>
      <trkpt lat="43.08536" lon="1.99524">
        <ele>376.2</ele>
        <time>2022-09-02T13:28:48Z</time>
      </trkpt>
      <trkpt lat="43.08533" lon="1.99517">
        <ele>376.2</ele>
        <time>2022-09-02T13:28:50Z</time>
      </trkpt>
      <trkpt lat="43.08527" lon="1.99506">
        <ele>376.2</ele>
        <time>2022-09-02T13:28:55Z</time>
      </trkpt>
      <trkpt lat="43.08529" lon="1.99507">
        <ele>375.8</ele>
        <time>2022-09-02T13:32:13Z</time>
      </trkpt>
      <trkpt lat="43.08524" lon="1.99493">
        <ele>376</ele>
        <time>2022-09-02T13:32:19Z</time>
      </trkpt>
      <trkpt lat="43.08512" lon="1.99466">
        <ele>376.4</ele>
        <time>2022-09-02T13:32:28Z</time>
      </trkpt>
      <trkpt lat="43.08499" lon="1.99438">
        <ele>376.4</ele>
        <time>2022-09-02T13:32:35Z</time>
      </trkpt>
      <trkpt lat="43.08481" lon="1.99395">
        <ele>376.2</ele>
        <time>2022-09-02T13:32:45Z</time>
      </trkpt>
      <trkpt lat="43.08462" lon="1.99353">
        <ele>375.8</ele>
        <time>2022-09-02T13:32:54Z</time>
      </trkpt>
      <trkpt lat="43.08443" lon="1.99312">
        <ele>375.6</ele>
        <time>2022-09-02T13:33:02Z</time>
      </trkpt>
      <trkpt lat="43.08432" lon="1.99286">
        <ele>375.2</ele>
        <time>2022-09-02T13:33:07Z</time>
      </trkpt>
      <trkpt lat="43.08426" lon="1.99271">
        <ele>375.2</ele>
        <time>2022-09-02T13:33:10Z</time>
      </trkpt>
      <trkpt lat="43.08409" lon="1.99232">
        <ele>374.8</ele>
        <time>2022-09-02T13:33:18Z</time>
      </trkpt>
      <trkpt lat="43.08391" lon="1.99192">
        <ele>374.2</ele>
        <time>2022-09-02T13:33:26Z</time>
      </trkpt>
      <trkpt lat="43.08389" lon="1.99187">
        <ele>374.2</ele>
        <time>2022-09-02T13:33:27Z</time>
      </trkpt>
      <trkpt lat="43.08369" lon="1.9914">
        <ele>373.8</ele>
        <time>2022-09-02T13:33:35Z</time>
      </trkpt>
      <trkpt lat="43.08347" lon="1.99092">
        <ele>373.2</ele>
        <time>2022-09-02T13:33:43Z</time>
      </trkpt>
      <trkpt lat="43.08336" lon="1.99066">
        <ele>373.2</ele>
        <time>2022-09-02T13:33:47Z</time>
      </trkpt>
      <trkpt lat="43.08323" lon="1.99033">
        <ele>373</ele>
        <time>2022-09-02T13:33:52Z</time>
      </trkpt>
      <trkpt lat="43.08301" lon="1.98978">
        <ele>372.2</ele>
        <time>2022-09-02T13:34:00Z</time>
      </trkpt>
      <trkpt lat="43.08298" lon="1.98971">
        <ele>372</ele>
        <time>2022-09-02T13:34:01Z</time>
      </trkpt>
      <trkpt lat="43.08274" lon="1.98902">
        <ele>371</ele>
        <time>2022-09-02T13:34:11Z</time>
      </trkpt>
      <trkpt lat="43.08259" lon="1.9886">
        <ele>370.8</ele>
        <time>2022-09-02T13:34:17Z</time>
      </trkpt>
      <trkpt lat="43.08254" lon="1.98846">
        <ele>370.8</ele>
        <time>2022-09-02T13:34:19Z</time>
      </trkpt>
      <trkpt lat="43.08236" lon="1.98788">
        <ele>370.4</ele>
        <time>2022-09-02T13:34:27Z</time>
      </trkpt>
      <trkpt lat="43.0822" lon="1.9873">
        <ele>370</ele>
        <time>2022-09-02T13:34:35Z</time>
      </trkpt>
      <trkpt lat="43.08216" lon="1.98715">
        <ele>370</ele>
        <time>2022-09-02T13:34:37Z</time>
      </trkpt>
      <trkpt lat="43.08209" lon="1.98692">
        <ele>369.8</ele>
        <time>2022-09-02T13:34:40Z</time>
      </trkpt>
      <trkpt lat="43.0819" lon="1.98622">
        <ele>369.2</ele>
        <time>2022-09-02T13:34:49Z</time>
      </trkpt>
      <trkpt lat="43.08177" lon="1.98565">
        <ele>368.8</ele>
        <time>2022-09-02T13:34:56Z</time>
      </trkpt>
      <trkpt lat="43.08163" lon="1.98503">
        <ele>368.2</ele>
        <time>2022-09-02T13:35:04Z</time>
      </trkpt>
      <trkpt lat="43.08149" lon="1.98445">
        <ele>367.8</ele>
        <time>2022-09-02T13:35:12Z</time>
      </trkpt>
      <trkpt lat="43.08148" lon="1.98438">
        <ele>367.8</ele>
        <time>2022-09-02T13:35:13Z</time>
      </trkpt>
      <trkpt lat="43.08137" lon="1.98386">
        <ele>367.2</ele>
        <time>2022-09-02T13:35:20Z</time>
      </trkpt>
      <trkpt lat="43.08124" lon="1.9833">
        <ele>366.8</ele>
        <time>2022-09-02T13:35:27Z</time>
      </trkpt>
      <trkpt lat="43.08106" lon="1.98258">
        <ele>366.6</ele>
        <time>2022-09-02T13:35:36Z</time>
      </trkpt>
      <trkpt lat="43.0809" lon="1.98192">
        <ele>365.8</ele>
        <time>2022-09-02T13:35:44Z</time>
      </trkpt>
      <trkpt lat="43.08086" lon="1.98176">
        <ele>365.8</ele>
        <time>2022-09-02T13:35:46Z</time>
      </trkpt>
      <trkpt lat="43.08075" lon="1.98128">
        <ele>365.8</ele>
        <time>2022-09-02T13:35:52Z</time>
      </trkpt>
      <trkpt lat="43.08062" lon="1.98072">
        <ele>365</ele>
        <time>2022-09-02T13:35:59Z</time>
      </trkpt>
      <trkpt lat="43.08054" lon="1.98035">
        <ele>364.4</ele>
        <time>2022-09-02T13:36:04Z</time>
      </trkpt>
      <trkpt lat="43.08049" lon="1.98015">
        <ele>364.2</ele>
        <time>2022-09-02T13:36:07Z</time>
      </trkpt>
      <trkpt lat="43.08036" lon="1.97962">
        <ele>364</ele>
        <time>2022-09-02T13:36:14Z</time>
      </trkpt>
      <trkpt lat="43.08023" lon="1.97905">
        <ele>363.4</ele>
        <time>2022-09-02T13:36:21Z</time>
      </trkpt>
      <trkpt lat="43.08017" lon="1.97881">
        <ele>363.4</ele>
        <time>2022-09-02T13:36:24Z</time>
      </trkpt>
      <trkpt lat="43.08006" lon="1.97835">
        <ele>362.4</ele>
        <time>2022-09-02T13:36:30Z</time>
      </trkpt>
      <trkpt lat="43.08003" lon="1.9782">
        <ele>362.4</ele>
        <time>2022-09-02T13:36:32Z</time>
      </trkpt>
      <trkpt lat="43.07987" lon="1.97753">
        <ele>362</ele>
        <time>2022-09-02T13:36:42Z</time>
      </trkpt>
      <trkpt lat="43.07982" lon="1.9773">
        <ele>361.8</ele>
        <time>2022-09-02T13:36:47Z</time>
      </trkpt>
      <trkpt lat="43.07975" lon="1.97699">
        <ele>361.4</ele>
        <time>2022-09-02T13:36:54Z</time>
      </trkpt>
      <trkpt lat="43.07966" lon="1.97662">
        <ele>361.6</ele>
        <time>2022-09-02T13:37:00Z</time>
      </trkpt>
      <trkpt lat="43.07963" lon="1.97648">
        <ele>361.4</ele>
        <time>2022-09-02T13:37:02Z</time>
      </trkpt>
      <trkpt lat="43.07949" lon="1.9759">
        <ele>361.4</ele>
        <time>2022-09-02T13:37:10Z</time>
      </trkpt>
      <trkpt lat="43.07932" lon="1.97515">
        <ele>361.8</ele>
        <time>2022-09-02T13:37:20Z</time>
      </trkpt>
      <trkpt lat="43.07919" lon="1.97443">
        <ele>361.8</ele>
        <time>2022-09-02T13:37:30Z</time>
      </trkpt>
      <trkpt lat="43.07912" lon="1.97397">
        <ele>361.2</ele>
        <time>2022-09-02T13:37:37Z</time>
      </trkpt>
      <trkpt lat="43.07906" lon="1.97347">
        <ele>361.4</ele>
        <time>2022-09-02T13:37:45Z</time>
      </trkpt>
      <trkpt lat="43.07904" lon="1.97319">
        <ele>361.4</ele>
        <time>2022-09-02T13:37:51Z</time>
      </trkpt>
      <trkpt lat="43.07901" lon="1.97291">
        <ele>361.8</ele>
        <time>2022-09-02T13:37:56Z</time>
      </trkpt>
      <trkpt lat="43.079" lon="1.97285">
        <ele>362</ele>
        <time>2022-09-02T13:37:57Z</time>
      </trkpt>
      <trkpt lat="43.07897" lon="1.97239">
        <ele>361.2</ele>
        <time>2022-09-02T13:38:04Z</time>
      </trkpt>
      <trkpt lat="43.07895" lon="1.97188">
        <ele>361.6</ele>
        <time>2022-09-02T13:38:11Z</time>
      </trkpt>
      <trkpt lat="43.07896" lon="1.97181">
        <ele>362</ele>
        <time>2022-09-02T13:38:12Z</time>
      </trkpt>
      <trkpt lat="43.07896" lon="1.97131">
        <ele>360.8</ele>
        <time>2022-09-02T13:38:19Z</time>
      </trkpt>
      <trkpt lat="43.07898" lon="1.9707">
        <ele>360.4</ele>
        <time>2022-09-02T13:38:27Z</time>
      </trkpt>
      <trkpt lat="43.07899" lon="1.97063">
        <ele>360.2</ele>
        <time>2022-09-02T13:38:28Z</time>
      </trkpt>
      <trkpt lat="43.07906" lon="1.96984">
        <ele>359.8</ele>
        <time>2022-09-02T13:38:38Z</time>
      </trkpt>
      <trkpt lat="43.07915" lon="1.96921">
        <ele>359.4</ele>
        <time>2022-09-02T13:38:46Z</time>
      </trkpt>
      <trkpt lat="43.07918" lon="1.96898">
        <ele>359.2</ele>
        <time>2022-09-02T13:38:49Z</time>
      </trkpt>
      <trkpt lat="43.07923" lon="1.96859">
        <ele>358.8</ele>
        <time>2022-09-02T13:38:54Z</time>
      </trkpt>
      <trkpt lat="43.07933" lon="1.96793">
        <ele>358.6</ele>
        <time>2022-09-02T13:39:02Z</time>
      </trkpt>
      <trkpt lat="43.07939" lon="1.96752">
        <ele>358.2</ele>
        <time>2022-09-02T13:39:07Z</time>
      </trkpt>
      <trkpt lat="43.07944" lon="1.96712">
        <ele>358</ele>
        <time>2022-09-02T13:39:12Z</time>
      </trkpt>
      <trkpt lat="43.07953" lon="1.96648">
        <ele>357.6</ele>
        <time>2022-09-02T13:39:20Z</time>
      </trkpt>
      <trkpt lat="43.07959" lon="1.96598">
        <ele>357.2</ele>
        <time>2022-09-02T13:39:26Z</time>
      </trkpt>
      <trkpt lat="43.07962" lon="1.96565">
        <ele>356.6</ele>
        <time>2022-09-02T13:39:30Z</time>
      </trkpt>
      <trkpt lat="43.07966" lon="1.96501">
        <ele>356.2</ele>
        <time>2022-09-02T13:39:38Z</time>
      </trkpt>
      <trkpt lat="43.07967" lon="1.96457">
        <ele>355.6</ele>
        <time>2022-09-02T13:39:44Z</time>
      </trkpt>
      <trkpt lat="43.07968" lon="1.96394">
        <ele>355.4</ele>
        <time>2022-09-02T13:39:52Z</time>
      </trkpt>
      <trkpt lat="43.07966" lon="1.96353">
        <ele>355.2</ele>
        <time>2022-09-02T13:39:57Z</time>
      </trkpt>
      <trkpt lat="43.07964" lon="1.9632">
        <ele>354.6</ele>
        <time>2022-09-02T13:40:01Z</time>
      </trkpt>
      <trkpt lat="43.07959" lon="1.9627">
        <ele>354</ele>
        <time>2022-09-02T13:40:07Z</time>
      </trkpt>
      <trkpt lat="43.07957" lon="1.96254">
        <ele>354</ele>
        <time>2022-09-02T13:40:09Z</time>
      </trkpt>
      <trkpt lat="43.07951" lon="1.96192">
        <ele>353.2</ele>
        <time>2022-09-02T13:40:17Z</time>
      </trkpt>
      <trkpt lat="43.0795" lon="1.96184">
        <ele>353</ele>
        <time>2022-09-02T13:40:18Z</time>
      </trkpt>
      <trkpt lat="43.07944" lon="1.96142">
        <ele>353.2</ele>
        <time>2022-09-02T13:40:24Z</time>
      </trkpt>
      <trkpt lat="43.07937" lon="1.96094">
        <ele>352.8</ele>
        <time>2022-09-02T13:40:31Z</time>
      </trkpt>
      <trkpt lat="43.07935" lon="1.96081">
        <ele>352.6</ele>
        <time>2022-09-02T13:40:33Z</time>
      </trkpt>
      <trkpt lat="43.07928" lon="1.96041">
        <ele>352.4</ele>
        <time>2022-09-02T13:40:40Z</time>
      </trkpt>
      <trkpt lat="43.07922" lon="1.96002">
        <ele>352.4</ele>
        <time>2022-09-02T13:40:47Z</time>
      </trkpt>
      <trkpt lat="43.07919" lon="1.95971">
        <ele>352</ele>
        <time>2022-09-02T13:40:54Z</time>
      </trkpt>
      <trkpt lat="43.07916" lon="1.95952">
        <ele>352</ele>
        <time>2022-09-02T13:40:58Z</time>
      </trkpt>
      <trkpt lat="43.07914" lon="1.95942">
        <ele>351.6</ele>
        <time>2022-09-02T13:41:00Z</time>
      </trkpt>
      <trkpt lat="43.07908" lon="1.95904">
        <ele>351.4</ele>
        <time>2022-09-02T13:41:06Z</time>
      </trkpt>
      <trkpt lat="43.07901" lon="1.95858">
        <ele>351.2</ele>
        <time>2022-09-02T13:41:13Z</time>
      </trkpt>
      <trkpt lat="43.07898" lon="1.95829">
        <ele>351.2</ele>
        <time>2022-09-02T13:41:18Z</time>
      </trkpt>
      <trkpt lat="43.07891" lon="1.95777">
        <ele>351</ele>
        <time>2022-09-02T13:41:26Z</time>
      </trkpt>
      <trkpt lat="43.07883" lon="1.95741">
        <ele>351</ele>
        <time>2022-09-02T13:41:31Z</time>
      </trkpt>
      <trkpt lat="43.0788" lon="1.95722">
        <ele>350.8</ele>
        <time>2022-09-02T13:41:34Z</time>
      </trkpt>
      <trkpt lat="43.07878" lon="1.95703">
        <ele>350.8</ele>
        <time>2022-09-02T13:41:37Z</time>
      </trkpt>
      <trkpt lat="43.07874" lon="1.95681">
        <ele>350.6</ele>
        <time>2022-09-02T13:41:41Z</time>
      </trkpt>
      <trkpt lat="43.07871" lon="1.95651">
        <ele>350.6</ele>
        <time>2022-09-02T13:41:47Z</time>
      </trkpt>
      <trkpt lat="43.0787" lon="1.95612">
        <ele>350.6</ele>
        <time>2022-09-02T13:41:54Z</time>
      </trkpt>
      <trkpt lat="43.07868" lon="1.95563">
        <ele>350.8</ele>
        <time>2022-09-02T13:42:02Z</time>
      </trkpt>
      <trkpt lat="43.07862" lon="1.95514">
        <ele>351</ele>
        <time>2022-09-02T13:42:10Z</time>
      </trkpt>
      <trkpt lat="43.07858" lon="1.95491">
        <ele>351</ele>
        <time>2022-09-02T13:42:14Z</time>
      </trkpt>
      <trkpt lat="43.07858" lon="1.95479">
        <ele>351</ele>
        <time>2022-09-02T13:42:16Z</time>
      </trkpt>
      <trkpt lat="43.07853" lon="1.95428">
        <ele>351.2</ele>
        <time>2022-09-02T13:42:24Z</time>
      </trkpt>
      <trkpt lat="43.07848" lon="1.95364">
        <ele>351</ele>
        <time>2022-09-02T13:42:34Z</time>
      </trkpt>
      <trkpt lat="43.07841" lon="1.95314">
        <ele>351</ele>
        <time>2022-09-02T13:42:42Z</time>
      </trkpt>
      <trkpt lat="43.0783" lon="1.9526">
        <ele>351</ele>
        <time>2022-09-02T13:42:51Z</time>
      </trkpt>
      <trkpt lat="43.07818" lon="1.95207">
        <ele>350.8</ele>
        <time>2022-09-02T13:43:00Z</time>
      </trkpt>
      <trkpt lat="43.07803" lon="1.95163">
        <ele>351</ele>
        <time>2022-09-02T13:43:08Z</time>
      </trkpt>
      <trkpt lat="43.07792" lon="1.95137">
        <ele>350.8</ele>
        <time>2022-09-02T13:43:13Z</time>
      </trkpt>
      <trkpt lat="43.0779" lon="1.95126">
        <ele>351</ele>
        <time>2022-09-02T13:43:15Z</time>
      </trkpt>
      <trkpt lat="43.0778" lon="1.95066">
        <ele>350.8</ele>
        <time>2022-09-02T13:43:25Z</time>
      </trkpt>
      <trkpt lat="43.07772" lon="1.95019">
        <ele>351</ele>
        <time>2022-09-02T13:43:33Z</time>
      </trkpt>
      <trkpt lat="43.07762" lon="1.94967">
        <ele>351</ele>
        <time>2022-09-02T13:43:42Z</time>
      </trkpt>
      <trkpt lat="43.0775" lon="1.94911">
        <ele>350.8</ele>
        <time>2022-09-02T13:43:52Z</time>
      </trkpt>
      <trkpt lat="43.07741" lon="1.94875">
        <ele>351.2</ele>
        <time>2022-09-02T13:43:59Z</time>
      </trkpt>
      <trkpt lat="43.07729" lon="1.94838">
        <ele>350.8</ele>
        <time>2022-09-02T13:44:07Z</time>
      </trkpt>
      <trkpt lat="43.07724" lon="1.94816">
        <ele>350.8</ele>
        <time>2022-09-02T13:44:13Z</time>
      </trkpt>
      <trkpt lat="43.07716" lon="1.94793">
        <ele>350.4</ele>
        <time>2022-09-02T13:44:19Z</time>
      </trkpt>
      <trkpt lat="43.07706" lon="1.94759">
        <ele>350.2</ele>
        <time>2022-09-02T13:44:26Z</time>
      </trkpt>
      <trkpt lat="43.07703" lon="1.94749">
        <ele>350.4</ele>
        <time>2022-09-02T13:44:28Z</time>
      </trkpt>
      <trkpt lat="43.07695" lon="1.94724">
        <ele>350.2</ele>
        <time>2022-09-02T13:44:33Z</time>
      </trkpt>
      <trkpt lat="43.07687" lon="1.94697">
        <ele>349.8</ele>
        <time>2022-09-02T13:44:38Z</time>
      </trkpt>
      <trkpt lat="43.07682" lon="1.9468">
        <ele>350</ele>
        <time>2022-09-02T13:44:41Z</time>
      </trkpt>
      <trkpt lat="43.07669" lon="1.94626">
        <ele>349.6</ele>
        <time>2022-09-02T13:44:50Z</time>
      </trkpt>
      <trkpt lat="43.07663" lon="1.94589">
        <ele>349.8</ele>
        <time>2022-09-02T13:44:56Z</time>
      </trkpt>
      <trkpt lat="43.07662" lon="1.94583">
        <ele>349.6</ele>
        <time>2022-09-02T13:44:57Z</time>
      </trkpt>
      <trkpt lat="43.07658" lon="1.94553">
        <ele>349.2</ele>
        <time>2022-09-02T13:45:02Z</time>
      </trkpt>
      <trkpt lat="43.07655" lon="1.94509">
        <ele>348.8</ele>
        <time>2022-09-02T13:45:09Z</time>
      </trkpt>
      <trkpt lat="43.07654" lon="1.94503">
        <ele>348.8</ele>
        <time>2022-09-02T13:45:10Z</time>
      </trkpt>
      <trkpt lat="43.07653" lon="1.94486">
        <ele>348.8</ele>
        <time>2022-09-02T13:45:13Z</time>
      </trkpt>
      <trkpt lat="43.07652" lon="1.94476">
        <ele>348.2</ele>
        <time>2022-09-02T13:45:15Z</time>
      </trkpt>
      <trkpt lat="43.07651" lon="1.94463">
        <ele>347.8</ele>
        <time>2022-09-02T13:45:20Z</time>
      </trkpt>
      <trkpt lat="43.07653" lon="1.94468">
        <ele>347.6</ele>
        <time>2022-09-02T13:45:42Z</time>
      </trkpt>
      <trkpt lat="43.07653" lon="1.94475">
        <ele>347.8</ele>
        <time>2022-09-02T13:45:44Z</time>
      </trkpt>
      <trkpt lat="43.07653" lon="1.94497">
        <ele>348.2</ele>
        <time>2022-09-02T13:45:50Z</time>
      </trkpt>
      <trkpt lat="43.07654" lon="1.94518">
        <ele>348.2</ele>
        <time>2022-09-02T13:45:57Z</time>
      </trkpt>
      <trkpt lat="43.07655" lon="1.94521">
        <ele>348.2</ele>
        <time>2022-09-02T13:45:59Z</time>
      </trkpt>
      <trkpt lat="43.07655" lon="1.94516">
        <ele>348.6</ele>
        <time>2022-09-02T13:47:59Z</time>
      </trkpt>
      <trkpt lat="43.07654" lon="1.94502">
        <ele>348.6</ele>
        <time>2022-09-02T13:48:04Z</time>
      </trkpt>
      <trkpt lat="43.07654" lon="1.94499">
        <ele>348.6</ele>
        <time>2022-09-02T13:48:05Z</time>
      </trkpt>
      <trkpt lat="43.07653" lon="1.94469">
        <ele>348.4</ele>
        <time>2022-09-02T13:48:12Z</time>
      </trkpt>
      <trkpt lat="43.07653" lon="1.94442">
        <ele>348.2</ele>
        <time>2022-09-02T13:48:19Z</time>
      </trkpt>
      <trkpt lat="43.07652" lon="1.94437">
        <ele>348</ele>
        <time>2022-09-02T13:49:26Z</time>
      </trkpt>
      <trkpt lat="43.07653" lon="1.94418">
        <ele>348.2</ele>
        <time>2022-09-02T13:49:33Z</time>
      </trkpt>
      <trkpt lat="43.07653" lon="1.94394">
        <ele>348.2</ele>
        <time>2022-09-02T13:49:40Z</time>
      </trkpt>
      <trkpt lat="43.07654" lon="1.94368">
        <ele>348</ele>
        <time>2022-09-02T13:49:47Z</time>
      </trkpt>
      <trkpt lat="43.07655" lon="1.94336">
        <ele>347.8</ele>
        <time>2022-09-02T13:49:54Z</time>
      </trkpt>
      <trkpt lat="43.07654" lon="1.94307">
        <ele>347.6</ele>
        <time>2022-09-02T13:50:00Z</time>
      </trkpt>
      <trkpt lat="43.07656" lon="1.9427">
        <ele>347.2</ele>
        <time>2022-09-02T13:50:07Z</time>
      </trkpt>
      <trkpt lat="43.07657" lon="1.94229">
        <ele>347</ele>
        <time>2022-09-02T13:50:14Z</time>
      </trkpt>
      <trkpt lat="43.07657" lon="1.94211">
        <ele>346.8</ele>
        <time>2022-09-02T13:50:17Z</time>
      </trkpt>
      <trkpt lat="43.07657" lon="1.94175">
        <ele>346.4</ele>
        <time>2022-09-02T13:50:23Z</time>
      </trkpt>
      <trkpt lat="43.07658" lon="1.94127">
        <ele>346</ele>
        <time>2022-09-02T13:50:31Z</time>
      </trkpt>
      <trkpt lat="43.0766" lon="1.94084">
        <ele>346.2</ele>
        <time>2022-09-02T13:50:38Z</time>
      </trkpt>
      <trkpt lat="43.07661" lon="1.94066">
        <ele>346</ele>
        <time>2022-09-02T13:50:41Z</time>
      </trkpt>
      <trkpt lat="43.07663" lon="1.94036">
        <ele>345.8</ele>
        <time>2022-09-02T13:50:46Z</time>
      </trkpt>
      <trkpt lat="43.07667" lon="1.93996">
        <ele>345.6</ele>
        <time>2022-09-02T13:50:53Z</time>
      </trkpt>
      <trkpt lat="43.0767" lon="1.93979">
        <ele>345.6</ele>
        <time>2022-09-02T13:50:56Z</time>
      </trkpt>
      <trkpt lat="43.07673" lon="1.93955">
        <ele>345.6</ele>
        <time>2022-09-02T13:51:00Z</time>
      </trkpt>
      <trkpt lat="43.07682" lon="1.93908">
        <ele>345.6</ele>
        <time>2022-09-02T13:51:08Z</time>
      </trkpt>
      <trkpt lat="43.07683" lon="1.93903">
        <ele>345.4</ele>
        <time>2022-09-02T13:51:09Z</time>
      </trkpt>
      <trkpt lat="43.07689" lon="1.93878">
        <ele>345.6</ele>
        <time>2022-09-02T13:51:13Z</time>
      </trkpt>
      <trkpt lat="43.07702" lon="1.93838">
        <ele>345.4</ele>
        <time>2022-09-02T13:51:20Z</time>
      </trkpt>
      <trkpt lat="43.07713" lon="1.93807">
        <ele>345.4</ele>
        <time>2022-09-02T13:51:26Z</time>
      </trkpt>
      <trkpt lat="43.07729" lon="1.93783">
        <ele>345</ele>
        <time>2022-09-02T13:51:32Z</time>
      </trkpt>
      <trkpt lat="43.07736" lon="1.93773">
        <ele>344.8</ele>
        <time>2022-09-02T13:51:34Z</time>
      </trkpt>
      <trkpt lat="43.0774" lon="1.93767">
        <ele>344.2</ele>
        <time>2022-09-02T13:51:35Z</time>
      </trkpt>
      <trkpt lat="43.07745" lon="1.93761">
        <ele>343.6</ele>
        <time>2022-09-02T13:51:36Z</time>
      </trkpt>
      <trkpt lat="43.0775" lon="1.93756">
        <ele>343</ele>
        <time>2022-09-02T13:51:37Z</time>
      </trkpt>
      <trkpt lat="43.07754" lon="1.93749">
        <ele>342.4</ele>
        <time>2022-09-02T13:51:38Z</time>
      </trkpt>
      <trkpt lat="43.07762" lon="1.93735">
        <ele>341.8</ele>
        <time>2022-09-02T13:51:40Z</time>
      </trkpt>
      <trkpt lat="43.07765" lon="1.93729">
        <ele>341.4</ele>
        <time>2022-09-02T13:51:41Z</time>
      </trkpt>
      <trkpt lat="43.07769" lon="1.93717">
        <ele>341</ele>
        <time>2022-09-02T13:51:44Z</time>
      </trkpt>
      <trkpt lat="43.07769" lon="1.9371">
        <ele>340.8</ele>
        <time>2022-09-02T13:51:46Z</time>
      </trkpt>
      <trkpt lat="43.07768" lon="1.93704">
        <ele>340.6</ele>
        <time>2022-09-02T13:51:48Z</time>
      </trkpt>
      <trkpt lat="43.07768" lon="1.93706">
        <ele>340.4</ele>
        <time>2022-09-02T13:51:49Z</time>
      </trkpt>
      <trkpt lat="43.07765" lon="1.93701">
        <ele>340.4</ele>
        <time>2022-09-02T13:51:51Z</time>
      </trkpt>
      <trkpt lat="43.07762" lon="1.93701">
        <ele>340.6</ele>
        <time>2022-09-02T13:51:53Z</time>
      </trkpt>
      <trkpt lat="43.07758" lon="1.93701">
        <ele>340.6</ele>
        <time>2022-09-02T13:51:55Z</time>
      </trkpt>
      <trkpt lat="43.07747" lon="1.93707">
        <ele>340.6</ele>
        <time>2022-09-02T13:52:00Z</time>
      </trkpt>
      <trkpt lat="43.07741" lon="1.93716">
        <ele>341.2</ele>
        <time>2022-09-02T13:52:05Z</time>
      </trkpt>
      <trkpt lat="43.07739" lon="1.93721">
        <ele>341.8</ele>
        <time>2022-09-02T13:52:08Z</time>
      </trkpt>
      <trkpt lat="43.0774" lon="1.93728">
        <ele>342.6</ele>
        <time>2022-09-02T13:52:11Z</time>
      </trkpt>
      <trkpt lat="43.07742" lon="1.93729">
        <ele>343</ele>
        <time>2022-09-02T13:52:13Z</time>
      </trkpt>
      <trkpt lat="43.07743" lon="1.93727">
        <ele>343.2</ele>
        <time>2022-09-02T13:52:14Z</time>
      </trkpt>
      <trkpt lat="43.07744" lon="1.93726">
        <ele>343.4</ele>
        <time>2022-09-02T13:52:15Z</time>
      </trkpt>
      <trkpt lat="43.07748" lon="1.93723">
        <ele>344.2</ele>
        <time>2022-09-02T13:52:18Z</time>
      </trkpt>
      <trkpt lat="43.07753" lon="1.93719">
        <ele>345</ele>
        <time>2022-09-02T13:52:22Z</time>
      </trkpt>
      <trkpt lat="43.07757" lon="1.93715">
        <ele>345.4</ele>
        <time>2022-09-02T13:52:25Z</time>
      </trkpt>
      <trkpt lat="43.07762" lon="1.93708">
        <ele>345.4</ele>
        <time>2022-09-02T13:52:29Z</time>
      </trkpt>
      <trkpt lat="43.0777" lon="1.93696">
        <ele>345.4</ele>
        <time>2022-09-02T13:52:34Z</time>
      </trkpt>
      <trkpt lat="43.07781" lon="1.93676">
        <ele>345.6</ele>
        <time>2022-09-02T13:52:41Z</time>
      </trkpt>
      <trkpt lat="43.07793" lon="1.93657">
        <ele>345.4</ele>
        <time>2022-09-02T13:52:47Z</time>
      </trkpt>
      <trkpt lat="43.07809" lon="1.93637">
        <ele>345.4</ele>
        <time>2022-09-02T13:52:53Z</time>
      </trkpt>
      <trkpt lat="43.07828" lon="1.93614">
        <ele>345.4</ele>
        <time>2022-09-02T13:53:00Z</time>
      </trkpt>
      <trkpt lat="43.07847" lon="1.9359">
        <ele>345.2</ele>
        <time>2022-09-02T13:53:07Z</time>
      </trkpt>
      <trkpt lat="43.07864" lon="1.93574">
        <ele>345.2</ele>
        <time>2022-09-02T13:53:12Z</time>
      </trkpt>
      <trkpt lat="43.07867" lon="1.93571">
        <ele>345.2</ele>
        <time>2022-09-02T13:53:13Z</time>
      </trkpt>
      <trkpt lat="43.07888" lon="1.93546">
        <ele>345.2</ele>
        <time>2022-09-02T13:53:20Z</time>
      </trkpt>
      <trkpt lat="43.07909" lon="1.93521">
        <ele>345</ele>
        <time>2022-09-02T13:53:27Z</time>
      </trkpt>
      <trkpt lat="43.07933" lon="1.93499">
        <ele>344.8</ele>
        <time>2022-09-02T13:53:33Z</time>
      </trkpt>
      <trkpt lat="43.07953" lon="1.93478">
        <ele>345</ele>
        <time>2022-09-02T13:53:40Z</time>
      </trkpt>
      <trkpt lat="43.07966" lon="1.93462">
        <ele>344.6</ele>
        <time>2022-09-02T13:53:46Z</time>
      </trkpt>
      <trkpt lat="43.07983" lon="1.93445">
        <ele>344.8</ele>
        <time>2022-09-02T13:53:52Z</time>
      </trkpt>
      <trkpt lat="43.08006" lon="1.93421">
        <ele>344.6</ele>
        <time>2022-09-02T13:53:58Z</time>
      </trkpt>
      <trkpt lat="43.08032" lon="1.93395">
        <ele>344.4</ele>
        <time>2022-09-02T13:54:03Z</time>
      </trkpt>
      <trkpt lat="43.08036" lon="1.93389">
        <ele>344.2</ele>
        <time>2022-09-02T13:54:04Z</time>
      </trkpt>
      <trkpt lat="43.08058" lon="1.93357">
        <ele>344.4</ele>
        <time>2022-09-02T13:54:09Z</time>
      </trkpt>
      <trkpt lat="43.08086" lon="1.93311">
        <ele>344</ele>
        <time>2022-09-02T13:54:16Z</time>
      </trkpt>
      <trkpt lat="43.08118" lon="1.93253">
        <ele>343.4</ele>
        <time>2022-09-02T13:54:25Z</time>
      </trkpt>
      <trkpt lat="43.08125" lon="1.9324">
        <ele>343.2</ele>
        <time>2022-09-02T13:54:27Z</time>
      </trkpt>
      <trkpt lat="43.08145" lon="1.93204">
        <ele>343</ele>
        <time>2022-09-02T13:54:33Z</time>
      </trkpt>
      <trkpt lat="43.08169" lon="1.93165">
        <ele>342.4</ele>
        <time>2022-09-02T13:54:40Z</time>
      </trkpt>
      <trkpt lat="43.08191" lon="1.93123">
        <ele>342.6</ele>
        <time>2022-09-02T13:54:47Z</time>
      </trkpt>
      <trkpt lat="43.08214" lon="1.9308">
        <ele>342.2</ele>
        <time>2022-09-02T13:54:54Z</time>
      </trkpt>
      <trkpt lat="43.08221" lon="1.93068">
        <ele>342.2</ele>
        <time>2022-09-02T13:54:56Z</time>
      </trkpt>
      <trkpt lat="43.08244" lon="1.93027">
        <ele>341.8</ele>
        <time>2022-09-02T13:55:03Z</time>
      </trkpt>
      <trkpt lat="43.08267" lon="1.92984">
        <ele>341.4</ele>
        <time>2022-09-02T13:55:11Z</time>
      </trkpt>
      <trkpt lat="43.08283" lon="1.92956">
        <ele>341.4</ele>
        <time>2022-09-02T13:55:17Z</time>
      </trkpt>
      <trkpt lat="43.08301" lon="1.9292">
        <ele>341.6</ele>
        <time>2022-09-02T13:55:23Z</time>
      </trkpt>
      <trkpt lat="43.08324" lon="1.92878">
        <ele>341.4</ele>
        <time>2022-09-02T13:55:30Z</time>
      </trkpt>
      <trkpt lat="43.08352" lon="1.92828">
        <ele>341.4</ele>
        <time>2022-09-02T13:55:39Z</time>
      </trkpt>
      <trkpt lat="43.08375" lon="1.92783">
        <ele>341.2</ele>
        <time>2022-09-02T13:55:47Z</time>
      </trkpt>
      <trkpt lat="43.08397" lon="1.92743">
        <ele>341.6</ele>
        <time>2022-09-02T13:55:54Z</time>
      </trkpt>
      <trkpt lat="43.08423" lon="1.92693">
        <ele>341.8</ele>
        <time>2022-09-02T13:56:03Z</time>
      </trkpt>
      <trkpt lat="43.08437" lon="1.92666">
        <ele>341.8</ele>
        <time>2022-09-02T13:56:08Z</time>
      </trkpt>
      <trkpt lat="43.08444" lon="1.9265">
        <ele>341.8</ele>
        <time>2022-09-02T13:56:11Z</time>
      </trkpt>
      <trkpt lat="43.08464" lon="1.92595">
        <ele>342</ele>
        <time>2022-09-02T13:56:20Z</time>
      </trkpt>
      <trkpt lat="43.08473" lon="1.92557">
        <ele>341.8</ele>
        <time>2022-09-02T13:56:26Z</time>
      </trkpt>
      <trkpt lat="43.08482" lon="1.92519">
        <ele>342</ele>
        <time>2022-09-02T13:56:32Z</time>
      </trkpt>
      <trkpt lat="43.08494" lon="1.92468">
        <ele>341.8</ele>
        <time>2022-09-02T13:56:40Z</time>
      </trkpt>
      <trkpt lat="43.08504" lon="1.92429">
        <ele>342</ele>
        <time>2022-09-02T13:56:46Z</time>
      </trkpt>
      <trkpt lat="43.08505" lon="1.92422">
        <ele>342</ele>
        <time>2022-09-02T13:56:47Z</time>
      </trkpt>
      <trkpt lat="43.08516" lon="1.92383">
        <ele>342.2</ele>
        <time>2022-09-02T13:56:53Z</time>
      </trkpt>
      <trkpt lat="43.08527" lon="1.92325">
        <ele>342.2</ele>
        <time>2022-09-02T13:57:02Z</time>
      </trkpt>
      <trkpt lat="43.08534" lon="1.92279">
        <ele>342.4</ele>
        <time>2022-09-02T13:57:09Z</time>
      </trkpt>
      <trkpt lat="43.0854" lon="1.92224">
        <ele>342.8</ele>
        <time>2022-09-02T13:57:17Z</time>
      </trkpt>
      <trkpt lat="43.08542" lon="1.92161">
        <ele>343</ele>
        <time>2022-09-02T13:57:26Z</time>
      </trkpt>
      <trkpt lat="43.08539" lon="1.92099">
        <ele>342.6</ele>
        <time>2022-09-02T13:57:35Z</time>
      </trkpt>
      <trkpt lat="43.08533" lon="1.92035">
        <ele>342.2</ele>
        <time>2022-09-02T13:57:44Z</time>
      </trkpt>
      <trkpt lat="43.08528" lon="1.91986">
        <ele>341.8</ele>
        <time>2022-09-02T13:57:51Z</time>
      </trkpt>
      <trkpt lat="43.08523" lon="1.91929">
        <ele>341.6</ele>
        <time>2022-09-02T13:57:59Z</time>
      </trkpt>
      <trkpt lat="43.08516" lon="1.91866">
        <ele>341.2</ele>
        <time>2022-09-02T13:58:08Z</time>
      </trkpt>
      <trkpt lat="43.08516" lon="1.91859">
        <ele>341.2</ele>
        <time>2022-09-02T13:58:09Z</time>
      </trkpt>
      <trkpt lat="43.08513" lon="1.91819">
        <ele>340.6</ele>
        <time>2022-09-02T13:58:15Z</time>
      </trkpt>
      <trkpt lat="43.08508" lon="1.91772">
        <ele>340.4</ele>
        <time>2022-09-02T13:58:22Z</time>
      </trkpt>
      <trkpt lat="43.08502" lon="1.91718">
        <ele>340.6</ele>
        <time>2022-09-02T13:58:30Z</time>
      </trkpt>
      <trkpt lat="43.085" lon="1.9171">
        <ele>340.6</ele>
        <time>2022-09-02T13:58:31Z</time>
      </trkpt>
      <trkpt lat="43.08498" lon="1.91689">
        <ele>340.2</ele>
        <time>2022-09-02T13:58:34Z</time>
      </trkpt>
      <trkpt lat="43.08497" lon="1.91682">
        <ele>340.2</ele>
        <time>2022-09-02T13:58:35Z</time>
      </trkpt>
      <trkpt lat="43.08494" lon="1.91641">
        <ele>339.6</ele>
        <time>2022-09-02T13:58:41Z</time>
      </trkpt>
      <trkpt lat="43.08493" lon="1.91635">
        <ele>339.6</ele>
        <time>2022-09-02T13:58:42Z</time>
      </trkpt>
      <trkpt lat="43.08491" lon="1.91613">
        <ele>339.8</ele>
        <time>2022-09-02T13:58:45Z</time>
      </trkpt>
      <trkpt lat="43.08489" lon="1.9157">
        <ele>339.2</ele>
        <time>2022-09-02T13:58:51Z</time>
      </trkpt>
      <trkpt lat="43.08485" lon="1.91526">
        <ele>339</ele>
        <time>2022-09-02T13:58:57Z</time>
      </trkpt>
      <trkpt lat="43.0848" lon="1.91474">
        <ele>339</ele>
        <time>2022-09-02T13:59:04Z</time>
      </trkpt>
      <trkpt lat="43.08473" lon="1.91406">
        <ele>338.4</ele>
        <time>2022-09-02T13:59:13Z</time>
      </trkpt>
      <trkpt lat="43.08464" lon="1.9134">
        <ele>338.2</ele>
        <time>2022-09-02T13:59:22Z</time>
      </trkpt>
      <trkpt lat="43.08463" lon="1.91333">
        <ele>338</ele>
        <time>2022-09-02T13:59:23Z</time>
      </trkpt>
      <trkpt lat="43.0845" lon="1.91268">
        <ele>337.4</ele>
        <time>2022-09-02T13:59:32Z</time>
      </trkpt>
      <trkpt lat="43.08436" lon="1.91211">
        <ele>336.8</ele>
        <time>2022-09-02T13:59:40Z</time>
      </trkpt>
      <trkpt lat="43.08425" lon="1.91166">
        <ele>336.6</ele>
        <time>2022-09-02T13:59:47Z</time>
      </trkpt>
      <trkpt lat="43.08411" lon="1.91122">
        <ele>336.6</ele>
        <time>2022-09-02T13:59:55Z</time>
      </trkpt>
      <trkpt lat="43.084" lon="1.91094">
        <ele>336.8</ele>
        <time>2022-09-02T14:00:01Z</time>
      </trkpt>
      <trkpt lat="43.08389" lon="1.91064">
        <ele>336.2</ele>
        <time>2022-09-02T14:00:06Z</time>
      </trkpt>
      <trkpt lat="43.08372" lon="1.91021">
        <ele>336</ele>
        <time>2022-09-02T14:00:13Z</time>
      </trkpt>
      <trkpt lat="43.08364" lon="1.90997">
        <ele>336</ele>
        <time>2022-09-02T14:00:17Z</time>
      </trkpt>
      <trkpt lat="43.08357" lon="1.9098">
        <ele>336</ele>
        <time>2022-09-02T14:00:20Z</time>
      </trkpt>
      <trkpt lat="43.08341" lon="1.90941">
        <ele>336.2</ele>
        <time>2022-09-02T14:00:27Z</time>
      </trkpt>
      <trkpt lat="43.08322" lon="1.90894">
        <ele>336.6</ele>
        <time>2022-09-02T14:00:36Z</time>
      </trkpt>
      <trkpt lat="43.08306" lon="1.90853">
        <ele>336.4</ele>
        <time>2022-09-02T14:00:44Z</time>
      </trkpt>
      <trkpt lat="43.08286" lon="1.90798">
        <ele>336.8</ele>
        <time>2022-09-02T14:00:54Z</time>
      </trkpt>
      <trkpt lat="43.08274" lon="1.90759">
        <ele>336.8</ele>
        <time>2022-09-02T14:01:01Z</time>
      </trkpt>
      <trkpt lat="43.08265" lon="1.90718">
        <ele>337</ele>
        <time>2022-09-02T14:01:08Z</time>
      </trkpt>
      <trkpt lat="43.08258" lon="1.90684">
        <ele>337</ele>
        <time>2022-09-02T14:01:14Z</time>
      </trkpt>
      <trkpt lat="43.08249" lon="1.90628">
        <ele>337</ele>
        <time>2022-09-02T14:01:23Z</time>
      </trkpt>
      <trkpt lat="43.08244" lon="1.90584">
        <ele>337.4</ele>
        <time>2022-09-02T14:01:31Z</time>
      </trkpt>
      <trkpt lat="43.08242" lon="1.90537">
        <ele>337.2</ele>
        <time>2022-09-02T14:01:39Z</time>
      </trkpt>
      <trkpt lat="43.08241" lon="1.90497">
        <ele>337.4</ele>
        <time>2022-09-02T14:01:46Z</time>
      </trkpt>
      <trkpt lat="43.08242" lon="1.90459">
        <ele>337.2</ele>
        <time>2022-09-02T14:01:53Z</time>
      </trkpt>
      <trkpt lat="43.08243" lon="1.9042">
        <ele>337.4</ele>
        <time>2022-09-02T14:02:00Z</time>
      </trkpt>
      <trkpt lat="43.08247" lon="1.90368">
        <ele>338.2</ele>
        <time>2022-09-02T14:02:09Z</time>
      </trkpt>
      <trkpt lat="43.08247" lon="1.90362">
        <ele>338.4</ele>
        <time>2022-09-02T14:02:10Z</time>
      </trkpt>
      <trkpt lat="43.08248" lon="1.90356">
        <ele>338.4</ele>
        <time>2022-09-02T14:02:11Z</time>
      </trkpt>
      <trkpt lat="43.08251" lon="1.9032">
        <ele>338</ele>
        <time>2022-09-02T14:02:17Z</time>
      </trkpt>
      <trkpt lat="43.08252" lon="1.90278">
        <ele>338</ele>
        <time>2022-09-02T14:02:24Z</time>
      </trkpt>
      <trkpt lat="43.08253" lon="1.90272">
        <ele>338</ele>
        <time>2022-09-02T14:02:25Z</time>
      </trkpt>
      <trkpt lat="43.08255" lon="1.90238">
        <ele>338</ele>
        <time>2022-09-02T14:02:31Z</time>
      </trkpt>
      <trkpt lat="43.08257" lon="1.90197">
        <ele>338</ele>
        <time>2022-09-02T14:02:38Z</time>
      </trkpt>
      <trkpt lat="43.0826" lon="1.90157">
        <ele>338</ele>
        <time>2022-09-02T14:02:45Z</time>
      </trkpt>
      <trkpt lat="43.0826" lon="1.90128">
        <ele>338.2</ele>
        <time>2022-09-02T14:02:50Z</time>
      </trkpt>
      <trkpt lat="43.08261" lon="1.90115">
        <ele>338.2</ele>
        <time>2022-09-02T14:02:52Z</time>
      </trkpt>
      <trkpt lat="43.08263" lon="1.90067">
        <ele>338.6</ele>
        <time>2022-09-02T14:03:00Z</time>
      </trkpt>
      <trkpt lat="43.08266" lon="1.90037">
        <ele>339.2</ele>
        <time>2022-09-02T14:03:05Z</time>
      </trkpt>
      <trkpt lat="43.08267" lon="1.90025">
        <ele>339.4</ele>
        <time>2022-09-02T14:03:07Z</time>
      </trkpt>
      <trkpt lat="43.08268" lon="1.89999">
        <ele>339.2</ele>
        <time>2022-09-02T14:03:13Z</time>
      </trkpt>
      <trkpt lat="43.08272" lon="1.89967">
        <ele>339.2</ele>
        <time>2022-09-02T14:03:20Z</time>
      </trkpt>
      <trkpt lat="43.08275" lon="1.89913">
        <ele>339.4</ele>
        <time>2022-09-02T14:03:30Z</time>
      </trkpt>
      <trkpt lat="43.08279" lon="1.89857">
        <ele>339.6</ele>
        <time>2022-09-02T14:03:40Z</time>
      </trkpt>
      <trkpt lat="43.0828" lon="1.89834">
        <ele>340</ele>
        <time>2022-09-02T14:03:44Z</time>
      </trkpt>
      <trkpt lat="43.08281" lon="1.89817">
        <ele>339.8</ele>
        <time>2022-09-02T14:03:47Z</time>
      </trkpt>
      <trkpt lat="43.08284" lon="1.89776">
        <ele>340.2</ele>
        <time>2022-09-02T14:03:54Z</time>
      </trkpt>
      <trkpt lat="43.08284" lon="1.89766">
        <ele>340.2</ele>
        <time>2022-09-02T14:03:56Z</time>
      </trkpt>
      <trkpt lat="43.08287" lon="1.89737">
        <ele>340.2</ele>
        <time>2022-09-02T14:04:01Z</time>
      </trkpt>
      <trkpt lat="43.08288" lon="1.89708">
        <ele>340.4</ele>
        <time>2022-09-02T14:04:06Z</time>
      </trkpt>
      <trkpt lat="43.0829" lon="1.89668">
        <ele>340.4</ele>
        <time>2022-09-02T14:04:13Z</time>
      </trkpt>
      <trkpt lat="43.08295" lon="1.8961">
        <ele>340.8</ele>
        <time>2022-09-02T14:04:23Z</time>
      </trkpt>
      <trkpt lat="43.08299" lon="1.89564">
        <ele>340.6</ele>
        <time>2022-09-02T14:04:31Z</time>
      </trkpt>
      <trkpt lat="43.08301" lon="1.89522">
        <ele>340.6</ele>
        <time>2022-09-02T14:04:39Z</time>
      </trkpt>
      <trkpt lat="43.08303" lon="1.89494">
        <ele>340.4</ele>
        <time>2022-09-02T14:04:44Z</time>
      </trkpt>
      <trkpt lat="43.08305" lon="1.89453">
        <ele>340.6</ele>
        <time>2022-09-02T14:04:51Z</time>
      </trkpt>
      <trkpt lat="43.08308" lon="1.89402">
        <ele>340.6</ele>
        <time>2022-09-02T14:05:00Z</time>
      </trkpt>
      <trkpt lat="43.08311" lon="1.89362">
        <ele>340.4</ele>
        <time>2022-09-02T14:05:07Z</time>
      </trkpt>
      <trkpt lat="43.08314" lon="1.89295">
        <ele>340</ele>
        <time>2022-09-02T14:05:18Z</time>
      </trkpt>
      <trkpt lat="43.08317" lon="1.89227">
        <ele>339.6</ele>
        <time>2022-09-02T14:05:28Z</time>
      </trkpt>
      <trkpt lat="43.08321" lon="1.89171">
        <ele>339.8</ele>
        <time>2022-09-02T14:05:36Z</time>
      </trkpt>
      <trkpt lat="43.08324" lon="1.89142">
        <ele>339.2</ele>
        <time>2022-09-02T14:05:41Z</time>
      </trkpt>
      <trkpt lat="43.08324" lon="1.89129">
        <ele>339.2</ele>
        <time>2022-09-02T14:05:43Z</time>
      </trkpt>
      <trkpt lat="43.08326" lon="1.89105">
        <ele>338.8</ele>
        <time>2022-09-02T14:05:47Z</time>
      </trkpt>
      <trkpt lat="43.08326" lon="1.89099">
        <ele>338.8</ele>
        <time>2022-09-02T14:05:48Z</time>
      </trkpt>
      <trkpt lat="43.08328" lon="1.89056">
        <ele>339.2</ele>
        <time>2022-09-02T14:05:55Z</time>
      </trkpt>
      <trkpt lat="43.08331" lon="1.89018">
        <ele>338.8</ele>
        <time>2022-09-02T14:06:01Z</time>
      </trkpt>
      <trkpt lat="43.08334" lon="1.88976">
        <ele>338.4</ele>
        <time>2022-09-02T14:06:09Z</time>
      </trkpt>
      <trkpt lat="43.08336" lon="1.88942">
        <ele>339</ele>
        <time>2022-09-02T14:06:15Z</time>
      </trkpt>
      <trkpt lat="43.08338" lon="1.88895">
        <ele>338.8</ele>
        <time>2022-09-02T14:06:22Z</time>
      </trkpt>
      <trkpt lat="43.08342" lon="1.88847">
        <ele>338</ele>
        <time>2022-09-02T14:06:29Z</time>
      </trkpt>
      <trkpt lat="43.08342" lon="1.88833">
        <ele>337.8</ele>
        <time>2022-09-02T14:06:31Z</time>
      </trkpt>
      <trkpt lat="43.08345" lon="1.88785">
        <ele>338</ele>
        <time>2022-09-02T14:06:38Z</time>
      </trkpt>
      <trkpt lat="43.08346" lon="1.88771">
        <ele>338</ele>
        <time>2022-09-02T14:06:40Z</time>
      </trkpt>
      <trkpt lat="43.08351" lon="1.88703">
        <ele>337.6</ele>
        <time>2022-09-02T14:06:50Z</time>
      </trkpt>
      <trkpt lat="43.08354" lon="1.88648">
        <ele>337.2</ele>
        <time>2022-09-02T14:06:58Z</time>
      </trkpt>
      <trkpt lat="43.08355" lon="1.88641">
        <ele>337</ele>
        <time>2022-09-02T14:06:59Z</time>
      </trkpt>
      <trkpt lat="43.08357" lon="1.88596">
        <ele>336.8</ele>
        <time>2022-09-02T14:07:06Z</time>
      </trkpt>
      <trkpt lat="43.0836" lon="1.88556">
        <ele>336.4</ele>
        <time>2022-09-02T14:07:12Z</time>
      </trkpt>
      <trkpt lat="43.08363" lon="1.88501">
        <ele>336.4</ele>
        <time>2022-09-02T14:07:20Z</time>
      </trkpt>
      <trkpt lat="43.08367" lon="1.88438">
        <ele>336.2</ele>
        <time>2022-09-02T14:07:29Z</time>
      </trkpt>
      <trkpt lat="43.08369" lon="1.88403">
        <ele>336</ele>
        <time>2022-09-02T14:07:34Z</time>
      </trkpt>
      <trkpt lat="43.08371" lon="1.88384">
        <ele>335.8</ele>
        <time>2022-09-02T14:07:37Z</time>
      </trkpt>
      <trkpt lat="43.08373" lon="1.88331">
        <ele>335.6</ele>
        <time>2022-09-02T14:07:45Z</time>
      </trkpt>
      <trkpt lat="43.08375" lon="1.88297">
        <ele>335.4</ele>
        <time>2022-09-02T14:07:50Z</time>
      </trkpt>
      <trkpt lat="43.08377" lon="1.88285">
        <ele>335.2</ele>
        <time>2022-09-02T14:07:52Z</time>
      </trkpt>
      <trkpt lat="43.08377" lon="1.88278">
        <ele>335.2</ele>
        <time>2022-09-02T14:07:53Z</time>
      </trkpt>
      <trkpt lat="43.08379" lon="1.88251">
        <ele>335.4</ele>
        <time>2022-09-02T14:07:57Z</time>
      </trkpt>
      <trkpt lat="43.0838" lon="1.8823">
        <ele>335</ele>
        <time>2022-09-02T14:08:00Z</time>
      </trkpt>
      <trkpt lat="43.08381" lon="1.88199">
        <ele>334.8</ele>
        <time>2022-09-02T14:08:05Z</time>
      </trkpt>
      <trkpt lat="43.08381" lon="1.88174">
        <ele>334.6</ele>
        <time>2022-09-02T14:08:10Z</time>
      </trkpt>
      <trkpt lat="43.08382" lon="1.88143">
        <ele>334.2</ele>
        <time>2022-09-02T14:08:16Z</time>
      </trkpt>
      <trkpt lat="43.08386" lon="1.88103">
        <ele>334.2</ele>
        <time>2022-09-02T14:08:23Z</time>
      </trkpt>
      <trkpt lat="43.08388" lon="1.88066">
        <ele>334</ele>
        <time>2022-09-02T14:08:30Z</time>
      </trkpt>
      <trkpt lat="43.08389" lon="1.8806">
        <ele>334</ele>
        <time>2022-09-02T14:08:31Z</time>
      </trkpt>
      <trkpt lat="43.08391" lon="1.88027">
        <ele>334</ele>
        <time>2022-09-02T14:08:37Z</time>
      </trkpt>
      <trkpt lat="43.08394" lon="1.87996">
        <ele>333.8</ele>
        <time>2022-09-02T14:08:42Z</time>
      </trkpt>
      <trkpt lat="43.08394" lon="1.8799">
        <ele>333.6</ele>
        <time>2022-09-02T14:08:43Z</time>
      </trkpt>
      <trkpt lat="43.08398" lon="1.87945">
        <ele>333.8</ele>
        <time>2022-09-02T14:08:50Z</time>
      </trkpt>
      <trkpt lat="43.084" lon="1.87911">
        <ele>333.2</ele>
        <time>2022-09-02T14:08:56Z</time>
      </trkpt>
      <trkpt lat="43.08405" lon="1.87867">
        <ele>333.2</ele>
        <time>2022-09-02T14:09:04Z</time>
      </trkpt>
      <trkpt lat="43.08408" lon="1.87831">
        <ele>333</ele>
        <time>2022-09-02T14:09:11Z</time>
      </trkpt>
      <trkpt lat="43.08409" lon="1.87814">
        <ele>333</ele>
        <time>2022-09-02T14:09:15Z</time>
      </trkpt>
      <trkpt lat="43.0841" lon="1.87809">
        <ele>333</ele>
        <time>2022-09-02T14:09:16Z</time>
      </trkpt>
      <trkpt lat="43.08413" lon="1.87781">
        <ele>333</ele>
        <time>2022-09-02T14:09:22Z</time>
      </trkpt>
      <trkpt lat="43.08417" lon="1.87753">
        <ele>333</ele>
        <time>2022-09-02T14:09:28Z</time>
      </trkpt>
      <trkpt lat="43.08421" lon="1.87734">
        <ele>333</ele>
        <time>2022-09-02T14:09:33Z</time>
      </trkpt>
      <trkpt lat="43.08423" lon="1.87733">
        <ele>333</ele>
        <time>2022-09-02T14:09:34Z</time>
      </trkpt>
      <trkpt lat="43.08431" lon="1.87735">
        <ele>333</ele>
        <time>2022-09-02T14:09:37Z</time>
      </trkpt>
      <trkpt lat="43.08434" lon="1.87735">
        <ele>333</ele>
        <time>2022-09-02T14:09:38Z</time>
      </trkpt>
      <trkpt lat="43.08455" lon="1.87728">
        <ele>333.4</ele>
        <time>2022-09-02T14:09:45Z</time>
      </trkpt>
      <trkpt lat="43.08458" lon="1.87713">
        <ele>333.8</ele>
        <time>2022-09-02T14:09:49Z</time>
      </trkpt>
      <trkpt lat="43.08457" lon="1.87674">
        <ele>333.6</ele>
        <time>2022-09-02T14:09:58Z</time>
      </trkpt>
      <trkpt lat="43.08456" lon="1.87645">
        <ele>333.6</ele>
        <time>2022-09-02T14:10:07Z</time>
      </trkpt>
      <trkpt lat="43.08461" lon="1.87626">
        <ele>333.6</ele>
        <time>2022-09-02T14:10:14Z</time>
      </trkpt>
      <trkpt lat="43.08472" lon="1.87623">
        <ele>333.4</ele>
        <time>2022-09-02T14:10:18Z</time>
      </trkpt>
      <trkpt lat="43.08489" lon="1.8762">
        <ele>333</ele>
        <time>2022-09-02T14:10:24Z</time>
      </trkpt>
      <trkpt lat="43.08505" lon="1.87616">
        <ele>333.2</ele>
        <time>2022-09-02T14:10:30Z</time>
      </trkpt>
      <trkpt lat="43.08518" lon="1.87608">
        <ele>333</ele>
        <time>2022-09-02T14:10:34Z</time>
      </trkpt>
      <trkpt lat="43.08522" lon="1.87608">
        <ele>333</ele>
        <time>2022-09-02T14:10:35Z</time>
      </trkpt>
      <trkpt lat="43.08554" lon="1.8761">
        <ele>333.2</ele>
        <time>2022-09-02T14:10:43Z</time>
      </trkpt>
      <trkpt lat="43.08592" lon="1.87609">
        <ele>332.6</ele>
        <time>2022-09-02T14:10:52Z</time>
      </trkpt>
      <trkpt lat="43.08621" lon="1.87611">
        <ele>332.6</ele>
        <time>2022-09-02T14:10:59Z</time>
      </trkpt>
      <trkpt lat="43.08649" lon="1.87612">
        <ele>332.4</ele>
        <time>2022-09-02T14:11:06Z</time>
      </trkpt>
      <trkpt lat="43.08679" lon="1.87613">
        <ele>332.8</ele>
        <time>2022-09-02T14:11:14Z</time>
      </trkpt>
      <trkpt lat="43.087" lon="1.87612">
        <ele>332.6</ele>
        <time>2022-09-02T14:11:20Z</time>
      </trkpt>
      <trkpt lat="43.08719" lon="1.87614">
        <ele>332.8</ele>
        <time>2022-09-02T14:11:26Z</time>
      </trkpt>
      <trkpt lat="43.08737" lon="1.87613">
        <ele>332.6</ele>
        <time>2022-09-02T14:11:31Z</time>
      </trkpt>
      <trkpt lat="43.08739" lon="1.87611">
        <ele>332.6</ele>
        <time>2022-09-02T14:11:32Z</time>
      </trkpt>
      <trkpt lat="43.08741" lon="1.87603">
        <ele>332.8</ele>
        <time>2022-09-02T14:11:34Z</time>
      </trkpt>
      <trkpt lat="43.08742" lon="1.87594">
        <ele>332.6</ele>
        <time>2022-09-02T14:11:36Z</time>
      </trkpt>
      <trkpt lat="43.08743" lon="1.87577">
        <ele>332.4</ele>
        <time>2022-09-02T14:11:40Z</time>
      </trkpt>
      <trkpt lat="43.08746" lon="1.87568">
        <ele>332.2</ele>
        <time>2022-09-02T14:11:42Z</time>
      </trkpt>
      <trkpt lat="43.08753" lon="1.87567">
        <ele>332</ele>
        <time>2022-09-02T14:11:44Z</time>
      </trkpt>
      <trkpt lat="43.0878" lon="1.87567">
        <ele>331.8</ele>
        <time>2022-09-02T14:11:52Z</time>
      </trkpt>
      <trkpt lat="43.0879" lon="1.87567">
        <ele>331.6</ele>
        <time>2022-09-02T14:11:55Z</time>
      </trkpt>
      <trkpt lat="43.08797" lon="1.87568">
        <ele>331.4</ele>
        <time>2022-09-02T14:11:57Z</time>
      </trkpt>
      <trkpt lat="43.08799" lon="1.87564">
        <ele>331.2</ele>
        <time>2022-09-02T14:11:59Z</time>
      </trkpt>
      <trkpt lat="43.088" lon="1.87562">
        <ele>331.2</ele>
        <time>2022-09-02T14:12:00Z</time>
      </trkpt>
      <trkpt lat="43.08803" lon="1.87555">
        <ele>331.4</ele>
        <time>2022-09-02T14:12:03Z</time>
      </trkpt>
      <trkpt lat="43.08801" lon="1.87533">
        <ele>331.2</ele>
        <time>2022-09-02T14:13:54Z</time>
      </trkpt>
      <trkpt lat="43.08799" lon="1.87522">
        <ele>331.4</ele>
        <time>2022-09-02T14:13:58Z</time>
      </trkpt>
      <trkpt lat="43.08797" lon="1.87512">
        <ele>331.4</ele>
        <time>2022-09-02T14:14:01Z</time>
      </trkpt>
      <trkpt lat="43.08797" lon="1.87496">
        <ele>331</ele>
        <time>2022-09-02T14:14:07Z</time>
      </trkpt>
      <trkpt lat="43.08803" lon="1.87491">
        <ele>331</ele>
        <time>2022-09-02T14:14:12Z</time>
      </trkpt>
      <trkpt lat="43.08816" lon="1.87492">
        <ele>331.2</ele>
        <time>2022-09-02T14:14:19Z</time>
      </trkpt>
      <trkpt lat="43.08832" lon="1.87489">
        <ele>331.2</ele>
        <time>2022-09-02T14:14:25Z</time>
      </trkpt>
      <trkpt lat="43.08844" lon="1.87491">
        <ele>331</ele>
        <time>2022-09-02T14:14:32Z</time>
      </trkpt>
      <trkpt lat="43.08846" lon="1.87494">
        <ele>331</ele>
        <time>2022-09-02T14:14:33Z</time>
      </trkpt>
      <trkpt lat="43.08851" lon="1.87502">
        <ele>331</ele>
        <time>2022-09-02T14:14:38Z</time>
      </trkpt>
    </trkseg>
  </trk>
</gpx>